Wetterdaten: Mittwoch, 07.06.2017
Datum Zeit Temp. A. Temp. A. max Feuchte A. Luftdruck Regen Wind Richtung Richtung Sonnenschein ET UV Solar Taupunkt Windchill Windböen
07.06.2017 00:00 7,7 °C 7,7 °C 84 % 1012,7 hPa 0,0 mm 1,5 km/h (1 Bft) SW 216 ° 0 min 0,000 mm 0,0 UV-I 0 W/m² 5,2 °C 7,7 °C 3,2 km/h (1 Bft)
07.06.2017 00:01 7,7 °C 7,7 °C 83 % 1012,7 hPa 0,0 mm 0,7 km/h (0 Bft) SW 216 ° 0 min 0,000 mm 0,0 UV-I 0 W/m² 5,0 °C 7,7 °C 1,6 km/h (1 Bft)
07.06.2017 00:02 7,8 °C 7,8 °C 83 % 1012,6 hPa 0,0 mm 0,3 km/h (0 Bft) SW 216 ° 0 min 0,000 mm 0,0 UV-I 0 W/m² 5,1 °C 7,8 °C 1,6 km/h (1 Bft)
07.06.2017 00:03 7,8 °C 7,9 °C 82 % 1012,7 hPa 0,0 mm 0,7 km/h (0 Bft) SW 216 ° 0 min 0,000 mm 0,0 UV-I 0 W/m² 4,9 °C 7,8 °C 3,2 km/h (1 Bft)
07.06.2017 00:04 7,8 °C 7,9 °C 82 % 1012,6 hPa 0,0 mm 0,2 km/h (0 Bft) SW 216 ° 0 min 0,000 mm 0,0 UV-I 0 W/m² 4,9 °C 7,8 °C 1,6 km/h (1 Bft)
07.06.2017 00:05 7,9 °C 7,9 °C 82 % 1012,6 hPa 0,0 mm 0,4 km/h (0 Bft) SW 216 ° 0 min 0,000 mm 0,0 UV-I 0 W/m² 5,0 °C 7,9 °C 1,6 km/h (1 Bft)
07.06.2017 00:06 7,9 °C 7,9 °C 82 % 1012,6 hPa 0,0 mm 0,0 km/h (0 Bft) SW 216 ° 0 min 0,000 mm 0,0 UV-I 0 W/m² 5,0 °C 7,9 °C 0,0 km/h (0 Bft)
07.06.2017 00:07 7,8 °C 7,9 °C 82 % 1012,6 hPa 0,0 mm 0,0 km/h (0 Bft) SW 216 ° 0 min 0,000 mm 0,0 UV-I 0 W/m² 4,9 °C 7,8 °C 0,0 km/h (0 Bft)
07.06.2017 00:08 7,8 °C 7,9 °C 84 % 1012,6 hPa 0,0 mm 0,0 km/h (0 Bft) SW 216 ° 0 min 0,000 mm 0,0 UV-I 0 W/m² 5,3 °C 7,8 °C 0,0 km/h (0 Bft)
07.06.2017 00:09 7,6 °C 7,8 °C 85 % 1012,6 hPa 0,0 mm 0,2 km/h (0 Bft) SW 216 ° 0 min 0,000 mm 0,0 UV-I 0 W/m² 5,2 °C 7,6 °C 1,6 km/h (1 Bft)
07.06.2017 00:10 7,5 °C 7,6 °C 85 % 1012,6 hPa 0,0 mm 0,4 km/h (0 Bft) SW 216 ° 0 min 0,000 mm 0,0 UV-I 0 W/m² 5,1 °C 7,5 °C 1,6 km/h (1 Bft)
07.06.2017 00:11 7,4 °C 7,5 °C 85 % 1012,7 hPa 0,0 mm 0,1 km/h (0 Bft) SW 216 ° 0 min 0,000 mm 0,0 UV-I 0 W/m² 5,0 °C 7,4 °C 1,6 km/h (1 Bft)
07.06.2017 00:12 7,4 °C 7,4 °C 84 % 1012,7 hPa 0,0 mm 0,0 km/h (0 Bft) SW 216 ° 0 min 0,000 mm 0,0 UV-I 0 W/m² 4,9 °C 7,4 °C 0,0 km/h (0 Bft)
07.06.2017 00:13 7,4 °C 7,4 °C 84 % 1012,7 hPa 0,0 mm 0,0 km/h (0 Bft) SW 216 ° 0 min 0,000 mm 0,0 UV-I 0 W/m² 4,9 °C 7,4 °C 0,0 km/h (0 Bft)
07.06.2017 00:14 7,5 °C 7,5 °C 84 % 1012,7 hPa 0,0 mm 0,0 km/h (0 Bft) SW 216 ° 0 min 0,000 mm 0,0 UV-I 0 W/m² 5,0 °C 7,5 °C 0,0 km/h (0 Bft)
07.06.2017 00:15 7,5 °C 7,5 °C 84 % 1012,7 hPa 0,0 mm 0,0 km/h (0 Bft) SW 216 ° 0 min 0,000 mm 0,0 UV-I 0 W/m² 5,0 °C 7,5 °C 0,0 km/h (0 Bft)
07.06.2017 00:16 7,5 °C 7,5 °C 84 % 1012,7 hPa 0,0 mm 0,0 km/h (0 Bft) SW 216 ° 0 min 0,000 mm 0,0 UV-I 0 W/m² 5,0 °C 7,5 °C 0,0 km/h (0 Bft)
07.06.2017 00:17 7,5 °C 7,5 °C 84 % 1012,7 hPa 0,0 mm 0,0 km/h (0 Bft) SW 216 ° 0 min 0,000 mm 0,0 UV-I 0 W/m² 5,0 °C 7,5 °C 0,0 km/h (0 Bft)
07.06.2017 00:18 7,5 °C 7,5 °C 84 % 1012,7 hPa 0,0 mm 0,0 km/h (0 Bft) SW 216 ° 0 min 0,000 mm 0,0 UV-I 0 W/m² 5,0 °C 7,5 °C 0,0 km/h (0 Bft)
07.06.2017 00:19 7,6 °C 7,6 °C 83 % 1012,7 hPa 0,0 mm 0,2 km/h (0 Bft) W-SW 243 ° 0 min 0,000 mm 0,0 UV-I 0 W/m² 4,9 °C 7,6 °C 3,2 km/h (1 Bft)
07.06.2017 00:20 7,4 °C 7,6 °C 84 % 1012,7 hPa 0,0 mm 2,4 km/h (1 Bft) W-SW 243 ° 0 min 0,000 mm 0,0 UV-I 0 W/m² 4,9 °C 7,4 °C 3,2 km/h (1 Bft)
07.06.2017 00:21 7,4 °C 7,5 °C 84 % 1012,7 hPa 0,0 mm 0,1 km/h (0 Bft) W-SW 243 ° 0 min 0,000 mm 0,0 UV-I 0 W/m² 4,9 °C 7,4 °C 1,6 km/h (1 Bft)
07.06.2017 00:22 7,3 °C 7,4 °C 84 % 1012,6 hPa 0,0 mm 0,1 km/h (0 Bft) W-SW 243 ° 0 min 0,000 mm 0,0 UV-I 0 W/m² 4,8 °C 7,3 °C 1,6 km/h (1 Bft)
07.06.2017 00:23 7,3 °C 7,3 °C 85 % 1012,6 hPa 0,0 mm 0,9 km/h (0 Bft) W-SW 243 ° 0 min 0,000 mm 0,0 UV-I 0 W/m² 4,9 °C 7,3 °C 3,2 km/h (1 Bft)
07.06.2017 00:24 7,2 °C 7,3 °C 85 % 1012,7 hPa 0,0 mm 0,5 km/h (0 Bft) W-SW 243 ° 0 min 0,000 mm 0,0 UV-I 0 W/m² 4,9 °C 7,2 °C 1,6 km/h (1 Bft)
07.06.2017 00:25 7,2 °C 7,3 °C 85 % 1012,7 hPa 0,0 mm 1,5 km/h (1 Bft) W-SW 252 ° 0 min 0,000 mm 0,0 UV-I 0 W/m² 4,9 °C 7,2 °C 3,2 km/h (1 Bft)
07.06.2017 00:26 7,2 °C 7,2 °C 85 % 1012,7 hPa 0,0 mm 2,5 km/h (1 Bft) W 275 ° 0 min 0,000 mm 0,0 UV-I 0 W/m² 4,9 °C 7,2 °C 6,4 km/h (2 Bft)
07.06.2017 00:27 7,1 °C 7,2 °C 86 % 1012,7 hPa 0,0 mm 0,5 km/h (0 Bft) W 275 ° 0 min 0,000 mm 0,0 UV-I 0 W/m² 4,9 °C 7,1 °C 1,6 km/h (1 Bft)
07.06.2017 00:28 6,9 °C 7,1 °C 86 % 1012,7 hPa 0,0 mm 0,1 km/h (0 Bft) W 275 ° 0 min 0,000 mm 0,0 UV-I 0 W/m² 4,7 °C 6,9 °C 1,6 km/h (1 Bft)
07.06.2017 00:29 6,9 °C 6,9 °C 88 % 1012,7 hPa 0,0 mm 0,0 km/h (0 Bft) W 275 ° 0 min 0,000 mm 0,0 UV-I 0 W/m² 5,1 °C 6,9 °C 0,0 km/h (0 Bft)
07.06.2017 00:30 6,8 °C 6,9 °C 89 % 1012,7 hPa 0,0 mm 0,0 km/h (0 Bft) W 275 ° 0 min 0,000 mm 0,0 UV-I 0 W/m² 5,1 °C 6,8 °C 0,0 km/h (0 Bft)
07.06.2017 00:31 6,6 °C 6,8 °C 89 % 1012,7 hPa 0,0 mm 0,0 km/h (0 Bft) W 275 ° 0 min 0,000 mm 0,0 UV-I 0 W/m² 4,9 °C 6,6 °C 0,0 km/h (0 Bft)
07.06.2017 00:32 6,4 °C 6,6 °C 89 % 1012,7 hPa 0,0 mm 0,0 km/h (0 Bft) W 275 ° 0 min 0,000 mm 0,0 UV-I 0 W/m² 4,7 °C 6,4 °C 0,0 km/h (0 Bft)
07.06.2017 00:33 6,3 °C 6,4 °C 89 % 1012,7 hPa 0,0 mm 0,0 km/h (0 Bft) W 275 ° 0 min 0,000 mm 0,0 UV-I 0 W/m² 4,6 °C 6,3 °C 0,0 km/h (0 Bft)
07.06.2017 00:34 6,2 °C 6,3 °C 89 % 1012,7 hPa 0,0 mm 0,0 km/h (0 Bft) W 275 ° 0 min 0,000 mm 0,0 UV-I 0 W/m² 4,5 °C 6,2 °C 0,0 km/h (0 Bft)
07.06.2017 00:35 6,1 °C 6,2 °C 90 % 1012,8 hPa 0,0 mm 0,0 km/h (0 Bft) W 275 ° 0 min 0,000 mm 0,0 UV-I 0 W/m² 4,6 °C 6,1 °C 0,0 km/h (0 Bft)
07.06.2017 00:36 6,0 °C 6,1 °C 90 % 1012,8 hPa 0,0 mm 0,0 km/h (0 Bft) W 275 ° 0 min 0,000 mm 0,0 UV-I 0 W/m² 4,5 °C 6,0 °C 0,0 km/h (0 Bft)
07.06.2017 00:37 6,0 °C 6,0 °C 91 % 1012,8 hPa 0,0 mm 0,0 km/h (0 Bft) W 275 ° 0 min 0,000 mm 0,0 UV-I 0 W/m² 4,6 °C 6,0 °C 0,0 km/h (0 Bft)
07.06.2017 00:38 6,1 °C 6,1 °C 91 % 1012,7 hPa 0,0 mm 0,0 km/h (0 Bft) W 275 ° 0 min 0,000 mm 0,0 UV-I 0 W/m² 4,7 °C 6,1 °C 0,0 km/h (0 Bft)
07.06.2017 00:39 6,1 °C 6,1 °C 91 % 1012,7 hPa 0,0 mm 0,0 km/h (0 Bft) W 275 ° 0 min 0,000 mm 0,0 UV-I 0 W/m² 4,7 °C 6,1 °C 0,0 km/h (0 Bft)
07.06.2017 00:40 6,2 °C 6,2 °C 90 % 1012,7 hPa 0,0 mm 0,0 km/h (0 Bft) W 275 ° 0 min 0,000 mm 0,0 UV-I 0 W/m² 4,7 °C 6,2 °C 0,0 km/h (0 Bft)
07.06.2017 00:41 6,3 °C 6,3 °C 89 % 1012,7 hPa 0,0 mm 0,0 km/h (0 Bft) W 275 ° 0 min 0,000 mm 0,0 UV-I 0 W/m² 4,6 °C 6,3 °C 0,0 km/h (0 Bft)
07.06.2017 00:42 6,5 °C 6,5 °C 88 % 1012,7 hPa 0,0 mm 0,6 km/h (0 Bft) W-SW 250 ° 0 min 0,000 mm 0,0 UV-I 0 W/m² 4,7 °C 6,5 °C 3,2 km/h (1 Bft)
07.06.2017 00:43 6,7 °C 6,7 °C 87 % 1012,7 hPa 0,0 mm 2,7 km/h (1 Bft) W 261 ° 0 min 0,000 mm 0,0 UV-I 0 W/m² 4,7 °C 6,7 °C 4,8 km/h (1 Bft)
07.06.2017 00:44 6,9 °C 6,9 °C 85 % 1012,8 hPa 0,0 mm 2,5 km/h (1 Bft) W 262 ° 0 min 0,000 mm 0,0 UV-I 0 W/m² 4,6 °C 6,9 °C 4,8 km/h (1 Bft)
07.06.2017 00:45 7,2 °C 7,2 °C 85 % 1012,8 hPa 0,0 mm 5,4 km/h (1 Bft) W-SW 253 ° 0 min 0,000 mm 0,0 UV-I 0 W/m² 4,9 °C 6,4 °C 9,7 km/h (2 Bft)
07.06.2017 00:46 7,3 °C 7,3 °C 84 % 1012,8 hPa 0,0 mm 4,8 km/h (1 Bft) W-SW 253 ° 0 min 0,000 mm 0,0 UV-I 0 W/m² 4,8 °C 6,8 °C 11,3 km/h (2 Bft)
07.06.2017 00:47 7,3 °C 7,3 °C 84 % 1012,8 hPa 0,0 mm 5,9 km/h (2 Bft) W-SW 251 ° 0 min 0,000 mm 0,0 UV-I 0 W/m² 4,8 °C 6,4 °C 11,3 km/h (2 Bft)
07.06.2017 00:48 7,4 °C 7,4 °C 83 % 1012,8 hPa 0,0 mm 11,7 km/h (2 Bft) SW 235 ° 0 min 0,000 mm 0,0 UV-I 0 W/m² 4,7 °C 5,2 °C 17,7 km/h (3 Bft)
07.06.2017 00:49 7,3 °C 7,4 °C 84 % 1012,8 hPa 0,0 mm 5,6 km/h (1 Bft) W 265 ° 0 min 0,000 mm 0,0 UV-I 0 W/m² 4,8 °C 6,5 °C 11,3 km/h (2 Bft)
07.06.2017 00:50 7,3 °C 7,4 °C 84 % 1012,8 hPa 0,0 mm 5,7 km/h (1 Bft) W-SW 257 ° 0 min 0,000 mm 0,0 UV-I 0 W/m² 4,8 °C 6,5 °C 9,7 km/h (2 Bft)
07.06.2017 00:51 7,3 °C 7,3 °C 83 % 1012,8 hPa 0,0 mm 5,8 km/h (2 Bft) W-SW 246 ° 0 min 0,000 mm 0,0 UV-I 0 W/m² 4,6 °C 6,4 °C 11,3 km/h (2 Bft)
07.06.2017 00:52 7,3 °C 7,3 °C 83 % 1012,8 hPa 0,0 mm 7,2 km/h (2 Bft) W 263 ° 0 min 0,000 mm 0,0 UV-I 0 W/m² 4,6 °C 6,0 °C 14,5 km/h (3 Bft)
07.06.2017 00:53 7,2 °C 7,3 °C 84 % 1012,8 hPa 0,0 mm 6,7 km/h (2 Bft) W 277 ° 0 min 0,000 mm 0,0 UV-I 0 W/m² 4,7 °C 6,1 °C 9,7 km/h (2 Bft)
07.06.2017 00:54 7,2 °C 7,3 °C 84 % 1012,8 hPa 0,0 mm 5,5 km/h (1 Bft) W-SW 247 ° 0 min 0,000 mm 0,0 UV-I 0 W/m² 4,7 °C 6,4 °C 9,7 km/h (2 Bft)
07.06.2017 00:55 7,2 °C 7,2 °C 84 % 1012,8 hPa 0,0 mm 3,3 km/h (1 Bft) W 278 ° 0 min 0,000 mm 0,0 UV-I 0 W/m² 4,7 °C 7,2 °C 4,8 km/h (1 Bft)
07.06.2017 00:56 7,2 °C 7,2 °C 85 % 1012,8 hPa 0,0 mm 3,5 km/h (1 Bft) W-NW 290 ° 0 min 0,000 mm 0,0 UV-I 0 W/m² 4,9 °C 7,2 °C 6,4 km/h (2 Bft)
07.06.2017 00:57 7,2 °C 7,2 °C 85 % 1012,8 hPa 0,0 mm 4,5 km/h (1 Bft) W-NW 298 ° 0 min 0,000 mm 0,0 UV-I 0 W/m² 4,9 °C 7,2 °C 6,4 km/h (2 Bft)
07.06.2017 00:58 7,2 °C 7,2 °C 84 % 1012,8 hPa 0,0 mm 3,7 km/h (1 Bft) W-NW 298 ° 0 min 0,000 mm 0,0 UV-I 0 W/m² 4,7 °C 7,2 °C 6,4 km/h (2 Bft)
07.06.2017 00:59 7,2 °C 7,2 °C 85 % 1012,8 hPa 0,0 mm 5,2 km/h (1 Bft) W 261 ° 0 min 0,000 mm 0,0 UV-I 0 W/m² 4,9 °C 6,5 °C 8,0 km/h (2 Bft)
07.06.2017 01:00 7,1 °C 7,2 °C 85 % 1012,9 hPa 0,0 mm 4,8 km/h (1 Bft) W 269 ° 0 min 0,000 mm 0,0 UV-I 0 W/m² 4,8 °C 6,5 °C 6,4 km/h (2 Bft)
07.06.2017 01:01 7,1 °C 7,1 °C 85 % 1012,9 hPa 0,0 mm 5,5 km/h (1 Bft) W-SW 251 ° 0 min 0,000 mm 0,0 UV-I 0 W/m² 4,8 °C 6,3 °C 6,4 km/h (2 Bft)
07.06.2017 01:02 7,0 °C 7,1 °C 85 % 1013,0 hPa 0,0 mm 5,2 km/h (1 Bft) W 278 ° 0 min 0,000 mm 0,0 UV-I 0 W/m² 4,7 °C 6,3 °C 6,4 km/h (2 Bft)
07.06.2017 01:03 7,0 °C 7,1 °C 85 % 1013,2 hPa 0,0 mm 6,0 km/h (2 Bft) W-SW 254 ° 0 min 0,000 mm 0,0 UV-I 0 W/m² 4,7 °C 6,0 °C 9,7 km/h (2 Bft)
07.06.2017 01:04 7,0 °C 7,0 °C 85 % 1013,2 hPa 0,0 mm 6,6 km/h (2 Bft) W-SW 257 ° 0 min 0,000 mm 0,0 UV-I 0 W/m² 4,7 °C 5,8 °C 11,3 km/h (2 Bft)
07.06.2017 01:05 7,0 °C 7,0 °C 85 % 1013,2 hPa 0,0 mm 6,4 km/h (2 Bft) W-SW 251 ° 0 min 0,000 mm 0,0 UV-I 0 W/m² 4,7 °C 5,9 °C 11,3 km/h (2 Bft)
07.06.2017 01:06 7,1 °C 7,1 °C 85 % 1013,2 hPa 0,0 mm 3,3 km/h (1 Bft) W 265 ° 0 min 0,000 mm 0,0 UV-I 0 W/m² 4,8 °C 7,1 °C 6,4 km/h (2 Bft)
07.06.2017 01:07 7,1 °C 7,1 °C 85 % 1013,3 hPa 0,0 mm 2,0 km/h (1 Bft) W 265 ° 0 min 0,000 mm 0,0 UV-I 0 W/m² 4,8 °C 7,1 °C 3,2 km/h (1 Bft)
07.06.2017 01:08 7,1 °C 7,1 °C 85 % 1013,4 hPa 0,0 mm 2,3 km/h (1 Bft) W 265 ° 0 min 0,000 mm 0,0 UV-I 0 W/m² 4,8 °C 7,1 °C 3,2 km/h (1 Bft)
07.06.2017 01:09 7,1 °C 7,1 °C 85 % 1013,4 hPa 0,0 mm 1,7 km/h (1 Bft) W 262 ° 0 min 0,000 mm 0,0 UV-I 0 W/m² 4,8 °C 7,1 °C 3,2 km/h (1 Bft)
07.06.2017 01:10 7,1 °C 7,1 °C 85 % 1013,4 hPa 0,0 mm 3,0 km/h (1 Bft) NW 314 ° 0 min 0,000 mm 0,0 UV-I 0 W/m² 4,8 °C 7,1 °C 4,8 km/h (1 Bft)
07.06.2017 01:11 7,1 °C 7,2 °C 85 % 1013,4 hPa 0,0 mm 1,7 km/h (1 Bft) SW 218 ° 0 min 0,000 mm 0,0 UV-I 0 W/m² 4,8 °C 7,1 °C 4,8 km/h (1 Bft)
07.06.2017 01:12 7,1 °C 7,1 °C 85 % 1013,4 hPa 0,0 mm 3,5 km/h (1 Bft) W-SW 248 ° 0 min 0,000 mm 0,0 UV-I 0 W/m² 4,8 °C 7,1 °C 6,4 km/h (2 Bft)
07.06.2017 01:13 7,1 °C 7,1 °C 85 % 1013,4 hPa 0,0 mm 5,8 km/h (2 Bft) S-SW 200 ° 0 min 0,000 mm 0,0 UV-I 0 W/m² 4,8 °C 6,2 °C 11,3 km/h (2 Bft)
07.06.2017 01:14 7,1 °C 7,1 °C 85 % 1013,4 hPa 0,0 mm 2,7 km/h (1 Bft) S 177 ° 0 min 0,000 mm 0,0 UV-I 0 W/m² 4,8 °C 7,1 °C 3,2 km/h (1 Bft)
07.06.2017 01:15 7,2 °C 7,2 °C 85 % 1013,4 hPa 0,0 mm 2,8 km/h (1 Bft) SW 221 ° 0 min 0,000 mm 0,0 UV-I 0 W/m² 4,9 °C 7,2 °C 6,4 km/h (2 Bft)
07.06.2017 01:16 7,2 °C 7,2 °C 85 % 1013,5 hPa 0,0 mm 4,7 km/h (1 Bft) W-SW 254 ° 0 min 0,000 mm 0,0 UV-I 0 W/m² 4,9 °C 6,7 °C 6,4 km/h (2 Bft)
07.06.2017 01:17 7,3 °C 7,3 °C 84 % 1013,5 hPa 0,0 mm 3,7 km/h (1 Bft) W-SW 238 ° 0 min 0,000 mm 0,0 UV-I 0 W/m² 4,8 °C 7,3 °C 6,4 km/h (2 Bft)
07.06.2017 01:18 7,4 °C 7,4 °C 84 % 1013,5 hPa 0,0 mm 8,6 km/h (2 Bft) W-SW 241 ° 0 min 0,000 mm 0,0 UV-I 0 W/m² 4,9 °C 5,8 °C 16,1 km/h (3 Bft)
07.06.2017 01:19 7,4 °C 7,5 °C 84 % 1013,5 hPa 0,0 mm 4,3 km/h (1 Bft) W-SW 251 ° 0 min 0,000 mm 0,0 UV-I 0 W/m² 4,9 °C 7,4 °C 6,4 km/h (2 Bft)
07.06.2017 01:20 7,6 °C 7,6 °C 84 % 1013,5 hPa 0,0 mm 7,4 km/h (2 Bft) W-SW 247 ° 0 min 0,000 mm 0,0 UV-I 0 W/m² 5,1 °C 6,3 °C 16,1 km/h (3 Bft)
07.06.2017 01:21 7,6 °C 7,6 °C 84 % 1013,5 hPa 0,0 mm 4,2 km/h (1 Bft) W-SW 247 ° 0 min 0,000 mm 0,0 UV-I 0 W/m² 5,1 °C 7,6 °C 9,7 km/h (2 Bft)
07.06.2017 01:22 7,7 °C 7,7 °C 83 % 1013,6 hPa 0,0 mm 3,8 km/h (1 Bft) W 281 ° 0 min 0,000 mm 0,0 UV-I 0 W/m² 5,0 °C 7,7 °C 9,7 km/h (2 Bft)
07.06.2017 01:23 7,8 °C 7,8 °C 83 % 1013,6 hPa 0,0 mm 8,2 km/h (2 Bft) W-SW 240 ° 0 min 0,000 mm 0,0 UV-I 0 W/m² 5,1 °C 6,4 °C 12,9 km/h (3 Bft)
07.06.2017 01:24 7,8 °C 7,8 °C 83 % 1013,6 hPa 0,0 mm 8,6 km/h (2 Bft) W-NW 286 ° 0 min 0,000 mm 0,0 UV-I 0 W/m² 5,1 °C 6,3 °C 19,3 km/h (3 Bft)
07.06.2017 01:25 7,8 °C 7,8 °C 83 % 1013,6 hPa 0,0 mm 9,8 km/h (2 Bft) W-SW 254 ° 0 min 0,000 mm 0,0 UV-I 0 W/m² 5,1 °C 6,0 °C 17,7 km/h (3 Bft)
07.06.2017 01:26 7,9 °C 7,9 °C 83 % 1013,7 hPa 0,0 mm 8,3 km/h (2 Bft) W-SW 238 ° 0 min 0,000 mm 0,0 UV-I 0 W/m² 5,2 °C 6,5 °C 12,9 km/h (3 Bft)
07.06.2017 01:27 7,9 °C 7,9 °C 83 % 1013,7 hPa 0,0 mm 8,2 km/h (2 Bft) W-SW 252 ° 0 min 0,000 mm 0,0 UV-I 0 W/m² 5,2 °C 6,5 °C 16,1 km/h (3 Bft)
07.06.2017 01:28 7,9 °C 7,9 °C 84 % 1013,7 hPa 0,0 mm 5,3 km/h (1 Bft) W-SW 254 ° 0 min 0,000 mm 0,0 UV-I 0 W/m² 5,4 °C 7,3 °C 14,5 km/h (3 Bft)
07.06.2017 01:29 7,9 °C 7,9 °C 84 % 1013,8 hPa 0,0 mm 9,7 km/h (2 Bft) W-SW 243 ° 0 min 0,000 mm 0,0 UV-I 0 W/m² 5,4 °C 6,2 °C 17,7 km/h (3 Bft)
07.06.2017 01:30 7,9 °C 7,9 °C 84 % 1013,8 hPa 0,0 mm 7,7 km/h (2 Bft) W-NW 285 ° 0 min 0,000 mm 0,0 UV-I 0 W/m² 5,4 °C 6,6 °C 12,9 km/h (3 Bft)
07.06.2017 01:31 7,9 °C 7,9 °C 85 % 1013,9 hPa 0,0 mm 10,1 km/h (2 Bft) W 263 ° 0 min 0,000 mm 0,0 UV-I 0 W/m² 5,5 °C 6,1 °C 16,1 km/h (3 Bft)
07.06.2017 01:32 7,9 °C 7,9 °C 85 % 1013,9 hPa 0,0 mm 13,3 km/h (3 Bft) W 281 ° 0 min 0,000 mm 0,0 UV-I 0 W/m² 5,5 °C 5,6 °C 20,9 km/h (4 Bft)
07.06.2017 01:33 7,8 °C 7,9 °C 85 % 1013,9 hPa 0,0 mm 10,1 km/h (2 Bft) W 265 ° 0 min 0,000 mm 0,0 UV-I 0 W/m² 5,4 °C 6,0 °C 17,7 km/h (3 Bft)
07.06.2017 01:34 7,8 °C 7,8 °C 86 % 1013,9 hPa 0,0 mm 14,2 km/h (3 Bft) W-SW 241 ° 0 min 0,000 mm 0,0 UV-I 0 W/m² 5,6 °C 5,3 °C 22,5 km/h (4 Bft)
07.06.2017 01:35 7,8 °C 7,8 °C 86 % 1013,9 hPa 0,0 mm 14,3 km/h (3 Bft) W 266 ° 0 min 0,000 mm 0,0 UV-I 0 W/m² 5,6 °C 5,3 °C 19,3 km/h (3 Bft)
07.06.2017 01:36 7,8 °C 7,8 °C 87 % 1013,9 hPa 0,0 mm 8,7 km/h (2 Bft) W-SW 246 ° 0 min 0,000 mm 0,0 UV-I 0 W/m² 5,8 °C 6,3 °C 16,1 km/h (3 Bft)
07.06.2017 01:37 7,8 °C 7,8 °C 87 % 1013,7 hPa 0,0 mm 13,7 km/h (3 Bft) W 279 ° 0 min 0,000 mm 0,0 UV-I 0 W/m² 5,8 °C 5,4 °C 19,3 km/h (3 Bft)
07.06.2017 01:38 7,8 °C 7,8 °C 87 % 1013,8 hPa 0,0 mm 12,9 km/h (3 Bft) W-SW 238 ° 0 min 0,000 mm 0,0 UV-I 0 W/m² 5,8 °C 5,5 °C 20,9 km/h (4 Bft)
07.06.2017 01:39 7,8 °C 7,8 °C 88 % 1013,8 hPa 0,0 mm 10,8 km/h (2 Bft) W-SW 257 ° 0 min 0,000 mm 0,0 UV-I 0 W/m² 5,9 °C 5,9 °C 16,1 km/h (3 Bft)
07.06.2017 01:40 7,8 °C 7,8 °C 88 % 1013,8 hPa 0,0 mm 5,4 km/h (1 Bft) W-NW 284 ° 0 min 0,000 mm 0,0 UV-I 0 W/m² 5,9 °C 7,1 °C 11,3 km/h (2 Bft)
07.06.2017 01:41 7,7 °C 7,8 °C 88 % 1013,7 hPa 0,0 mm 14,2 km/h (3 Bft) NW 306 ° 0 min 0,000 mm 0,0 UV-I 0 W/m² 5,8 °C 5,2 °C 24,1 km/h (4 Bft)
07.06.2017 01:42 7,7 °C 7,8 °C 88 % 1013,7 hPa 0,0 mm 15,1 km/h (3 Bft) W-SW 254 ° 0 min 0,000 mm 0,0 UV-I 0 W/m² 5,8 °C 5,1 °C 20,9 km/h (4 Bft)
07.06.2017 01:43 7,7 °C 7,7 °C 88 % 1013,7 hPa 0,0 mm 11,3 km/h (2 Bft) W 267 ° 0 min 0,000 mm 0,0 UV-I 0 W/m² 5,8 °C 5,6 °C 14,5 km/h (3 Bft)
07.06.2017 01:44 7,7 °C 7,7 °C 89 % 1013,8 hPa 0,0 mm 11,2 km/h (2 Bft) NW 307 ° 0 min 0,000 mm 0,0 UV-I 0 W/m² 6,0 °C 5,7 °C 14,5 km/h (3 Bft)
07.06.2017 01:45 7,7 °C 7,7 °C 89 % 1013,8 hPa 0,0 mm 10,4 km/h (2 Bft) W-SW 257 ° 0 min 0,000 mm 0,0 UV-I 0 W/m² 6,0 °C 5,8 °C 20,9 km/h (4 Bft)
07.06.2017 01:46 7,7 °C 7,7 °C 89 % 1013,7 hPa 0,0 mm 11,9 km/h (2 Bft) W 266 ° 0 min 0,000 mm 0,0 UV-I 0 W/m² 6,0 °C 5,5 °C 16,1 km/h (3 Bft)
07.06.2017 01:47 7,6 °C 7,7 °C 89 % 1013,7 hPa 0,0 mm 9,0 km/h (2 Bft) W 265 ° 0 min 0,000 mm 0,0 UV-I 0 W/m² 5,9 °C 6,0 °C 12,9 km/h (3 Bft)
07.06.2017 01:48 7,6 °C 7,7 °C 89 % 1013,7 hPa 0,0 mm 10,3 km/h (2 Bft) W 265 ° 0 min 0,000 mm 0,0 UV-I 0 W/m² 5,9 °C 5,7 °C 14,5 km/h (3 Bft)
07.06.2017 01:49 7,6 °C 7,6 °C 89 % 1013,7 hPa 0,0 mm 7,1 km/h (2 Bft) W-NW 301 ° 0 min 0,000 mm 0,0 UV-I 0 W/m² 5,9 °C 6,4 °C 12,9 km/h (3 Bft)
07.06.2017 01:50 7,6 °C 7,6 °C 89 % 1013,7 hPa 0,0 mm 9,6 km/h (2 Bft) W 273 ° 0 min 0,000 mm 0,0 UV-I 0 W/m² 5,9 °C 5,8 °C 12,9 km/h (3 Bft)
07.06.2017 01:51 7,6 °C 7,6 °C 89 % 1013,6 hPa 0,0 mm 7,2 km/h (2 Bft) NW 306 ° 0 min 0,000 mm 0,0 UV-I 0 W/m² 5,9 °C 6,4 °C 14,5 km/h (3 Bft)
07.06.2017 01:52 7,5 °C 7,6 °C 90 % 1013,6 hPa 0,0 mm 5,9 km/h (2 Bft) W 267 ° 0 min 0,000 mm 0,0 UV-I 0 W/m² 6,0 °C 6,6 °C 6,4 km/h (2 Bft)
07.06.2017 01:53 7,5 °C 7,5 °C 90 % 1013,6 hPa 0,0 mm 6,6 km/h (2 Bft) W-NW 300 ° 0 min 0,000 mm 0,0 UV-I 0 W/m² 6,0 °C 6,4 °C 12,9 km/h (3 Bft)
07.06.2017 01:54 7,4 °C 7,5 °C 90 % 1013,6 hPa 0,0 mm 3,9 km/h (1 Bft) W-SW 252 ° 0 min 0,000 mm 0,0 UV-I 0 W/m² 5,9 °C 7,4 °C 6,4 km/h (2 Bft)
07.06.2017 01:55 7,4 °C 7,4 °C 90 % 1013,6 hPa 0,0 mm 2,6 km/h (1 Bft) W-NW 290 ° 0 min 0,000 mm 0,0 UV-I 0 W/m² 5,9 °C 7,4 °C 4,8 km/h (1 Bft)
07.06.2017 01:56 7,4 °C 7,4 °C 90 % 1013,6 hPa 0,0 mm 4,2 km/h (1 Bft) W 274 ° 0 min 0,000 mm 0,0 UV-I 0 W/m² 5,9 °C 7,4 °C 6,4 km/h (2 Bft)
07.06.2017 01:57 7,4 °C 7,4 °C 90 % 1013,6 hPa 0,0 mm 8,5 km/h (2 Bft) W 276 ° 0 min 0,000 mm 0,0 UV-I 0 W/m² 5,9 °C 5,8 °C 12,9 km/h (3 Bft)
07.06.2017 01:58 7,3 °C 7,4 °C 90 % 1013,6 hPa 0,0 mm 3,9 km/h (1 Bft) W-SW 256 ° 0 min 0,000 mm 0,0 UV-I 0 W/m² 5,8 °C 7,3 °C 4,8 km/h (1 Bft)
07.06.2017 01:59 7,3 °C 7,3 °C 90 % 1013,6 hPa 0,0 mm 3,6 km/h (1 Bft) W-SW 254 ° 0 min 0,000 mm 0,0 UV-I 0 W/m² 5,8 °C 7,3 °C 6,4 km/h (2 Bft)
07.06.2017 02:00 7,3 °C 7,3 °C 90 % 1013,5 hPa 0,0 mm 1,4 km/h (1 Bft) W-SW 246 ° 0 min 0,000 mm 0,0 UV-I 0 W/m² 5,8 °C 7,3 °C 4,8 km/h (1 Bft)
07.06.2017 02:01 7,3 °C 7,3 °C 90 % 1013,6 hPa 0,0 mm 3,6 km/h (1 Bft) W-SW 252 ° 0 min 0,025 mm 0,0 UV-I 0 W/m² 5,8 °C 7,3 °C 6,4 km/h (2 Bft)
07.06.2017 02:02 7,2 °C 7,3 °C 91 % 1013,5 hPa 0,0 mm 2,0 km/h (1 Bft) W-SW 252 ° 0 min 0,000 mm 0,0 UV-I 0 W/m² 5,8 °C 7,2 °C 3,2 km/h (1 Bft)
07.06.2017 02:03 7,3 °C 7,3 °C 90 % 1013,5 hPa 0,0 mm 1,1 km/h (1 Bft) W-SW 252 ° 0 min 0,000 mm 0,0 UV-I 0 W/m² 5,8 °C 7,3 °C 1,6 km/h (1 Bft)
07.06.2017 02:04 7,3 °C 7,3 °C 90 % 1013,4 hPa 0,0 mm 0,9 km/h (0 Bft) W-SW 251 ° 0 min 0,000 mm 0,0 UV-I 0 W/m² 5,8 °C 7,3 °C 1,6 km/h (1 Bft)
07.06.2017 02:05 7,2 °C 7,3 °C 91 % 1013,4 hPa 0,0 mm 0,3 km/h (0 Bft) W-SW 251 ° 0 min 0,000 mm 0,0 UV-I 0 W/m² 5,8 °C 7,2 °C 1,6 km/h (1 Bft)
07.06.2017 02:06 7,2 °C 7,2 °C 90 % 1013,4 hPa 0,0 mm 0,0 km/h (0 Bft) W-SW 251 ° 0 min 0,000 mm 0,0 UV-I 0 W/m² 5,7 °C 7,2 °C 0,0 km/h (0 Bft)
07.06.2017 02:07 7,2 °C 7,2 °C 91 % 1013,4 hPa 0,0 mm 0,0 km/h (0 Bft) W-SW 252 ° 0 min 0,000 mm 0,0 UV-I 0 W/m² 5,8 °C 7,2 °C 0,0 km/h (0 Bft)
07.06.2017 02:08 7,2 °C 7,2 °C 90 % 1013,4 hPa 0,0 mm 0,6 km/h (0 Bft) W-SW 252 ° 0 min 0,000 mm 0,0 UV-I 0 W/m² 5,7 °C 7,2 °C 3,2 km/h (1 Bft)
07.06.2017 02:09 7,2 °C 7,2 °C 90 % 1013,4 hPa 0,0 mm 2,2 km/h (1 Bft) W-SW 252 ° 0 min 0,000 mm 0,0 UV-I 0 W/m² 5,7 °C 7,2 °C 3,2 km/h (1 Bft)
07.06.2017 02:10 7,2 °C 7,2 °C 91 % 1013,4 hPa 0,0 mm 0,6 km/h (0 Bft) W-SW 252 ° 0 min 0,000 mm 0,0 UV-I 0 W/m² 5,8 °C 7,2 °C 1,6 km/h (1 Bft)
07.06.2017 02:11 7,1 °C 7,2 °C 91 % 1013,5 hPa 0,0 mm 2,1 km/h (1 Bft) W-SW 252 ° 0 min 0,000 mm 0,0 UV-I 0 W/m² 5,7 °C 7,1 °C 3,2 km/h (1 Bft)
07.06.2017 02:12 7,1 °C 7,1 °C 91 % 1013,4 hPa 0,0 mm 0,1 km/h (0 Bft) W-SW 252 ° 0 min 0,000 mm 0,0 UV-I 0 W/m² 5,7 °C 7,1 °C 1,6 km/h (1 Bft)
07.06.2017 02:13 7,0 °C 7,1 °C 91 % 1013,4 hPa 0,0 mm 0,1 km/h (0 Bft) W-SW 252 ° 0 min 0,000 mm 0,0 UV-I 0 W/m² 5,6 °C 7,0 °C 1,6 km/h (1 Bft)
07.06.2017 02:14 7,0 °C 7,0 °C 91 % 1013,5 hPa 0,0 mm 1,1 km/h (1 Bft) W-SW 252 ° 0 min 0,000 mm 0,0 UV-I 0 W/m² 5,6 °C 7,0 °C 3,2 km/h (1 Bft)
07.06.2017 02:15 6,9 °C 7,0 °C 91 % 1013,5 hPa 0,0 mm 0,4 km/h (0 Bft) W-SW 252 ° 0 min 0,000 mm 0,0 UV-I 0 W/m² 5,5 °C 6,9 °C 1,6 km/h (1 Bft)
07.06.2017 02:16 6,9 °C 6,9 °C 91 % 1013,5 hPa 0,0 mm 0,4 km/h (0 Bft) W-SW 252 ° 0 min 0,000 mm 0,0 UV-I 0 W/m² 5,5 °C 6,9 °C 1,6 km/h (1 Bft)
07.06.2017 02:17 6,9 °C 6,9 °C 91 % 1013,5 hPa 0,0 mm 0,0 km/h (0 Bft) W-SW 252 ° 0 min 0,000 mm 0,0 UV-I 0 W/m² 5,5 °C 6,9 °C 0,0 km/h (0 Bft)
07.06.2017 02:18 6,9 °C 6,9 °C 91 % 1013,5 hPa 0,0 mm 0,0 km/h (0 Bft) W-SW 252 ° 0 min 0,000 mm 0,0 UV-I 0 W/m² 5,5 °C 6,9 °C 0,0 km/h (0 Bft)
07.06.2017 02:19 6,9 °C 6,9 °C 91 % 1013,5 hPa 0,0 mm 0,0 km/h (0 Bft) W-SW 252 ° 0 min 0,000 mm 0,0 UV-I 0 W/m² 5,5 °C 6,9 °C 0,0 km/h (0 Bft)
07.06.2017 02:20 6,9 °C 6,9 °C 91 % 1013,6 hPa 0,0 mm 0,8 km/h (0 Bft) W-SW 251 ° 0 min 0,000 mm 0,0 UV-I 0 W/m² 5,5 °C 6,9 °C 3,2 km/h (1 Bft)
07.06.2017 02:21 7,0 °C 7,0 °C 90 % 1013,6 hPa 0,0 mm 0,7 km/h (0 Bft) W-SW 251 ° 0 min 0,000 mm 0,0 UV-I 0 W/m² 5,5 °C 7,0 °C 3,2 km/h (1 Bft)
07.06.2017 02:22 7,1 °C 7,1 °C 90 % 1013,6 hPa 0,0 mm 1,1 km/h (1 Bft) W-SW 251 ° 0 min 0,000 mm 0,0 UV-I 0 W/m² 5,6 °C 7,1 °C 3,2 km/h (1 Bft)
07.06.2017 02:23 7,2 °C 7,2 °C 90 % 1013,6 hPa 0,0 mm 0,1 km/h (0 Bft) W-SW 251 ° 0 min 0,000 mm 0,0 UV-I 0 W/m² 5,7 °C 7,2 °C 1,6 km/h (1 Bft)
07.06.2017 02:24 7,2 °C 7,2 °C 90 % 1013,6 hPa 0,0 mm 1,8 km/h (1 Bft) W-SW 252 ° 0 min 0,000 mm 0,0 UV-I 0 W/m² 5,7 °C 7,2 °C 4,8 km/h (1 Bft)
07.06.2017 02:25 7,2 °C 7,2 °C 89 % 1013,7 hPa 0,0 mm 0,1 km/h (0 Bft) W-SW 252 ° 0 min 0,000 mm 0,0 UV-I 0 W/m² 5,5 °C 7,2 °C 1,6 km/h (1 Bft)
07.06.2017 02:26 7,3 °C 7,3 °C 90 % 1013,7 hPa 0,0 mm 0,2 km/h (0 Bft) W-SW 252 ° 0 min 0,000 mm 0,0 UV-I 0 W/m² 5,8 °C 7,3 °C 1,6 km/h (1 Bft)
07.06.2017 02:27 7,3 °C 7,3 °C 89 % 1013,6 hPa 0,0 mm 0,0 km/h (0 Bft) W-SW 252 ° 0 min 0,000 mm 0,0 UV-I 0 W/m² 5,6 °C 7,3 °C 0,0 km/h (0 Bft)
07.06.2017 02:28 7,3 °C 7,3 °C 89 % 1013,6 hPa 0,0 mm 0,0 km/h (0 Bft) W-SW 252 ° 0 min 0,000 mm 0,0 UV-I 0 W/m² 5,6 °C 7,3 °C 0,0 km/h (0 Bft)
07.06.2017 02:29 7,2 °C 7,3 °C 90 % 1013,6 hPa 0,0 mm 0,0 km/h (0 Bft) W-SW 252 ° 0 min 0,000 mm 0,0 UV-I 0 W/m² 5,7 °C 7,2 °C 0,0 km/h (0 Bft)
07.06.2017 02:30 7,2 °C 7,3 °C 90 % 1013,6 hPa 0,0 mm 0,1 km/h (0 Bft) W-SW 252 ° 0 min 0,000 mm 0,0 UV-I 0 W/m² 5,7 °C 7,2 °C 1,6 km/h (1 Bft)
07.06.2017 02:31 7,2 °C 7,2 °C 91 % 1013,6 hPa 0,0 mm 0,0 km/h (0 Bft) W-SW 252 ° 0 min 0,000 mm 0,0 UV-I 0 W/m² 5,8 °C 7,2 °C 0,0 km/h (0 Bft)
07.06.2017 02:32 7,2 °C 7,2 °C 91 % 1013,6 hPa 0,0 mm 0,0 km/h (0 Bft) W-SW 252 ° 0 min 0,000 mm 0,0 UV-I 0 W/m² 5,8 °C 7,2 °C 0,0 km/h (0 Bft)
07.06.2017 02:33 7,1 °C 7,2 °C 91 % 1013,6 hPa 0,0 mm 1,1 km/h (1 Bft) W-SW 252 ° 0 min 0,000 mm 0,0 UV-I 0 W/m² 5,7 °C 7,1 °C 3,2 km/h (1 Bft)
07.06.2017 02:34 7,1 °C 7,1 °C 91 % 1013,6 hPa 0,0 mm 0,8 km/h (0 Bft) W-SW 252 ° 0 min 0,000 mm 0,0 UV-I 0 W/m² 5,7 °C 7,1 °C 3,2 km/h (1 Bft)
07.06.2017 02:35 7,1 °C 7,1 °C 91 % 1013,6 hPa 0,0 mm 0,0 km/h (0 Bft) W-SW 252 ° 0 min 0,000 mm 0,0 UV-I 0 W/m² 5,7 °C 7,1 °C 0,0 km/h (0 Bft)
07.06.2017 02:36 7,1 °C 7,1 °C 91 % 1013,6 hPa 0,0 mm 0,0 km/h (0 Bft) W-SW 252 ° 0 min 0,000 mm 0,0 UV-I 0 W/m² 5,7 °C 7,1 °C 0,0 km/h (0 Bft)
07.06.2017 02:37 7,0 °C 7,1 °C 91 % 1013,6 hPa 0,0 mm 0,1 km/h (0 Bft) W-SW 252 ° 0 min 0,000 mm 0,0 UV-I 0 W/m² 5,6 °C 7,0 °C 1,6 km/h (1 Bft)
07.06.2017 02:38 7,1 °C 7,1 °C 91 % 1013,6 hPa 0,0 mm 3,6 km/h (1 Bft) W-SW 248 ° 0 min 0,000 mm 0,0 UV-I 0 W/m² 5,7 °C 7,1 °C 6,4 km/h (2 Bft)
07.06.2017 02:39 7,1 °C 7,1 °C 91 % 1013,6 hPa 0,0 mm 2,8 km/h (1 Bft) W-SW 248 ° 0 min 0,000 mm 0,0 UV-I 0 W/m² 5,7 °C 7,1 °C 4,8 km/h (1 Bft)
07.06.2017 02:40 7,1 °C 7,1 °C 90 % 1013,7 hPa 0,0 mm 0,7 km/h (0 Bft) W-SW 248 ° 0 min 0,000 mm 0,0 UV-I 0 W/m² 5,6 °C 7,1 °C 3,2 km/h (1 Bft)
07.06.2017 02:41 7,1 °C 7,1 °C 90 % 1013,7 hPa 0,0 mm 0,5 km/h (0 Bft) W-SW 248 ° 0 min 0,000 mm 0,0 UV-I 0 W/m² 5,6 °C 7,1 °C 1,6 km/h (1 Bft)
07.06.2017 02:42 7,2 °C 7,2 °C 90 % 1013,7 hPa 0,0 mm 0,7 km/h (0 Bft) W-SW 248 ° 0 min 0,000 mm 0,0 UV-I 0 W/m² 5,7 °C 7,2 °C 1,6 km/h (1 Bft)
07.06.2017 02:43 7,2 °C 7,2 °C 90 % 1013,7 hPa 0,0 mm 0,1 km/h (0 Bft) W-SW 248 ° 0 min 0,000 mm 0,0 UV-I 0 W/m² 5,7 °C 7,2 °C 1,6 km/h (1 Bft)
07.06.2017 02:44 7,3 °C 7,3 °C 89 % 1013,7 hPa 0,0 mm 0,4 km/h (0 Bft) SW 236 ° 0 min 0,000 mm 0,0 UV-I 0 W/m² 5,6 °C 7,3 °C 4,8 km/h (1 Bft)
07.06.2017 02:45 7,3 °C 7,3 °C 89 % 1013,8 hPa 0,0 mm 2,4 km/h (1 Bft) W 263 ° 0 min 0,000 mm 0,0 UV-I 0 W/m² 5,6 °C 7,3 °C 6,4 km/h (2 Bft)
07.06.2017 02:46 7,4 °C 7,4 °C 88 % 1013,8 hPa 0,0 mm 4,0 km/h (1 Bft) W-SW 249 ° 0 min 0,000 mm 0,0 UV-I 0 W/m² 5,5 °C 7,4 °C 6,4 km/h (2 Bft)
07.06.2017 02:47 7,4 °C 7,4 °C 89 % 1013,8 hPa 0,0 mm 4,7 km/h (1 Bft) W-SW 257 ° 0 min 0,000 mm 0,0 UV-I 0 W/m² 5,7 °C 6,9 °C 6,4 km/h (2 Bft)
07.06.2017 02:48 7,4 °C 7,4 °C 88 % 1013,8 hPa 0,0 mm 2,7 km/h (1 Bft) W-SW 257 ° 0 min 0,000 mm 0,0 UV-I 0 W/m² 5,5 °C 7,4 °C 6,4 km/h (2 Bft)
07.06.2017 02:49 7,5 °C 7,5 °C 88 % 1013,9 hPa 0,0 mm 1,5 km/h (1 Bft) W 269 ° 0 min 0,000 mm 0,0 UV-I 0 W/m² 5,6 °C 7,5 °C 3,2 km/h (1 Bft)
07.06.2017 02:50 7,6 °C 7,6 °C 88 % 1013,9 hPa 0,0 mm 4,3 km/h (1 Bft) W 259 ° 0 min 0,000 mm 0,0 UV-I 0 W/m² 5,7 °C 7,6 °C 9,7 km/h (2 Bft)
07.06.2017 02:51 7,6 °C 7,6 °C 88 % 1013,9 hPa 0,0 mm 4,9 km/h (1 Bft) W 262 ° 0 min 0,000 mm 0,0 UV-I 0 W/m² 5,7 °C 7,1 °C 8,0 km/h (2 Bft)
07.06.2017 02:52 7,6 °C 7,6 °C 88 % 1014,0 hPa 0,0 mm 2,1 km/h (1 Bft) W 262 ° 0 min 0,000 mm 0,0 UV-I 0 W/m² 5,7 °C 7,6 °C 3,2 km/h (1 Bft)
07.06.2017 02:53 7,6 °C 7,6 °C 88 % 1014,0 hPa 0,0 mm 3,6 km/h (1 Bft) W 264 ° 0 min 0,000 mm 0,0 UV-I 0 W/m² 5,7 °C 7,6 °C 4,8 km/h (1 Bft)
07.06.2017 02:54 7,6 °C 7,6 °C 88 % 1014,1 hPa 0,0 mm 3,2 km/h (1 Bft) W-NW 289 ° 0 min 0,000 mm 0,0 UV-I 0 W/m² 5,7 °C 7,6 °C 6,4 km/h (2 Bft)
07.06.2017 02:55 7,6 °C 7,6 °C 88 % 1014,1 hPa 0,0 mm 4,1 km/h (1 Bft) NW 312 ° 0 min 0,000 mm 0,0 UV-I 0 W/m² 5,7 °C 7,6 °C 6,4 km/h (2 Bft)
07.06.2017 02:56 7,6 °C 7,6 °C 88 % 1014,1 hPa 0,0 mm 11,0 km/h (2 Bft) W 260 ° 0 min 0,000 mm 0,0 UV-I 0 W/m² 5,7 °C 5,6 °C 19,3 km/h (3 Bft)
07.06.2017 02:57 7,6 °C 7,6 °C 89 % 1014,1 hPa 0,0 mm 12,2 km/h (2 Bft) W-SW 258 ° 0 min 0,000 mm 0,0 UV-I 0 W/m² 5,9 °C 5,4 °C 19,3 km/h (3 Bft)
07.06.2017 02:58 7,6 °C 7,6 °C 87 % 1014,2 hPa 0,0 mm 7,5 km/h (2 Bft) W-SW 248 ° 0 min 0,000 mm 0,0 UV-I 0 W/m² 5,6 °C 6,3 °C 12,9 km/h (3 Bft)
07.06.2017 02:59 7,7 °C 7,7 °C 86 % 1014,2 hPa 0,0 mm 7,8 km/h (2 Bft) W-SW 252 ° 0 min 0,000 mm 0,0 UV-I 0 W/m² 5,5 °C 6,4 °C 14,5 km/h (3 Bft)
07.06.2017 03:00 7,8 °C 7,8 °C 86 % 1014,2 hPa 0,0 mm 12,3 km/h (3 Bft) W-SW 246 ° 0 min 0,000 mm 0,0 UV-I 0 W/m² 5,6 °C 5,6 °C 22,5 km/h (4 Bft)
07.06.2017 03:01 7,8 °C 7,8 °C 86 % 1014,2 hPa 0,0 mm 7,8 km/h (2 Bft) W 268 ° 0 min 0,000 mm 0,0 UV-I 0 W/m² 5,6 °C 6,5 °C 11,3 km/h (2 Bft)
07.06.2017 03:02 7,8 °C 7,9 °C 86 % 1014,2 hPa 0,0 mm 11,6 km/h (2 Bft) W-NW 296 ° 0 min 0,000 mm 0,0 UV-I 0 W/m² 5,6 °C 5,7 °C 16,1 km/h (3 Bft)
07.06.2017 03:03 7,9 °C 7,9 °C 87 % 1014,2 hPa 0,0 mm 10,2 km/h (2 Bft) W 259 ° 0 min 0,000 mm 0,0 UV-I 0 W/m² 5,9 °C 6,1 °C 16,1 km/h (3 Bft)
07.06.2017 03:04 7,9 °C 7,9 °C 86 % 1014,2 hPa 0,0 mm 10,8 km/h (2 Bft) W 280 ° 0 min 0,000 mm 0,0 UV-I 0 W/m² 5,7 °C 6,0 °C 19,3 km/h (3 Bft)
07.06.2017 03:05 7,9 °C 7,9 °C 86 % 1014,2 hPa 0,0 mm 3,4 km/h (1 Bft) W 267 ° 0 min 0,000 mm 0,0 UV-I 0 W/m² 5,7 °C 7,9 °C 9,7 km/h (2 Bft)
07.06.2017 03:06 7,9 °C 7,9 °C 86 % 1014,3 hPa 0,0 mm 10,0 km/h (2 Bft) W 276 ° 0 min 0,000 mm 0,0 UV-I 0 W/m² 5,7 °C 6,1 °C 17,7 km/h (3 Bft)
07.06.2017 03:07 7,9 °C 7,9 °C 87 % 1014,3 hPa 0,0 mm 7,2 km/h (2 Bft) W 263 ° 0 min 0,000 mm 0,0 UV-I 0 W/m² 5,9 °C 6,7 °C 11,3 km/h (2 Bft)
07.06.2017 03:08 7,9 °C 7,9 °C 87 % 1014,4 hPa 0,0 mm 8,9 km/h (2 Bft) W 266 ° 0 min 0,000 mm 0,0 UV-I 0 W/m² 5,9 °C 6,3 °C 12,9 km/h (3 Bft)
07.06.2017 03:09 7,9 °C 7,9 °C 87 % 1014,4 hPa 0,0 mm 6,6 km/h (2 Bft) W 275 ° 0 min 0,000 mm 0,0 UV-I 0 W/m² 5,9 °C 6,9 °C 12,9 km/h (3 Bft)
07.06.2017 03:10 7,9 °C 7,9 °C 87 % 1014,4 hPa 0,0 mm 14,0 km/h (3 Bft) SW 228 ° 0 min 0,000 mm 0,0 UV-I 0 W/m² 5,9 °C 5,5 °C 25,7 km/h (4 Bft)
07.06.2017 03:11 7,9 °C 7,9 °C 86 % 1014,4 hPa 0,0 mm 14,5 km/h (3 Bft) W 263 ° 0 min 0,000 mm 0,0 UV-I 0 W/m² 5,7 °C 5,4 °C 20,9 km/h (4 Bft)
07.06.2017 03:12 7,9 °C 8,0 °C 85 % 1014,4 hPa 0,0 mm 13,3 km/h (3 Bft) W 261 ° 0 min 0,000 mm 0,0 UV-I 0 W/m² 5,5 °C 5,6 °C 19,3 km/h (3 Bft)
07.06.2017 03:13 8,0 °C 8,0 °C 86 % 1014,4 hPa 0,0 mm 10,2 km/h (2 Bft) W-SW 238 ° 0 min 0,000 mm 0,0 UV-I 0 W/m² 5,8 °C 6,2 °C 16,1 km/h (3 Bft)
07.06.2017 03:14 8,1 °C 8,1 °C 85 % 1014,4 hPa 0,0 mm 8,3 km/h (2 Bft) W 270 ° 0 min 0,000 mm 0,0 UV-I 0 W/m² 5,7 °C 6,7 °C 14,5 km/h (3 Bft)
07.06.2017 03:15 8,1 °C 8,1 °C 85 % 1014,4 hPa 0,0 mm 15,8 km/h (3 Bft) W 279 ° 0 min 0,000 mm 0,0 UV-I 0 W/m² 5,7 °C 5,5 °C 20,9 km/h (4 Bft)
07.06.2017 03:16 8,1 °C 8,1 °C 85 % 1014,5 hPa 0,0 mm 11,5 km/h (2 Bft) W-SW 246 ° 0 min 0,000 mm 0,0 UV-I 0 W/m² 5,7 °C 6,1 °C 16,1 km/h (3 Bft)
07.06.2017 03:17 8,1 °C 8,1 °C 85 % 1014,5 hPa 0,0 mm 13,8 km/h (3 Bft) W-SW 252 ° 0 min 0,000 mm 0,0 UV-I 0 W/m² 5,7 °C 5,7 °C 17,7 km/h (3 Bft)
07.06.2017 03:18 8,1 °C 8,1 °C 85 % 1014,5 hPa 0,0 mm 8,5 km/h (2 Bft) W-NW 294 ° 0 min 0,000 mm 0,0 UV-I 0 W/m² 5,7 °C 6,7 °C 17,7 km/h (3 Bft)
07.06.2017 03:19 8,1 °C 8,1 °C 85 % 1014,5 hPa 0,0 mm 10,7 km/h (2 Bft) W-SW 258 ° 0 min 0,000 mm 0,0 UV-I 0 W/m² 5,7 °C 6,2 °C 16,1 km/h (3 Bft)
07.06.2017 03:20 8,1 °C 8,1 °C 85 % 1014,5 hPa 0,0 mm 11,5 km/h (2 Bft) SW 223 ° 0 min 0,000 mm 0,0 UV-I 0 W/m² 5,7 °C 6,1 °C 16,1 km/h (3 Bft)
07.06.2017 03:21 8,1 °C 8,2 °C 85 % 1014,6 hPa 0,0 mm 11,9 km/h (2 Bft) W-SW 248 ° 0 min 0,000 mm 0,0 UV-I 0 W/m² 5,7 °C 6,0 °C 16,1 km/h (3 Bft)
07.06.2017 03:22 8,1 °C 8,1 °C 85 % 1014,6 hPa 0,0 mm 9,9 km/h (2 Bft) W 276 ° 0 min 0,000 mm 0,0 UV-I 0 W/m² 5,7 °C 6,4 °C 12,9 km/h (3 Bft)
07.06.2017 03:23 8,1 °C 8,1 °C 85 % 1014,6 hPa 0,0 mm 9,7 km/h (2 Bft) W 271 ° 0 min 0,000 mm 0,0 UV-I 0 W/m² 5,7 °C 6,4 °C 12,9 km/h (3 Bft)
07.06.2017 03:24 8,1 °C 8,1 °C 85 % 1014,6 hPa 0,0 mm 11,7 km/h (2 Bft) W 277 ° 0 min 0,000 mm 0,0 UV-I 0 W/m² 5,7 °C 6,1 °C 16,1 km/h (3 Bft)
07.06.2017 03:25 8,1 °C 8,1 °C 86 % 1014,7 hPa 0,0 mm 10,1 km/h (2 Bft) W 271 ° 0 min 0,000 mm 0,0 UV-I 0 W/m² 5,9 °C 6,3 °C 12,9 km/h (3 Bft)
07.06.2017 03:26 8,1 °C 8,1 °C 86 % 1014,7 hPa 0,0 mm 5,6 km/h (1 Bft) W-NW 302 ° 0 min 0,000 mm 0,0 UV-I 0 W/m² 5,9 °C 7,4 °C 12,9 km/h (3 Bft)
07.06.2017 03:27 8,0 °C 8,1 °C 86 % 1014,7 hPa 0,0 mm 9,3 km/h (2 Bft) W 268 ° 0 min 0,000 mm 0,0 UV-I 0 W/m² 5,8 °C 6,4 °C 12,9 km/h (3 Bft)
07.06.2017 03:28 8,0 °C 8,0 °C 86 % 1014,7 hPa 0,0 mm 10,6 km/h (2 Bft) W 259 ° 0 min 0,000 mm 0,0 UV-I 0 W/m² 5,8 °C 6,1 °C 16,1 km/h (3 Bft)
07.06.2017 03:29 7,9 °C 8,0 °C 86 % 1014,7 hPa 0,0 mm 6,8 km/h (2 Bft) W-NW 286 ° 0 min 0,000 mm 0,0 UV-I 0 W/m² 5,7 °C 6,8 °C 11,3 km/h (2 Bft)
07.06.2017 03:30 7,9 °C 8,0 °C 86 % 1014,7 hPa 0,0 mm 10,5 km/h (2 Bft) W-SW 250 ° 0 min 0,000 mm 0,0 UV-I 0 W/m² 5,7 °C 6,0 °C 16,1 km/h (3 Bft)
07.06.2017 03:31 7,9 °C 8,0 °C 86 % 1014,7 hPa 0,0 mm 10,7 km/h (2 Bft) W 270 ° 0 min 0,000 mm 0,0 UV-I 0 W/m² 5,7 °C 6,0 °C 16,1 km/h (3 Bft)
07.06.2017 03:32 7,9 °C 7,9 °C 86 % 1014,7 hPa 0,0 mm 16,8 km/h (3 Bft) W-SW 257 ° 0 min 0,000 mm 0,0 UV-I 0 W/m² 5,7 °C 5,1 °C 25,7 km/h (4 Bft)
07.06.2017 03:33 7,9 °C 7,9 °C 86 % 1014,8 hPa 0,0 mm 10,9 km/h (2 Bft) W-SW 246 ° 0 min 0,000 mm 0,0 UV-I 0 W/m² 5,7 °C 6,0 °C 20,9 km/h (4 Bft)
07.06.2017 03:34 7,9 °C 7,9 °C 85 % 1014,8 hPa 0,0 mm 4,2 km/h (1 Bft) W-SW 252 ° 0 min 0,000 mm 0,0 UV-I 0 W/m² 5,5 °C 7,9 °C 8,0 km/h (2 Bft)
07.06.2017 03:35 7,9 °C 7,9 °C 86 % 1014,7 hPa 0,0 mm 7,6 km/h (2 Bft) NW 305 ° 0 min 0,000 mm 0,0 UV-I 0 W/m² 5,7 °C 6,6 °C 11,3 km/h (2 Bft)
07.06.2017 03:36 7,9 °C 7,9 °C 86 % 1014,7 hPa 0,2 mm 9,4 km/h (2 Bft) W 266 ° 0 min 0,000 mm 0,0 UV-I 0 W/m² 5,7 °C 6,2 °C 17,7 km/h (3 Bft)
07.06.2017 03:37 7,9 °C 7,9 °C 86 % 1014,8 hPa 0,0 mm 9,0 km/h (2 Bft) W-SW 252 ° 0 min 0,000 mm 0,0 UV-I 0 W/m² 5,7 °C 6,3 °C 16,1 km/h (3 Bft)
07.06.2017 03:38 7,9 °C 7,9 °C 86 % 1014,7 hPa 0,0 mm 6,0 km/h (2 Bft) S-SW 206 ° 0 min 0,000 mm 0,0 UV-I 0 W/m² 5,7 °C 7,1 °C 12,9 km/h (3 Bft)
07.06.2017 03:39 7,9 °C 7,9 °C 86 % 1014,8 hPa 0,0 mm 8,0 km/h (2 Bft) W-SW 246 ° 0 min 0,000 mm 0,0 UV-I 0 W/m² 5,7 °C 6,5 °C 17,7 km/h (3 Bft)
07.06.2017 03:40 7,8 °C 7,9 °C 86 % 1014,8 hPa 0,0 mm 12,9 km/h (3 Bft) W 270 ° 0 min 0,000 mm 0,0 UV-I 0 W/m² 5,6 °C 5,5 °C 19,3 km/h (3 Bft)
07.06.2017 03:41 7,8 °C 7,8 °C 85 % 1014,9 hPa 0,0 mm 11,2 km/h (2 Bft) W-NW 283 ° 0 min 0,000 mm 0,0 UV-I 0 W/m² 5,4 °C 5,8 °C 17,7 km/h (3 Bft)
07.06.2017 03:42 7,8 °C 7,8 °C 85 % 1014,8 hPa 0,0 mm 9,3 km/h (2 Bft) W 273 ° 0 min 0,000 mm 0,0 UV-I 0 W/m² 5,4 °C 6,1 °C 16,1 km/h (3 Bft)
07.06.2017 03:43 7,8 °C 7,8 °C 85 % 1014,8 hPa 0,0 mm 11,7 km/h (2 Bft) W-NW 284 ° 0 min 0,000 mm 0,0 UV-I 0 W/m² 5,4 °C 5,7 °C 16,1 km/h (3 Bft)
07.06.2017 03:44 7,8 °C 7,8 °C 86 % 1014,9 hPa 0,0 mm 12,7 km/h (3 Bft) S-SW 194 ° 0 min 0,000 mm 0,0 UV-I 0 W/m² 5,6 °C 5,5 °C 17,7 km/h (3 Bft)
07.06.2017 03:45 7,8 °C 7,8 °C 86 % 1014,9 hPa 0,0 mm 5,4 km/h (1 Bft) W 267 ° 0 min 0,000 mm 0,0 UV-I 0 W/m² 5,6 °C 7,1 °C 6,4 km/h (2 Bft)
07.06.2017 03:46 7,8 °C 7,8 °C 86 % 1014,9 hPa 0,0 mm 2,6 km/h (1 Bft) W 275 ° 0 min 0,000 mm 0,0 UV-I 0 W/m² 5,6 °C 7,8 °C 3,2 km/h (1 Bft)
07.06.2017 03:47 7,7 °C 7,8 °C 87 % 1014,9 hPa 0,0 mm 6,3 km/h (2 Bft) W-NW 283 ° 0 min 0,000 mm 0,0 UV-I 0 W/m² 5,7 °C 6,7 °C 11,3 km/h (2 Bft)
07.06.2017 03:48 7,7 °C 7,7 °C 87 % 1014,9 hPa 0,0 mm 5,4 km/h (1 Bft) W-SW 252 ° 0 min 0,000 mm 0,0 UV-I 0 W/m² 5,7 °C 7,0 °C 8,0 km/h (2 Bft)
07.06.2017 03:49 7,7 °C 7,7 °C 87 % 1014,9 hPa 0,0 mm 6,0 km/h (2 Bft) W 265 ° 0 min 0,000 mm 0,0 UV-I 0 W/m² 5,7 °C 6,8 °C 11,3 km/h (2 Bft)
07.06.2017 03:50 7,7 °C 7,7 °C 87 % 1014,9 hPa 0,0 mm 5,7 km/h (1 Bft) W-SW 238 ° 0 min 0,000 mm 0,0 UV-I 0 W/m² 5,7 °C 6,9 °C 9,7 km/h (2 Bft)
07.06.2017 03:51 7,6 °C 7,7 °C 88 % 1014,9 hPa 0,0 mm 4,4 km/h (1 Bft) S-SW 205 ° 0 min 0,000 mm 0,0 UV-I 0 W/m² 5,7 °C 7,6 °C 8,0 km/h (2 Bft)
07.06.2017 03:52 7,5 °C 7,6 °C 87 % 1014,9 hPa 0,0 mm 3,4 km/h (1 Bft) S-SW 194 ° 0 min 0,000 mm 0,0 UV-I 0 W/m² 5,5 °C 7,5 °C 4,8 km/h (1 Bft)
07.06.2017 03:53 7,5 °C 7,6 °C 87 % 1014,8 hPa 0,0 mm 3,7 km/h (1 Bft) S-SW 192 ° 0 min 0,000 mm 0,0 UV-I 0 W/m² 5,5 °C 7,5 °C 6,4 km/h (2 Bft)
07.06.2017 03:54 7,6 °C 7,6 °C 87 % 1014,8 hPa 0,0 mm 4,8 km/h (1 Bft) SW 223 ° 0 min 0,000 mm 0,0 UV-I 0 W/m² 5,6 °C 7,1 °C 11,3 km/h (2 Bft)
07.06.2017 03:55 7,5 °C 7,6 °C 87 % 1014,8 hPa 0,0 mm 3,1 km/h (1 Bft) W-SW 247 ° 0 min 0,000 mm 0,0 UV-I 0 W/m² 5,5 °C 7,5 °C 8,0 km/h (2 Bft)
07.06.2017 03:56 7,6 °C 7,6 °C 87 % 1014,8 hPa 0,0 mm 5,2 km/h (1 Bft) W-SW 241 ° 0 min 0,000 mm 0,0 UV-I 0 W/m² 5,6 °C 7,0 °C 9,7 km/h (2 Bft)
07.06.2017 03:57 7,6 °C 7,6 °C 87 % 1014,8 hPa 0,0 mm 5,1 km/h (1 Bft) W 267 ° 0 min 0,000 mm 0,0 UV-I 0 W/m² 5,6 °C 7,0 °C 9,7 km/h (2 Bft)
07.06.2017 03:58 7,6 °C 7,6 °C 87 % 1014,9 hPa 0,0 mm 4,4 km/h (1 Bft) SW 220 ° 0 min 0,000 mm 0,0 UV-I 0 W/m² 5,6 °C 7,6 °C 8,0 km/h (2 Bft)
07.06.2017 03:59 7,6 °C 7,6 °C 87 % 1014,9 hPa 0,0 mm 3,3 km/h (1 Bft) W 270 ° 0 min 0,000 mm 0,0 UV-I 0 W/m² 5,6 °C 7,6 °C 6,4 km/h (2 Bft)
07.06.2017 04:00 7,5 °C 7,6 °C 88 % 1014,8 hPa 0,0 mm 4,9 km/h (1 Bft) W-NW 292 ° 0 min 0,026 mm 0,0 UV-I 0 W/m² 5,6 °C 7,0 °C 9,7 km/h (2 Bft)
07.06.2017 04:02 7,4 °C 7,5 °C 88 % 1014,8 hPa 0,0 mm 3,8 km/h (1 Bft) W 269 ° 0 min 0,000 mm 0,0 UV-I 0 W/m² 5,5 °C 7,4 °C 9,7 km/h (2 Bft)
07.06.2017 04:03 7,4 °C 7,4 °C 88 % 1014,8 hPa 0,0 mm 5,0 km/h (1 Bft) W-SW 257 ° 0 min 0,000 mm 0,0 UV-I 0 W/m² 5,5 °C 6,8 °C 6,4 km/h (2 Bft)
07.06.2017 04:04 7,4 °C 7,4 °C 88 % 1014,9 hPa 0,0 mm 9,2 km/h (2 Bft) W-NW 292 ° 0 min 0,000 mm 0,0 UV-I 0 W/m² 5,5 °C 5,7 °C 14,5 km/h (3 Bft)
07.06.2017 04:05 7,4 °C 7,4 °C 88 % 1014,9 hPa 0,0 mm 9,8 km/h (2 Bft) W 273 ° 0 min 0,000 mm 0,0 UV-I 0 W/m² 5,5 °C 5,6 °C 12,9 km/h (3 Bft)
07.06.2017 04:06 7,4 °C 7,4 °C 88 % 1014,9 hPa 0,0 mm 6,8 km/h (2 Bft) W 261 ° 0 min 0,000 mm 0,0 UV-I 0 W/m² 5,5 °C 6,3 °C 14,5 km/h (3 Bft)
07.06.2017 04:07 7,4 °C 7,4 °C 88 % 1014,9 hPa 0,0 mm 2,3 km/h (1 Bft) W 259 ° 0 min 0,000 mm 0,0 UV-I 0 W/m² 5,5 °C 7,4 °C 4,8 km/h (1 Bft)
07.06.2017 04:08 7,4 °C 7,4 °C 88 % 1014,9 hPa 0,0 mm 5,4 km/h (1 Bft) SW 232 ° 0 min 0,000 mm 0,0 UV-I 0 W/m² 5,5 °C 6,7 °C 9,7 km/h (2 Bft)
07.06.2017 04:09 7,4 °C 7,4 °C 88 % 1014,9 hPa 0,0 mm 4,8 km/h (1 Bft) W-SW 249 ° 0 min 0,000 mm 0,0 UV-I 0 W/m² 5,5 °C 6,9 °C 6,4 km/h (2 Bft)
07.06.2017 04:10 7,4 °C 7,4 °C 88 % 1015,0 hPa 0,0 mm 5,6 km/h (1 Bft) W 279 ° 0 min 0,000 mm 0,0 UV-I 0 W/m² 5,5 °C 6,6 °C 11,3 km/h (2 Bft)
07.06.2017 04:11 7,4 °C 7,4 °C 88 % 1014,9 hPa 0,0 mm 3,7 km/h (1 Bft) W 275 ° 0 min 0,000 mm 0,0 UV-I 0 W/m² 5,5 °C 7,4 °C 6,4 km/h (2 Bft)
07.06.2017 04:12 7,4 °C 7,4 °C 88 % 1014,9 hPa 0,0 mm 2,5 km/h (1 Bft) W 274 ° 0 min 0,000 mm 0,0 UV-I 0 W/m² 5,5 °C 7,4 °C 3,2 km/h (1 Bft)
07.06.2017 04:13 7,4 °C 7,4 °C 88 % 1014,9 hPa 0,0 mm 2,3 km/h (1 Bft) S-SW 195 ° 0 min 0,000 mm 0,0 UV-I 0 W/m² 5,5 °C 7,4 °C 4,8 km/h (1 Bft)
07.06.2017 04:14 7,4 °C 7,4 °C 87 % 1014,9 hPa 0,0 mm 4,2 km/h (1 Bft) S-SW 210 ° 0 min 0,000 mm 0,0 UV-I 0 W/m² 5,4 °C 7,4 °C 9,7 km/h (2 Bft)
07.06.2017 04:15 7,4 °C 7,4 °C 87 % 1014,9 hPa 0,0 mm 3,0 km/h (1 Bft) W-NW 288 ° 0 min 0,000 mm 0,0 UV-I 0 W/m² 5,4 °C 7,4 °C 6,4 km/h (2 Bft)
07.06.2017 04:16 7,4 °C 7,4 °C 87 % 1014,8 hPa 0,0 mm 2,1 km/h (1 Bft) W-SW 255 ° 0 min 0,000 mm 0,0 UV-I 0 W/m² 5,4 °C 7,4 °C 4,8 km/h (1 Bft)
07.06.2017 04:17 7,4 °C 7,4 °C 88 % 1014,8 hPa 0,0 mm 6,2 km/h (2 Bft) W 269 ° 0 min 0,000 mm 0,0 UV-I 0 W/m² 5,5 °C 6,4 °C 14,5 km/h (3 Bft)
07.06.2017 04:18 7,4 °C 7,4 °C 88 % 1014,8 hPa 0,0 mm 3,8 km/h (1 Bft) W-SW 249 ° 0 min 0,000 mm 0,0 UV-I 0 W/m² 5,5 °C 7,4 °C 9,7 km/h (2 Bft)
07.06.2017 04:19 7,4 °C 7,4 °C 88 % 1014,8 hPa 0,0 mm 0,1 km/h (0 Bft) W-SW 246 ° 0 min 0,000 mm 0,0 UV-I 0 W/m² 5,5 °C 7,4 °C 1,6 km/h (1 Bft)
07.06.2017 04:20 7,4 °C 7,4 °C 87 % 1014,8 hPa 0,0 mm 3,3 km/h (1 Bft) W-NW 288 ° 0 min 0,000 mm 0,0 UV-I 0 W/m² 5,4 °C 7,4 °C 6,4 km/h (2 Bft)
07.06.2017 04:21 7,5 °C 7,5 °C 87 % 1014,8 hPa 0,0 mm 1,3 km/h (1 Bft) W-NW 288 ° 0 min 0,000 mm 0,0 UV-I 0 W/m² 5,5 °C 7,5 °C 3,2 km/h (1 Bft)
07.06.2017 04:22 7,5 °C 7,5 °C 87 % 1014,8 hPa 0,0 mm 3,3 km/h (1 Bft) W 277 ° 0 min 0,000 mm 0,0 UV-I 0 W/m² 5,5 °C 7,5 °C 6,4 km/h (2 Bft)
07.06.2017 04:23 7,4 °C 7,5 °C 87 % 1014,7 hPa 0,0 mm 3,6 km/h (1 Bft) W 277 ° 0 min 0,000 mm 0,0 UV-I 0 W/m² 5,4 °C 7,4 °C 4,8 km/h (1 Bft)
07.06.2017 04:24 7,4 °C 7,5 °C 87 % 1014,8 hPa 0,0 mm 4,3 km/h (1 Bft) W-SW 252 ° 0 min 0,000 mm 0,0 UV-I 0 W/m² 5,4 °C 7,4 °C 11,3 km/h (2 Bft)
07.06.2017 04:25 7,4 °C 7,4 °C 88 % 1014,8 hPa 0,0 mm 4,1 km/h (1 Bft) W 273 ° 0 min 0,000 mm 0,0 UV-I 0 W/m² 5,5 °C 7,4 °C 6,4 km/h (2 Bft)
07.06.2017 04:26 7,4 °C 7,4 °C 87 % 1014,8 hPa 0,0 mm 4,7 km/h (1 Bft) W 279 ° 0 min 0,000 mm 0,0 UV-I 0 W/m² 5,4 °C 6,9 °C 11,3 km/h (2 Bft)
07.06.2017 04:27 7,4 °C 7,4 °C 87 % 1014,8 hPa 0,0 mm 3,8 km/h (1 Bft) W-NW 296 ° 0 min 0,000 mm 0,0 UV-I 0 W/m² 5,4 °C 7,4 °C 9,7 km/h (2 Bft)
07.06.2017 04:28 7,4 °C 7,4 °C 87 % 1014,8 hPa 0,0 mm 2,0 km/h (1 Bft) W-NW 283 ° 0 min 0,000 mm 0,0 UV-I 0 W/m² 5,4 °C 7,4 °C 4,8 km/h (1 Bft)
07.06.2017 04:29 7,4 °C 7,4 °C 87 % 1014,8 hPa 0,0 mm 2,7 km/h (1 Bft) W-NW 282 ° 0 min 0,000 mm 0,0 UV-I 0 W/m² 5,4 °C 7,4 °C 4,8 km/h (1 Bft)
07.06.2017 04:30 7,4 °C 7,4 °C 87 % 1014,7 hPa 0,0 mm 3,6 km/h (1 Bft) W-SW 241 ° 0 min 0,000 mm 0,0 UV-I 0 W/m² 5,4 °C 7,4 °C 11,3 km/h (2 Bft)
07.06.2017 04:31 7,4 °C 7,5 °C 87 % 1014,7 hPa 0,0 mm 1,5 km/h (1 Bft) W 261 ° 0 min 0,000 mm 0,0 UV-I 0 W/m² 5,4 °C 7,4 °C 4,8 km/h (1 Bft)
07.06.2017 04:32 7,5 °C 7,5 °C 86 % 1014,7 hPa 0,0 mm 1,5 km/h (1 Bft) W 261 ° 0 min 0,000 mm 0,0 UV-I 0 W/m² 5,3 °C 7,5 °C 4,8 km/h (1 Bft)
07.06.2017 04:33 7,5 °C 7,5 °C 86 % 1014,7 hPa 0,0 mm 1,9 km/h (1 Bft) W 261 ° 0 min 0,000 mm 0,0 UV-I 0 W/m² 5,3 °C 7,5 °C 4,8 km/h (1 Bft)
07.06.2017 04:34 7,5 °C 7,6 °C 86 % 1014,7 hPa 0,0 mm 0,8 km/h (0 Bft) W 261 ° 0 min 0,000 mm 0,0 UV-I 0 W/m² 5,3 °C 7,5 °C 3,2 km/h (1 Bft)
07.06.2017 04:35 7,5 °C 7,5 °C 86 % 1014,7 hPa 0,0 mm 0,5 km/h (0 Bft) W 261 ° 0 min 0,000 mm 0,0 UV-I 0 W/m² 5,3 °C 7,5 °C 1,6 km/h (1 Bft)
07.06.2017 04:36 7,4 °C 7,5 °C 86 % 1014,7 hPa 0,0 mm 1,4 km/h (1 Bft) W 260 ° 0 min 0,000 mm 0,0 UV-I 0 W/m² 5,2 °C 7,4 °C 3,2 km/h (1 Bft)
07.06.2017 04:37 7,4 °C 7,5 °C 87 % 1014,7 hPa 0,0 mm 0,0 km/h (0 Bft) W 260 ° 0 min 0,000 mm 0,0 UV-I 0 W/m² 5,4 °C 7,4 °C 0,0 km/h (0 Bft)
07.06.2017 04:38 7,4 °C 7,4 °C 87 % 1014,7 hPa 0,0 mm 0,0 km/h (0 Bft) W 260 ° 0 min 0,000 mm 0,0 UV-I 0 W/m² 5,4 °C 7,4 °C 0,0 km/h (0 Bft)
07.06.2017 04:39 7,4 °C 7,4 °C 88 % 1014,7 hPa 0,0 mm 0,6 km/h (0 Bft) W 260 ° 0 min 0,000 mm 0,0 UV-I 0 W/m² 5,5 °C 7,4 °C 3,2 km/h (1 Bft)
07.06.2017 04:40 7,3 °C 7,4 °C 89 % 1014,8 hPa 0,0 mm 0,3 km/h (0 Bft) W 260 ° 0 min 0,000 mm 0,0 UV-I 0 W/m² 5,6 °C 7,3 °C 1,6 km/h (1 Bft)
07.06.2017 04:41 7,3 °C 7,3 °C 89 % 1014,8 hPa 0,0 mm 0,9 km/h (0 Bft) W 260 ° 0 min 0,000 mm 0,0 UV-I 0 W/m² 5,6 °C 7,3 °C 3,2 km/h (1 Bft)
07.06.2017 04:42 7,2 °C 7,3 °C 88 % 1014,8 hPa 0,0 mm 0,1 km/h (0 Bft) W 260 ° 0 min 0,000 mm 0,0 UV-I 0 W/m² 5,3 °C 7,2 °C 1,6 km/h (1 Bft)
07.06.2017 04:43 7,2 °C 7,2 °C 89 % 1014,7 hPa 0,0 mm 0,2 km/h (0 Bft) W 260 ° 0 min 0,000 mm 0,0 UV-I 0 W/m² 5,5 °C 7,2 °C 1,6 km/h (1 Bft)
07.06.2017 04:44 7,2 °C 7,2 °C 88 % 1014,7 hPa 0,0 mm 0,0 km/h (0 Bft) W 260 ° 0 min 0,000 mm 0,0 UV-I 0 W/m² 5,3 °C 7,2 °C 0,0 km/h (0 Bft)
07.06.2017 04:45 7,1 °C 7,2 °C 89 % 1014,7 hPa 0,0 mm 0,5 km/h (0 Bft) W 260 ° 0 min 0,000 mm 0,0 UV-I 0 W/m² 5,4 °C 7,1 °C 3,2 km/h (1 Bft)
07.06.2017 04:46 7,1 °C 7,1 °C 89 % 1014,7 hPa 0,0 mm 1,1 km/h (1 Bft) SW 217 ° 0 min 0,000 mm 0,0 UV-I 0 W/m² 5,4 °C 7,1 °C 4,8 km/h (1 Bft)
07.06.2017 04:47 7,1 °C 7,1 °C 90 % 1014,8 hPa 0,0 mm 2,2 km/h (1 Bft) SW 217 ° 0 min 0,000 mm 0,0 UV-I 0 W/m² 5,6 °C 7,1 °C 3,2 km/h (1 Bft)
07.06.2017 04:48 7,0 °C 7,1 °C 89 % 1014,7 hPa 0,0 mm 0,5 km/h (0 Bft) SW 217 ° 0 min 0,000 mm 0,0 UV-I 0 W/m² 5,3 °C 7,0 °C 1,6 km/h (1 Bft)
07.06.2017 04:49 7,1 °C 7,1 °C 88 % 1014,8 hPa 0,0 mm 0,0 km/h (0 Bft) SW 217 ° 0 min 0,000 mm 0,0 UV-I 0 W/m² 5,2 °C 7,1 °C 0,0 km/h (0 Bft)
07.06.2017 04:50 7,1 °C 7,1 °C 89 % 1014,8 hPa 0,0 mm 0,0 km/h (0 Bft) SW 217 ° 0 min 0,000 mm 0,0 UV-I 0 W/m² 5,4 °C 7,1 °C 0,0 km/h (0 Bft)
07.06.2017 04:51 7,1 °C 7,1 °C 89 % 1014,8 hPa 0,0 mm 1,6 km/h (1 Bft) S-SW 212 ° 0 min 0,000 mm 0,0 UV-I 0 W/m² 5,4 °C 7,1 °C 4,8 km/h (1 Bft)
07.06.2017 04:52 7,0 °C 7,1 °C 89 % 1014,8 hPa 0,0 mm 0,3 km/h (0 Bft) S-SW 212 ° 0 min 0,000 mm 0,0 UV-I 0 W/m² 5,3 °C 7,0 °C 1,6 km/h (1 Bft)
07.06.2017 04:53 7,0 °C 7,1 °C 90 % 1014,8 hPa 0,0 mm 1,5 km/h (1 Bft) S-SW 213 ° 0 min 0,000 mm 0,0 UV-I 0 W/m² 5,5 °C 7,0 °C 3,2 km/h (1 Bft)
07.06.2017 04:54 7,0 °C 7,0 °C 89 % 1014,8 hPa 0,0 mm 2,4 km/h (1 Bft) S-SW 213 ° 0 min 0,000 mm 0,0 UV-I 0 W/m² 5,3 °C 7,0 °C 4,8 km/h (1 Bft)
07.06.2017 04:55 7,1 °C 7,1 °C 89 % 1014,9 hPa 0,0 mm 3,4 km/h (1 Bft) W-SW 255 ° 0 min 0,000 mm 0,0 UV-I 0 W/m² 5,4 °C 7,1 °C 6,4 km/h (2 Bft)
07.06.2017 04:56 7,1 °C 7,1 °C 89 % 1014,9 hPa 0,0 mm 1,7 km/h (1 Bft) W-SW 255 ° 0 min 0,000 mm 0,0 UV-I 0 W/m² 5,4 °C 7,1 °C 3,2 km/h (1 Bft)
07.06.2017 04:57 7,1 °C 7,1 °C 90 % 1014,9 hPa 0,0 mm 1,3 km/h (1 Bft) W-SW 255 ° 0 min 0,000 mm 0,0 UV-I 0 W/m² 5,6 °C 7,1 °C 3,2 km/h (1 Bft)
07.06.2017 04:58 7,1 °C 7,1 °C 88 % 1014,9 hPa 0,0 mm 0,2 km/h (0 Bft) W 275 ° 0 min 0,000 mm 0,0 UV-I 0 W/m² 5,2 °C 7,1 °C 4,8 km/h (1 Bft)
07.06.2017 04:59 7,1 °C 7,1 °C 88 % 1014,9 hPa 0,0 mm 3,2 km/h (1 Bft) W-SW 244 ° 0 min 0,000 mm 0,0 UV-I 0 W/m² 5,2 °C 7,1 °C 6,4 km/h (2 Bft)
07.06.2017 05:00 7,2 °C 7,2 °C 87 % 1014,9 hPa 0,0 mm 3,0 km/h (1 Bft) W-SW 244 ° 0 min 0,000 mm 0,0 UV-I 0 W/m² 5,2 °C 7,2 °C 4,8 km/h (1 Bft)
07.06.2017 05:01 7,2 °C 7,2 °C 85 % 1015,0 hPa 0,0 mm 1,7 km/h (1 Bft) W-SW 244 ° 0 min 0,000 mm 0,0 UV-I 0 W/m² 4,9 °C 7,2 °C 3,2 km/h (1 Bft)
07.06.2017 05:02 7,3 °C 7,3 °C 86 % 1015,0 hPa 0,0 mm 1,3 km/h (1 Bft) W-SW 248 ° 0 min 0,000 mm 0,0 UV-I 0 W/m² 5,1 °C 7,3 °C 3,2 km/h (1 Bft)
07.06.2017 05:03 7,3 °C 7,3 °C 85 % 1015,0 hPa 0,0 mm 0,9 km/h (0 Bft) W-SW 248 ° 0 min 0,000 mm 0,0 UV-I 0 W/m² 4,9 °C 7,3 °C 3,2 km/h (1 Bft)
07.06.2017 05:04 7,4 °C 7,4 °C 84 % 1015,0 hPa 0,0 mm 3,2 km/h (1 Bft) W-NW 284 ° 0 min 0,000 mm 0,0 UV-I 0 W/m² 4,9 °C 7,4 °C 4,8 km/h (1 Bft)
07.06.2017 05:05 7,4 °C 7,4 °C 85 % 1015,0 hPa 0,0 mm 6,2 km/h (2 Bft) W-SW 240 ° 0 min 0,000 mm 0,0 UV-I 0 W/m² 5,0 °C 6,4 °C 11,3 km/h (2 Bft)
07.06.2017 05:06 7,4 °C 7,4 °C 85 % 1015,0 hPa 0,0 mm 6,7 km/h (2 Bft) W 265 ° 0 min 0,000 mm 0,0 UV-I 0 W/m² 5,0 °C 6,3 °C 9,7 km/h (2 Bft)
07.06.2017 05:07 7,4 °C 7,4 °C 84 % 1015,1 hPa 0,0 mm 6,5 km/h (2 Bft) W 259 ° 0 min 0,000 mm 0,0 UV-I 0 W/m² 4,9 °C 6,3 °C 12,9 km/h (3 Bft)
07.06.2017 05:08 7,4 °C 7,4 °C 84 % 1015,0 hPa 0,0 mm 5,1 km/h (1 Bft) W-SW 249 ° 0 min 0,000 mm 0,0 UV-I 0 W/m² 4,9 °C 6,8 °C 9,7 km/h (2 Bft)
07.06.2017 05:09 7,4 °C 7,4 °C 84 % 1015,0 hPa 0,0 mm 5,4 km/h (1 Bft) W 276 ° 0 min 0,000 mm 0,0 UV-I 0 W/m² 4,9 °C 6,7 °C 12,9 km/h (3 Bft)
07.06.2017 05:10 7,4 °C 7,4 °C 84 % 1015,0 hPa 0,0 mm 5,5 km/h (1 Bft) S-SW 198 ° 0 min 0,000 mm 0,0 UV-I 0 W/m² 4,9 °C 6,6 °C 11,3 km/h (2 Bft)
07.06.2017 05:11 7,5 °C 7,5 °C 83 % 1014,9 hPa 0,0 mm 2,8 km/h (1 Bft) SW 227 ° 0 min 0,000 mm 0,0 UV-I 0 W/m² 4,8 °C 7,5 °C 4,8 km/h (1 Bft)
07.06.2017 05:12 7,6 °C 7,6 °C 83 % 1015,0 hPa 0,0 mm 5,6 km/h (1 Bft) W-SW 252 ° 0 min 0,000 mm 0,0 UV-I 0 W/m² 4,9 °C 6,8 °C 8,0 km/h (2 Bft)
07.06.2017 05:13 7,6 °C 7,6 °C 83 % 1015,0 hPa 0,0 mm 5,3 km/h (1 Bft) W 267 ° 0 min 0,000 mm 0,0 UV-I 0 W/m² 4,9 °C 6,9 °C 6,4 km/h (2 Bft)
07.06.2017 05:14 7,5 °C 7,6 °C 83 % 1015,1 hPa 0,0 mm 3,3 km/h (1 Bft) SW 231 ° 0 min 0,000 mm 0,0 UV-I 0 W/m² 4,8 °C 7,5 °C 9,7 km/h (2 Bft)
07.06.2017 05:15 7,6 °C 7,6 °C 83 % 1015,1 hPa 0,0 mm 9,7 km/h (2 Bft) W-SW 243 ° 0 min 0,000 mm 0,0 UV-I 0 W/m² 4,9 °C 5,8 °C 17,7 km/h (3 Bft)
07.06.2017 05:16 7,5 °C 7,6 °C 83 % 1015,0 hPa 0,0 mm 5,6 km/h (1 Bft) W-SW 248 ° 0 min 0,000 mm 0,0 UV-I 0 W/m² 4,8 °C 6,7 °C 9,7 km/h (2 Bft)
07.06.2017 05:17 7,5 °C 7,6 °C 83 % 1015,0 hPa 0,0 mm 2,7 km/h (1 Bft) W 263 ° 0 min 0,000 mm 0,0 UV-I 0 W/m² 4,8 °C 7,5 °C 6,4 km/h (2 Bft)
07.06.2017 05:18 7,6 °C 7,6 °C 82 % 1015,0 hPa 0,0 mm 2,6 km/h (1 Bft) W-SW 250 ° 0 min 0,000 mm 0,0 UV-I 0 W/m² 4,7 °C 7,6 °C 6,4 km/h (2 Bft)
07.06.2017 05:19 7,6 °C 7,6 °C 82 % 1015,0 hPa 0,0 mm 2,8 km/h (1 Bft) SW 231 ° 0 min 0,000 mm 0,0 UV-I 0 W/m² 4,7 °C 7,6 °C 6,4 km/h (2 Bft)
07.06.2017 05:20 7,6 °C 7,6 °C 82 % 1015,0 hPa 0,0 mm 2,3 km/h (1 Bft) SW 234 ° 0 min 0,000 mm 0,0 UV-I 0 W/m² 4,7 °C 7,6 °C 4,8 km/h (1 Bft)
07.06.2017 05:21 7,6 °C 7,6 °C 82 % 1015,1 hPa 0,0 mm 6,4 km/h (2 Bft) W-SW 247 ° 0 min 0,000 mm 0,0 UV-I 0 W/m² 4,7 °C 6,6 °C 12,9 km/h (3 Bft)
07.06.2017 05:22 7,6 °C 7,6 °C 82 % 1015,1 hPa 0,0 mm 3,7 km/h (1 Bft) SW 234 ° 0 min 0,000 mm 0,0 UV-I 0 W/m² 4,7 °C 7,6 °C 8,0 km/h (2 Bft)
07.06.2017 05:23 7,7 °C 7,7 °C 81 % 1015,1 hPa 0,0 mm 6,6 km/h (2 Bft) W-SW 248 ° 0 min 0,000 mm 0,0 UV-I 5 W/m² 4,7 °C 6,7 °C 12,9 km/h (3 Bft)
07.06.2017 05:24 7,6 °C 7,7 °C 82 % 1015,1 hPa 0,0 mm 6,2 km/h (2 Bft) W-SW 248 ° 0 min 0,000 mm 0,0 UV-I 5 W/m² 4,7 °C 6,7 °C 11,3 km/h (2 Bft)
07.06.2017 05:25 7,6 °C 7,6 °C 83 % 1015,1 hPa 0,0 mm 6,4 km/h (2 Bft) W-SW 256 ° 0 min 0,000 mm 0,0 UV-I 5 W/m² 4,9 °C 6,6 °C 9,7 km/h (2 Bft)
07.06.2017 05:26 7,6 °C 7,6 °C 83 % 1015,1 hPa 0,0 mm 6,0 km/h (2 Bft) W 264 ° 0 min 0,000 mm 0,0 UV-I 5 W/m² 4,9 °C 6,7 °C 11,3 km/h (2 Bft)
07.06.2017 05:27 7,4 °C 7,6 °C 83 % 1015,1 hPa 0,0 mm 3,5 km/h (1 Bft) W 279 ° 0 min 0,000 mm 0,0 UV-I 5 W/m² 4,7 °C 7,4 °C 4,8 km/h (1 Bft)
07.06.2017 05:28 7,4 °C 7,4 °C 83 % 1015,1 hPa 0,0 mm 3,8 km/h (1 Bft) W 270 ° 0 min 0,000 mm 0,0 UV-I 7 W/m² 4,7 °C 7,4 °C 4,8 km/h (1 Bft)
07.06.2017 05:29 7,3 °C 7,4 °C 83 % 1015,1 hPa 0,0 mm 8,3 km/h (2 Bft) W 271 ° 0 min 0,000 mm 0,0 UV-I 7 W/m² 4,6 °C 5,8 °C 12,9 km/h (3 Bft)
07.06.2017 05:30 7,2 °C 7,3 °C 84 % 1015,1 hPa 0,0 mm 6,0 km/h (2 Bft) W 267 ° 0 min 0,000 mm 0,0 UV-I 7 W/m² 4,7 °C 6,3 °C 9,7 km/h (2 Bft)
07.06.2017 05:31 7,2 °C 7,2 °C 84 % 1015,1 hPa 0,0 mm 3,7 km/h (1 Bft) W 277 ° 0 min 0,000 mm 0,0 UV-I 7 W/m² 4,7 °C 7,2 °C 6,4 km/h (2 Bft)
07.06.2017 05:32 7,1 °C 7,2 °C 85 % 1015,1 hPa 0,0 mm 4,7 km/h (1 Bft) W 277 ° 0 min 0,000 mm 0,0 UV-I 7 W/m² 4,8 °C 6,6 °C 9,7 km/h (2 Bft)
07.06.2017 05:33 7,1 °C 7,1 °C 85 % 1015,2 hPa 0,0 mm 7,0 km/h (2 Bft) W 259 ° 0 min 0,000 mm 0,0 UV-I 7 W/m² 4,8 °C 5,9 °C 12,9 km/h (3 Bft)
07.06.2017 05:34 7,0 °C 7,1 °C 84 % 1015,2 hPa 0,0 mm 10,2 km/h (2 Bft) W-SW 248 ° 0 min 0,000 mm 0,0 UV-I 7 W/m² 4,5 °C 5,0 °C 14,5 km/h (3 Bft)
07.06.2017 05:35 6,9 °C 7,0 °C 85 % 1015,2 hPa 0,0 mm 6,3 km/h (2 Bft) W-NW 292 ° 0 min 0,000 mm 0,0 UV-I 7 W/m² 4,6 °C 5,8 °C 9,7 km/h (2 Bft)
07.06.2017 05:36 6,9 °C 6,9 °C 85 % 1015,2 hPa 0,0 mm 5,2 km/h (1 Bft) W-SW 258 ° 0 min 0,000 mm 0,0 UV-I 9 W/m² 4,6 °C 6,2 °C 9,7 km/h (2 Bft)
07.06.2017 05:37 6,9 °C 6,9 °C 86 % 1015,2 hPa 0,0 mm 7,7 km/h (2 Bft) W 265 ° 0 min 0,000 mm 0,0 UV-I 9 W/m² 4,7 °C 5,4 °C 11,3 km/h (2 Bft)
07.06.2017 05:38 6,8 °C 6,9 °C 85 % 1015,2 hPa 0,0 mm 3,5 km/h (1 Bft) W 268 ° 0 min 0,000 mm 0,0 UV-I 11 W/m² 4,5 °C 6,8 °C 6,4 km/h (2 Bft)
07.06.2017 05:39 6,8 °C 6,8 °C 86 % 1015,2 hPa 0,0 mm 4,1 km/h (1 Bft) W-SW 258 ° 0 min 0,000 mm 0,0 UV-I 11 W/m² 4,6 °C 6,8 °C 6,4 km/h (2 Bft)
07.06.2017 05:40 6,8 °C 6,8 °C 86 % 1015,2 hPa 0,0 mm 5,0 km/h (1 Bft) W 279 ° 0 min 0,000 mm 0,0 UV-I 11 W/m² 4,6 °C 6,1 °C 9,7 km/h (2 Bft)
07.06.2017 05:41 6,8 °C 6,8 °C 86 % 1015,2 hPa 0,0 mm 5,0 km/h (1 Bft) W 272 ° 0 min 0,000 mm 0,0 UV-I 14 W/m² 4,6 °C 6,1 °C 6,4 km/h (2 Bft)
07.06.2017 05:42 6,7 °C 6,8 °C 87 % 1015,3 hPa 0,0 mm 5,0 km/h (1 Bft) W-NW 284 ° 0 min 0,000 mm 0,0 UV-I 14 W/m² 4,7 °C 6,0 °C 9,7 km/h (2 Bft)
07.06.2017 05:43 6,7 °C 6,7 °C 86 % 1015,3 hPa 0,0 mm 6,6 km/h (2 Bft) W 271 ° 0 min 0,000 mm 0,0 UV-I 14 W/m² 4,5 °C 5,5 °C 17,7 km/h (3 Bft)
07.06.2017 05:44 6,7 °C 6,7 °C 86 % 1015,3 hPa 0,0 mm 10,9 km/h (2 Bft) W 264 ° 0 min 0,000 mm 0,0 UV-I 14 W/m² 4,5 °C 4,5 °C 19,3 km/h (3 Bft)
07.06.2017 05:45 6,8 °C 6,8 °C 86 % 1015,3 hPa 0,0 mm 7,3 km/h (2 Bft) W 264 ° 0 min 0,000 mm 0,0 UV-I 16 W/m² 4,6 °C 5,4 °C 12,9 km/h (3 Bft)
07.06.2017 05:46 6,8 °C 6,8 °C 85 % 1015,4 hPa 0,0 mm 7,8 km/h (2 Bft) W-NW 284 ° 0 min 0,000 mm 0,0 UV-I 16 W/m² 4,5 °C 5,3 °C 11,3 km/h (2 Bft)
07.06.2017 05:47 6,9 °C 6,9 °C 86 % 1015,3 hPa 0,0 mm 8,0 km/h (2 Bft) W 273 ° 0 min 0,000 mm 0,0 UV-I 18 W/m² 4,7 °C 5,4 °C 12,9 km/h (3 Bft)
07.06.2017 05:48 6,9 °C 6,9 °C 85 % 1015,3 hPa 0,0 mm 6,4 km/h (2 Bft) W-SW 244 ° 0 min 0,000 mm 0,0 UV-I 18 W/m² 4,6 °C 5,8 °C 11,3 km/h (2 Bft)
07.06.2017 05:49 7,0 °C 7,0 °C 85 % 1015,4 hPa 0,0 mm 7,2 km/h (2 Bft) W 277 ° 0 min 0,000 mm 0,0 UV-I 18 W/m² 4,7 °C 5,7 °C 11,3 km/h (2 Bft)
07.06.2017 05:50 7,1 °C 7,1 °C 85 % 1015,4 hPa 0,0 mm 5,8 km/h (2 Bft) W 260 ° 0 min 0,000 mm 0,0 UV-I 21 W/m² 4,8 °C 6,2 °C 11,3 km/h (2 Bft)
07.06.2017 05:51 7,1 °C 7,1 °C 85 % 1015,3 hPa 0,0 mm 3,6 km/h (1 Bft) W 262 ° 0 min 0,000 mm 0,0 UV-I 23 W/m² 4,8 °C 7,1 °C 11,3 km/h (2 Bft)
07.06.2017 05:52 7,2 °C 7,2 °C 85 % 1015,4 hPa 0,0 mm 8,1 km/h (2 Bft) W-NW 299 ° 0 min 0,000 mm 0,0 UV-I 25 W/m² 4,9 °C 5,7 °C 14,5 km/h (3 Bft)
07.06.2017 05:53 7,2 °C 7,2 °C 84 % 1015,4 hPa 0,0 mm 9,1 km/h (2 Bft) W 272 ° 0 min 0,000 mm 0,0 UV-I 28 W/m² 4,7 °C 5,5 °C 14,5 km/h (3 Bft)
07.06.2017 05:54 7,3 °C 7,3 °C 84 % 1015,5 hPa 0,0 mm 9,8 km/h (2 Bft) W-NW 294 ° 0 min 0,000 mm 0,0 UV-I 30 W/m² 4,8 °C 5,4 °C 12,9 km/h (3 Bft)
07.06.2017 05:55 7,3 °C 7,3 °C 84 % 1015,5 hPa 0,0 mm 7,6 km/h (2 Bft) W 265 ° 0 min 0,000 mm 0,0 UV-I 32 W/m² 4,8 °C 5,9 °C 11,3 km/h (2 Bft)
07.06.2017 05:56 7,4 °C 7,4 °C 84 % 1015,5 hPa 0,0 mm 11,1 km/h (2 Bft) W 273 ° 0 min 0,000 mm 0,0 UV-I 33 W/m² 4,9 °C 5,3 °C 16,1 km/h (3 Bft)
07.06.2017 05:57 7,4 °C 7,4 °C 84 % 1015,5 hPa 0,0 mm 8,0 km/h (2 Bft) W 263 ° 0 min 0,000 mm 0,0 UV-I 35 W/m² 4,9 °C 6,0 °C 16,1 km/h (3 Bft)
07.06.2017 05:58 7,4 °C 7,4 °C 84 % 1015,5 hPa 0,0 mm 6,1 km/h (2 Bft) W 262 ° 0 min 0,000 mm 0,0 UV-I 37 W/m² 4,9 °C 6,5 °C 11,3 km/h (2 Bft)
07.06.2017 05:59 7,6 °C 7,6 °C 84 % 1015,5 hPa 0,0 mm 10,1 km/h (2 Bft) W-NW 302 ° 0 min 0,000 mm 0,0 UV-I 42 W/m² 5,1 °C 5,7 °C 16,1 km/h (3 Bft)
07.06.2017 06:00 7,6 °C 7,6 °C 83 % 1015,5 hPa 0,0 mm 9,3 km/h (2 Bft) W 264 ° 0 min 0,025 mm 0,0 UV-I 47 W/m² 4,9 °C 5,9 °C 16,1 km/h (3 Bft)
07.06.2017 06:01 7,7 °C 7,7 °C 84 % 1015,5 hPa 0,0 mm 6,8 km/h (2 Bft) W 259 ° 0 min 0,000 mm 0,0 UV-I 53 W/m² 5,2 °C 6,6 °C 11,3 km/h (2 Bft)
07.06.2017 06:02 7,8 °C 7,8 °C 83 % 1015,5 hPa 0,0 mm 6,5 km/h (2 Bft) W 263 ° 0 min 0,000 mm 0,0 UV-I 44 W/m² 5,1 °C 6,8 °C 11,3 km/h (2 Bft)
07.06.2017 06:03 7,8 °C 7,8 °C 83 % 1015,5 hPa 0,0 mm 7,0 km/h (2 Bft) NW 325 ° 0 min 0,000 mm 0,0 UV-I 35 W/m² 5,1 °C 6,7 °C 12,9 km/h (3 Bft)
07.06.2017 06:04 7,9 °C 7,9 °C 83 % 1015,6 hPa 0,0 mm 8,9 km/h (2 Bft) W-SW 252 ° 0 min 0,000 mm 0,0 UV-I 35 W/m² 5,2 °C 6,3 °C 11,3 km/h (2 Bft)
07.06.2017 06:05 8,0 °C 8,0 °C 82 % 1015,5 hPa 0,0 mm 6,7 km/h (2 Bft) W-SW 242 ° 0 min 0,000 mm 0,0 UV-I 35 W/m² 5,1 °C 7,0 °C 11,3 km/h (2 Bft)
07.06.2017 06:06 8,0 °C 8,0 °C 82 % 1015,6 hPa 0,0 mm 5,2 km/h (1 Bft) W 261 ° 0 min 0,000 mm 0,0 UV-I 40 W/m² 5,1 °C 7,4 °C 8,0 km/h (2 Bft)
07.06.2017 06:07 8,1 °C 8,1 °C 83 % 1015,5 hPa 0,0 mm 6,6 km/h (2 Bft) SW 235 ° 0 min 0,000 mm 0,0 UV-I 33 W/m² 5,4 °C 7,1 °C 11,3 km/h (2 Bft)
07.06.2017 06:08 8,0 °C 8,1 °C 82 % 1015,5 hPa 0,0 mm 3,8 km/h (1 Bft) W 267 ° 0 min 0,000 mm 0,0 UV-I 44 W/m² 5,1 °C 8,0 °C 9,7 km/h (2 Bft)
07.06.2017 06:09 8,1 °C 8,1 °C 83 % 1015,5 hPa 0,0 mm 7,8 km/h (2 Bft) W 259 ° 0 min 0,000 mm 0,0 UV-I 35 W/m² 5,4 °C 6,8 °C 11,3 km/h (2 Bft)
07.06.2017 06:10 8,1 °C 8,1 °C 82 % 1015,5 hPa 0,0 mm 4,4 km/h (1 Bft) W 271 ° 0 min 0,000 mm 0,0 UV-I 35 W/m² 5,2 °C 8,1 °C 8,0 km/h (2 Bft)
07.06.2017 06:11 8,1 °C 8,1 °C 81 % 1015,5 hPa 0,0 mm 6,2 km/h (2 Bft) W-SW 250 ° 0 min 0,000 mm 0,0 UV-I 37 W/m² 5,0 °C 7,2 °C 17,7 km/h (3 Bft)
07.06.2017 06:12 8,2 °C 8,2 °C 81 % 1015,5 hPa 0,0 mm 8,1 km/h (2 Bft) W 261 ° 0 min 0,000 mm 0,0 UV-I 42 W/m² 5,1 °C 6,9 °C 14,5 km/h (3 Bft)
07.06.2017 06:13 8,2 °C 8,2 °C 81 % 1015,5 hPa 0,0 mm 7,1 km/h (2 Bft) W 262 ° 0 min 0,000 mm 0,0 UV-I 65 W/m² 5,1 °C 7,1 °C 11,3 km/h (2 Bft)
07.06.2017 06:14 8,3 °C 8,3 °C 81 % 1015,5 hPa 0,0 mm 7,7 km/h (2 Bft) W 275 ° 0 min 0,000 mm 0,0 UV-I 60 W/m² 5,2 °C 7,1 °C 11,3 km/h (2 Bft)
07.06.2017 06:15 8,3 °C 8,3 °C 81 % 1015,5 hPa 0,0 mm 6,4 km/h (2 Bft) W-SW 247 ° 0 min 0,000 mm 0,0 UV-I 33 W/m² 5,2 °C 7,4 °C 11,3 km/h (2 Bft)
07.06.2017 06:16 8,3 °C 8,3 °C 81 % 1015,5 hPa 0,0 mm 6,2 km/h (2 Bft) W 269 ° 0 min 0,000 mm 0,0 UV-I 26 W/m² 5,2 °C 7,5 °C 11,3 km/h (2 Bft)
07.06.2017 06:17 8,4 °C 8,4 °C 81 % 1015,5 hPa 0,0 mm 5,6 km/h (1 Bft) W 265 ° 0 min 0,000 mm 0,0 UV-I 25 W/m² 5,3 °C 7,7 °C 11,3 km/h (2 Bft)
07.06.2017 06:18 8,4 °C 8,4 °C 81 % 1015,5 hPa 0,0 mm 6,4 km/h (2 Bft) W-SW 250 ° 0 min 0,000 mm 0,0 UV-I 25 W/m² 5,3 °C 7,5 °C 8,0 km/h (2 Bft)
07.06.2017 06:19 8,4 °C 8,4 °C 80 % 1015,5 hPa 0,0 mm 6,3 km/h (2 Bft) W 273 ° 0 min 0,000 mm 0,0 UV-I 30 W/m² 5,2 °C 7,5 °C 9,7 km/h (2 Bft)
07.06.2017 06:20 8,4 °C 8,4 °C 81 % 1015,5 hPa 0,0 mm 9,4 km/h (2 Bft) W-SW 242 ° 0 min 0,000 mm 0,0 UV-I 33 W/m² 5,3 °C 6,8 °C 14,5 km/h (3 Bft)
07.06.2017 06:21 8,3 °C 8,4 °C 80 % 1015,6 hPa 0,0 mm 8,6 km/h (2 Bft) W-SW 247 ° 0 min 0,000 mm 0,0 UV-I 35 W/m² 5,1 °C 6,9 °C 11,3 km/h (2 Bft)
07.06.2017 06:22 8,4 °C 8,4 °C 80 % 1015,6 hPa 0,0 mm 6,2 km/h (2 Bft) W-NW 287 ° 0 min 0,000 mm 0,0 UV-I 37 W/m² 5,2 °C 7,6 °C 12,9 km/h (3 Bft)
07.06.2017 06:23 8,4 °C 8,4 °C 81 % 1015,5 hPa 0,0 mm 7,4 km/h (2 Bft) W-SW 253 ° 0 min 0,000 mm 0,0 UV-I 39 W/m² 5,3 °C 7,3 °C 9,7 km/h (2 Bft)
07.06.2017 06:24 8,4 °C 8,4 °C 80 % 1015,5 hPa 0,0 mm 5,8 km/h (2 Bft) W 277 ° 0 min 0,000 mm 0,0 UV-I 40 W/m² 5,2 °C 7,7 °C 9,7 km/h (2 Bft)
07.06.2017 06:25 8,3 °C 8,4 °C 82 % 1015,5 hPa 0,0 mm 5,5 km/h (1 Bft) SW 228 ° 0 min 0,000 mm 0,0 UV-I 44 W/m² 5,4 °C 7,7 °C 6,4 km/h (2 Bft)
07.06.2017 06:26 8,3 °C 8,4 °C 81 % 1015,6 hPa 0,0 mm 7,3 km/h (2 Bft) W 266 ° 0 min 0,000 mm 0,0 UV-I 47 W/m² 5,2 °C 7,2 °C 11,3 km/h (2 Bft)
07.06.2017 06:27 8,3 °C 8,3 °C 81 % 1015,5 hPa 0,0 mm 5,9 km/h (2 Bft) W-SW 247 ° 0 min 0,000 mm 0,0 UV-I 49 W/m² 5,2 °C 7,5 °C 9,7 km/h (2 Bft)
07.06.2017 06:28 8,3 °C 8,3 °C 82 % 1015,5 hPa 0,0 mm 4,5 km/h (1 Bft) W 259 ° 0 min 0,000 mm 0,0 UV-I 49 W/m² 5,4 °C 8,3 °C 6,4 km/h (2 Bft)
07.06.2017 06:29 8,3 °C 8,3 °C 81 % 1015,5 hPa 0,0 mm 3,3 km/h (1 Bft) W-SW 238 ° 0 min 0,000 mm 0,0 UV-I 49 W/m² 5,2 °C 8,3 °C 8,0 km/h (2 Bft)
07.06.2017 06:30 8,3 °C 8,3 °C 82 % 1015,5 hPa 0,0 mm 3,9 km/h (1 Bft) S-SW 200 ° 0 min 0,000 mm 0,0 UV-I 49 W/m² 5,4 °C 8,3 °C 9,7 km/h (2 Bft)
07.06.2017 06:31 8,3 °C 8,3 °C 82 % 1015,5 hPa 0,0 mm 4,2 km/h (1 Bft) W 266 ° 0 min 0,000 mm 0,0 UV-I 53 W/m² 5,4 °C 8,3 °C 6,4 km/h (2 Bft)
07.06.2017 06:32 8,3 °C 8,3 °C 82 % 1015,6 hPa 0,0 mm 5,0 km/h (1 Bft) W-NW 294 ° 0 min 0,000 mm 0,0 UV-I 53 W/m² 5,4 °C 7,8 °C 6,4 km/h (2 Bft)
07.06.2017 06:33 8,3 °C 8,3 °C 82 % 1015,6 hPa 0,0 mm 6,3 km/h (2 Bft) W 278 ° 0 min 0,000 mm 0,0 UV-I 54 W/m² 5,4 °C 7,4 °C 9,7 km/h (2 Bft)
07.06.2017 06:34 8,3 °C 8,3 °C 82 % 1015,6 hPa 0,0 mm 2,9 km/h (1 Bft) W 278 ° 0 min 0,000 mm 0,0 UV-I 53 W/m² 5,4 °C 8,3 °C 4,8 km/h (1 Bft)
07.06.2017 06:35 8,3 °C 8,3 °C 83 % 1015,6 hPa 0,0 mm 3,5 km/h (1 Bft) W 277 ° 0 min 0,000 mm 0,0 UV-I 49 W/m² 5,6 °C 8,3 °C 4,8 km/h (1 Bft)
07.06.2017 06:36 8,3 °C 8,3 °C 83 % 1015,6 hPa 0,0 mm 6,6 km/h (2 Bft) W 279 ° 0 min 0,000 mm 0,0 UV-I 47 W/m² 5,6 °C 7,4 °C 14,5 km/h (3 Bft)
07.06.2017 06:37 8,3 °C 8,3 °C 84 % 1015,6 hPa 0,0 mm 3,8 km/h (1 Bft) W 280 ° 0 min 0,000 mm 0,0 UV-I 47 W/m² 5,8 °C 8,3 °C 6,4 km/h (2 Bft)
07.06.2017 06:38 8,3 °C 8,3 °C 83 % 1015,6 hPa 0,0 mm 4,6 km/h (1 Bft) SW 225 ° 0 min 0,000 mm 0,0 UV-I 49 W/m² 5,6 °C 8,0 °C 8,0 km/h (2 Bft)
07.06.2017 06:39 8,3 °C 8,3 °C 83 % 1015,6 hPa 0,0 mm 4,2 km/h (1 Bft) W-SW 252 ° 0 min 0,000 mm 0,0 UV-I 54 W/m² 5,6 °C 8,3 °C 6,4 km/h (2 Bft)
07.06.2017 06:40 8,3 °C 8,3 °C 83 % 1015,6 hPa 0,0 mm 3,6 km/h (1 Bft) W-SW 240 ° 0 min 0,000 mm 0,0 UV-I 56 W/m² 5,6 °C 8,3 °C 4,8 km/h (1 Bft)
07.06.2017 06:41 8,4 °C 8,4 °C 83 % 1015,6 hPa 0,0 mm 6,1 km/h (2 Bft) W-SW 252 ° 0 min 0,000 mm 0,0 UV-I 53 W/m² 5,7 °C 7,6 °C 11,3 km/h (2 Bft)
07.06.2017 06:42 8,4 °C 8,4 °C 82 % 1015,7 hPa 0,0 mm 4,2 km/h (1 Bft) W-NW 282 ° 0 min 0,000 mm 0,0 UV-I 49 W/m² 5,5 °C 8,4 °C 6,4 km/h (2 Bft)
07.06.2017 06:43 8,4 °C 8,4 °C 83 % 1015,7 hPa 0,0 mm 4,5 km/h (1 Bft) W 272 ° 0 min 0,000 mm 0,0 UV-I 39 W/m² 5,7 °C 8,4 °C 9,7 km/h (2 Bft)
07.06.2017 06:44 8,4 °C 8,4 °C 82 % 1015,7 hPa 0,0 mm 4,5 km/h (1 Bft) W-SW 256 ° 0 min 0,000 mm 0,0 UV-I 37 W/m² 5,5 °C 8,4 °C 6,4 km/h (2 Bft)
07.06.2017 06:45 8,4 °C 8,4 °C 82 % 1015,7 hPa 0,0 mm 6,8 km/h (2 Bft) W-SW 245 ° 0 min 0,000 mm 0,0 UV-I 35 W/m² 5,5 °C 7,4 °C 12,9 km/h (3 Bft)
07.06.2017 06:46 8,4 °C 8,4 °C 81 % 1015,6 hPa 0,0 mm 5,3 km/h (1 Bft) W-SW 258 ° 0 min 0,000 mm 0,0 UV-I 33 W/m² 5,3 °C 7,8 °C 6,4 km/h (2 Bft)
07.06.2017 06:47 8,5 °C 8,5 °C 82 % 1015,7 hPa 0,0 mm 3,8 km/h (1 Bft) W-SW 248 ° 0 min 0,000 mm 0,0 UV-I 33 W/m² 5,6 °C 8,5 °C 6,4 km/h (2 Bft)
07.06.2017 06:48 8,5 °C 8,5 °C 81 % 1015,7 hPa 0,0 mm 2,4 km/h (1 Bft) SW 227 ° 0 min 0,000 mm 0,0 UV-I 35 W/m² 5,4 °C 8,5 °C 3,2 km/h (1 Bft)
07.06.2017 06:49 8,5 °C 8,5 °C 81 % 1015,7 hPa 0,0 mm 4,8 km/h (1 Bft) SW 236 ° 0 min 0,000 mm 0,0 UV-I 47 W/m² 5,4 °C 8,1 °C 9,7 km/h (2 Bft)
07.06.2017 06:50 8,5 °C 8,6 °C 81 % 1015,7 hPa 0,0 mm 3,3 km/h (1 Bft) W 267 ° 0 min 0,000 mm 0,0 UV-I 54 W/m² 5,4 °C 8,5 °C 6,4 km/h (2 Bft)
07.06.2017 06:51 8,6 °C 8,6 °C 80 % 1015,7 hPa 0,0 mm 6,5 km/h (2 Bft) W-SW 249 ° 0 min 0,000 mm 0,0 UV-I 67 W/m² 5,3 °C 7,7 °C 11,3 km/h (2 Bft)
07.06.2017 06:52 8,6 °C 8,6 °C 79 % 1015,7 hPa 0,0 mm 3,0 km/h (1 Bft) W-SW 244 ° 0 min 0,000 mm 0,0 UV-I 74 W/m² 5,2 °C 8,6 °C 4,8 km/h (1 Bft)
07.06.2017 06:53 8,6 °C 8,6 °C 80 % 1015,7 hPa 0,0 mm 4,7 km/h (1 Bft) W-SW 240 ° 0 min 0,000 mm 0,0 UV-I 77 W/m² 5,3 °C 8,3 °C 6,4 km/h (2 Bft)
07.06.2017 06:54 8,6 °C 8,7 °C 80 % 1015,8 hPa 0,0 mm 6,6 km/h (2 Bft) W 279 ° 0 min 0,000 mm 0,0 UV-I 81 W/m² 5,3 °C 7,7 °C 11,3 km/h (2 Bft)
07.06.2017 06:55 8,7 °C 8,7 °C 80 % 1015,8 hPa 0,0 mm 7,6 km/h (2 Bft) S-SW 207 ° 0 min 0,000 mm 0,0 UV-I 88 W/m² 5,4 °C 7,6 °C 9,7 km/h (2 Bft)
07.06.2017 06:56 8,7 °C 8,7 °C 80 % 1015,8 hPa 0,0 mm 6,6 km/h (2 Bft) W-NW 290 ° 0 min 0,000 mm 0,5 UV-I 95 W/m² 5,4 °C 7,8 °C 14,5 km/h (3 Bft)
07.06.2017 06:57 8,7 °C 8,8 °C 80 % 1015,8 hPa 0,0 mm 6,1 km/h (2 Bft) W 278 ° 0 min 0,000 mm 0,5 UV-I 100 W/m² 5,4 °C 7,9 °C 11,3 km/h (2 Bft)
07.06.2017 06:58 8,8 °C 8,8 °C 80 % 1015,8 hPa 0,0 mm 6,8 km/h (2 Bft) W-NW 303 ° 0 min 0,000 mm 0,5 UV-I 105 W/m² 5,5 °C 7,9 °C 9,7 km/h (2 Bft)
07.06.2017 06:59 8,8 °C 8,8 °C 81 % 1015,8 hPa 0,0 mm 6,2 km/h (2 Bft) W 268 ° 0 min 0,000 mm 0,5 UV-I 109 W/m² 5,7 °C 8,0 °C 9,7 km/h (2 Bft)
07.06.2017 07:00 8,8 °C 8,8 °C 80 % 1015,8 hPa 0,0 mm 9,1 km/h (2 Bft) NW 313 ° 0 min 0,000 mm 0,5 UV-I 100 W/m² 5,5 °C 7,4 °C 11,3 km/h (2 Bft)
07.06.2017 07:01 8,9 °C 8,9 °C 80 % 1015,8 hPa 0,0 mm 5,7 km/h (1 Bft) W-SW 249 ° 0 min 0,026 mm 0,5 UV-I 98 W/m² 5,6 °C 8,3 °C 11,3 km/h (2 Bft)
07.06.2017 07:02 8,9 °C 8,9 °C 80 % 1015,8 hPa 0,0 mm 6,4 km/h (2 Bft) W 263 ° 0 min 0,000 mm 0,5 UV-I 98 W/m² 5,6 °C 8,1 °C 11,3 km/h (2 Bft)
07.06.2017 07:03 8,9 °C 8,9 °C 81 % 1015,8 hPa 0,0 mm 4,1 km/h (1 Bft) W 266 ° 0 min 0,000 mm 0,5 UV-I 100 W/m² 5,8 °C 8,9 °C 4,8 km/h (1 Bft)
07.06.2017 07:04 8,9 °C 8,9 °C 81 % 1015,8 hPa 0,0 mm 5,1 km/h (1 Bft) W 280 ° 0 min 0,000 mm 0,5 UV-I 97 W/m² 5,8 °C 8,5 °C 9,7 km/h (2 Bft)
07.06.2017 07:05 8,9 °C 8,9 °C 81 % 1015,9 hPa 0,0 mm 4,0 km/h (1 Bft) W-NW 287 ° 0 min 0,000 mm 0,6 UV-I 123 W/m² 5,8 °C 8,9 °C 6,4 km/h (2 Bft)
07.06.2017 07:06 8,9 °C 8,9 °C 82 % 1015,9 hPa 0,0 mm 3,9 km/h (1 Bft) W 281 ° 0 min 0,000 mm 0,6 UV-I 100 W/m² 6,0 °C 8,9 °C 6,4 km/h (2 Bft)
07.06.2017 07:07 8,9 °C 8,9 °C 83 % 1015,9 hPa 0,0 mm 8,7 km/h (2 Bft) W-SW 258 ° 0 min 0,000 mm 0,6 UV-I 104 W/m² 6,2 °C 7,6 °C 11,3 km/h (2 Bft)
07.06.2017 07:08 8,9 °C 8,9 °C 83 % 1015,9 hPa 0,0 mm 7,2 km/h (2 Bft) W-NW 290 ° 0 min 0,000 mm 0,5 UV-I 104 W/m² 6,2 °C 7,9 °C 11,3 km/h (2 Bft)
07.06.2017 07:09 8,9 °C 8,9 °C 82 % 1016,0 hPa 0,0 mm 7,4 km/h (2 Bft) NW 317 ° 0 min 0,000 mm 0,5 UV-I 98 W/m² 6,0 °C 7,9 °C 11,3 km/h (2 Bft)
07.06.2017 07:10 8,9 °C 8,9 °C 82 % 1015,9 hPa 0,0 mm 7,6 km/h (2 Bft) W 271 ° 0 min 0,000 mm 0,6 UV-I 93 W/m² 6,0 °C 7,8 °C 11,3 km/h (2 Bft)
07.06.2017 07:11 8,9 °C 8,9 °C 83 % 1015,9 hPa 0,0 mm 4,6 km/h (1 Bft) W 271 ° 0 min 0,000 mm 0,6 UV-I 91 W/m² 6,2 °C 8,6 °C 6,4 km/h (2 Bft)
07.06.2017 07:12 8,9 °C 8,9 °C 82 % 1015,9 hPa 0,0 mm 4,8 km/h (1 Bft) W-SW 250 ° 0 min 0,000 mm 0,6 UV-I 84 W/m² 6,0 °C 8,6 °C 8,0 km/h (2 Bft)
07.06.2017 07:13 8,9 °C 8,9 °C 83 % 1015,9 hPa 0,0 mm 4,1 km/h (1 Bft) W-NW 287 ° 0 min 0,000 mm 0,6 UV-I 86 W/m² 6,2 °C 8,9 °C 6,4 km/h (2 Bft)
07.06.2017 07:14 8,9 °C 8,9 °C 82 % 1015,9 hPa 0,0 mm 3,6 km/h (1 Bft) W-NW 287 ° 0 min 0,000 mm 0,6 UV-I 86 W/m² 6,0 °C 8,9 °C 4,8 km/h (1 Bft)
07.06.2017 07:15 8,9 °C 8,9 °C 82 % 1015,9 hPa 0,0 mm 4,9 km/h (1 Bft) W 263 ° 0 min 0,000 mm 0,6 UV-I 88 W/m² 6,0 °C 8,5 °C 8,0 km/h (2 Bft)
07.06.2017 07:16 8,9 °C 8,9 °C 81 % 1016,0 hPa 0,0 mm 7,9 km/h (2 Bft) W 277 ° 0 min 0,000 mm 0,6 UV-I 95 W/m² 5,8 °C 7,7 °C 11,3 km/h (2 Bft)
07.06.2017 07:17 8,9 °C 8,9 °C 81 % 1016,0 hPa 0,0 mm 6,8 km/h (2 Bft) W 265 ° 0 min 0,000 mm 0,7 UV-I 105 W/m² 5,8 °C 8,0 °C 9,7 km/h (2 Bft)
07.06.2017 07:18 8,9 °C 8,9 °C 82 % 1016,1 hPa 0,0 mm 5,0 km/h (1 Bft) W-NW 283 ° 0 min 0,000 mm 0,7 UV-I 142 W/m² 6,0 °C 8,5 °C 11,3 km/h (2 Bft)
07.06.2017 07:19 8,9 °C 9,0 °C 81 % 1016,0 hPa 0,0 mm 4,0 km/h (1 Bft) W 276 ° 0 min 0,000 mm 0,7 UV-I 158 W/m² 5,8 °C 8,9 °C 8,0 km/h (2 Bft)
07.06.2017 07:20 9,0 °C 9,0 °C 81 % 1016,1 hPa 0,0 mm 4,8 km/h (1 Bft) W-NW 284 ° 0 min 0,000 mm 0,8 UV-I 169 W/m² 5,9 °C 8,7 °C 6,4 km/h (2 Bft)
07.06.2017 07:21 9,1 °C 9,1 °C 82 % 1016,1 hPa 0,0 mm 6,2 km/h (2 Bft) W-NW 285 ° 0 min 0,000 mm 0,8 UV-I 181 W/m² 6,2 °C 8,4 °C 11,3 km/h (2 Bft)
07.06.2017 07:22 9,1 °C 9,1 °C 81 % 1016,1 hPa 0,0 mm 11,7 km/h (2 Bft) NW 308 ° 0 min 0,000 mm 0,8 UV-I 190 W/m² 6,0 °C 7,3 °C 14,5 km/h (3 Bft)
07.06.2017 07:23 9,2 °C 9,2 °C 81 % 1016,1 hPa 0,0 mm 11,5 km/h (2 Bft) W 264 ° 0 min 0,000 mm 0,8 UV-I 193 W/m² 6,1 °C 7,4 °C 14,5 km/h (3 Bft)
07.06.2017 07:24 9,2 °C 9,2 °C 82 % 1016,1 hPa 0,0 mm 7,0 km/h (2 Bft) W-SW 238 ° 0 min 0,000 mm 0,8 UV-I 190 W/m² 6,3 °C 8,3 °C 14,5 km/h (3 Bft)
07.06.2017 07:25 9,3 °C 9,3 °C 82 % 1016,1 hPa 0,0 mm 9,6 km/h (2 Bft) W 267 ° 0 min 0,000 mm 1,0 UV-I 287 W/m² 6,4 °C 7,9 °C 12,9 km/h (3 Bft)
07.06.2017 07:26 9,4 °C 9,4 °C 82 % 1016,1 hPa 0,0 mm 6,9 km/h (2 Bft) W 279 ° 0 min 0,000 mm 1,0 UV-I 287 W/m² 6,5 °C 8,6 °C 11,3 km/h (2 Bft)
07.06.2017 07:27 9,7 °C 9,7 °C 81 % 1016,1 hPa 0,0 mm 9,4 km/h (2 Bft) W-NW 300 ° 1 min 0,000 mm 0,9 UV-I 292 W/m² 6,6 °C 8,4 °C 12,9 km/h (3 Bft)
07.06.2017 07:28 9,8 °C 9,8 °C 80 % 1016,2 hPa 0,0 mm 9,0 km/h (2 Bft) W-SW 257 ° 1 min 0,000 mm 0,8 UV-I 292 W/m² 6,5 °C 8,6 °C 14,5 km/h (3 Bft)
07.06.2017 07:29 9,8 °C 9,8 °C 80 % 1016,2 hPa 0,0 mm 6,1 km/h (2 Bft) W-SW 255 ° 0 min 0,000 mm 0,8 UV-I 135 W/m² 6,5 °C 9,2 °C 11,3 km/h (2 Bft)
07.06.2017 07:30 9,8 °C 9,8 °C 80 % 1016,2 hPa 0,0 mm 7,8 km/h (2 Bft) W 276 ° 0 min 0,000 mm 0,7 UV-I 121 W/m² 6,5 °C 8,8 °C 12,9 km/h (3 Bft)
07.06.2017 07:31 9,8 °C 9,8 °C 80 % 1016,2 hPa 0,0 mm 9,3 km/h (2 Bft) W-NW 287 ° 0 min 0,000 mm 0,7 UV-I 116 W/m² 6,5 °C 8,5 °C 12,9 km/h (3 Bft)
07.06.2017 07:32 9,7 °C 9,8 °C 80 % 1016,2 hPa 0,0 mm 10,5 km/h (2 Bft) W 275 ° 0 min 0,000 mm 0,7 UV-I 118 W/m² 6,4 °C 8,2 °C 14,5 km/h (3 Bft)
07.06.2017 07:33 9,7 °C 9,7 °C 80 % 1016,2 hPa 0,0 mm 9,4 km/h (2 Bft) W 265 ° 0 min 0,000 mm 0,7 UV-I 127 W/m² 6,4 °C 8,4 °C 16,1 km/h (3 Bft)
07.06.2017 07:34 9,6 °C 9,7 °C 81 % 1016,2 hPa 0,0 mm 8,1 km/h (2 Bft) W-NW 288 ° 0 min 0,000 mm 0,7 UV-I 137 W/m² 6,5 °C 8,5 °C 12,9 km/h (3 Bft)
07.06.2017 07:35 9,5 °C 9,6 °C 81 % 1016,3 hPa 0,0 mm 3,9 km/h (1 Bft) W 279 ° 0 min 0,000 mm 0,7 UV-I 141 W/m² 6,4 °C 9,5 °C 4,8 km/h (1 Bft)
07.06.2017 07:36 9,4 °C 9,5 °C 81 % 1016,3 hPa 0,0 mm 11,7 km/h (2 Bft) W-SW 248 ° 0 min 0,000 mm 0,8 UV-I 155 W/m² 6,3 °C 7,6 °C 17,7 km/h (3 Bft)
07.06.2017 07:37 9,4 °C 9,4 °C 81 % 1016,3 hPa 0,0 mm 9,1 km/h (2 Bft) W-NW 294 ° 0 min 0,000 mm 0,9 UV-I 179 W/m² 6,3 °C 8,1 °C 14,5 km/h (3 Bft)
07.06.2017 07:38 9,3 °C 9,4 °C 80 % 1016,3 hPa 0,0 mm 8,2 km/h (2 Bft) W-NW 290 ° 0 min 0,000 mm 1,0 UV-I 236 W/m² 6,0 °C 8,1 °C 16,1 km/h (3 Bft)
07.06.2017 07:39 9,3 °C 9,3 °C 81 % 1016,2 hPa 0,0 mm 9,6 km/h (2 Bft) W-NW 288 ° 0 min 0,000 mm 1,0 UV-I 262 W/m² 6,2 °C 7,9 °C 14,5 km/h (3 Bft)
07.06.2017 07:40 9,3 °C 9,3 °C 83 % 1016,3 hPa 0,0 mm 11,2 km/h (2 Bft) W-NW 285 ° 0 min 0,000 mm 1,0 UV-I 243 W/m² 6,6 °C 7,6 °C 12,9 km/h (3 Bft)
07.06.2017 07:41 9,4 °C 9,4 °C 82 % 1016,3 hPa 0,0 mm 14,7 km/h (3 Bft) W 275 ° 0 min 0,000 mm 1,0 UV-I 214 W/m² 6,5 °C 7,2 °C 17,7 km/h (3 Bft)
07.06.2017 07:42 9,4 °C 9,4 °C 82 % 1016,3 hPa 0,0 mm 12,4 km/h (3 Bft) W 263 ° 0 min 0,000 mm 0,9 UV-I 137 W/m² 6,5 °C 7,5 °C 14,5 km/h (3 Bft)
07.06.2017 07:43 9,3 °C 9,4 °C 82 % 1016,3 hPa 0,0 mm 15,9 km/h (3 Bft) W-NW 282 ° 0 min 0,000 mm 0,8 UV-I 135 W/m² 6,4 °C 6,9 °C 22,5 km/h (4 Bft)
07.06.2017 07:44 9,3 °C 9,3 °C 81 % 1016,3 hPa 0,0 mm 7,1 km/h (2 Bft) W 259 ° 0 min 0,000 mm 0,9 UV-I 135 W/m² 6,2 °C 8,4 °C 12,9 km/h (3 Bft)
07.06.2017 07:45 9,2 °C 9,3 °C 83 % 1016,3 hPa 0,0 mm 15,7 km/h (3 Bft) W 262 ° 0 min 0,000 mm 0,9 UV-I 132 W/m² 6,5 °C 6,8 °C 22,5 km/h (4 Bft)
07.06.2017 07:46 9,2 °C 9,2 °C 82 % 1016,3 hPa 0,0 mm 13,7 km/h (3 Bft) W-SW 254 ° 0 min 0,000 mm 0,9 UV-I 128 W/m² 6,3 °C 7,1 °C 25,7 km/h (4 Bft)
07.06.2017 07:47 9,1 °C 9,2 °C 83 % 1016,3 hPa 0,0 mm 16,2 km/h (3 Bft) W 259 ° 0 min 0,000 mm 0,9 UV-I 162 W/m² 6,4 °C 6,7 °C 29,0 km/h (5 Bft)
07.06.2017 07:48 9,0 °C 9,1 °C 81 % 1016,3 hPa 0,0 mm 17,8 km/h (3 Bft) W 269 ° 0 min 0,000 mm 1,1 UV-I 223 W/m² 5,9 °C 6,3 °C 22,5 km/h (4 Bft)
07.06.2017 07:49 9,0 °C 9,1 °C 83 % 1016,4 hPa 0,0 mm 9,9 km/h (2 Bft) W 266 ° 0 min 0,000 mm 1,1 UV-I 255 W/m² 6,3 °C 7,5 °C 17,7 km/h (3 Bft)
07.06.2017 07:50 9,1 °C 9,1 °C 82 % 1016,4 hPa 0,0 mm 16,9 km/h (3 Bft) W-NW 294 ° 1 min 0,000 mm 1,2 UV-I 306 W/m² 6,2 °C 6,6 °C 22,5 km/h (4 Bft)
07.06.2017 07:51 9,1 °C 9,1 °C 82 % 1016,4 hPa 0,0 mm 12,8 km/h (3 Bft) W-SW 241 ° 1 min 0,000 mm 1,3 UV-I 299 W/m² 6,2 °C 7,1 °C 17,7 km/h (3 Bft)
07.06.2017 07:52 9,2 °C 9,2 °C 83 % 1016,5 hPa 0,0 mm 10,1 km/h (2 Bft) W 274 ° 0 min 0,000 mm 1,4 UV-I 288 W/m² 6,5 °C 7,7 °C 16,1 km/h (3 Bft)
07.06.2017 07:53 9,3 °C 9,3 °C 83 % 1016,4 hPa 0,0 mm 16,4 km/h (3 Bft) W 276 ° 1 min 0,000 mm 1,4 UV-I 345 W/m² 6,6 °C 6,9 °C 20,9 km/h (4 Bft)
07.06.2017 07:54 9,4 °C 9,4 °C 83 % 1016,3 hPa 0,0 mm 14,8 km/h (3 Bft) W-NW 290 ° 0 min 0,000 mm 1,1 UV-I 207 W/m² 6,7 °C 7,2 °C 22,5 km/h (4 Bft)
07.06.2017 07:55 9,4 °C 9,4 °C 82 % 1016,4 hPa 0,0 mm 15,0 km/h (3 Bft) W 269 ° 0 min 0,000 mm 1,1 UV-I 200 W/m² 6,5 °C 7,2 °C 19,3 km/h (3 Bft)
07.06.2017 07:56 9,4 °C 9,4 °C 81 % 1016,4 hPa 0,0 mm 10,4 km/h (2 Bft) W-NW 292 ° 0 min 0,000 mm 1,1 UV-I 202 W/m² 6,3 °C 7,8 °C 14,5 km/h (3 Bft)
07.06.2017 07:57 9,3 °C 9,4 °C 81 % 1016,3 hPa 0,0 mm 13,6 km/h (3 Bft) W-SW 254 ° 0 min 0,000 mm 1,1 UV-I 204 W/m² 6,2 °C 7,2 °C 19,3 km/h (3 Bft)
07.06.2017 07:58 9,3 °C 9,3 °C 81 % 1016,3 hPa 0,0 mm 10,4 km/h (2 Bft) NW 305 ° 0 min 0,000 mm 1,2 UV-I 211 W/m² 6,2 °C 7,7 °C 16,1 km/h (3 Bft)
07.06.2017 07:59 9,3 °C 9,3 °C 82 % 1016,3 hPa 0,0 mm 14,0 km/h (3 Bft) W 281 ° 0 min 0,000 mm 1,6 UV-I 211 W/m² 6,4 °C 7,2 °C 19,3 km/h (3 Bft)
07.06.2017 08:00 9,4 °C 9,4 °C 81 % 1016,3 hPa 0,0 mm 14,6 km/h (3 Bft) W 277 ° 0 min 0,000 mm 1,2 UV-I 158 W/m² 6,3 °C 7,2 °C 19,3 km/h (3 Bft)
07.06.2017 08:01 9,4 °C 9,4 °C 81 % 1016,3 hPa 0,0 mm 11,3 km/h (2 Bft) W 277 ° 0 min 0,101 mm 1,1 UV-I 125 W/m² 6,3 °C 7,7 °C 17,7 km/h (3 Bft)
07.06.2017 08:02 9,3 °C 9,4 °C 80 % 1016,3 hPa 0,0 mm 12,5 km/h (3 Bft) W 279 ° 0 min 0,000 mm 1,1 UV-I 125 W/m² 6,0 °C 7,4 °C 20,9 km/h (4 Bft)
07.06.2017 08:03 9,3 °C 9,3 °C 81 % 1016,3 hPa 0,0 mm 11,1 km/h (2 Bft) NW 315 ° 0 min 0,000 mm 1,2 UV-I 163 W/m² 6,2 °C 7,6 °C 16,1 km/h (3 Bft)
07.06.2017 08:04 9,3 °C 9,3 °C 82 % 1016,4 hPa 0,0 mm 6,2 km/h (2 Bft) W-SW 247 ° 0 min 0,000 mm 1,6 UV-I 202 W/m² 6,4 °C 8,6 °C 12,9 km/h (3 Bft)
07.06.2017 08:05 9,3 °C 9,3 °C 82 % 1016,4 hPa 0,0 mm 8,2 km/h (2 Bft) W-NW 292 ° 0 min 0,000 mm 1,7 UV-I 260 W/m² 6,4 °C 8,1 °C 14,5 km/h (3 Bft)
07.06.2017 08:06 9,5 °C 9,5 °C 84 % 1016,3 hPa 0,0 mm 7,5 km/h (2 Bft) W-NW 300 ° 0 min 0,000 mm 1,7 UV-I 264 W/m² 6,9 °C 8,5 °C 14,5 km/h (3 Bft)
07.06.2017 08:07 9,7 °C 9,7 °C 83 % 1016,4 hPa 0,0 mm 9,7 km/h (2 Bft) W 275 ° 0 min 0,000 mm 1,7 UV-I 271 W/m² 7,0 °C 8,3 °C 16,1 km/h (3 Bft)
07.06.2017 08:08 9,8 °C 9,8 °C 81 % 1016,4 hPa 0,0 mm 7,4 km/h (2 Bft) W 267 ° 0 min 0,000 mm 1,7 UV-I 279 W/m² 6,7 °C 8,9 °C 14,5 km/h (3 Bft)
07.06.2017 08:09 9,8 °C 9,8 °C 82 % 1016,4 hPa 0,0 mm 11,9 km/h (2 Bft) W-NW 286 ° 0 min 0,000 mm 1,8 UV-I 287 W/m² 6,9 °C 8,1 °C 16,1 km/h (3 Bft)
07.06.2017 08:10 9,9 °C 9,9 °C 80 % 1016,4 hPa 0,0 mm 6,8 km/h (2 Bft) W 259 ° 1 min 0,000 mm 1,8 UV-I 294 W/m² 6,6 °C 9,2 °C 12,9 km/h (3 Bft)
07.06.2017 08:11 9,9 °C 9,9 °C 81 % 1016,5 hPa 0,0 mm 8,4 km/h (2 Bft) W 260 ° 1 min 0,000 mm 1,8 UV-I 311 W/m² 6,8 °C 8,8 °C 14,5 km/h (3 Bft)
07.06.2017 08:12 10,1 °C 10,1 °C 81 % 1016,4 hPa 0,0 mm 8,1 km/h (2 Bft) W-SW 244 ° 1 min 0,000 mm 1,8 UV-I 322 W/m² 7,0 °C 10,1 °C 12,9 km/h (3 Bft)
07.06.2017 08:13 10,1 °C 10,1 °C 81 % 1016,4 hPa 0,0 mm 13,0 km/h (3 Bft) W-NW 300 ° 1 min 0,000 mm 1,9 UV-I 336 W/m² 7,0 °C 10,1 °C 17,7 km/h (3 Bft)
07.06.2017 08:14 10,1 °C 10,1 °C 80 % 1016,5 hPa 0,0 mm 14,9 km/h (3 Bft) W 261 ° 1 min 0,000 mm 1,9 UV-I 345 W/m² 6,8 °C 10,1 °C 20,9 km/h (4 Bft)
07.06.2017 08:15 10,2 °C 10,2 °C 80 % 1016,5 hPa 0,0 mm 10,7 km/h (2 Bft) W 271 ° 1 min 0,000 mm 1,9 UV-I 355 W/m² 6,9 °C 10,2 °C 17,7 km/h (3 Bft)
07.06.2017 08:16 10,2 °C 10,2 °C 79 % 1016,5 hPa 0,0 mm 16,1 km/h (3 Bft) W-NW 294 ° 1 min 0,000 mm 2,0 UV-I 367 W/m² 6,7 °C 10,2 °C 22,5 km/h (4 Bft)
07.06.2017 08:17 10,3 °C 10,3 °C 80 % 1016,5 hPa 0,0 mm 8,4 km/h (2 Bft) W 265 ° 1 min 0,000 mm 2,0 UV-I 388 W/m² 7,0 °C 10,3 °C 16,1 km/h (3 Bft)
07.06.2017 08:18 10,3 °C 10,3 °C 80 % 1016,5 hPa 0,0 mm 5,6 km/h (1 Bft) W-SW 248 ° 1 min 0,000 mm 2,0 UV-I 399 W/m² 7,0 °C 10,3 °C 12,9 km/h (3 Bft)
07.06.2017 08:19 10,4 °C 10,4 °C 80 % 1016,5 hPa 0,0 mm 7,3 km/h (2 Bft) W 278 ° 1 min 0,000 mm 2,1 UV-I 404 W/m² 7,1 °C 10,4 °C 11,3 km/h (2 Bft)
07.06.2017 08:20 10,6 °C 10,6 °C 80 % 1016,5 hPa 0,0 mm 10,5 km/h (2 Bft) W-NW 302 ° 1 min 0,000 mm 2,0 UV-I 359 W/m² 7,3 °C 10,6 °C 16,1 km/h (3 Bft)
07.06.2017 08:21 10,6 °C 10,6 °C 79 % 1016,4 hPa 0,0 mm 13,7 km/h (3 Bft) W 268 ° 1 min 0,000 mm 1,9 UV-I 401 W/m² 7,1 °C 10,6 °C 19,3 km/h (3 Bft)
07.06.2017 08:22 10,6 °C 10,6 °C 78 % 1016,5 hPa 0,0 mm 10,1 km/h (2 Bft) W-NW 292 ° 1 min 0,000 mm 2,1 UV-I 422 W/m² 6,9 °C 10,6 °C 14,5 km/h (3 Bft)
07.06.2017 08:23 10,7 °C 10,7 °C 78 % 1016,4 hPa 0,0 mm 7,4 km/h (2 Bft) W 265 ° 1 min 0,000 mm 2,2 UV-I 432 W/m² 7,0 °C 10,7 °C 14,5 km/h (3 Bft)
07.06.2017 08:24 10,7 °C 10,7 °C 79 % 1016,4 hPa 0,0 mm 4,0 km/h (1 Bft) W-NW 298 ° 1 min 0,000 mm 2,2 UV-I 443 W/m² 7,2 °C 10,7 °C 6,4 km/h (2 Bft)
07.06.2017 08:25 10,9 °C 10,9 °C 81 % 1016,4 hPa 0,0 mm 4,0 km/h (1 Bft) W-SW 244 ° 1 min 0,000 mm 2,2 UV-I 450 W/m² 7,8 °C 10,9 °C 9,7 km/h (2 Bft)
07.06.2017 08:26 11,0 °C 11,0 °C 79 % 1016,4 hPa 0,0 mm 6,9 km/h (2 Bft) W-NW 290 ° 1 min 0,000 mm 2,3 UV-I 471 W/m² 7,5 °C 11,0 °C 12,9 km/h (3 Bft)
07.06.2017 08:27 11,2 °C 11,2 °C 81 % 1016,4 hPa 0,0 mm 7,4 km/h (2 Bft) W 278 ° 1 min 0,000 mm 2,4 UV-I 506 W/m² 8,1 °C 11,2 °C 11,3 km/h (2 Bft)
07.06.2017 08:28 11,3 °C 11,3 °C 79 % 1016,4 hPa 0,0 mm 13,4 km/h (3 Bft) W 262 ° 1 min 0,000 mm 2,4 UV-I 554 W/m² 7,8 °C 11,3 °C 19,3 km/h (3 Bft)
07.06.2017 08:29 11,4 °C 11,4 °C 79 % 1016,4 hPa 0,0 mm 11,7 km/h (2 Bft) SW 229 ° 1 min 0,000 mm 2,5 UV-I 578 W/m² 7,9 °C 11,4 °C 22,5 km/h (4 Bft)
07.06.2017 08:30 11,5 °C 11,5 °C 80 % 1016,4 hPa 0,0 mm 13,5 km/h (3 Bft) W-SW 257 ° 1 min 0,000 mm 2,5 UV-I 601 W/m² 8,2 °C 11,5 °C 16,1 km/h (3 Bft)
07.06.2017 08:31 11,6 °C 11,6 °C 75 % 1016,4 hPa 0,0 mm 14,9 km/h (3 Bft) W-SW 238 ° 1 min 0,000 mm 2,6 UV-I 615 W/m² 7,3 °C 11,6 °C 20,9 km/h (4 Bft)
07.06.2017 08:32 11,6 °C 11,6 °C 74 % 1016,5 hPa 0,0 mm 12,7 km/h (3 Bft) W 275 ° 1 min 0,000 mm 2,1 UV-I 615 W/m² 7,1 °C 11,6 °C 17,7 km/h (3 Bft)
07.06.2017 08:33 11,6 °C 11,6 °C 76 % 1016,4 hPa 0,0 mm 13,1 km/h (3 Bft) W 259 ° 1 min 0,000 mm 2,4 UV-I 425 W/m² 7,5 °C 11,6 °C 17,7 km/h (3 Bft)
07.06.2017 08:34 11,6 °C 11,6 °C 76 % 1016,4 hPa 0,0 mm 11,3 km/h (2 Bft) W-NW 301 ° 1 min 0,000 mm 1,7 UV-I 367 W/m² 7,5 °C 11,6 °C 14,5 km/h (3 Bft)
07.06.2017 08:35 11,5 °C 11,6 °C 74 % 1016,5 hPa 0,0 mm 14,0 km/h (3 Bft) W 278 ° 1 min 0,000 mm 2,2 UV-I 334 W/m² 7,0 °C 11,5 °C 25,7 km/h (4 Bft)
07.06.2017 08:36 11,4 °C 11,5 °C 75 % 1016,5 hPa 0,0 mm 13,9 km/h (3 Bft) W-NW 286 ° 1 min 0,000 mm 2,2 UV-I 401 W/m² 7,1 °C 11,4 °C 25,7 km/h (4 Bft)
07.06.2017 08:37 11,3 °C 11,4 °C 73 % 1016,4 hPa 0,0 mm 12,2 km/h (2 Bft) W 280 ° 1 min 0,000 mm 2,7 UV-I 401 W/m² 6,6 °C 11,3 °C 19,3 km/h (3 Bft)
07.06.2017 08:38 11,3 °C 11,3 °C 75 % 1016,5 hPa 0,0 mm 14,1 km/h (3 Bft) W-SW 238 ° 1 min 0,000 mm 1,9 UV-I 401 W/m² 7,0 °C 11,3 °C 20,9 km/h (4 Bft)
07.06.2017 08:39 11,3 °C 11,3 °C 74 % 1016,5 hPa 0,0 mm 14,0 km/h (3 Bft) NW 306 ° 1 min 0,000 mm 1,9 UV-I 343 W/m² 6,8 °C 11,3 °C 19,3 km/h (3 Bft)
07.06.2017 08:40 11,3 °C 11,3 °C 74 % 1016,5 hPa 0,0 mm 16,6 km/h (3 Bft) W-SW 257 ° 1 min 0,000 mm 2,6 UV-I 343 W/m² 6,8 °C 11,3 °C 27,4 km/h (4 Bft)
07.06.2017 08:41 11,3 °C 11,3 °C 73 % 1016,4 hPa 0,0 mm 17,2 km/h (3 Bft) W-NW 298 ° 1 min 0,000 mm 1,8 UV-I 499 W/m² 6,6 °C 11,3 °C 27,4 km/h (4 Bft)
07.06.2017 08:42 11,3 °C 11,3 °C 73 % 1016,6 hPa 0,0 mm 16,7 km/h (3 Bft) W-NW 290 ° 1 min 0,000 mm 2,1 UV-I 499 W/m² 6,6 °C 11,3 °C 24,1 km/h (4 Bft)
07.06.2017 08:43 11,2 °C 11,3 °C 74 % 1016,5 hPa 0,0 mm 16,6 km/h (3 Bft) W 274 ° 1 min 0,000 mm 2,4 UV-I 499 W/m² 6,7 °C 11,2 °C 24,1 km/h (4 Bft)
07.06.2017 08:44 11,2 °C 11,2 °C 74 % 1016,6 hPa 0,0 mm 13,3 km/h (3 Bft) W 263 ° 1 min 0,000 mm 2,8 UV-I 591 W/m² 6,7 °C 11,2 °C 22,5 km/h (4 Bft)
07.06.2017 08:45 11,2 °C 11,2 °C 73 % 1016,6 hPa 0,0 mm 15,0 km/h (3 Bft) W 259 ° 1 min 0,000 mm 2,7 UV-I 585 W/m² 6,5 °C 11,2 °C 20,9 km/h (4 Bft)
07.06.2017 08:46 11,3 °C 11,3 °C 77 % 1016,6 hPa 0,0 mm 14,1 km/h (3 Bft) W 271 ° 1 min 0,000 mm 2,5 UV-I 585 W/m² 7,4 °C 11,3 °C 19,3 km/h (3 Bft)
07.06.2017 08:47 11,3 °C 11,3 °C 75 % 1016,6 hPa 0,0 mm 12,5 km/h (3 Bft) W 270 ° 1 min 0,000 mm 2,8 UV-I 554 W/m² 7,0 °C 11,3 °C 17,7 km/h (3 Bft)
07.06.2017 08:48 11,3 °C 11,3 °C 76 % 1016,5 hPa 0,0 mm 10,7 km/h (2 Bft) W-NW 288 ° 1 min 0,000 mm 2,8 UV-I 522 W/m² 7,2 °C 11,3 °C 17,7 km/h (3 Bft)
07.06.2017 08:49 11,3 °C 11,3 °C 75 % 1016,5 hPa 0,0 mm 13,2 km/h (3 Bft) W-NW 288 ° 1 min 0,000 mm 2,8 UV-I 469 W/m² 7,0 °C 11,3 °C 22,5 km/h (4 Bft)
07.06.2017 08:50 11,3 °C 11,3 °C 74 % 1016,6 hPa 0,0 mm 14,6 km/h (3 Bft) W 267 ° 1 min 0,000 mm 2,7 UV-I 529 W/m² 6,8 °C 11,3 °C 24,1 km/h (4 Bft)
07.06.2017 08:51 11,3 °C 11,3 °C 75 % 1016,6 hPa 0,0 mm 12,8 km/h (3 Bft) W-NW 288 ° 1 min 0,000 mm 2,7 UV-I 529 W/m² 7,0 °C 11,3 °C 17,7 km/h (3 Bft)
07.06.2017 08:52 11,4 °C 11,4 °C 75 % 1016,6 hPa 0,0 mm 14,4 km/h (3 Bft) W-NW 302 ° 1 min 0,000 mm 2,8 UV-I 531 W/m² 7,1 °C 11,4 °C 29,0 km/h (5 Bft)
07.06.2017 08:53 11,4 °C 11,4 °C 76 % 1016,7 hPa 0,0 mm 17,8 km/h (3 Bft) W 281 ° 1 min 0,000 mm 2,8 UV-I 536 W/m² 7,3 °C 11,4 °C 29,0 km/h (5 Bft)
07.06.2017 08:54 11,4 °C 11,4 °C 73 % 1016,6 hPa 0,0 mm 12,7 km/h (3 Bft) W-SW 251 ° 1 min 0,000 mm 2,8 UV-I 538 W/m² 6,7 °C 11,4 °C 19,3 km/h (3 Bft)
07.06.2017 08:55 11,3 °C 11,4 °C 74 % 1016,6 hPa 0,0 mm 17,1 km/h (3 Bft) NW 309 ° 1 min 0,000 mm 2,8 UV-I 533 W/m² 6,8 °C 11,3 °C 25,7 km/h (4 Bft)
07.06.2017 08:56 11,3 °C 11,4 °C 74 % 1016,7 hPa 0,0 mm 19,9 km/h (4 Bft) W-SW 249 ° 1 min 0,000 mm 2,9 UV-I 526 W/m² 6,8 °C 11,3 °C 27,4 km/h (4 Bft)
07.06.2017 08:57 11,3 °C 11,3 °C 73 % 1016,7 hPa 0,0 mm 21,7 km/h (4 Bft) W-NW 301 ° 1 min 0,000 mm 2,9 UV-I 529 W/m² 6,6 °C 11,3 °C 30,6 km/h (5 Bft)
07.06.2017 08:58 11,3 °C 11,3 °C 73 % 1016,6 hPa 0,0 mm 18,7 km/h (3 Bft) W 265 ° 1 min 0,000 mm 2,9 UV-I 534 W/m² 6,6 °C 11,3 °C 30,6 km/h (5 Bft)
07.06.2017 08:59 11,3 °C 11,3 °C 75 % 1016,6 hPa 0,0 mm 14,5 km/h (3 Bft) W 266 ° 1 min 0,000 mm 3,0 UV-I 538 W/m² 7,0 °C 11,3 °C 24,1 km/h (4 Bft)
07.06.2017 09:00 11,3 °C 11,3 °C 73 % 1016,6 hPa 0,0 mm 16,7 km/h (3 Bft) W-SW 258 ° 1 min 0,000 mm 3,0 UV-I 541 W/m² 6,6 °C 11,3 °C 19,3 km/h (3 Bft)
07.06.2017 09:01 11,3 °C 11,3 °C 73 % 1016,6 hPa 0,0 mm 13,6 km/h (3 Bft) W-NW 288 ° 1 min 0,229 mm 3,0 UV-I 548 W/m² 6,6 °C 11,3 °C 17,7 km/h (3 Bft)
07.06.2017 09:02 11,2 °C 11,3 °C 71 % 1016,6 hPa 0,0 mm 8,2 km/h (2 Bft) W 277 ° 1 min 0,000 mm 3,0 UV-I 552 W/m² 6,1 °C 11,2 °C 14,5 km/h (3 Bft)
07.06.2017 09:03 11,2 °C 11,2 °C 75 % 1016,6 hPa 0,0 mm 15,7 km/h (3 Bft) W-SW 249 ° 1 min 0,000 mm 3,1 UV-I 573 W/m² 6,9 °C 11,2 °C 22,5 km/h (4 Bft)
07.06.2017 09:04 11,2 °C 11,3 °C 73 % 1016,6 hPa 0,0 mm 16,0 km/h (3 Bft) W 267 ° 1 min 0,000 mm 3,1 UV-I 591 W/m² 6,5 °C 11,2 °C 22,5 km/h (4 Bft)
07.06.2017 09:05 11,2 °C 11,2 °C 73 % 1016,6 hPa 0,0 mm 8,0 km/h (2 Bft) W 265 ° 1 min 0,000 mm 3,3 UV-I 617 W/m² 6,5 °C 11,2 °C 14,5 km/h (3 Bft)
07.06.2017 09:06 11,3 °C 11,3 °C 74 % 1016,6 hPa 0,0 mm 9,3 km/h (2 Bft) W 269 ° 1 min 0,000 mm 3,3 UV-I 642 W/m² 6,8 °C 11,3 °C 14,5 km/h (3 Bft)
07.06.2017 09:07 11,3 °C 11,3 °C 73 % 1016,5 hPa 0,0 mm 6,5 km/h (2 Bft) W 271 ° 1 min 0,000 mm 3,4 UV-I 666 W/m² 6,6 °C 11,3 °C 14,5 km/h (3 Bft)
07.06.2017 09:08 11,4 °C 11,4 °C 74 % 1016,6 hPa 0,0 mm 15,0 km/h (3 Bft) W 275 ° 1 min 0,000 mm 2,9 UV-I 666 W/m² 6,9 °C 11,4 °C 22,5 km/h (4 Bft)
07.06.2017 09:09 11,3 °C 11,4 °C 73 % 1016,5 hPa 0,0 mm 15,2 km/h (3 Bft) W 260 ° 0 min 0,000 mm 1,9 UV-I 146 W/m² 6,6 °C 11,3 °C 30,6 km/h (5 Bft)
07.06.2017 09:10 11,2 °C 11,3 °C 71 % 1016,5 hPa 0,0 mm 17,2 km/h (3 Bft) W 261 ° 0 min 0,000 mm 1,9 UV-I 192 W/m² 6,1 °C 11,2 °C 22,5 km/h (4 Bft)
07.06.2017 09:11 11,1 °C 11,2 °C 72 % 1016,5 hPa 0,0 mm 13,3 km/h (3 Bft) W-SW 249 ° 0 min 0,000 mm 2,9 UV-I 192 W/m² 6,2 °C 11,1 °C 17,7 km/h (3 Bft)
07.06.2017 09:12 10,9 °C 11,1 °C 74 % 1016,6 hPa 0,0 mm 15,5 km/h (3 Bft) W-NW 298 ° 0 min 0,000 mm 3,1 UV-I 192 W/m² 6,5 °C 10,9 °C 22,5 km/h (4 Bft)
07.06.2017 09:13 10,9 °C 10,9 °C 74 % 1016,6 hPa 0,0 mm 8,2 km/h (2 Bft) W-NW 285 ° 1 min 0,000 mm 3,3 UV-I 410 W/m² 6,5 °C 10,9 °C 12,9 km/h (3 Bft)
07.06.2017 09:14 11,2 °C 11,2 °C 76 % 1016,5 hPa 0,0 mm 6,1 km/h (2 Bft) NW 310 ° 1 min 0,000 mm 3,3 UV-I 410 W/m² 7,1 °C 11,2 °C 9,7 km/h (2 Bft)
07.06.2017 09:15 11,3 °C 11,3 °C 77 % 1016,5 hPa 0,0 mm 14,4 km/h (3 Bft) W-NW 294 ° 1 min 0,000 mm 3,3 UV-I 585 W/m² 7,4 °C 11,3 °C 19,3 km/h (3 Bft)
07.06.2017 09:16 11,4 °C 11,4 °C 74 % 1016,6 hPa 0,0 mm 15,2 km/h (3 Bft) W 279 ° 1 min 0,000 mm 3,3 UV-I 584 W/m² 6,9 °C 11,4 °C 25,7 km/h (4 Bft)
07.06.2017 09:17 11,4 °C 11,4 °C 73 % 1016,5 hPa 0,0 mm 10,3 km/h (2 Bft) W-NW 291 ° 1 min 0,000 mm 3,3 UV-I 582 W/m² 6,7 °C 11,4 °C 17,7 km/h (3 Bft)
07.06.2017 09:18 11,4 °C 11,4 °C 74 % 1016,5 hPa 0,0 mm 17,2 km/h (3 Bft) W-NW 291 ° 1 min 0,000 mm 3,4 UV-I 582 W/m² 6,9 °C 11,4 °C 24,1 km/h (4 Bft)
07.06.2017 09:19 11,4 °C 11,4 °C 75 % 1016,5 hPa 0,0 mm 14,3 km/h (3 Bft) W 271 ° 1 min 0,000 mm 3,4 UV-I 584 W/m² 7,1 °C 11,4 °C 20,9 km/h (4 Bft)
07.06.2017 09:20 11,5 °C 11,5 °C 74 % 1016,5 hPa 0,0 mm 12,9 km/h (3 Bft) NW 311 ° 1 min 0,000 mm 3,4 UV-I 584 W/m² 7,0 °C 11,5 °C 16,1 km/h (3 Bft)
07.06.2017 09:21 11,6 °C 11,6 °C 73 % 1016,5 hPa 0,0 mm 9,6 km/h (2 Bft) NW 317 ° 1 min 0,000 mm 3,4 UV-I 591 W/m² 6,9 °C 11,6 °C 14,5 km/h (3 Bft)
07.06.2017 09:22 11,6 °C 11,6 °C 75 % 1016,5 hPa 0,0 mm 11,7 km/h (2 Bft) W 279 ° 1 min 0,000 mm 3,5 UV-I 596 W/m² 7,3 °C 11,6 °C 17,7 km/h (3 Bft)
07.06.2017 09:23 11,6 °C 11,6 °C 74 % 1016,5 hPa 0,0 mm 16,6 km/h (3 Bft) W 273 ° 1 min 0,000 mm 3,5 UV-I 599 W/m² 7,1 °C 11,6 °C 20,9 km/h (4 Bft)
07.06.2017 09:24 11,6 °C 11,6 °C 73 % 1016,5 hPa 0,0 mm 13,5 km/h (3 Bft) W-NW 295 ° 1 min 0,000 mm 3,5 UV-I 601 W/m² 6,9 °C 11,6 °C 19,3 km/h (3 Bft)
07.06.2017 09:25 11,6 °C 11,6 °C 73 % 1016,5 hPa 0,0 mm 13,9 km/h (3 Bft) NW 309 ° 1 min 0,000 mm 3,5 UV-I 598 W/m² 6,9 °C 11,6 °C 19,3 km/h (3 Bft)
07.06.2017 09:26 11,5 °C 11,6 °C 73 % 1016,5 hPa 0,0 mm 11,7 km/h (2 Bft) W-NW 295 ° 1 min 0,000 mm 3,5 UV-I 601 W/m² 6,8 °C 11,5 °C 17,7 km/h (3 Bft)
07.06.2017 09:27 11,5 °C 11,5 °C 73 % 1016,5 hPa 0,0 mm 14,3 km/h (3 Bft) W-NW 301 ° 1 min 0,000 mm 3,6 UV-I 612 W/m² 6,8 °C 11,5 °C 20,9 km/h (4 Bft)
07.06.2017 09:28 11,4 °C 11,5 °C 73 % 1016,5 hPa 0,0 mm 12,1 km/h (2 Bft) W 275 ° 1 min 0,000 mm 3,6 UV-I 606 W/m² 6,7 °C 11,4 °C 17,7 km/h (3 Bft)
07.06.2017 09:29 11,4 °C 11,5 °C 76 % 1016,5 hPa 0,0 mm 13,2 km/h (3 Bft) W 264 ° 1 min 0,000 mm 3,6 UV-I 606 W/m² 7,3 °C 11,4 °C 19,3 km/h (3 Bft)
07.06.2017 09:30 11,4 °C 11,5 °C 73 % 1016,5 hPa 0,0 mm 12,7 km/h (3 Bft) W-SW 239 ° 1 min 0,000 mm 3,6 UV-I 615 W/m² 6,7 °C 11,4 °C 17,7 km/h (3 Bft)
07.06.2017 09:31 11,4 °C 11,4 °C 73 % 1016,5 hPa 0,0 mm 12,5 km/h (3 Bft) W 271 ° 1 min 0,000 mm 3,6 UV-I 635 W/m² 6,7 °C 11,4 °C 16,1 km/h (3 Bft)
07.06.2017 09:32 11,4 °C 11,4 °C 75 % 1016,5 hPa 0,0 mm 16,2 km/h (3 Bft) NW 304 ° 1 min 0,000 mm 3,6 UV-I 621 W/m² 7,1 °C 11,4 °C 22,5 km/h (4 Bft)
07.06.2017 09:33 11,5 °C 11,5 °C 74 % 1016,5 hPa 0,0 mm 14,6 km/h (3 Bft) W 271 ° 1 min 0,000 mm 3,7 UV-I 640 W/m² 7,0 °C 11,5 °C 20,9 km/h (4 Bft)
07.06.2017 09:34 11,4 °C 11,5 °C 74 % 1016,5 hPa 0,0 mm 12,1 km/h (2 Bft) W-NW 298 ° 1 min 0,000 mm 3,8 UV-I 642 W/m² 6,9 °C 11,4 °C 17,7 km/h (3 Bft)
07.06.2017 09:35 11,4 °C 11,4 °C 74 % 1016,6 hPa 0,0 mm 14,1 km/h (3 Bft) W-NW 298 ° 1 min 0,000 mm 3,8 UV-I 649 W/m² 6,9 °C 11,4 °C 19,3 km/h (3 Bft)
07.06.2017 09:36 11,4 °C 11,4 °C 74 % 1016,6 hPa 0,0 mm 16,8 km/h (3 Bft) W 264 ° 1 min 0,000 mm 3,8 UV-I 664 W/m² 6,9 °C 11,4 °C 24,1 km/h (4 Bft)
07.06.2017 09:37 11,4 °C 11,4 °C 73 % 1016,6 hPa 0,0 mm 16,8 km/h (3 Bft) NW 325 ° 1 min 0,000 mm 3,8 UV-I 670 W/m² 6,7 °C 11,4 °C 25,7 km/h (4 Bft)
07.06.2017 09:38 11,4 °C 11,4 °C 76 % 1016,7 hPa 0,0 mm 10,3 km/h (2 Bft) W 263 ° 1 min 0,000 mm 3,8 UV-I 659 W/m² 7,3 °C 11,4 °C 14,5 km/h (3 Bft)
07.06.2017 09:39 11,5 °C 11,5 °C 76 % 1016,6 hPa 0,0 mm 11,1 km/h (2 Bft) W-NW 294 ° 1 min 0,000 mm 3,8 UV-I 649 W/m² 7,4 °C 11,5 °C 14,5 km/h (3 Bft)
07.06.2017 09:40 11,5 °C 11,5 °C 75 % 1016,6 hPa 0,0 mm 13,1 km/h (3 Bft) W-NW 294 ° 1 min 0,000 mm 3,9 UV-I 656 W/m² 7,2 °C 11,5 °C 22,5 km/h (4 Bft)
07.06.2017 09:41 11,6 °C 11,6 °C 76 % 1016,6 hPa 0,0 mm 13,0 km/h (3 Bft) W-NW 302 ° 1 min 0,000 mm 3,8 UV-I 663 W/m² 7,5 °C 11,6 °C 22,5 km/h (4 Bft)
07.06.2017 09:42 11,6 °C 11,6 °C 77 % 1016,7 hPa 0,0 mm 13,0 km/h (3 Bft) NW 312 ° 1 min 0,000 mm 3,9 UV-I 668 W/m² 7,7 °C 11,6 °C 17,7 km/h (3 Bft)
07.06.2017 09:43 11,7 °C 11,7 °C 76 % 1016,7 hPa 0,0 mm 11,1 km/h (2 Bft) N-NW 335 ° 1 min 0,000 mm 4,0 UV-I 679 W/m² 7,6 °C 11,7 °C 16,1 km/h (3 Bft)
07.06.2017 09:44 11,8 °C 11,8 °C 74 % 1016,6 hPa 0,0 mm 10,7 km/h (2 Bft) W 280 ° 1 min 0,000 mm 4,1 UV-I 719 W/m² 7,3 °C 11,8 °C 19,3 km/h (3 Bft)
07.06.2017 09:45 11,9 °C 11,9 °C 74 % 1016,7 hPa 0,0 mm 16,7 km/h (3 Bft) W 266 ° 1 min 0,000 mm 4,2 UV-I 786 W/m² 7,4 °C 11,9 °C 20,9 km/h (4 Bft)
07.06.2017 09:46 11,9 °C 11,9 °C 75 % 1016,6 hPa 0,0 mm 16,5 km/h (3 Bft) NW 304 ° 1 min 0,000 mm 2,6 UV-I 786 W/m² 7,6 °C 11,9 °C 24,1 km/h (4 Bft)
07.06.2017 09:47 11,8 °C 11,9 °C 73 % 1016,7 hPa 0,0 mm 16,7 km/h (3 Bft) W 265 ° 1 min 0,000 mm 2,0 UV-I 786 W/m² 7,1 °C 11,8 °C 24,1 km/h (4 Bft)
07.06.2017 09:48 11,6 °C 11,8 °C 74 % 1016,7 hPa 0,0 mm 10,6 km/h (2 Bft) W 266 ° 1 min 0,000 mm 3,3 UV-I 786 W/m² 7,1 °C 11,6 °C 17,7 km/h (3 Bft)
07.06.2017 09:49 11,5 °C 11,6 °C 73 % 1016,6 hPa 0,0 mm 9,2 km/h (2 Bft) W-SW 243 ° 1 min 0,000 mm 4,2 UV-I 786 W/m² 6,8 °C 11,5 °C 16,1 km/h (3 Bft)
07.06.2017 09:50 11,5 °C 11,5 °C 75 % 1016,6 hPa 0,0 mm 7,9 km/h (2 Bft) W 267 ° 0 min 0,000 mm 2,0 UV-I 204 W/m² 7,2 °C 11,5 °C 14,5 km/h (3 Bft)
07.06.2017 09:51 11,4 °C 11,5 °C 73 % 1016,6 hPa 0,0 mm 9,1 km/h (2 Bft) NW 304 ° 0 min 0,000 mm 4,5 UV-I 204 W/m² 6,7 °C 11,4 °C 17,7 km/h (3 Bft)
07.06.2017 09:52 11,5 °C 11,5 °C 72 % 1016,7 hPa 0,0 mm 16,8 km/h (3 Bft) W 269 ° 0 min 0,000 mm 2,8 UV-I 204 W/m² 6,6 °C 11,5 °C 24,1 km/h (4 Bft)
07.06.2017 09:53 11,6 °C 11,6 °C 75 % 1016,6 hPa 0,0 mm 13,7 km/h (3 Bft) W-NW 285 ° 0 min 0,000 mm 2,5 UV-I 204 W/m² 7,3 °C 11,6 °C 17,7 km/h (3 Bft)
07.06.2017 09:54 11,7 °C 11,7 °C 73 % 1016,6 hPa 0,0 mm 5,2 km/h (1 Bft) NW 321 ° 1 min 0,000 mm 2,7 UV-I 316 W/m² 7,0 °C 11,7 °C 11,3 km/h (2 Bft)
07.06.2017 09:55 11,8 °C 11,8 °C 74 % 1016,6 hPa 0,0 mm 7,4 km/h (2 Bft) NW 308 ° 1 min 0,000 mm 4,4 UV-I 316 W/m² 7,3 °C 11,8 °C 14,5 km/h (3 Bft)
07.06.2017 09:56 12,0 °C 12,0 °C 73 % 1016,6 hPa 0,0 mm 11,5 km/h (2 Bft) W-NW 300 ° 1 min 0,000 mm 4,8 UV-I 316 W/m² 7,3 °C 12,0 °C 16,1 km/h (3 Bft)
07.06.2017 09:57 12,2 °C 12,2 °C 76 % 1016,6 hPa 0,0 mm 7,6 km/h (2 Bft) W 271 ° 1 min 0,000 mm 4,8 UV-I 316 W/m² 8,1 °C 12,2 °C 11,3 km/h (2 Bft)
07.06.2017 09:58 12,4 °C 12,4 °C 74 % 1016,6 hPa 0,0 mm 13,5 km/h (3 Bft) W 267 ° 1 min 0,000 mm 4,7 UV-I 893 W/m² 7,9 °C 12,4 °C 24,1 km/h (4 Bft)
07.06.2017 09:59 12,6 °C 12,6 °C 74 % 1016,6 hPa 0,0 mm 14,1 km/h (3 Bft) W-NW 285 ° 1 min 0,000 mm 4,5 UV-I 895 W/m² 8,1 °C 12,6 °C 24,1 km/h (4 Bft)
07.06.2017 10:00 12,6 °C 12,6 °C 72 % 1016,5 hPa 0,0 mm 13,9 km/h (3 Bft) W 263 ° 1 min 0,305 mm 4,7 UV-I 886 W/m² 7,7 °C 12,6 °C 17,7 km/h (3 Bft)
07.06.2017 10:01 12,8 °C 12,8 °C 72 % 1016,6 hPa 0,0 mm 11,3 km/h (2 Bft) N-NW 333 ° 1 min 0,000 mm 3,3 UV-I 902 W/m² 7,9 °C 12,8 °C 17,7 km/h (3 Bft)
07.06.2017 10:02 12,9 °C 12,9 °C 72 % 1016,6 hPa 0,0 mm 14,2 km/h (3 Bft) W 269 ° 1 min 0,000 mm 4,4 UV-I 861 W/m² 8,0 °C 12,9 °C 22,5 km/h (4 Bft)
07.06.2017 10:03 12,8 °C 12,9 °C 69 % 1016,7 hPa 0,0 mm 9,2 km/h (2 Bft) NW 310 ° 0 min 0,000 mm 2,0 UV-I 120 W/m² 7,3 °C 12,8 °C 19,3 km/h (3 Bft)
07.06.2017 10:04 12,7 °C 12,8 °C 69 % 1016,6 hPa 0,0 mm 13,9 km/h (3 Bft) NW 315 ° 0 min 0,000 mm 4,4 UV-I 120 W/m² 7,2 °C 12,7 °C 17,7 km/h (3 Bft)
07.06.2017 10:05 12,5 °C 12,7 °C 71 % 1016,6 hPa 0,0 mm 14,6 km/h (3 Bft) W-NW 300 ° 1 min 0,000 mm 4,4 UV-I 738 W/m² 7,4 °C 12,5 °C 19,3 km/h (3 Bft)
07.06.2017 10:06 12,4 °C 12,5 °C 73 % 1016,6 hPa 0,0 mm 8,5 km/h (2 Bft) NW 304 ° 1 min 0,000 mm 4,5 UV-I 738 W/m² 7,7 °C 12,4 °C 14,5 km/h (3 Bft)
07.06.2017 10:07 12,5 °C 12,5 °C 76 % 1016,6 hPa 0,0 mm 12,6 km/h (3 Bft) SW 219 ° 1 min 0,000 mm 4,4 UV-I 786 W/m² 8,4 °C 12,5 °C 17,7 km/h (3 Bft)
07.06.2017 10:08 12,6 °C 12,6 °C 75 % 1016,6 hPa 0,0 mm 14,3 km/h (3 Bft) W 269 ° 1 min 0,000 mm 4,8 UV-I 830 W/m² 8,3 °C 12,6 °C 19,3 km/h (3 Bft)
07.06.2017 10:09 12,6 °C 12,6 °C 71 % 1016,7 hPa 0,0 mm 15,2 km/h (3 Bft) N-NW 329 ° 1 min 0,000 mm 4,6 UV-I 830 W/m² 7,5 °C 12,6 °C 20,9 km/h (4 Bft)
07.06.2017 10:10 12,4 °C 12,6 °C 70 % 1016,5 hPa 0,0 mm 14,3 km/h (3 Bft) NW 313 ° 1 min 0,000 mm 4,6 UV-I 733 W/m² 7,1 °C 12,4 °C 19,3 km/h (3 Bft)
07.06.2017 10:11 12,4 °C 12,5 °C 74 % 1016,5 hPa 0,0 mm 8,0 km/h (2 Bft) NW 317 ° 1 min 0,000 mm 4,6 UV-I 726 W/m² 7,9 °C 12,4 °C 12,9 km/h (3 Bft)
07.06.2017 10:12 12,6 °C 12,6 °C 74 % 1016,5 hPa 0,0 mm 11,8 km/h (2 Bft) NW 315 ° 1 min 0,000 mm 4,7 UV-I 738 W/m² 8,1 °C 12,6 °C 22,5 km/h (4 Bft)
07.06.2017 10:13 12,6 °C 12,6 °C 72 % 1016,5 hPa 0,0 mm 12,2 km/h (2 Bft) NW 304 ° 1 min 0,000 mm 2,3 UV-I 738 W/m² 7,7 °C 12,6 °C 19,3 km/h (3 Bft)
07.06.2017 10:14 12,6 °C 12,6 °C 72 % 1016,5 hPa 0,0 mm 16,0 km/h (3 Bft) W-NW 284 ° 1 min 0,000 mm 4,8 UV-I 759 W/m² 7,7 °C 12,6 °C 24,1 km/h (4 Bft)
07.06.2017 10:15 12,6 °C 12,6 °C 72 % 1016,5 hPa 0,0 mm 10,9 km/h (2 Bft) W-NW 300 ° 1 min 0,000 mm 4,8 UV-I 759 W/m² 7,7 °C 12,6 °C 22,5 km/h (4 Bft)
07.06.2017 10:16 12,4 °C 12,6 °C 69 % 1016,5 hPa 0,0 mm 9,5 km/h (2 Bft) N-NW 338 ° 1 min 0,000 mm 4,9 UV-I 759 W/m² 6,9 °C 12,4 °C 17,7 km/h (3 Bft)
07.06.2017 10:17 12,4 °C 12,4 °C 71 % 1016,6 hPa 0,0 mm 14,7 km/h (3 Bft) W 272 ° 1 min 0,000 mm 4,9 UV-I 759 W/m² 7,3 °C 12,4 °C 19,3 km/h (3 Bft)
07.06.2017 10:18 12,4 °C 12,4 °C 73 % 1016,6 hPa 0,0 mm 10,6 km/h (2 Bft) NW 306 ° 1 min 0,000 mm 5,0 UV-I 759 W/m² 7,7 °C 12,4 °C 16,1 km/h (3 Bft)
07.06.2017 10:19 12,4 °C 12,4 °C 71 % 1016,6 hPa 0,0 mm 17,1 km/h (3 Bft) N-NW 338 ° 1 min 0,000 mm 4,9 UV-I 759 W/m² 7,3 °C 12,4 °C 22,5 km/h (4 Bft)
07.06.2017 10:20 12,4 °C 12,4 °C 71 % 1016,5 hPa 0,0 mm 11,8 km/h (2 Bft) W 269 ° 1 min 0,000 mm 4,9 UV-I 795 W/m² 7,3 °C 12,4 °C 16,1 km/h (3 Bft)
07.06.2017 10:21 12,4 °C 12,4 °C 72 % 1016,5 hPa 0,0 mm 13,0 km/h (3 Bft) W 263 ° 0 min 0,000 mm 4,9 UV-I 137 W/m² 7,5 °C 12,4 °C 19,3 km/h (3 Bft)
07.06.2017 10:22 12,3 °C 12,4 °C 71 % 1016,6 hPa 0,0 mm 18,5 km/h (3 Bft) W 264 ° 0 min 0,000 mm 4,6 UV-I 137 W/m² 7,2 °C 12,3 °C 29,0 km/h (5 Bft)
07.06.2017 10:23 12,2 °C 12,3 °C 71 % 1016,5 hPa 0,0 mm 13,4 km/h (3 Bft) N-NW 344 ° 1 min 0,000 mm 4,9 UV-I 772 W/m² 7,1 °C 12,2 °C 16,1 km/h (3 Bft)
07.06.2017 10:24 12,3 °C 12,3 °C 74 % 1016,6 hPa 0,0 mm 10,5 km/h (2 Bft) W 265 ° 1 min 0,000 mm 4,9 UV-I 766 W/m² 7,8 °C 12,3 °C 19,3 km/h (3 Bft)
07.06.2017 10:25 12,4 °C 12,4 °C 70 % 1016,5 hPa 0,0 mm 10,9 km/h (2 Bft) W-NW 286 ° 1 min 0,000 mm 5,0 UV-I 701 W/m² 7,1 °C 12,4 °C 19,3 km/h (3 Bft)
07.06.2017 10:26 12,5 °C 12,5 °C 69 % 1016,6 hPa 0,0 mm 13,0 km/h (3 Bft) N-NW 333 ° 1 min 0,000 mm 5,1 UV-I 701 W/m² 7,0 °C 12,5 °C 17,7 km/h (3 Bft)
07.06.2017 10:27 12,6 °C 12,6 °C 70 % 1016,5 hPa 0,0 mm 14,2 km/h (3 Bft) W-SW 257 ° 1 min 0,000 mm 5,0 UV-I 701 W/m² 7,3 °C 12,6 °C 24,1 km/h (4 Bft)
07.06.2017 10:28 12,7 °C 12,7 °C 69 % 1016,5 hPa 0,0 mm 12,0 km/h (2 Bft) W-NW 285 ° 1 min 0,000 mm 5,0 UV-I 784 W/m² 7,2 °C 12,7 °C 17,7 km/h (3 Bft)
07.06.2017 10:29 12,8 °C 12,8 °C 69 % 1016,5 hPa 0,0 mm 13,8 km/h (3 Bft) W-NW 297 ° 1 min 0,000 mm 5,0 UV-I 777 W/m² 7,3 °C 12,8 °C 24,1 km/h (4 Bft)
07.06.2017 10:30 12,8 °C 12,8 °C 65 % 1016,5 hPa 0,0 mm 15,4 km/h (3 Bft) W-NW 294 ° 1 min 0,000 mm 5,0 UV-I 773 W/m² 6,4 °C 12,8 °C 20,9 km/h (4 Bft)
07.06.2017 10:31 12,8 °C 12,8 °C 68 % 1016,5 hPa 0,0 mm 13,7 km/h (3 Bft) W-NW 297 ° 1 min 0,000 mm 5,0 UV-I 773 W/m² 7,0 °C 12,8 °C 24,1 km/h (4 Bft)
07.06.2017 10:32 12,9 °C 12,9 °C 67 % 1016,5 hPa 0,0 mm 10,9 km/h (2 Bft) W 281 ° 1 min 0,000 mm 5,1 UV-I 779 W/m² 6,9 °C 12,9 °C 17,7 km/h (3 Bft)
07.06.2017 10:33 12,9 °C 12,9 °C 68 % 1016,5 hPa 0,0 mm 13,6 km/h (3 Bft) W-SW 241 ° 1 min 0,000 mm 5,1 UV-I 789 W/m² 7,1 °C 12,9 °C 27,4 km/h (4 Bft)
07.06.2017 10:34 13,0 °C 13,0 °C 68 % 1016,5 hPa 0,0 mm 11,5 km/h (2 Bft) W-NW 299 ° 1 min 0,000 mm 4,6 UV-I 803 W/m² 7,2 °C 13,0 °C 19,3 km/h (3 Bft)
07.06.2017 10:35 13,1 °C 13,1 °C 67 % 1016,5 hPa 0,0 mm 18,2 km/h (3 Bft) W-NW 282 ° 1 min 0,000 mm 3,1 UV-I 803 W/m² 7,1 °C 13,1 °C 30,6 km/h (5 Bft)
07.06.2017 10:36 13,1 °C 13,1 °C 66 % 1016,5 hPa 0,0 mm 18,8 km/h (3 Bft) W-NW 294 ° 1 min 0,000 mm 5,3 UV-I 803 W/m² 6,9 °C 13,1 °C 30,6 km/h (5 Bft)
07.06.2017 10:37 13,1 °C 13,1 °C 66 % 1016,5 hPa 0,0 mm 11,5 km/h (2 Bft) N 360 ° 1 min 0,000 mm 5,3 UV-I 826 W/m² 6,9 °C 13,1 °C 19,3 km/h (3 Bft)
07.06.2017 10:38 13,1 °C 13,1 °C 65 % 1016,6 hPa 0,0 mm 16,3 km/h (3 Bft) NW 311 ° 1 min 0,000 mm 4,6 UV-I 826 W/m² 6,7 °C 13,1 °C 25,7 km/h (4 Bft)
07.06.2017 10:39 13,1 °C 13,1 °C 68 % 1016,6 hPa 0,0 mm 19,6 km/h (3 Bft) W-NW 297 ° 1 min 0,000 mm 5,5 UV-I 826 W/m² 7,3 °C 13,1 °C 30,6 km/h (5 Bft)
07.06.2017 10:40 13,1 °C 13,1 °C 65 % 1016,6 hPa 0,0 mm 20,0 km/h (4 Bft) W 261 ° 1 min 0,000 mm 5,4 UV-I 826 W/m² 6,7 °C 13,1 °C 29,0 km/h (5 Bft)
07.06.2017 10:41 13,1 °C 13,1 °C 65 % 1016,5 hPa 0,0 mm 16,9 km/h (3 Bft) NW 306 ° 1 min 0,000 mm 5,4 UV-I 842 W/m² 6,7 °C 13,1 °C 24,1 km/h (4 Bft)
07.06.2017 10:42 13,1 °C 13,1 °C 65 % 1016,5 hPa 0,0 mm 18,4 km/h (3 Bft) W-SW 245 ° 1 min 0,000 mm 5,2 UV-I 828 W/m² 6,7 °C 13,1 °C 27,4 km/h (4 Bft)
07.06.2017 10:43 13,2 °C 13,2 °C 67 % 1016,6 hPa 0,0 mm 16,3 km/h (3 Bft) W 263 ° 1 min 0,000 mm 5,5 UV-I 877 W/m² 7,2 °C 13,2 °C 29,0 km/h (5 Bft)
07.06.2017 10:44 13,2 °C 13,2 °C 66 % 1016,6 hPa 0,0 mm 21,2 km/h (4 Bft) W 281 ° 1 min 0,000 mm 5,5 UV-I 846 W/m² 7,0 °C 13,2 °C 33,8 km/h (5 Bft)
07.06.2017 10:45 13,2 °C 13,3 °C 66 % 1016,6 hPa 0,0 mm 18,6 km/h (3 Bft) W-NW 283 ° 1 min 0,000 mm 5,5 UV-I 877 W/m² 7,0 °C 13,2 °C 22,5 km/h (4 Bft)
07.06.2017 10:46 13,3 °C 13,3 °C 64 % 1016,6 hPa 0,0 mm 13,6 km/h (3 Bft) W-NW 298 ° 1 min 0,000 mm 5,8 UV-I 877 W/m² 6,6 °C 13,3 °C 22,5 km/h (4 Bft)
07.06.2017 10:47 13,3 °C 13,3 °C 66 % 1016,6 hPa 0,0 mm 14,1 km/h (3 Bft) W 259 ° 1 min 0,000 mm 5,7 UV-I 877 W/m² 7,1 °C 13,3 °C 27,4 km/h (4 Bft)
07.06.2017 10:48 13,3 °C 13,3 °C 65 % 1016,7 hPa 0,0 mm 22,4 km/h (4 Bft) W-NW 287 ° 1 min 0,000 mm 5,7 UV-I 874 W/m² 6,9 °C 13,3 °C 29,0 km/h (5 Bft)
07.06.2017 10:49 13,3 °C 13,3 °C 62 % 1016,6 hPa 0,0 mm 21,1 km/h (4 Bft) W 267 ° 1 min 0,000 mm 5,6 UV-I 868 W/m² 6,2 °C 13,3 °C 32,2 km/h (5 Bft)
07.06.2017 10:50 13,3 °C 13,3 °C 64 % 1016,6 hPa 0,0 mm 15,0 km/h (3 Bft) W 278 ° 1 min 0,000 mm 5,6 UV-I 868 W/m² 6,6 °C 13,3 °C 19,3 km/h (3 Bft)
07.06.2017 10:51 13,3 °C 13,3 °C 66 % 1016,6 hPa 0,0 mm 12,5 km/h (3 Bft) W 275 ° 1 min 0,000 mm 5,6 UV-I 842 W/m² 7,1 °C 13,3 °C 17,7 km/h (3 Bft)
07.06.2017 10:52 13,3 °C 13,4 °C 63 % 1016,5 hPa 0,0 mm 17,6 km/h (3 Bft) NW 304 ° 1 min 0,000 mm 5,6 UV-I 835 W/m² 6,4 °C 13,3 °C 25,7 km/h (4 Bft)
07.06.2017 10:53 13,3 °C 13,3 °C 64 % 1016,6 hPa 0,0 mm 13,3 km/h (3 Bft) W-NW 300 ° 1 min 0,000 mm 5,6 UV-I 833 W/m² 6,6 °C 13,3 °C 22,5 km/h (4 Bft)
07.06.2017 10:54 13,2 °C 13,3 °C 63 % 1016,6 hPa 0,0 mm 16,9 km/h (3 Bft) W 280 ° 1 min 0,000 mm 5,6 UV-I 833 W/m² 6,3 °C 13,2 °C 24,1 km/h (4 Bft)
07.06.2017 10:55 13,2 °C 13,2 °C 66 % 1016,6 hPa 0,0 mm 10,1 km/h (2 Bft) N 355 ° 1 min 0,000 mm 5,6 UV-I 826 W/m² 7,0 °C 13,2 °C 22,5 km/h (4 Bft)
07.06.2017 10:56 13,2 °C 13,2 °C 66 % 1016,6 hPa 0,0 mm 16,2 km/h (3 Bft) W 271 ° 1 min 0,000 mm 5,6 UV-I 824 W/m² 7,0 °C 13,2 °C 22,5 km/h (4 Bft)
07.06.2017 10:57 13,2 °C 13,2 °C 64 % 1016,6 hPa 0,0 mm 11,3 km/h (2 Bft) W-NW 283 ° 1 min 0,000 mm 5,6 UV-I 824 W/m² 6,5 °C 13,2 °C 17,7 km/h (3 Bft)
07.06.2017 10:58 13,3 °C 13,3 °C 66 % 1016,6 hPa 0,0 mm 13,7 km/h (3 Bft) W 275 ° 1 min 0,000 mm 5,6 UV-I 830 W/m² 7,1 °C 13,3 °C 19,3 km/h (3 Bft)
07.06.2017 10:59 13,4 °C 13,4 °C 68 % 1016,6 hPa 0,0 mm 13,9 km/h (3 Bft) NW 311 ° 1 min 0,000 mm 5,6 UV-I 830 W/m² 7,6 °C 13,4 °C 17,7 km/h (3 Bft)
07.06.2017 11:00 13,4 °C 13,4 °C 64 % 1016,6 hPa 0,0 mm 12,3 km/h (3 Bft) W 273 ° 1 min 0,406 mm 5,7 UV-I 847 W/m² 6,7 °C 13,4 °C 20,9 km/h (4 Bft)
07.06.2017 11:01 13,6 °C 13,6 °C 68 % 1016,7 hPa 0,0 mm 18,6 km/h (3 Bft) W 279 ° 1 min 0,000 mm 5,8 UV-I 872 W/m² 7,8 °C 13,6 °C 29,0 km/h (5 Bft)
07.06.2017 11:02 13,6 °C 13,6 °C 64 % 1016,7 hPa 0,0 mm 9,4 km/h (2 Bft) W 280 ° 1 min 0,000 mm 6,0 UV-I 895 W/m² 6,9 °C 13,6 °C 17,7 km/h (3 Bft)
07.06.2017 11:03 13,5 °C 13,6 °C 63 % 1016,7 hPa 0,0 mm 16,6 km/h (3 Bft) W 276 ° 1 min 0,000 mm 6,2 UV-I 817 W/m² 6,6 °C 13,5 °C 24,1 km/h (4 Bft)
07.06.2017 11:04 13,4 °C 13,5 °C 62 % 1016,7 hPa 0,0 mm 18,9 km/h (3 Bft) NW 316 ° 1 min 0,000 mm 6,3 UV-I 817 W/m² 6,3 °C 13,4 °C 25,7 km/h (4 Bft)
07.06.2017 11:05 13,5 °C 13,5 °C 66 % 1016,6 hPa 0,0 mm 14,2 km/h (3 Bft) W 281 ° 1 min 0,000 mm 6,2 UV-I 970 W/m² 7,3 °C 13,5 °C 20,9 km/h (4 Bft)
07.06.2017 11:06 13,6 °C 13,6 °C 63 % 1016,6 hPa 0,0 mm 18,2 km/h (3 Bft) NW 306 ° 1 min 0,000 mm 6,2 UV-I 963 W/m² 6,7 °C 13,6 °C 30,6 km/h (5 Bft)
07.06.2017 11:07 13,7 °C 13,7 °C 66 % 1016,7 hPa 0,0 mm 16,5 km/h (3 Bft) NW 304 ° 1 min 0,000 mm 6,3 UV-I 972 W/m² 7,5 °C 13,7 °C 27,4 km/h (4 Bft)
07.06.2017 11:08 13,7 °C 13,7 °C 62 % 1016,7 hPa 0,0 mm 17,8 km/h (3 Bft) W-NW 290 ° 1 min 0,000 mm 6,2 UV-I 928 W/m² 6,6 °C 13,7 °C 24,1 km/h (4 Bft)
07.06.2017 11:09 13,8 °C 13,8 °C 65 % 1016,7 hPa 0,0 mm 15,8 km/h (3 Bft) W-NW 286 ° 1 min 0,000 mm 6,1 UV-I 926 W/m² 7,3 °C 13,8 °C 22,5 km/h (4 Bft)
07.06.2017 11:10 13,8 °C 13,8 °C 61 % 1016,7 hPa 0,0 mm 14,5 km/h (3 Bft) W 270 ° 1 min 0,000 mm 6,1 UV-I 888 W/m² 6,4 °C 13,8 °C 19,3 km/h (3 Bft)
07.06.2017 11:11 13,8 °C 13,8 °C 62 % 1016,7 hPa 0,0 mm 21,5 km/h (4 Bft) W-NW 297 ° 1 min 0,000 mm 6,0 UV-I 838 W/m² 6,6 °C 13,8 °C 32,2 km/h (5 Bft)
07.06.2017 11:12 13,7 °C 13,8 °C 61 % 1016,7 hPa 0,0 mm 19,1 km/h (3 Bft) NW 306 ° 1 min 0,000 mm 5,9 UV-I 847 W/m² 6,3 °C 13,7 °C 27,4 km/h (4 Bft)
07.06.2017 11:13 13,7 °C 13,7 °C 62 % 1016,7 hPa 0,0 mm 17,0 km/h (3 Bft) W 272 ° 1 min 0,000 mm 5,9 UV-I 849 W/m² 6,6 °C 13,7 °C 20,9 km/h (4 Bft)
07.06.2017 11:14 13,7 °C 13,7 °C 64 % 1016,7 hPa 0,0 mm 17,0 km/h (3 Bft) W 267 ° 1 min 0,000 mm 6,0 UV-I 858 W/m² 7,0 °C 13,7 °C 24,1 km/h (4 Bft)
07.06.2017 11:15 13,7 °C 13,7 °C 62 % 1016,9 hPa 0,0 mm 18,9 km/h (3 Bft) W 271 ° 1 min 0,000 mm 6,1 UV-I 870 W/m² 6,6 °C 13,7 °C 25,7 km/h (4 Bft)
07.06.2017 11:16 13,6 °C 13,7 °C 60 % 1016,7 hPa 0,0 mm 10,8 km/h (2 Bft) SO 138 ° 1 min 0,000 mm 6,1 UV-I 868 W/m² 6,0 °C 13,6 °C 24,1 km/h (4 Bft)
07.06.2017 11:17 13,6 °C 13,6 °C 62 % 1016,7 hPa 0,0 mm 8,6 km/h (2 Bft) W-SW 258 ° 1 min 0,000 mm 6,0 UV-I 865 W/m² 6,5 °C 13,6 °C 11,3 km/h (2 Bft)
07.06.2017 11:18 13,7 °C 13,7 °C 63 % 1016,8 hPa 0,0 mm 13,5 km/h (3 Bft) W-NW 291 ° 1 min 0,000 mm 6,1 UV-I 874 W/m² 6,8 °C 13,7 °C 22,5 km/h (4 Bft)
07.06.2017 11:19 13,6 °C 13,7 °C 61 % 1016,8 hPa 0,2 mm 16,0 km/h (3 Bft) N-NW 327 ° 1 min 0,000 mm 6,2 UV-I 882 W/m² 6,2 °C 13,6 °C 27,4 km/h (4 Bft)
07.06.2017 11:20 13,6 °C 13,6 °C 63 % 1016,9 hPa 0,0 mm 16,4 km/h (3 Bft) W-SW 249 ° 1 min 0,000 mm 6,2 UV-I 884 W/m² 6,7 °C 13,6 °C 22,5 km/h (4 Bft)
07.06.2017 11:21 13,6 °C 13,6 °C 61 % 1016,9 hPa 0,0 mm 14,5 km/h (3 Bft) W 278 ° 1 min 0,000 mm 6,2 UV-I 870 W/m² 6,2 °C 13,6 °C 20,9 km/h (4 Bft)
07.06.2017 11:22 13,6 °C 13,6 °C 60 % 1016,9 hPa 0,0 mm 20,8 km/h (4 Bft) SW 234 ° 1 min 0,000 mm 6,1 UV-I 874 W/m² 6,0 °C 13,6 °C 33,8 km/h (5 Bft)
07.06.2017 11:23 13,6 °C 13,6 °C 62 % 1016,9 hPa 0,0 mm 16,2 km/h (3 Bft) W-NW 302 ° 1 min 0,000 mm 6,1 UV-I 865 W/m² 6,5 °C 13,6 °C 24,1 km/h (4 Bft)
07.06.2017 11:24 13,7 °C 13,7 °C 62 % 1016,9 hPa 0,0 mm 21,9 km/h (4 Bft) W 273 ° 1 min 0,000 mm 6,1 UV-I 872 W/m² 6,6 °C 13,7 °C 32,2 km/h (5 Bft)
07.06.2017 11:25 13,7 °C 13,7 °C 62 % 1016,8 hPa 0,0 mm 17,0 km/h (3 Bft) W-SW 248 ° 1 min 0,000 mm 6,2 UV-I 888 W/m² 6,6 °C 13,7 °C 27,4 km/h (4 Bft)
07.06.2017 11:26 13,8 °C 13,8 °C 61 % 1016,8 hPa 0,0 mm 26,1 km/h (4 Bft) W-SW 242 ° 1 min 0,000 mm 6,4 UV-I 912 W/m² 6,4 °C 13,8 °C 35,4 km/h (5 Bft)
07.06.2017 11:27 13,8 °C 13,8 °C 62 % 1017,1 hPa 0,0 mm 16,7 km/h (3 Bft) W-NW 285 ° 1 min 0,000 mm 6,4 UV-I 926 W/m² 6,6 °C 13,8 °C 22,5 km/h (4 Bft)
07.06.2017 11:28 13,9 °C 13,9 °C 61 % 1016,9 hPa 0,0 mm 15,2 km/h (3 Bft) S-SW 209 ° 1 min 0,000 mm 6,5 UV-I 928 W/m² 6,5 °C 13,9 °C 24,1 km/h (4 Bft)
07.06.2017 11:29 14,0 °C 14,0 °C 62 % 1016,9 hPa 0,0 mm 8,0 km/h (2 Bft) NW 311 ° 1 min 0,000 mm 6,5 UV-I 923 W/m² 6,8 °C 14,0 °C 14,5 km/h (3 Bft)
07.06.2017 11:30 14,1 °C 14,1 °C 62 % 1016,8 hPa 0,0 mm 11,4 km/h (2 Bft) SW 227 ° 1 min 0,000 mm 6,5 UV-I 939 W/m² 6,9 °C 14,1 °C 19,3 km/h (3 Bft)
07.06.2017 11:31 14,2 °C 14,2 °C 63 % 1016,9 hPa 0,0 mm 16,2 km/h (3 Bft) W-SW 246 ° 1 min 0,000 mm 6,6 UV-I 944 W/m² 7,3 °C 14,2 °C 24,1 km/h (4 Bft)
07.06.2017 11:32 14,3 °C 14,3 °C 62 % 1016,9 hPa 0,0 mm 16,3 km/h (3 Bft) W-SW 246 ° 1 min 0,000 mm 6,7 UV-I 947 W/m² 7,1 °C 14,3 °C 24,1 km/h (4 Bft)
07.06.2017 11:33 14,3 °C 14,3 °C 58 % 1016,9 hPa 0,0 mm 9,0 km/h (2 Bft) SW 231 ° 1 min 0,000 mm 6,6 UV-I 939 W/m² 6,2 °C 14,3 °C 16,1 km/h (3 Bft)
07.06.2017 11:34 14,3 °C 14,3 °C 60 % 1016,8 hPa 0,0 mm 11,1 km/h (2 Bft) NW 313 ° 1 min 0,000 mm 6,7 UV-I 935 W/m² 6,6 °C 14,3 °C 19,3 km/h (3 Bft)
07.06.2017 11:35 14,4 °C 14,4 °C 58 % 1016,8 hPa 0,0 mm 17,7 km/h (3 Bft) W-NW 294 ° 1 min 0,000 mm 6,7 UV-I 939 W/m² 6,2 °C 14,4 °C 22,5 km/h (4 Bft)
07.06.2017 11:36 14,4 °C 14,4 °C 62 % 1017,0 hPa 0,0 mm 10,9 km/h (2 Bft) W 271 ° 1 min 0,000 mm 6,8 UV-I 972 W/m² 7,2 °C 14,4 °C 19,3 km/h (3 Bft)
07.06.2017 11:37 14,6 °C 14,6 °C 63 % 1017,0 hPa 0,0 mm 12,5 km/h (3 Bft) W-SW 254 ° 1 min 0,000 mm 6,9 UV-I 977 W/m² 7,6 °C 14,6 °C 25,7 km/h (4 Bft)
07.06.2017 11:38 14,6 °C 14,6 °C 60 % 1017,0 hPa 0,0 mm 10,7 km/h (2 Bft) W 265 ° 1 min 0,000 mm 6,8 UV-I 960 W/m² 6,9 °C 14,6 °C 19,3 km/h (3 Bft)
07.06.2017 11:39 14,5 °C 14,6 °C 60 % 1017,0 hPa 0,0 mm 15,1 km/h (3 Bft) NW 315 ° 1 min 0,000 mm 6,8 UV-I 942 W/m² 6,8 °C 14,5 °C 22,5 km/h (4 Bft)
07.06.2017 11:40 14,5 °C 14,6 °C 59 % 1016,8 hPa 0,0 mm 9,7 km/h (2 Bft) W-NW 296 ° 1 min 0,000 mm 6,7 UV-I 933 W/m² 6,6 °C 14,5 °C 17,7 km/h (3 Bft)
07.06.2017 11:41 14,6 °C 14,6 °C 64 % 1016,7 hPa 0,0 mm 9,3 km/h (2 Bft) W 261 ° 1 min 0,000 mm 6,6 UV-I 909 W/m² 7,9 °C 14,6 °C 16,1 km/h (3 Bft)
07.06.2017 11:42 14,6 °C 14,6 °C 60 % 1016,7 hPa 0,0 mm 17,5 km/h (3 Bft) W-NW 295 ° 1 min 0,000 mm 6,6 UV-I 886 W/m² 6,9 °C 14,6 °C 25,7 km/h (4 Bft)
07.06.2017 11:43 14,6 °C 14,6 °C 59 % 1016,9 hPa 0,0 mm 11,3 km/h (2 Bft) W-NW 290 ° 1 min 0,000 mm 6,6 UV-I 884 W/m² 6,7 °C 14,6 °C 22,5 km/h (4 Bft)
07.06.2017 11:44 14,6 °C 14,6 °C 58 % 1016,8 hPa 0,0 mm 16,1 km/h (3 Bft) NW 314 ° 1 min 0,000 mm 6,6 UV-I 886 W/m² 6,4 °C 14,6 °C 24,1 km/h (4 Bft)
07.06.2017 11:45 14,6 °C 14,6 °C 61 % 1016,9 hPa 0,0 mm 12,5 km/h (3 Bft) W 275 ° 1 min 0,000 mm 6,6 UV-I 891 W/m² 7,2 °C 14,6 °C 20,9 km/h (4 Bft)
07.06.2017 11:46 14,7 °C 14,7 °C 62 % 1016,8 hPa 0,0 mm 7,2 km/h (2 Bft) W-SW 252 ° 1 min 0,000 mm 6,6 UV-I 900 W/m² 7,5 °C 14,7 °C 12,9 km/h (3 Bft)
07.06.2017 11:47 14,8 °C 14,8 °C 61 % 1016,8 hPa 0,0 mm 5,8 km/h (2 Bft) W 279 ° 1 min 0,000 mm 6,7 UV-I 928 W/m² 7,4 °C 14,8 °C 14,5 km/h (3 Bft)
07.06.2017 11:48 14,7 °C 14,8 °C 58 % 1016,8 hPa 0,0 mm 8,7 km/h (2 Bft) W-NW 298 ° 1 min 0,000 mm 6,7 UV-I 932 W/m² 6,5 °C 14,7 °C 20,9 km/h (4 Bft)
07.06.2017 11:49 14,7 °C 14,7 °C 58 % 1016,8 hPa 0,0 mm 23,4 km/h (4 Bft) W-SW 246 ° 1 min 0,000 mm 6,8 UV-I 932 W/m² 6,5 °C 14,7 °C 32,2 km/h (5 Bft)
07.06.2017 11:50 14,6 °C 14,7 °C 59 % 1016,9 hPa 0,0 mm 24,7 km/h (4 Bft) W 271 ° 1 min 0,000 mm 6,8 UV-I 928 W/m² 6,7 °C 14,6 °C 49,9 km/h (6 Bft)
07.06.2017 11:51 14,6 °C 14,6 °C 56 % 1016,9 hPa 0,0 mm 16,2 km/h (3 Bft) SW 222 ° 1 min 0,000 mm 6,8 UV-I 930 W/m² 5,9 °C 14,6 °C 24,1 km/h (4 Bft)
07.06.2017 11:52 14,4 °C 14,6 °C 57 % 1016,9 hPa 0,0 mm 14,6 km/h (3 Bft) W-NW 298 ° 1 min 0,000 mm 6,8 UV-I 928 W/m² 6,0 °C 14,4 °C 24,1 km/h (4 Bft)
07.06.2017 11:53 14,4 °C 14,4 °C 56 % 1016,8 hPa 0,0 mm 18,8 km/h (3 Bft) W-NW 286 ° 1 min 0,000 mm 6,8 UV-I 921 W/m² 5,7 °C 14,4 °C 33,8 km/h (5 Bft)
07.06.2017 11:54 14,3 °C 14,4 °C 58 % 1016,9 hPa 0,0 mm 20,0 km/h (4 Bft) W 262 ° 1 min 0,000 mm 6,8 UV-I 921 W/m² 6,2 °C 14,3 °C 27,4 km/h (4 Bft)
07.06.2017 11:55 14,3 °C 14,4 °C 56 % 1016,9 hPa 0,0 mm 18,3 km/h (3 Bft) SW 231 ° 1 min 0,000 mm 6,8 UV-I 918 W/m² 5,6 °C 14,3 °C 29,0 km/h (5 Bft)
07.06.2017 11:56 14,2 °C 14,3 °C 55 % 1016,9 hPa 0,0 mm 16,8 km/h (3 Bft) W-SW 254 ° 1 min 0,000 mm 6,7 UV-I 921 W/m² 5,3 °C 14,2 °C 24,1 km/h (4 Bft)
07.06.2017 11:57 14,3 °C 14,3 °C 59 % 1016,9 hPa 0,0 mm 15,2 km/h (3 Bft) W 260 ° 1 min 0,000 mm 6,8 UV-I 925 W/m² 6,4 °C 14,3 °C 24,1 km/h (4 Bft)
07.06.2017 11:58 14,3 °C 14,3 °C 56 % 1016,9 hPa 0,0 mm 13,7 km/h (3 Bft) W-NW 292 ° 1 min 0,000 mm 6,8 UV-I 928 W/m² 5,6 °C 14,3 °C 19,3 km/h (3 Bft)
07.06.2017 11:59 14,3 °C 14,3 °C 57 % 1016,8 hPa 0,0 mm 10,0 km/h (2 Bft) NW 304 ° 1 min 0,000 mm 6,8 UV-I 932 W/m² 5,9 °C 14,3 °C 14,5 km/h (3 Bft)
07.06.2017 12:00 14,3 °C 14,3 °C 55 % 1016,8 hPa 0,0 mm 14,5 km/h (3 Bft) W-NW 295 ° 1 min 0,000 mm 6,9 UV-I 944 W/m² 5,4 °C 14,3 °C 19,3 km/h (3 Bft)
07.06.2017 12:01 14,5 °C 14,5 °C 59 % 1016,8 hPa 0,0 mm 9,8 km/h (2 Bft) SO 137 ° 1 min 0,533 mm 6,9 UV-I 953 W/m² 6,6 °C 14,5 °C 17,7 km/h (3 Bft)
07.06.2017 12:02 14,6 °C 14,6 °C 60 % 1016,8 hPa 0,0 mm 17,0 km/h (3 Bft) SW 227 ° 1 min 0,000 mm 6,9 UV-I 953 W/m² 6,9 °C 14,6 °C 27,4 km/h (4 Bft)
07.06.2017 12:03 14,6 °C 14,6 °C 55 % 1016,8 hPa 0,0 mm 11,3 km/h (2 Bft) W-SW 257 ° 1 min 0,000 mm 7,0 UV-I 970 W/m² 5,7 °C 14,6 °C 20,9 km/h (4 Bft)
07.06.2017 12:04 14,5 °C 14,6 °C 60 % 1016,8 hPa 0,0 mm 15,6 km/h (3 Bft) W-SW 258 ° 1 min 0,000 mm 7,0 UV-I 970 W/m² 6,8 °C 14,5 °C 22,5 km/h (4 Bft)
07.06.2017 12:05 14,4 °C 14,5 °C 58 % 1016,8 hPa 0,0 mm 17,9 km/h (3 Bft) W 275 ° 1 min 0,000 mm 7,0 UV-I 954 W/m² 6,2 °C 14,4 °C 24,1 km/h (4 Bft)
07.06.2017 12:06 14,4 °C 14,4 °C 59 % 1016,8 hPa 0,0 mm 20,3 km/h (4 Bft) W 270 ° 1 min 0,000 mm 6,7 UV-I 967 W/m² 6,5 °C 14,4 °C 29,0 km/h (5 Bft)
07.06.2017 12:07 14,4 °C 14,5 °C 54 % 1016,8 hPa 0,0 mm 12,5 km/h (3 Bft) W-SW 239 ° 1 min 0,000 mm 7,0 UV-I 963 W/m² 5,2 °C 14,4 °C 19,3 km/h (3 Bft)
07.06.2017 12:08 14,6 °C 14,6 °C 60 % 1016,8 hPa 0,0 mm 7,4 km/h (2 Bft) W 275 ° 1 min 0,000 mm 6,8 UV-I 962 W/m² 6,9 °C 14,6 °C 12,9 km/h (3 Bft)
07.06.2017 12:09 14,7 °C 14,7 °C 60 % 1016,8 hPa 0,0 mm 7,8 km/h (2 Bft) W 273 ° 1 min 0,000 mm 7,2 UV-I 981 W/m² 7,0 °C 14,7 °C 12,9 km/h (3 Bft)
07.06.2017 12:10 14,8 °C 14,8 °C 62 % 1016,8 hPa 0,0 mm 11,1 km/h (2 Bft) W 265 ° 1 min 0,000 mm 7,1 UV-I 970 W/m² 7,6 °C 14,8 °C 20,9 km/h (4 Bft)
07.06.2017 12:11 14,9 °C 14,9 °C 60 % 1016,8 hPa 0,0 mm 13,0 km/h (3 Bft) N-NW 328 ° 1 min 0,000 mm 7,0 UV-I 937 W/m² 7,2 °C 14,9 °C 30,6 km/h (5 Bft)
07.06.2017 12:12 14,9 °C 15,0 °C 56 % 1016,7 hPa 0,0 mm 15,0 km/h (3 Bft) W 267 ° 1 min 0,000 mm 7,0 UV-I 944 W/m² 6,2 °C 14,9 °C 22,5 km/h (4 Bft)
07.06.2017 12:13 15,0 °C 15,0 °C 58 % 1016,8 hPa 0,0 mm 10,4 km/h (2 Bft) NW 311 ° 1 min 0,000 mm 7,2 UV-I 986 W/m² 6,8 °C 15,0 °C 14,5 km/h (3 Bft)
07.06.2017 12:14 14,9 °C 15,0 °C 57 % 1016,8 hPa 0,0 mm 12,8 km/h (3 Bft) W 279 ° 1 min 0,000 mm 4,9 UV-I 986 W/m² 6,5 °C 14,9 °C 24,1 km/h (4 Bft)
07.06.2017 12:15 14,8 °C 14,9 °C 55 % 1016,8 hPa 0,0 mm 12,3 km/h (3 Bft) W 281 ° 1 min 0,000 mm 7,2 UV-I 986 W/m² 5,8 °C 14,8 °C 20,9 km/h (4 Bft)
07.06.2017 12:16 14,8 °C 14,8 °C 57 % 1016,7 hPa 0,0 mm 10,2 km/h (2 Bft) W-NW 296 ° 1 min 0,000 mm 7,1 UV-I 974 W/m² 6,4 °C 14,8 °C 14,5 km/h (3 Bft)
07.06.2017 12:17 14,8 °C 14,8 °C 58 % 1016,8 hPa 0,0 mm 12,9 km/h (3 Bft) W-NW 295 ° 1 min 0,000 mm 7,2 UV-I 972 W/m² 6,6 °C 14,8 °C 20,9 km/h (4 Bft)
07.06.2017 12:18 14,8 °C 14,8 °C 59 % 1016,8 hPa 0,0 mm 12,9 km/h (3 Bft) W 261 ° 1 min 0,000 mm 7,2 UV-I 972 W/m² 6,9 °C 14,8 °C 20,9 km/h (4 Bft)
07.06.2017 12:19 14,9 °C 14,9 °C 61 % 1016,9 hPa 0,0 mm 16,8 km/h (3 Bft) W-NW 300 ° 1 min 0,000 mm 7,1 UV-I 965 W/m² 7,4 °C 14,9 °C 20,9 km/h (4 Bft)
07.06.2017 12:20 14,9 °C 14,9 °C 58 % 1016,8 hPa 0,0 mm 13,9 km/h (3 Bft) W 279 ° 1 min 0,000 mm 7,1 UV-I 958 W/m² 6,7 °C 14,9 °C 25,7 km/h (4 Bft)
07.06.2017 12:21 14,9 °C 14,9 °C 56 % 1016,8 hPa 0,0 mm 11,3 km/h (2 Bft) NW 321 ° 1 min 0,000 mm 7,2 UV-I 986 W/m² 6,2 °C 14,9 °C 20,9 km/h (4 Bft)
07.06.2017 12:22 14,8 °C 14,9 °C 58 % 1016,8 hPa 0,0 mm 13,1 km/h (3 Bft) W-NW 300 ° 1 min 0,000 mm 7,3 UV-I 1025 W/m² 6,6 °C 14,8 °C 25,7 km/h (4 Bft)
07.06.2017 12:23 14,9 °C 14,9 °C 59 % 1016,8 hPa 0,0 mm 13,8 km/h (3 Bft) W 269 ° 1 min 0,000 mm 3,6 UV-I 831 W/m² 7,0 °C 14,9 °C 25,7 km/h (4 Bft)
07.06.2017 12:24 14,9 °C 14,9 °C 59 % 1016,8 hPa 0,0 mm 16,2 km/h (3 Bft) W 279 ° 1 min 0,000 mm 7,6 UV-I 831 W/m² 7,0 °C 14,9 °C 22,5 km/h (4 Bft)
07.06.2017 12:25 14,8 °C 14,9 °C 56 % 1016,8 hPa 0,0 mm 18,1 km/h (3 Bft) W-SW 245 ° 1 min 0,000 mm 7,6 UV-I 1081 W/m² 6,1 °C 14,8 °C 25,7 km/h (4 Bft)
07.06.2017 12:26 14,7 °C 14,8 °C 57 % 1016,7 hPa 0,0 mm 15,9 km/h (3 Bft) W 280 ° 1 min 0,000 mm 7,6 UV-I 1081 W/m² 6,3 °C 14,7 °C 20,9 km/h (4 Bft)
07.06.2017 12:27 14,4 °C 14,7 °C 58 % 1016,8 hPa 0,0 mm 12,5 km/h (3 Bft) NW 306 ° 0 min 0,000 mm 2,6 UV-I 204 W/m² 6,2 °C 14,4 °C 16,1 km/h (3 Bft)
07.06.2017 12:28 14,2 °C 14,4 °C 61 % 1016,8 hPa 0,0 mm 19,7 km/h (3 Bft) W 281 ° 0 min 0,000 mm 2,5 UV-I 183 W/m² 6,8 °C 14,2 °C 29,0 km/h (5 Bft)
07.06.2017 12:29 13,9 °C 14,2 °C 61 % 1016,8 hPa 0,0 mm 14,9 km/h (3 Bft) W-NW 291 ° 0 min 0,000 mm 2,7 UV-I 183 W/m² 6,5 °C 13,9 °C 25,7 km/h (4 Bft)
07.06.2017 12:30 13,7 °C 13,9 °C 61 % 1016,9 hPa 0,0 mm 15,2 km/h (3 Bft) W-NW 296 ° 0 min 0,000 mm 2,7 UV-I 183 W/m² 6,3 °C 13,7 °C 22,5 km/h (4 Bft)
07.06.2017 12:31 13,6 °C 13,7 °C 63 % 1016,8 hPa 0,0 mm 13,4 km/h (3 Bft) N-NW 340 ° 0 min 0,000 mm 2,7 UV-I 255 W/m² 6,7 °C 13,6 °C 20,9 km/h (4 Bft)
07.06.2017 12:32 13,5 °C 13,6 °C 62 % 1016,8 hPa 0,0 mm 14,6 km/h (3 Bft) W 267 ° 0 min 0,000 mm 6,6 UV-I 255 W/m² 6,4 °C 13,5 °C 20,9 km/h (4 Bft)
07.06.2017 12:33 13,4 °C 13,5 °C 65 % 1016,8 hPa 0,0 mm 15,7 km/h (3 Bft) W 268 ° 0 min 0,000 mm 7,5 UV-I 255 W/m² 7,0 °C 13,4 °C 20,9 km/h (4 Bft)
07.06.2017 12:34 13,6 °C 13,6 °C 63 % 1016,8 hPa 0,0 mm 13,9 km/h (3 Bft) W 268 ° 1 min 0,000 mm 3,6 UV-I 1102 W/m² 6,7 °C 13,6 °C 22,5 km/h (4 Bft)
07.06.2017 12:35 13,6 °C 13,6 °C 63 % 1016,8 hPa 0,0 mm 12,1 km/h (2 Bft) W-NW 294 ° 1 min 0,000 mm 7,4 UV-I 1102 W/m² 6,7 °C 13,6 °C 24,1 km/h (4 Bft)
07.06.2017 12:36 13,8 °C 13,8 °C 63 % 1016,8 hPa 0,0 mm 22,2 km/h (4 Bft) W-NW 298 ° 1 min 0,000 mm 4,3 UV-I 1102 W/m² 6,9 °C 13,8 °C 35,4 km/h (5 Bft)
07.06.2017 12:37 13,8 °C 13,8 °C 63 % 1016,8 hPa 0,0 mm 18,2 km/h (3 Bft) W-NW 300 ° 1 min 0,000 mm 5,1 UV-I 1102 W/m² 6,9 °C 13,8 °C 29,0 km/h (5 Bft)
07.06.2017 12:38 13,8 °C 13,9 °C 64 % 1016,8 hPa 0,0 mm 17,1 km/h (3 Bft) W-NW 289 ° 1 min 0,000 mm 4,3 UV-I 366 W/m² 7,1 °C 13,8 °C 24,1 km/h (4 Bft)
07.06.2017 12:39 13,8 °C 13,8 °C 63 % 1016,8 hPa 0,0 mm 15,4 km/h (3 Bft) W 262 ° 1 min 0,000 mm 7,5 UV-I 366 W/m² 6,9 °C 13,8 °C 20,9 km/h (4 Bft)
07.06.2017 12:40 13,7 °C 13,8 °C 63 % 1016,8 hPa 0,0 mm 18,1 km/h (3 Bft) W 278 ° 1 min 0,000 mm 4,0 UV-I 366 W/m² 6,8 °C 13,7 °C 24,1 km/h (4 Bft)
07.06.2017 12:41 13,7 °C 13,7 °C 65 % 1016,7 hPa 0,0 mm 13,5 km/h (3 Bft) W-NW 300 ° 1 min 0,000 mm 7,2 UV-I 1056 W/m² 7,2 °C 13,7 °C 20,9 km/h (4 Bft)
07.06.2017 12:42 13,8 °C 13,8 °C 65 % 1016,8 hPa 0,0 mm 13,1 km/h (3 Bft) W-NW 282 ° 1 min 0,000 mm 6,3 UV-I 1056 W/m² 7,3 °C 13,8 °C 22,5 km/h (4 Bft)
07.06.2017 12:43 13,9 °C 13,9 °C 67 % 1016,8 hPa 0,0 mm 13,5 km/h (3 Bft) NW 310 ° 1 min 0,000 mm 5,6 UV-I 374 W/m² 7,9 °C 13,9 °C 22,5 km/h (4 Bft)
07.06.2017 12:44 13,9 °C 13,9 °C 66 % 1016,8 hPa 0,0 mm 11,3 km/h (2 Bft) W 278 ° 1 min 0,000 mm 5,7 UV-I 374 W/m² 7,7 °C 13,9 °C 22,5 km/h (4 Bft)
07.06.2017 12:45 13,8 °C 13,9 °C 64 % 1016,8 hPa 0,0 mm 20,6 km/h (4 Bft) W-NW 283 ° 1 min 0,000 mm 6,5 UV-I 450 W/m² 7,1 °C 13,8 °C 27,4 km/h (4 Bft)
07.06.2017 12:46 13,8 °C 13,8 °C 65 % 1016,9 hPa 0,0 mm 18,6 km/h (3 Bft) W-NW 284 ° 1 min 0,000 mm 7,6 UV-I 1093 W/m² 7,3 °C 13,8 °C 22,5 km/h (4 Bft)
07.06.2017 12:47 13,8 °C 13,8 °C 66 % 1017,0 hPa 0,0 mm 11,9 km/h (2 Bft) NW 313 ° 1 min 0,000 mm 4,4 UV-I 1093 W/m² 7,6 °C 13,8 °C 17,7 km/h (3 Bft)
07.06.2017 12:48 13,8 °C 13,8 °C 67 % 1017,1 hPa 0,0 mm 17,0 km/h (3 Bft) NW 321 ° 0 min 0,000 mm 3,2 UV-I 262 W/m² 7,8 °C 13,8 °C 29,0 km/h (5 Bft)
07.06.2017 12:49 13,6 °C 13,8 °C 64 % 1016,9 hPa 0,0 mm 17,6 km/h (3 Bft) NW 317 ° 0 min 0,000 mm 3,2 UV-I 262 W/m² 6,9 °C 13,6 °C 24,1 km/h (4 Bft)
07.06.2017 12:50 13,4 °C 13,6 °C 64 % 1017,0 hPa 0,0 mm 20,0 km/h (4 Bft) NW 323 ° 0 min 0,000 mm 7,4 UV-I 262 W/m² 6,7 °C 13,4 °C 29,0 km/h (5 Bft)
07.06.2017 12:51 13,3 °C 13,4 °C 66 % 1017,0 hPa 0,0 mm 11,5 km/h (2 Bft) W-NW 288 ° 0 min 0,000 mm 5,1 UV-I 262 W/m² 7,1 °C 13,3 °C 19,3 km/h (3 Bft)
07.06.2017 12:52 13,3 °C 13,3 °C 66 % 1017,1 hPa 0,0 mm 18,0 km/h (3 Bft) NW 315 ° 1 min 0,000 mm 3,3 UV-I 329 W/m² 7,1 °C 13,3 °C 24,1 km/h (4 Bft)
07.06.2017 12:53 13,2 °C 13,3 °C 67 % 1017,1 hPa 0,0 mm 15,0 km/h (3 Bft) W-NW 291 ° 1 min 0,000 mm 3,9 UV-I 329 W/m² 7,2 °C 13,2 °C 22,5 km/h (4 Bft)
07.06.2017 12:54 13,2 °C 13,2 °C 67 % 1017,2 hPa 0,0 mm 20,4 km/h (4 Bft) W 264 ° 1 min 0,000 mm 4,5 UV-I 329 W/m² 7,2 °C 13,2 °C 30,6 km/h (5 Bft)
07.06.2017 12:55 13,1 °C 13,2 °C 67 % 1017,2 hPa 0,0 mm 20,0 km/h (4 Bft) W-SW 252 ° 1 min 0,000 mm 3,3 UV-I 329 W/m² 7,1 °C 13,1 °C 29,0 km/h (5 Bft)
07.06.2017 12:56 13,0 °C 13,1 °C 66 % 1017,2 hPa 0,0 mm 14,6 km/h (3 Bft) W-NW 294 ° 0 min 0,000 mm 2,8 UV-I 255 W/m² 6,8 °C 13,0 °C 25,7 km/h (4 Bft)
07.06.2017 12:57 12,9 °C 13,0 °C 67 % 1017,2 hPa 0,0 mm 14,4 km/h (3 Bft) W 279 ° 0 min 0,000 mm 2,7 UV-I 229 W/m² 6,9 °C 12,9 °C 19,3 km/h (3 Bft)
07.06.2017 12:58 12,8 °C 12,9 °C 68 % 1017,2 hPa 0,0 mm 19,4 km/h (3 Bft) W-NW 302 ° 0 min 0,000 mm 2,7 UV-I 230 W/m² 7,0 °C 12,8 °C 30,6 km/h (5 Bft)
07.06.2017 12:59 12,6 °C 12,8 °C 67 % 1017,3 hPa 0,0 mm 16,9 km/h (3 Bft) W-SW 252 ° 0 min 0,000 mm 3,0 UV-I 250 W/m² 6,6 °C 12,6 °C 25,7 km/h (4 Bft)
07.06.2017 13:00 12,5 °C 12,6 °C 67 % 1017,2 hPa 0,0 mm 14,1 km/h (3 Bft) W-NW 283 ° 0 min 0,000 mm 3,6 UV-I 250 W/m² 6,5 °C 12,5 °C 20,9 km/h (4 Bft)
07.06.2017 13:01 12,5 °C 12,5 °C 69 % 1017,2 hPa 0,0 mm 13,7 km/h (3 Bft) W 259 ° 0 min 0,432 mm 3,9 UV-I 250 W/m² 7,0 °C 12,5 °C 19,3 km/h (3 Bft)
07.06.2017 13:02 12,6 °C 12,6 °C 70 % 1017,2 hPa 0,0 mm 14,1 km/h (3 Bft) W 275 ° 0 min 0,000 mm 5,8 UV-I 250 W/m² 7,3 °C 12,6 °C 17,7 km/h (3 Bft)
07.06.2017 13:03 12,8 °C 12,8 °C 70 % 1017,4 hPa 0,0 mm 16,6 km/h (3 Bft) W-NW 298 ° 0 min 0,000 mm 4,4 UV-I 250 W/m² 7,5 °C 12,8 °C 22,5 km/h (4 Bft)
07.06.2017 13:04 12,8 °C 12,9 °C 69 % 1017,4 hPa 0,0 mm 23,4 km/h (4 Bft) W 267 ° 0 min 0,000 mm 2,9 UV-I 250 W/m² 7,3 °C 12,8 °C 35,4 km/h (5 Bft)
07.06.2017 13:05 12,7 °C 12,8 °C 67 % 1017,4 hPa 0,0 mm 25,3 km/h (4 Bft) W-NW 302 ° 0 min 0,000 mm 5,5 UV-I 250 W/m² 6,7 °C 12,7 °C 35,4 km/h (5 Bft)
07.06.2017 13:06 12,6 °C 12,7 °C 65 % 1017,4 hPa 0,0 mm 16,2 km/h (3 Bft) W 266 ° 0 min 0,000 mm 7,2 UV-I 250 W/m² 6,2 °C 12,6 °C 25,7 km/h (4 Bft)
07.06.2017 13:07 12,4 °C 12,6 °C 66 % 1017,4 hPa 0,0 mm 21,4 km/h (4 Bft) W-NW 300 ° 0 min 0,000 mm 3,6 UV-I 250 W/m² 6,2 °C 12,4 °C 30,6 km/h (5 Bft)
07.06.2017 13:08 12,4 °C 12,4 °C 67 % 1017,3 hPa 0,0 mm 21,5 km/h (4 Bft) W-NW 296 ° 0 min 0,000 mm 3,6 UV-I 250 W/m² 6,4 °C 12,4 °C 37,0 km/h (5 Bft)
07.06.2017 13:09 12,3 °C 12,4 °C 68 % 1017,3 hPa 0,0 mm 14,3 km/h (3 Bft) W-SW 241 ° 1 min 0,000 mm 3,7 UV-I 403 W/m² 6,6 °C 12,3 °C 24,1 km/h (4 Bft)
07.06.2017 13:10 12,4 °C 12,4 °C 70 % 1017,3 hPa 0,0 mm 10,3 km/h (2 Bft) W 266 ° 1 min 0,000 mm 4,6 UV-I 406 W/m² 7,1 °C 12,4 °C 19,3 km/h (3 Bft)
07.06.2017 13:11 12,7 °C 12,7 °C 71 % 1017,3 hPa 0,0 mm 20,0 km/h (4 Bft) W-NW 298 ° 1 min 0,000 mm 7,4 UV-I 1072 W/m² 7,6 °C 12,7 °C 24,1 km/h (4 Bft)
07.06.2017 13:12 12,9 °C 12,9 °C 70 % 1017,3 hPa 0,0 mm 17,9 km/h (3 Bft) W-NW 291 ° 1 min 0,000 mm 7,3 UV-I 1051 W/m² 7,6 °C 12,9 °C 30,6 km/h (5 Bft)
07.06.2017 13:13 13,1 °C 13,1 °C 66 % 1017,3 hPa 0,0 mm 17,0 km/h (3 Bft) NW 304 ° 1 min 0,000 mm 7,2 UV-I 1021 W/m² 6,9 °C 13,1 °C 27,4 km/h (4 Bft)
07.06.2017 13:14 13,2 °C 13,2 °C 68 % 1017,3 hPa 0,0 mm 16,9 km/h (3 Bft) W-NW 292 ° 1 min 0,000 mm 7,0 UV-I 990 W/m² 7,4 °C 13,2 °C 30,6 km/h (5 Bft)
07.06.2017 13:15 13,3 °C 13,3 °C 67 % 1017,3 hPa 0,0 mm 17,0 km/h (3 Bft) W-NW 286 ° 1 min 0,000 mm 6,9 UV-I 953 W/m² 7,3 °C 13,3 °C 22,5 km/h (4 Bft)
07.06.2017 13:16 13,4 °C 13,4 °C 67 % 1017,3 hPa 0,0 mm 16,2 km/h (3 Bft) W-SW 248 ° 1 min 0,000 mm 6,9 UV-I 946 W/m² 7,4 °C 13,4 °C 22,5 km/h (4 Bft)
07.06.2017 13:17 13,5 °C 13,5 °C 67 % 1017,3 hPa 0,0 mm 13,1 km/h (3 Bft) W 268 ° 1 min 0,000 mm 6,9 UV-I 942 W/m² 7,5 °C 13,5 °C 16,1 km/h (3 Bft)
07.06.2017 13:18 13,6 °C 13,6 °C 67 % 1017,3 hPa 0,0 mm 12,4 km/h (3 Bft) W-NW 302 ° 1 min 0,000 mm 6,9 UV-I 942 W/m² 7,6 °C 13,6 °C 17,7 km/h (3 Bft)
07.06.2017 13:19 13,5 °C 13,6 °C 65 % 1017,2 hPa 0,0 mm 15,7 km/h (3 Bft) W 267 ° 1 min 0,000 mm 6,9 UV-I 942 W/m² 7,1 °C 13,5 °C 25,7 km/h (4 Bft)
07.06.2017 13:20 13,5 °C 13,6 °C 63 % 1017,2 hPa 0,0 mm 18,8 km/h (3 Bft) W-NW 301 ° 1 min 0,000 mm 6,9 UV-I 942 W/m² 6,6 °C 13,5 °C 30,6 km/h (5 Bft)
07.06.2017 13:21 13,4 °C 13,5 °C 62 % 1017,2 hPa 0,0 mm 24,0 km/h (4 Bft) W 277 ° 1 min 0,000 mm 6,9 UV-I 942 W/m² 6,3 °C 13,4 °C 33,8 km/h (5 Bft)
07.06.2017 13:22 13,3 °C 13,4 °C 62 % 1017,2 hPa 0,0 mm 11,5 km/h (2 Bft) NW 304 ° 1 min 0,000 mm 6,9 UV-I 942 W/m² 6,2 °C 13,3 °C 22,5 km/h (4 Bft)
07.06.2017 13:23 13,3 °C 13,3 °C 64 % 1017,3 hPa 0,0 mm 16,9 km/h (3 Bft) NW 325 ° 1 min 0,000 mm 6,9 UV-I 944 W/m² 6,6 °C 13,3 °C 20,9 km/h (4 Bft)
07.06.2017 13:24 13,3 °C 13,3 °C 63 % 1017,3 hPa 0,0 mm 16,6 km/h (3 Bft) W 274 ° 1 min 0,000 mm 6,9 UV-I 949 W/m² 6,4 °C 13,3 °C 20,9 km/h (4 Bft)
07.06.2017 13:25 13,3 °C 13,3 °C 64 % 1017,3 hPa 0,0 mm 22,7 km/h (4 Bft) W 271 ° 1 min 0,000 mm 6,8 UV-I 949 W/m² 6,6 °C 13,3 °C 29,0 km/h (5 Bft)
07.06.2017 13:26 13,3 °C 13,3 °C 65 % 1017,2 hPa 0,0 mm 19,5 km/h (3 Bft) W-NW 283 ° 1 min 0,000 mm 6,9 UV-I 956 W/m² 6,9 °C 13,3 °C 27,4 km/h (4 Bft)
07.06.2017 13:27 13,3 °C 13,3 °C 65 % 1017,2 hPa 0,0 mm 19,2 km/h (3 Bft) SW 228 ° 1 min 0,000 mm 7,0 UV-I 1020 W/m² 6,9 °C 13,3 °C 32,2 km/h (5 Bft)
07.06.2017 13:28 13,4 °C 13,4 °C 65 % 1017,2 hPa 0,0 mm 17,4 km/h (3 Bft) W 265 ° 1 min 0,000 mm 6,7 UV-I 1020 W/m² 7,0 °C 13,4 °C 27,4 km/h (4 Bft)
07.06.2017 13:29 13,3 °C 13,4 °C 64 % 1017,3 hPa 0,0 mm 20,3 km/h (4 Bft) NW 314 ° 1 min 0,000 mm 7,1 UV-I 1020 W/m² 6,6 °C 13,3 °C 29,0 km/h (5 Bft)
07.06.2017 13:30 13,3 °C 13,3 °C 65 % 1017,3 hPa 0,0 mm 16,6 km/h (3 Bft) NW 321 ° 1 min 0,000 mm 6,3 UV-I 1020 W/m² 6,9 °C 13,3 °C 29,0 km/h (5 Bft)
07.06.2017 13:31 13,3 °C 13,3 °C 64 % 1017,2 hPa 0,0 mm 14,1 km/h (3 Bft) W 276 ° 1 min 0,000 mm 6,9 UV-I 1020 W/m² 6,6 °C 13,3 °C 25,7 km/h (4 Bft)
07.06.2017 13:32 13,3 °C 13,3 °C 63 % 1017,3 hPa 0,0 mm 16,0 km/h (3 Bft) W-NW 295 ° 1 min 0,000 mm 6,9 UV-I 974 W/m² 6,4 °C 13,3 °C 22,5 km/h (4 Bft)
07.06.2017 13:33 13,4 °C 13,4 °C 65 % 1017,2 hPa 0,0 mm 12,6 km/h (3 Bft) W-NW 289 ° 1 min 0,000 mm 6,9 UV-I 969 W/m² 7,0 °C 13,4 °C 17,7 km/h (3 Bft)
07.06.2017 13:34 13,6 °C 13,6 °C 67 % 1017,2 hPa 0,0 mm 13,7 km/h (3 Bft) W 280 ° 1 min 0,000 mm 6,9 UV-I 979 W/m² 7,6 °C 13,6 °C 19,3 km/h (3 Bft)
07.06.2017 13:35 13,7 °C 13,7 °C 67 % 1017,3 hPa 0,0 mm 11,3 km/h (2 Bft) W 265 ° 1 min 0,000 mm 7,0 UV-I 995 W/m² 7,7 °C 13,7 °C 16,1 km/h (3 Bft)
07.06.2017 13:36 13,8 °C 13,8 °C 66 % 1017,2 hPa 0,0 mm 14,5 km/h (3 Bft) W 259 ° 1 min 0,000 mm 7,1 UV-I 1007 W/m² 7,6 °C 13,8 °C 30,6 km/h (5 Bft)
07.06.2017 13:37 14,0 °C 14,0 °C 66 % 1017,2 hPa 0,0 mm 13,6 km/h (3 Bft) W 281 ° 1 min 0,000 mm 7,1 UV-I 954 W/m² 7,7 °C 14,0 °C 19,3 km/h (3 Bft)
07.06.2017 13:38 14,1 °C 14,1 °C 67 % 1017,2 hPa 0,0 mm 14,2 km/h (3 Bft) NW 304 ° 1 min 0,000 mm 7,1 UV-I 1048 W/m² 8,1 °C 14,1 °C 20,9 km/h (4 Bft)
07.06.2017 13:39 14,3 °C 14,3 °C 68 % 1017,3 hPa 0,0 mm 14,8 km/h (3 Bft) W 269 ° 1 min 0,000 mm 6,9 UV-I 954 W/m² 8,5 °C 14,3 °C 20,9 km/h (4 Bft)
07.06.2017 13:40 14,4 °C 14,4 °C 65 % 1017,2 hPa 0,0 mm 15,0 km/h (3 Bft) NW 315 ° 1 min 0,000 mm 6,9 UV-I 949 W/m² 7,9 °C 14,4 °C 22,5 km/h (4 Bft)
07.06.2017 13:41 14,4 °C 14,4 °C 62 % 1017,2 hPa 0,0 mm 13,3 km/h (3 Bft) NW 320 ° 1 min 0,000 mm 6,9 UV-I 947 W/m² 7,2 °C 14,4 °C 20,9 km/h (4 Bft)
07.06.2017 13:42 14,3 °C 14,4 °C 66 % 1017,2 hPa 0,0 mm 9,4 km/h (2 Bft) W 269 ° 1 min 0,000 mm 6,9 UV-I 940 W/m² 8,0 °C 14,3 °C 14,5 km/h (3 Bft)
07.06.2017 13:43 14,3 °C 14,3 °C 67 % 1017,2 hPa 0,0 mm 9,4 km/h (2 Bft) NW 312 ° 1 min 0,000 mm 6,8 UV-I 933 W/m² 8,3 °C 14,3 °C 16,1 km/h (3 Bft)
07.06.2017 13:44 14,6 °C 14,6 °C 69 % 1017,2 hPa 0,0 mm 12,8 km/h (3 Bft) W 269 ° 1 min 0,000 mm 6,9 UV-I 930 W/m² 9,0 °C 14,6 °C 19,3 km/h (3 Bft)
07.06.2017 13:45 14,6 °C 14,6 °C 64 % 1017,1 hPa 0,0 mm 12,0 km/h (2 Bft) SW 227 ° 1 min 0,000 mm 6,9 UV-I 935 W/m² 7,9 °C 14,6 °C 19,3 km/h (3 Bft)
07.06.2017 13:46 14,6 °C 14,6 °C 64 % 1017,1 hPa 0,0 mm 12,6 km/h (3 Bft) NW 317 ° 1 min 0,000 mm 6,9 UV-I 933 W/m² 7,9 °C 14,6 °C 19,3 km/h (3 Bft)
07.06.2017 13:47 14,6 °C 14,6 °C 65 % 1017,2 hPa 0,0 mm 10,9 km/h (2 Bft) W 267 ° 1 min 0,000 mm 6,9 UV-I 933 W/m² 8,1 °C 14,6 °C 17,7 km/h (3 Bft)
07.06.2017 13:48 14,6 °C 14,6 °C 65 % 1017,3 hPa 0,0 mm 14,4 km/h (3 Bft) NW 305 ° 1 min 0,000 mm 7,0 UV-I 933 W/m² 8,1 °C 14,6 °C 20,9 km/h (4 Bft)
07.06.2017 13:49 14,6 °C 14,6 °C 60 % 1017,2 hPa 0,0 mm 8,5 km/h (2 Bft) W 263 ° 1 min 0,000 mm 6,9 UV-I 935 W/m² 6,9 °C 14,6 °C 12,9 km/h (3 Bft)
07.06.2017 13:50 14,6 °C 14,6 °C 63 % 1017,3 hPa 0,0 mm 10,4 km/h (2 Bft) W-SW 254 ° 1 min 0,000 mm 6,9 UV-I 939 W/m² 7,6 °C 14,6 °C 19,3 km/h (3 Bft)
07.06.2017 13:51 14,6 °C 14,6 °C 62 % 1017,2 hPa 0,0 mm 10,7 km/h (2 Bft) W-NW 300 ° 1 min 0,000 mm 7,0 UV-I 928 W/m² 7,4 °C 14,6 °C 17,7 km/h (3 Bft)
07.06.2017 13:52 14,6 °C 14,6 °C 62 % 1017,3 hPa 0,0 mm 16,0 km/h (3 Bft) W 278 ° 1 min 0,000 mm 7,0 UV-I 940 W/m² 7,4 °C 14,6 °C 20,9 km/h (4 Bft)
07.06.2017 13:53 14,6 °C 14,6 °C 60 % 1017,4 hPa 0,0 mm 19,1 km/h (3 Bft) W-SW 238 ° 1 min 0,000 mm 4,2 UV-I 940 W/m² 6,9 °C 14,6 °C 30,6 km/h (5 Bft)
07.06.2017 13:54 14,5 °C 14,6 °C 58 % 1017,3 hPa 0,0 mm 17,8 km/h (3 Bft) W 274 ° 1 min 0,000 mm 7,0 UV-I 940 W/m² 6,3 °C 14,5 °C 20,9 km/h (4 Bft)
07.06.2017 13:55 14,4 °C 14,5 °C 57 % 1017,3 hPa 0,0 mm 17,6 km/h (3 Bft) NW 310 ° 1 min 0,000 mm 6,9 UV-I 925 W/m² 6,0 °C 14,4 °C 24,1 km/h (4 Bft)
07.06.2017 13:56 14,3 °C 14,4 °C 57 % 1017,3 hPa 0,0 mm 17,6 km/h (3 Bft) W 263 ° 1 min 0,000 mm 6,8 UV-I 923 W/m² 5,9 °C 14,3 °C 27,4 km/h (4 Bft)
07.06.2017 13:57 14,3 °C 14,3 °C 57 % 1017,2 hPa 0,0 mm 16,0 km/h (3 Bft) W-NW 293 ° 1 min 0,000 mm 6,9 UV-I 926 W/m² 5,9 °C 14,3 °C 29,0 km/h (5 Bft)
07.06.2017 13:58 14,3 °C 14,3 °C 58 % 1017,1 hPa 0,0 mm 12,2 km/h (2 Bft) W-NW 288 ° 1 min 0,000 mm 6,9 UV-I 930 W/m² 6,2 °C 14,3 °C 16,1 km/h (3 Bft)
07.06.2017 13:59 14,4 °C 14,4 °C 60 % 1017,1 hPa 0,0 mm 18,0 km/h (3 Bft) W-NW 284 ° 1 min 0,000 mm 6,9 UV-I 928 W/m² 6,7 °C 14,4 °C 24,1 km/h (4 Bft)
07.06.2017 14:00 14,4 °C 14,4 °C 60 % 1017,0 hPa 0,0 mm 13,9 km/h (3 Bft) W 278 ° 1 min 0,000 mm 6,9 UV-I 930 W/m² 6,7 °C 14,4 °C 20,9 km/h (4 Bft)
07.06.2017 14:01 14,7 °C 14,7 °C 62 % 1017,0 hPa 0,0 mm 14,2 km/h (3 Bft) W-NW 291 ° 1 min 0,508 mm 6,9 UV-I 928 W/m² 7,5 °C 14,7 °C 19,3 km/h (3 Bft)
07.06.2017 14:02 14,8 °C 14,8 °C 61 % 1017,1 hPa 0,0 mm 15,6 km/h (3 Bft) W-NW 294 ° 1 min 0,000 mm 6,9 UV-I 928 W/m² 7,4 °C 14,8 °C 22,5 km/h (4 Bft)
07.06.2017 14:03 14,8 °C 14,9 °C 56 % 1017,0 hPa 0,0 mm 19,3 km/h (3 Bft) W-NW 288 ° 1 min 0,000 mm 6,9 UV-I 930 W/m² 6,1 °C 14,8 °C 27,4 km/h (4 Bft)
07.06.2017 14:04 14,8 °C 14,8 °C 55 % 1017,0 hPa 0,0 mm 16,7 km/h (3 Bft) W 270 ° 1 min 0,000 mm 6,9 UV-I 928 W/m² 5,8 °C 14,8 °C 20,9 km/h (4 Bft)
07.06.2017 14:05 14,8 °C 14,8 °C 54 % 1017,0 hPa 0,0 mm 17,6 km/h (3 Bft) W 261 ° 1 min 0,000 mm 6,8 UV-I 928 W/m² 5,6 °C 14,8 °C 25,7 km/h (4 Bft)
07.06.2017 14:06 14,9 °C 14,9 °C 59 % 1017,1 hPa 0,0 mm 16,3 km/h (3 Bft) NW 324 ° 1 min 0,000 mm 6,9 UV-I 932 W/m² 7,0 °C 14,9 °C 24,1 km/h (4 Bft)
07.06.2017 14:07 14,9 °C 14,9 °C 53 % 1017,0 hPa 0,0 mm 16,6 km/h (3 Bft) W-SW 255 ° 1 min 0,000 mm 6,8 UV-I 928 W/m² 5,4 °C 14,9 °C 32,2 km/h (5 Bft)
07.06.2017 14:08 14,8 °C 14,9 °C 55 % 1017,0 hPa 0,0 mm 15,9 km/h (3 Bft) W-NW 302 ° 1 min 0,000 mm 6,8 UV-I 928 W/m² 5,8 °C 14,8 °C 25,7 km/h (4 Bft)
07.06.2017 14:09 14,9 °C 14,9 °C 57 % 1017,0 hPa 0,0 mm 22,9 km/h (4 Bft) W 273 ° 1 min 0,000 mm 6,8 UV-I 928 W/m² 6,5 °C 14,9 °C 33,8 km/h (5 Bft)
07.06.2017 14:10 14,9 °C 14,9 °C 52 % 1017,0 hPa 0,0 mm 20,4 km/h (4 Bft) W 264 ° 1 min 0,000 mm 6,8 UV-I 926 W/m² 5,1 °C 14,9 °C 32,2 km/h (5 Bft)
07.06.2017 14:11 14,8 °C 14,9 °C 52 % 1017,1 hPa 0,0 mm 20,1 km/h (4 Bft) W-NW 292 ° 1 min 0,000 mm 6,8 UV-I 926 W/m² 5,0 °C 14,8 °C 27,4 km/h (4 Bft)
07.06.2017 14:12 14,9 °C 14,9 °C 55 % 1017,0 hPa 0,0 mm 14,6 km/h (3 Bft) W-NW 293 ° 1 min 0,000 mm 6,8 UV-I 925 W/m² 5,9 °C 14,9 °C 29,0 km/h (5 Bft)
07.06.2017 14:13 15,0 °C 15,0 °C 57 % 1017,0 hPa 0,0 mm 13,2 km/h (3 Bft) W 279 ° 1 min 0,000 mm 6,8 UV-I 925 W/m² 6,6 °C 15,0 °C 19,3 km/h (3 Bft)
07.06.2017 14:14 15,0 °C 15,1 °C 53 % 1017,1 hPa 0,0 mm 21,9 km/h (4 Bft) W-NW 296 ° 1 min 0,000 mm 6,8 UV-I 928 W/m² 5,5 °C 15,0 °C 49,9 km/h (6 Bft)
07.06.2017 14:15 14,9 °C 15,1 °C 52 % 1017,1 hPa 0,0 mm 15,8 km/h (3 Bft) NW 326 ° 1 min 0,000 mm 6,7 UV-I 926 W/m² 5,1 °C 14,9 °C 24,1 km/h (4 Bft)
07.06.2017 14:16 14,9 °C 15,0 °C 52 % 1017,1 hPa 0,0 mm 16,8 km/h (3 Bft) W-SW 247 ° 1 min 0,000 mm 6,7 UV-I 930 W/m² 5,1 °C 14,9 °C 22,5 km/h (4 Bft)
07.06.2017 14:17 14,9 °C 14,9 °C 53 % 1017,1 hPa 0,0 mm 18,9 km/h (3 Bft) W-NW 293 ° 1 min 0,000 mm 6,7 UV-I 930 W/m² 5,4 °C 14,9 °C 29,0 km/h (5 Bft)
07.06.2017 14:18 14,9 °C 14,9 °C 56 % 1017,2 hPa 0,0 mm 19,8 km/h (3 Bft) W 265 ° 1 min 0,000 mm 6,7 UV-I 933 W/m² 6,2 °C 14,9 °C 33,8 km/h (5 Bft)
07.06.2017 14:19 14,9 °C 15,0 °C 49 % 1017,2 hPa 0,0 mm 28,8 km/h (4 Bft) W 264 ° 1 min 0,000 mm 6,7 UV-I 930 W/m² 4,3 °C 14,9 °C 40,2 km/h (6 Bft)
07.06.2017 14:20 14,9 °C 14,9 °C 49 % 1017,2 hPa 0,0 mm 22,2 km/h (4 Bft) W-NW 288 ° 1 min 0,000 mm 6,7 UV-I 926 W/m² 4,3 °C 14,9 °C 29,0 km/h (5 Bft)
07.06.2017 14:21 14,9 °C 14,9 °C 53 % 1017,1 hPa 0,0 mm 21,2 km/h (4 Bft) W-NW 290 ° 1 min 0,000 mm 6,7 UV-I 939 W/m² 5,4 °C 14,9 °C 29,0 km/h (5 Bft)
07.06.2017 14:22 14,9 °C 14,9 °C 51 % 1017,2 hPa 0,0 mm 19,8 km/h (3 Bft) W-NW 290 ° 1 min 0,000 mm 6,8 UV-I 944 W/m² 4,9 °C 14,9 °C 33,8 km/h (5 Bft)
07.06.2017 14:23 14,9 °C 14,9 °C 52 % 1017,2 hPa 0,0 mm 22,5 km/h (4 Bft) W-NW 290 ° 1 min 0,000 mm 6,8 UV-I 951 W/m² 5,1 °C 14,9 °C 33,8 km/h (5 Bft)
07.06.2017 14:24 14,9 °C 14,9 °C 53 % 1017,1 hPa 0,0 mm 27,6 km/h (4 Bft) W 270 ° 1 min 0,000 mm 6,8 UV-I 954 W/m² 5,4 °C 14,9 °C 38,6 km/h (5 Bft)
07.06.2017 14:25 14,9 °C 14,9 °C 52 % 1017,1 hPa 0,0 mm 24,9 km/h (4 Bft) W-SW 242 ° 1 min 0,000 mm 6,3 UV-I 962 W/m² 5,1 °C 14,9 °C 37,0 km/h (5 Bft)
07.06.2017 14:26 14,9 °C 14,9 °C 51 % 1017,3 hPa 0,0 mm 19,9 km/h (4 Bft) NW 315 ° 1 min 0,000 mm 6,5 UV-I 988 W/m² 4,9 °C 14,9 °C 32,2 km/h (5 Bft)
07.06.2017 14:27 14,8 °C 14,9 °C 52 % 1017,3 hPa 0,0 mm 17,9 km/h (3 Bft) N-NW 343 ° 1 min 0,000 mm 7,1 UV-I 1021 W/m² 5,0 °C 14,8 °C 29,0 km/h (5 Bft)
07.06.2017 14:28 14,9 °C 14,9 °C 52 % 1017,3 hPa 0,0 mm 11,4 km/h (2 Bft) W 268 ° 1 min 0,000 mm 7,0 UV-I 1021 W/m² 5,1 °C 14,9 °C 16,1 km/h (3 Bft)
07.06.2017 14:29 14,9 °C 14,9 °C 51 % 1017,4 hPa 0,0 mm 22,6 km/h (4 Bft) W-NW 284 ° 1 min 0,000 mm 7,2 UV-I 1046 W/m² 4,9 °C 14,9 °C 30,6 km/h (5 Bft)
07.06.2017 14:30 14,9 °C 14,9 °C 54 % 1017,3 hPa 0,0 mm 16,4 km/h (3 Bft) W 273 ° 1 min 0,000 mm 7,1 UV-I 1044 W/m² 5,7 °C 14,9 °C 30,6 km/h (5 Bft)
07.06.2017 14:31 14,9 °C 14,9 °C 52 % 1017,4 hPa 0,0 mm 18,3 km/h (3 Bft) W-NW 288 ° 1 min 0,000 mm 7,2 UV-I 1051 W/m² 5,1 °C 14,9 °C 29,0 km/h (5 Bft)
07.06.2017 14:32 14,9 °C 14,9 °C 53 % 1017,4 hPa 0,0 mm 19,6 km/h (3 Bft) W 280 ° 1 min 0,000 mm 7,1 UV-I 1016 W/m² 5,4 °C 14,9 °C 27,4 km/h (4 Bft)
07.06.2017 14:33 14,8 °C 14,9 °C 54 % 1017,4 hPa 0,0 mm 21,7 km/h (4 Bft) NW 324 ° 1 min 0,000 mm 6,9 UV-I 1011 W/m² 5,6 °C 14,8 °C 30,6 km/h (5 Bft)
07.06.2017 14:34 14,8 °C 14,8 °C 55 % 1017,6 hPa 0,0 mm 17,7 km/h (3 Bft) W-NW 285 ° 1 min 0,000 mm 6,7 UV-I 1011 W/m² 5,8 °C 14,8 °C 27,4 km/h (4 Bft)
07.06.2017 14:35 14,6 °C 14,8 °C 55 % 1017,6 hPa 0,0 mm 23,2 km/h (4 Bft) NW 307 ° 1 min 0,000 mm 6,7 UV-I 1011 W/m² 5,7 °C 14,6 °C 30,6 km/h (5 Bft)
07.06.2017 14:36 14,4 °C 14,6 °C 56 % 1017,6 hPa 0,0 mm 22,1 km/h (4 Bft) W 263 ° 1 min 0,000 mm 6,6 UV-I 954 W/m² 5,7 °C 14,4 °C 30,6 km/h (5 Bft)
07.06.2017 14:37 14,3 °C 14,4 °C 55 % 1017,7 hPa 0,0 mm 19,4 km/h (3 Bft) NW 321 ° 1 min 0,000 mm 6,6 UV-I 921 W/m² 5,4 °C 14,3 °C 27,4 km/h (4 Bft)
07.06.2017 14:38 14,3 °C 14,3 °C 57 % 1017,6 hPa 0,0 mm 21,1 km/h (4 Bft) NW 320 ° 1 min 0,000 mm 6,5 UV-I 914 W/m² 5,9 °C 14,3 °C 25,7 km/h (4 Bft)
07.06.2017 14:39 14,4 °C 14,4 °C 58 % 1017,6 hPa 0,0 mm 20,2 km/h (4 Bft) NW 321 ° 1 min 0,000 mm 6,4 UV-I 907 W/m² 6,2 °C 14,4 °C 27,4 km/h (4 Bft)
07.06.2017 14:40 14,4 °C 14,5 °C 59 % 1017,5 hPa 0,0 mm 16,8 km/h (3 Bft) W 262 ° 1 min 0,000 mm 6,4 UV-I 902 W/m² 6,5 °C 14,4 °C 27,4 km/h (4 Bft)
07.06.2017 14:41 14,6 °C 14,6 °C 58 % 1017,6 hPa 0,0 mm 16,9 km/h (3 Bft) NW 306 ° 1 min 0,000 mm 6,3 UV-I 898 W/m² 6,4 °C 14,6 °C 20,9 km/h (4 Bft)
07.06.2017 14:42 14,7 °C 14,7 °C 59 % 1017,6 hPa 0,0 mm 18,0 km/h (3 Bft) W-NW 285 ° 1 min 0,000 mm 6,3 UV-I 893 W/m² 6,8 °C 14,7 °C 25,7 km/h (4 Bft)
07.06.2017 14:43 14,7 °C 14,7 °C 58 % 1017,6 hPa 0,0 mm 20,6 km/h (4 Bft) NW 314 ° 1 min 0,000 mm 6,3 UV-I 888 W/m² 6,5 °C 14,7 °C 29,0 km/h (5 Bft)
07.06.2017 14:44 14,6 °C 14,7 °C 56 % 1017,7 hPa 0,0 mm 21,5 km/h (4 Bft) W 280 ° 1 min 0,000 mm 6,3 UV-I 886 W/m² 5,9 °C 14,6 °C 32,2 km/h (5 Bft)
07.06.2017 14:45 14,4 °C 14,6 °C 54 % 1017,8 hPa 0,0 mm 18,2 km/h (3 Bft) W 279 ° 1 min 0,000 mm 5,5 UV-I 900 W/m² 5,2 °C 14,4 °C 27,4 km/h (4 Bft)
07.06.2017 14:46 14,3 °C 14,4 °C 54 % 1017,7 hPa 0,0 mm 19,4 km/h (3 Bft) W 274 ° 1 min 0,000 mm 6,2 UV-I 886 W/m² 5,1 °C 14,3 °C 30,6 km/h (5 Bft)
07.06.2017 14:47 14,3 °C 14,3 °C 55 % 1017,7 hPa 0,0 mm 11,5 km/h (2 Bft) NW 309 ° 1 min 0,000 mm 6,2 UV-I 882 W/m² 5,4 °C 14,3 °C 19,3 km/h (3 Bft)
07.06.2017 14:48 14,2 °C 14,3 °C 57 % 1017,6 hPa 0,0 mm 21,7 km/h (4 Bft) W-SW 254 ° 1 min 0,000 mm 6,2 UV-I 884 W/m² 5,8 °C 14,2 °C 35,4 km/h (5 Bft)
07.06.2017 14:49 14,2 °C 14,2 °C 55 % 1017,7 hPa 0,0 mm 22,5 km/h (4 Bft) W 267 ° 1 min 0,000 mm 6,2 UV-I 877 W/m² 5,3 °C 14,2 °C 33,8 km/h (5 Bft)
07.06.2017 14:50 14,1 °C 14,2 °C 55 % 1017,7 hPa 0,0 mm 14,8 km/h (3 Bft) W 271 ° 1 min 0,000 mm 6,1 UV-I 879 W/m² 5,2 °C 14,1 °C 24,1 km/h (4 Bft)
07.06.2017 14:51 14,1 °C 14,1 °C 57 % 1017,7 hPa 0,0 mm 19,1 km/h (3 Bft) W 273 ° 1 min 0,000 mm 6,1 UV-I 881 W/m² 5,7 °C 14,1 °C 27,4 km/h (4 Bft)
07.06.2017 14:52 14,1 °C 14,1 °C 59 % 1017,7 hPa 0,0 mm 22,6 km/h (4 Bft) N-NW 336 ° 1 min 0,000 mm 6,1 UV-I 884 W/m² 6,2 °C 14,1 °C 30,6 km/h (5 Bft)
07.06.2017 14:53 14,1 °C 14,1 °C 58 % 1017,7 hPa 0,0 mm 22,2 km/h (4 Bft) W-NW 283 ° 1 min 0,000 mm 6,1 UV-I 884 W/m² 6,0 °C 14,1 °C 40,2 km/h (6 Bft)
07.06.2017 14:54 14,1 °C 14,1 °C 58 % 1017,7 hPa 0,0 mm 18,6 km/h (3 Bft) SW 229 ° 1 min 0,000 mm 6,1 UV-I 884 W/m² 6,0 °C 14,1 °C 30,6 km/h (5 Bft)
07.06.2017 14:55 14,1 °C 14,1 °C 59 % 1017,7 hPa 0,0 mm 18,9 km/h (3 Bft) NW 309 ° 1 min 0,000 mm 6,0 UV-I 881 W/m² 6,2 °C 14,1 °C 30,6 km/h (5 Bft)
07.06.2017 14:56 14,1 °C 14,1 °C 59 % 1017,7 hPa 0,0 mm 14,5 km/h (3 Bft) W-NW 292 ° 1 min 0,000 mm 5,7 UV-I 893 W/m² 6,2 °C 14,1 °C 22,5 km/h (4 Bft)
07.06.2017 14:57 14,2 °C 14,2 °C 58 % 1017,8 hPa 0,0 mm 18,0 km/h (3 Bft) W 264 ° 1 min 0,000 mm 6,0 UV-I 879 W/m² 6,1 °C 14,2 °C 24,1 km/h (4 Bft)
07.06.2017 14:58 14,3 °C 14,3 °C 62 % 1017,8 hPa 0,0 mm 17,0 km/h (3 Bft) W 259 ° 1 min 0,000 mm 6,0 UV-I 882 W/m² 7,1 °C 14,3 °C 32,2 km/h (5 Bft)
07.06.2017 14:59 14,3 °C 14,3 °C 59 % 1017,8 hPa 0,0 mm 20,9 km/h (4 Bft) NW 321 ° 1 min 0,000 mm 6,0 UV-I 886 W/m² 6,4 °C 14,3 °C 30,6 km/h (5 Bft)
07.06.2017 15:00 14,3 °C 14,3 °C 57 % 1017,8 hPa 0,0 mm 21,8 km/h (4 Bft) NW 320 ° 1 min 0,000 mm 5,9 UV-I 879 W/m² 5,9 °C 14,3 °C 33,8 km/h (5 Bft)
07.06.2017 15:01 14,3 °C 14,3 °C 58 % 1017,8 hPa 0,0 mm 18,8 km/h (3 Bft) W 277 ° 1 min 0,584 mm 5,9 UV-I 879 W/m² 6,2 °C 14,3 °C 29,0 km/h (5 Bft)
07.06.2017 15:02 14,3 °C 14,3 °C 57 % 1017,7 hPa 0,0 mm 19,6 km/h (3 Bft) W-NW 298 ° 1 min 0,000 mm 2,8 UV-I 879 W/m² 5,9 °C 14,3 °C 30,6 km/h (5 Bft)
07.06.2017 15:03 14,2 °C 14,3 °C 58 % 1017,7 hPa 0,0 mm 14,6 km/h (3 Bft) W 259 ° 0 min 0,000 mm 3,3 UV-I 165 W/m² 6,1 °C 14,2 °C 20,9 km/h (4 Bft)
07.06.2017 15:04 14,2 °C 14,2 °C 58 % 1017,8 hPa 0,0 mm 20,7 km/h (4 Bft) W-SW 258 ° 0 min 0,000 mm 6,0 UV-I 165 W/m² 6,1 °C 14,2 °C 29,0 km/h (5 Bft)
07.06.2017 15:05 14,2 °C 14,2 °C 60 % 1017,7 hPa 0,0 mm 14,3 km/h (3 Bft) W 272 ° 1 min 0,000 mm 5,8 UV-I 902 W/m² 6,5 °C 14,2 °C 22,5 km/h (4 Bft)
07.06.2017 15:06 14,2 °C 14,2 °C 61 % 1017,7 hPa 0,0 mm 19,4 km/h (3 Bft) W-NW 283 ° 1 min 0,000 mm 5,7 UV-I 879 W/m² 6,8 °C 14,2 °C 27,4 km/h (4 Bft)
07.06.2017 15:07 14,3 °C 14,3 °C 59 % 1017,7 hPa 0,0 mm 14,5 km/h (3 Bft) W-NW 302 ° 1 min 0,000 mm 5,8 UV-I 893 W/m² 6,4 °C 14,3 °C 25,7 km/h (4 Bft)
07.06.2017 15:08 14,4 °C 14,4 °C 60 % 1017,7 hPa 0,0 mm 13,9 km/h (3 Bft) W-SW 248 ° 1 min 0,000 mm 5,8 UV-I 898 W/m² 6,7 °C 14,4 °C 19,3 km/h (3 Bft)
07.06.2017 15:09 14,6 °C 14,6 °C 62 % 1017,8 hPa 0,0 mm 15,7 km/h (3 Bft) NW 309 ° 1 min 0,000 mm 2,3 UV-I 898 W/m² 7,4 °C 14,6 °C 25,7 km/h (4 Bft)
07.06.2017 15:10 14,6 °C 14,6 °C 59 % 1017,7 hPa 0,0 mm 12,1 km/h (2 Bft) W 281 ° 0 min 0,000 mm 2,5 UV-I 134 W/m² 6,7 °C 14,6 °C 20,9 km/h (4 Bft)
07.06.2017 15:11 14,6 °C 14,6 °C 58 % 1017,8 hPa 0,0 mm 12,7 km/h (3 Bft) W 273 ° 0 min 0,000 mm 2,7 UV-I 179 W/m² 6,4 °C 14,6 °C 17,7 km/h (3 Bft)
07.06.2017 15:12 14,5 °C 14,6 °C 57 % 1017,8 hPa 0,0 mm 15,3 km/h (3 Bft) W-NW 296 ° 0 min 0,000 mm 5,7 UV-I 179 W/m² 6,1 °C 14,5 °C 22,5 km/h (4 Bft)
07.06.2017 15:13 14,6 °C 14,6 °C 59 % 1017,7 hPa 0,0 mm 19,9 km/h (4 Bft) W-SW 248 ° 1 min 0,000 mm 3,4 UV-I 916 W/m² 6,7 °C 14,6 °C 30,6 km/h (5 Bft)
07.06.2017 15:14 14,6 °C 14,6 °C 58 % 1017,9 hPa 0,0 mm 21,5 km/h (4 Bft) W-SW 248 ° 1 min 0,000 mm 5,6 UV-I 916 W/m² 6,4 °C 14,6 °C 27,4 km/h (4 Bft)
07.06.2017 15:15 14,6 °C 14,6 °C 57 % 1017,8 hPa 0,0 mm 17,2 km/h (3 Bft) W-NW 287 ° 1 min 0,000 mm 5,6 UV-I 893 W/m² 6,2 °C 14,6 °C 29,0 km/h (5 Bft)
07.06.2017 15:16 14,6 °C 14,6 °C 55 % 1018,0 hPa 0,0 mm 21,5 km/h (4 Bft) W-NW 292 ° 1 min 0,000 mm 3,9 UV-I 907 W/m² 5,7 °C 14,6 °C 33,8 km/h (5 Bft)
07.06.2017 15:17 14,6 °C 14,6 °C 54 % 1018,2 hPa 0,0 mm 19,9 km/h (4 Bft) NW 305 ° 1 min 0,000 mm 5,5 UV-I 867 W/m² 5,4 °C 14,6 °C 37,0 km/h (5 Bft)
07.06.2017 15:18 14,6 °C 14,6 °C 56 % 1017,8 hPa 0,0 mm 19,9 km/h (4 Bft) W 259 ° 1 min 0,000 mm 5,5 UV-I 856 W/m² 5,9 °C 14,6 °C 29,0 km/h (5 Bft)
07.06.2017 15:19 14,6 °C 14,6 °C 55 % 1018,0 hPa 0,0 mm 26,6 km/h (4 Bft) W 273 ° 1 min 0,000 mm 5,4 UV-I 847 W/m² 5,7 °C 14,6 °C 40,2 km/h (6 Bft)
07.06.2017 15:20 14,6 °C 14,6 °C 56 % 1018,0 hPa 0,0 mm 13,9 km/h (3 Bft) W-NW 289 ° 1 min 0,000 mm 5,4 UV-I 851 W/m² 5,9 °C 14,6 °C 24,1 km/h (4 Bft)
07.06.2017 15:21 14,7 °C 14,7 °C 58 % 1018,0 hPa 0,0 mm 20,6 km/h (4 Bft) W-SW 250 ° 1 min 0,000 mm 5,4 UV-I 847 W/m² 6,5 °C 14,7 °C 29,0 km/h (5 Bft)
07.06.2017 15:22 14,6 °C 14,7 °C 54 % 1017,9 hPa 0,0 mm 18,1 km/h (3 Bft) NW 306 ° 1 min 0,000 mm 5,4 UV-I 844 W/m² 5,4 °C 14,6 °C 29,0 km/h (5 Bft)
07.06.2017 15:23 14,6 °C 14,6 °C 55 % 1017,8 hPa 0,0 mm 21,4 km/h (4 Bft) W-NW 284 ° 1 min 0,000 mm 5,4 UV-I 844 W/m² 5,7 °C 14,6 °C 35,4 km/h (5 Bft)
07.06.2017 15:24 14,6 °C 14,6 °C 56 % 1017,8 hPa 0,0 mm 17,5 km/h (3 Bft) W 275 ° 1 min 0,000 mm 5,3 UV-I 830 W/m² 5,9 °C 14,6 °C 25,7 km/h (4 Bft)
07.06.2017 15:25 14,6 °C 14,6 °C 57 % 1017,8 hPa 0,0 mm 11,8 km/h (2 Bft) W-NW 288 ° 1 min 0,000 mm 5,2 UV-I 819 W/m² 6,2 °C 14,6 °C 17,7 km/h (3 Bft)
07.06.2017 15:26 14,7 °C 14,7 °C 57 % 1017,9 hPa 0,0 mm 9,8 km/h (2 Bft) W-SW 243 ° 1 min 0,000 mm 5,3 UV-I 823 W/m² 6,3 °C 14,7 °C 14,5 km/h (3 Bft)
07.06.2017 15:27 14,8 °C 14,8 °C 57 % 1018,0 hPa 0,0 mm 15,3 km/h (3 Bft) W-SW 255 ° 1 min 0,000 mm 5,2 UV-I 819 W/m² 6,4 °C 14,8 °C 19,3 km/h (3 Bft)
07.06.2017 15:28 14,9 °C 14,9 °C 56 % 1017,8 hPa 0,0 mm 17,4 km/h (3 Bft) W-NW 298 ° 1 min 0,000 mm 5,2 UV-I 817 W/m² 6,2 °C 14,9 °C 29,0 km/h (5 Bft)
07.06.2017 15:29 14,9 °C 14,9 °C 58 % 1018,1 hPa 0,0 mm 18,8 km/h (3 Bft) W 264 ° 1 min 0,000 mm 5,2 UV-I 817 W/m² 6,7 °C 14,9 °C 27,4 km/h (4 Bft)
07.06.2017 15:30 14,9 °C 15,0 °C 55 % 1018,1 hPa 0,0 mm 18,7 km/h (3 Bft) NW 321 ° 1 min 0,000 mm 5,2 UV-I 821 W/m² 5,9 °C 14,9 °C 29,0 km/h (5 Bft)
07.06.2017 15:31 14,9 °C 14,9 °C 54 % 1018,0 hPa 0,0 mm 17,5 km/h (3 Bft) W-NW 301 ° 1 min 0,000 mm 5,2 UV-I 814 W/m² 5,7 °C 14,9 °C 32,2 km/h (5 Bft)
07.06.2017 15:32 14,9 °C 14,9 °C 54 % 1018,1 hPa 0,0 mm 16,9 km/h (3 Bft) NW 309 ° 1 min 0,000 mm 5,2 UV-I 817 W/m² 5,7 °C 14,9 °C 22,5 km/h (4 Bft)
07.06.2017 15:33 14,8 °C 14,9 °C 53 % 1018,2 hPa 0,0 mm 23,3 km/h (4 Bft) W 261 ° 1 min 0,000 mm 5,2 UV-I 812 W/m² 5,3 °C 14,8 °C 32,2 km/h (5 Bft)
07.06.2017 15:34 14,7 °C 14,8 °C 55 % 1018,2 hPa 0,0 mm 23,8 km/h (4 Bft) W-SW 244 ° 1 min 0,000 mm 5,1 UV-I 810 W/m² 5,8 °C 14,7 °C 30,6 km/h (5 Bft)
07.06.2017 15:35 14,7 °C 14,7 °C 56 % 1018,1 hPa 0,0 mm 21,2 km/h (4 Bft) W 271 ° 1 min 0,000 mm 5,1 UV-I 809 W/m² 6,0 °C 14,7 °C 30,6 km/h (5 Bft)
07.06.2017 15:36 14,8 °C 14,8 °C 57 % 1018,2 hPa 0,0 mm 14,8 km/h (3 Bft) W 270 ° 1 min 0,000 mm 5,1 UV-I 807 W/m² 6,4 °C 14,8 °C 25,7 km/h (4 Bft)
07.06.2017 15:37 14,8 °C 14,8 °C 57 % 1018,2 hPa 0,0 mm 20,5 km/h (4 Bft) SW 235 ° 1 min 0,000 mm 5,1 UV-I 805 W/m² 6,4 °C 14,8 °C 27,4 km/h (4 Bft)
07.06.2017 15:38 14,8 °C 14,8 °C 55 % 1018,1 hPa 0,0 mm 16,4 km/h (3 Bft) NW 320 ° 1 min 0,000 mm 5,0 UV-I 795 W/m² 5,8 °C 14,8 °C 33,8 km/h (5 Bft)
07.06.2017 15:39 14,8 °C 14,8 °C 55 % 1018,1 hPa 0,0 mm 17,4 km/h (3 Bft) W 264 ° 1 min 0,000 mm 5,1 UV-I 802 W/m² 5,8 °C 14,8 °C 24,1 km/h (4 Bft)
07.06.2017 15:40 14,8 °C 14,8 °C 54 % 1018,2 hPa 0,0 mm 20,3 km/h (4 Bft) W-SW 250 ° 1 min 0,000 mm 5,1 UV-I 803 W/m² 5,6 °C 14,8 °C 32,2 km/h (5 Bft)
07.06.2017 15:41 14,8 °C 14,8 °C 55 % 1018,1 hPa 0,0 mm 17,7 km/h (3 Bft) W 276 ° 1 min 0,000 mm 5,0 UV-I 800 W/m² 5,8 °C 14,8 °C 25,7 km/h (4 Bft)
07.06.2017 15:42 14,7 °C 14,8 °C 54 % 1018,2 hPa 0,0 mm 17,2 km/h (3 Bft) W 276 ° 1 min 0,000 mm 5,0 UV-I 802 W/m² 5,5 °C 14,7 °C 27,4 km/h (4 Bft)
07.06.2017 15:43 14,7 °C 14,7 °C 57 % 1018,3 hPa 0,0 mm 17,5 km/h (3 Bft) W 263 ° 1 min 0,000 mm 5,0 UV-I 796 W/m² 6,3 °C 14,7 °C 27,4 km/h (4 Bft)
07.06.2017 15:44 14,8 °C 14,8 °C 55 % 1018,3 hPa 0,0 mm 7,5 km/h (2 Bft) W 267 ° 1 min 0,000 mm 5,0 UV-I 796 W/m² 5,8 °C 14,8 °C 16,1 km/h (3 Bft)
07.06.2017 15:45 14,8 °C 14,8 °C 54 % 1018,2 hPa 0,0 mm 19,5 km/h (3 Bft) W-NW 283 ° 1 min 0,000 mm 4,9 UV-I 793 W/m² 5,6 °C 14,8 °C 30,6 km/h (5 Bft)
07.06.2017 15:46 14,8 °C 14,8 °C 54 % 1018,2 hPa 0,0 mm 22,7 km/h (4 Bft) SW 219 ° 1 min 0,000 mm 4,9 UV-I 786 W/m² 5,6 °C 14,8 °C 33,8 km/h (5 Bft)
07.06.2017 15:47 14,7 °C 14,8 °C 56 % 1018,2 hPa 0,0 mm 13,2 km/h (3 Bft) W 269 ° 1 min 0,000 mm 4,9 UV-I 766 W/m² 6,0 °C 14,7 °C 24,1 km/h (4 Bft)
07.06.2017 15:48 14,7 °C 14,7 °C 55 % 1018,3 hPa 0,0 mm 15,6 km/h (3 Bft) NW 316 ° 1 min 0,000 mm 2,9 UV-I 802 W/m² 5,8 °C 14,7 °C 20,9 km/h (4 Bft)
07.06.2017 15:49 14,8 °C 14,8 °C 57 % 1018,3 hPa 0,0 mm 15,5 km/h (3 Bft) N-NW 328 ° 1 min 0,000 mm 4,8 UV-I 802 W/m² 6,4 °C 14,8 °C 25,7 km/h (4 Bft)
07.06.2017 15:50 14,7 °C 14,8 °C 55 % 1018,2 hPa 0,0 mm 12,6 km/h (3 Bft) W 260 ° 1 min 0,000 mm 4,9 UV-I 802 W/m² 5,8 °C 14,7 °C 16,1 km/h (3 Bft)
07.06.2017 15:51 14,7 °C 14,7 °C 58 % 1018,3 hPa 0,0 mm 10,7 km/h (2 Bft) W-NW 294 ° 1 min 0,000 mm 4,9 UV-I 791 W/m² 6,5 °C 14,7 °C 19,3 km/h (3 Bft)
07.06.2017 15:52 14,7 °C 14,7 °C 56 % 1018,3 hPa 0,0 mm 15,8 km/h (3 Bft) W-NW 283 ° 1 min 0,000 mm 4,7 UV-I 791 W/m² 6,0 °C 14,7 °C 25,7 km/h (4 Bft)
07.06.2017 15:53 14,8 °C 14,8 °C 59 % 1018,3 hPa 0,0 mm 14,4 km/h (3 Bft) N-NW 337 ° 1 min 0,000 mm 4,8 UV-I 796 W/m² 6,9 °C 14,8 °C 25,7 km/h (4 Bft)
07.06.2017 15:54 14,8 °C 14,8 °C 56 % 1018,3 hPa 0,0 mm 18,0 km/h (3 Bft) W-NW 289 ° 1 min 0,000 mm 4,9 UV-I 791 W/m² 6,1 °C 14,8 °C 27,4 km/h (4 Bft)
07.06.2017 15:55 14,9 °C 14,9 °C 57 % 1018,3 hPa 0,0 mm 17,8 km/h (3 Bft) W 262 ° 1 min 0,000 mm 4,8 UV-I 782 W/m² 6,5 °C 14,9 °C 20,9 km/h (4 Bft)
07.06.2017 15:56 14,9 °C 14,9 °C 56 % 1018,3 hPa 0,0 mm 14,1 km/h (3 Bft) W-NW 300 ° 1 min 0,000 mm 4,7 UV-I 775 W/m² 6,2 °C 14,9 °C 19,3 km/h (3 Bft)
07.06.2017 15:57 15,0 °C 15,0 °C 56 % 1018,3 hPa 0,0 mm 12,1 km/h (2 Bft) W 274 ° 1 min 0,000 mm 4,8 UV-I 782 W/m² 6,3 °C 15,0 °C 17,7 km/h (3 Bft)
07.06.2017 15:58 15,0 °C 15,0 °C 55 % 1018,4 hPa 0,0 mm 18,1 km/h (3 Bft) W-SW 257 ° 1 min 0,000 mm 4,7 UV-I 788 W/m² 6,0 °C 15,0 °C 27,4 km/h (4 Bft)
07.06.2017 15:59 15,0 °C 15,0 °C 54 % 1018,3 hPa 0,0 mm 15,9 km/h (3 Bft) W-NW 303 ° 1 min 0,000 mm 4,7 UV-I 777 W/m² 5,8 °C 15,0 °C 22,5 km/h (4 Bft)
07.06.2017 16:00 15,1 °C 15,1 °C 55 % 1018,4 hPa 0,0 mm 9,9 km/h (2 Bft) NW 323 ° 1 min 0,000 mm 4,7 UV-I 784 W/m² 6,1 °C 15,1 °C 17,7 km/h (3 Bft)
07.06.2017 16:01 15,0 °C 15,1 °C 57 % 1018,4 hPa 0,0 mm 24,4 km/h (4 Bft) W-SW 248 ° 1 min 0,483 mm 4,7 UV-I 782 W/m² 6,6 °C 15,0 °C 37,0 km/h (5 Bft)
07.06.2017 16:02 14,9 °C 15,0 °C 52 % 1018,5 hPa 0,0 mm 21,3 km/h (4 Bft) W 277 ° 1 min 0,000 mm 4,7 UV-I 782 W/m² 5,1 °C 14,9 °C 32,2 km/h (5 Bft)
07.06.2017 16:03 14,9 °C 14,9 °C 52 % 1018,4 hPa 0,0 mm 18,4 km/h (3 Bft) NW 318 ° 1 min 0,000 mm 4,6 UV-I 772 W/m² 5,1 °C 14,9 °C 29,0 km/h (5 Bft)
07.06.2017 16:04 14,8 °C 14,9 °C 52 % 1018,5 hPa 0,0 mm 13,9 km/h (3 Bft) W-SW 250 ° 1 min 0,000 mm 4,6 UV-I 766 W/m² 5,0 °C 14,8 °C 19,3 km/h (3 Bft)
07.06.2017 16:05 14,8 °C 14,8 °C 52 % 1018,6 hPa 0,0 mm 24,7 km/h (4 Bft) W-NW 298 ° 1 min 0,000 mm 4,1 UV-I 754 W/m² 5,0 °C 14,8 °C 32,2 km/h (5 Bft)
07.06.2017 16:06 14,7 °C 14,8 °C 52 % 1018,4 hPa 0,0 mm 26,1 km/h (4 Bft) W-SW 252 ° 1 min 0,000 mm 4,5 UV-I 735 W/m² 5,0 °C 14,7 °C 37,0 km/h (5 Bft)
07.06.2017 16:07 14,6 °C 14,7 °C 53 % 1018,4 hPa 0,0 mm 22,6 km/h (4 Bft) W 275 ° 1 min 0,000 mm 3,9 UV-I 735 W/m² 5,1 °C 14,6 °C 32,2 km/h (5 Bft)
07.06.2017 16:08 14,6 °C 14,6 °C 53 % 1018,4 hPa 0,0 mm 18,5 km/h (3 Bft) W-NW 298 ° 1 min 0,000 mm 4,2 UV-I 735 W/m² 5,1 °C 14,6 °C 29,0 km/h (5 Bft)
07.06.2017 16:10 14,6 °C 14,6 °C 56 % 1018,4 hPa 0,0 mm 18,1 km/h (3 Bft) S 169 ° 0 min 0,000 mm 3,1 UV-I 98 W/m² 5,9 °C 14,6 °C 32,2 km/h (5 Bft)
07.06.2017 16:11 14,7 °C 14,7 °C 55 % 1018,4 hPa 0,0 mm 19,0 km/h (3 Bft) W 261 ° 0 min 0,000 mm 2,1 UV-I 123 W/m² 5,8 °C 14,7 °C 29,0 km/h (5 Bft)
07.06.2017 16:12 14,6 °C 14,7 °C 53 % 1018,4 hPa 0,0 mm 17,1 km/h (3 Bft) W-NW 301 ° 0 min 0,000 mm 2,1 UV-I 141 W/m² 5,1 °C 14,6 °C 29,0 km/h (5 Bft)
07.06.2017 16:13 14,6 °C 14,6 °C 53 % 1018,5 hPa 0,0 mm 17,9 km/h (3 Bft) NW 323 ° 0 min 0,000 mm 2,0 UV-I 109 W/m² 5,1 °C 14,6 °C 25,7 km/h (4 Bft)
07.06.2017 16:14 14,5 °C 14,6 °C 53 % 1018,5 hPa 0,0 mm 12,6 km/h (3 Bft) W-NW 294 ° 0 min 0,000 mm 1,9 UV-I 83 W/m² 5,0 °C 14,5 °C 17,7 km/h (3 Bft)
07.06.2017 16:15 14,5 °C 14,5 °C 56 % 1018,6 hPa 0,0 mm 18,8 km/h (3 Bft) W-SW 237 ° 0 min 0,000 mm 1,9 UV-I 70 W/m² 5,8 °C 14,5 °C 24,1 km/h (4 Bft)
07.06.2017 16:16 14,5 °C 14,6 °C 54 % 1018,6 hPa 0,0 mm 19,6 km/h (3 Bft) W 281 ° 0 min 0,000 mm 1,9 UV-I 77 W/m² 5,3 °C 14,5 °C 32,2 km/h (5 Bft)
07.06.2017 16:17 14,5 °C 14,6 °C 54 % 1018,5 hPa 0,0 mm 18,4 km/h (3 Bft) W 263 ° 0 min 0,000 mm 1,9 UV-I 74 W/m² 5,3 °C 14,5 °C 24,1 km/h (4 Bft)
07.06.2017 16:18 14,5 °C 14,5 °C 54 % 1018,5 hPa 0,0 mm 12,5 km/h (3 Bft) NW 309 ° 0 min 0,000 mm 1,8 UV-I 70 W/m² 5,3 °C 14,5 °C 25,7 km/h (4 Bft)
07.06.2017 16:19 14,5 °C 14,5 °C 55 % 1018,5 hPa 0,0 mm 15,3 km/h (3 Bft) W 278 ° 0 min 0,000 mm 1,8 UV-I 90 W/m² 5,6 °C 14,5 °C 24,1 km/h (4 Bft)
07.06.2017 16:20 14,4 °C 14,5 °C 54 % 1018,5 hPa 0,0 mm 14,7 km/h (3 Bft) NW 317 ° 0 min 0,000 mm 1,8 UV-I 97 W/m² 5,2 °C 14,4 °C 27,4 km/h (4 Bft)
07.06.2017 16:21 14,4 °C 14,4 °C 55 % 1018,5 hPa 0,0 mm 15,5 km/h (3 Bft) N-NW 333 ° 0 min 0,000 mm 1,8 UV-I 98 W/m² 5,5 °C 14,4 °C 25,7 km/h (4 Bft)
07.06.2017 16:22 14,4 °C 14,4 °C 58 % 1018,5 hPa 0,0 mm 16,9 km/h (3 Bft) W-NW 290 ° 0 min 0,000 mm 1,8 UV-I 95 W/m² 6,2 °C 14,4 °C 27,4 km/h (4 Bft)
07.06.2017 16:23 14,5 °C 14,6 °C 54 % 1018,6 hPa 0,0 mm 15,0 km/h (3 Bft) NW 316 ° 0 min 0,000 mm 1,8 UV-I 86 W/m² 5,3 °C 14,5 °C 20,9 km/h (4 Bft)
07.06.2017 16:24 14,6 °C 14,6 °C 54 % 1018,6 hPa 0,0 mm 14,6 km/h (3 Bft) W 271 ° 0 min 0,000 mm 1,8 UV-I 77 W/m² 5,4 °C 14,6 °C 22,5 km/h (4 Bft)
07.06.2017 16:25 14,6 °C 14,6 °C 54 % 1018,7 hPa 0,0 mm 24,3 km/h (4 Bft) W 275 ° 0 min 0,000 mm 1,8 UV-I 86 W/m² 5,4 °C 14,6 °C 45,1 km/h (6 Bft)
07.06.2017 16:26 14,6 °C 14,6 °C 52 % 1018,6 hPa 0,0 mm 22,6 km/h (4 Bft) NW 319 ° 0 min 0,000 mm 1,8 UV-I 67 W/m² 4,9 °C 14,6 °C 29,0 km/h (5 Bft)
07.06.2017 16:27 14,5 °C 14,6 °C 52 % 1018,6 hPa 0,0 mm 23,1 km/h (4 Bft) W-SW 256 ° 0 min 0,000 mm 1,8 UV-I 109 W/m² 4,8 °C 14,5 °C 35,4 km/h (5 Bft)
07.06.2017 16:28 14,5 °C 14,5 °C 52 % 1018,6 hPa 0,0 mm 18,7 km/h (3 Bft) W-SW 244 ° 0 min 0,000 mm 1,7 UV-I 69 W/m² 4,8 °C 14,5 °C 30,6 km/h (5 Bft)
07.06.2017 16:29 14,5 °C 14,5 °C 52 % 1018,6 hPa 0,0 mm 14,5 km/h (3 Bft) W-NW 298 ° 0 min 0,000 mm 1,7 UV-I 69 W/m² 4,8 °C 14,5 °C 17,7 km/h (3 Bft)
07.06.2017 16:30 14,4 °C 14,5 °C 52 % 1018,6 hPa 0,0 mm 20,4 km/h (4 Bft) W 262 ° 0 min 0,000 mm 1,7 UV-I 121 W/m² 4,7 °C 14,4 °C 30,6 km/h (5 Bft)
07.06.2017 16:31 14,5 °C 14,5 °C 54 % 1018,6 hPa 0,0 mm 14,0 km/h (3 Bft) W 262 ° 0 min 0,000 mm 1,7 UV-I 72 W/m² 5,3 °C 14,5 °C 19,3 km/h (3 Bft)
07.06.2017 16:32 14,5 °C 14,5 °C 52 % 1018,5 hPa 0,0 mm 18,4 km/h (3 Bft) W 263 ° 0 min 0,000 mm 1,7 UV-I 56 W/m² 4,8 °C 14,5 °C 27,4 km/h (4 Bft)
07.06.2017 16:33 14,4 °C 14,5 °C 53 % 1018,5 hPa 0,0 mm 13,9 km/h (3 Bft) W-SW 250 ° 0 min 0,000 mm 1,8 UV-I 62 W/m² 4,9 °C 14,4 °C 24,1 km/h (4 Bft)
07.06.2017 16:34 14,5 °C 14,5 °C 53 % 1018,5 hPa 0,0 mm 17,0 km/h (3 Bft) W-NW 290 ° 0 min 0,000 mm 1,7 UV-I 67 W/m² 5,0 °C 14,5 °C 27,4 km/h (4 Bft)
07.06.2017 16:35 14,6 °C 14,6 °C 51 % 1018,4 hPa 0,0 mm 15,4 km/h (3 Bft) NW 315 ° 0 min 0,000 mm 1,7 UV-I 56 W/m² 4,6 °C 14,6 °C 29,0 km/h (5 Bft)
07.06.2017 16:36 14,5 °C 14,6 °C 51 % 1018,5 hPa 0,0 mm 19,0 km/h (3 Bft) NW 323 ° 0 min 0,000 mm 1,7 UV-I 56 W/m² 4,5 °C 14,5 °C 30,6 km/h (5 Bft)
07.06.2017 16:37 14,6 °C 14,6 °C 51 % 1018,5 hPa 0,0 mm 16,6 km/h (3 Bft) NW 316 ° 0 min 0,000 mm 1,7 UV-I 58 W/m² 4,6 °C 14,6 °C 20,9 km/h (4 Bft)
07.06.2017 16:38 14,6 °C 14,6 °C 52 % 1018,4 hPa 0,0 mm 18,8 km/h (3 Bft) W 263 ° 0 min 0,000 mm 1,6 UV-I 56 W/m² 4,9 °C 14,6 °C 25,7 km/h (4 Bft)
07.06.2017 16:39 14,6 °C 14,6 °C 51 % 1018,4 hPa 0,0 mm 21,3 km/h (4 Bft) W-SW 257 ° 0 min 0,000 mm 1,6 UV-I 58 W/m² 4,6 °C 14,6 °C 32,2 km/h (5 Bft)
07.06.2017 16:40 14,6 °C 14,6 °C 51 % 1018,5 hPa 0,0 mm 18,1 km/h (3 Bft) W-NW 295 ° 0 min 0,000 mm 1,6 UV-I 58 W/m² 4,6 °C 14,6 °C 25,7 km/h (4 Bft)
07.06.2017 16:41 14,5 °C 14,6 °C 52 % 1018,5 hPa 0,0 mm 16,2 km/h (3 Bft) W-SW 252 ° 0 min 0,000 mm 1,6 UV-I 56 W/m² 4,8 °C 14,5 °C 20,9 km/h (4 Bft)
07.06.2017 16:42 14,6 °C 14,6 °C 53 % 1018,4 hPa 0,0 mm 14,9 km/h (3 Bft) W 281 ° 0 min 0,000 mm 1,6 UV-I 60 W/m² 5,1 °C 14,6 °C 24,1 km/h (4 Bft)
07.06.2017 16:43 14,6 °C 14,6 °C 52 % 1018,4 hPa 0,0 mm 11,3 km/h (2 Bft) W 265 ° 0 min 0,000 mm 1,6 UV-I 67 W/m² 4,9 °C 14,6 °C 24,1 km/h (4 Bft)
07.06.2017 16:44 14,6 °C 14,6 °C 51 % 1018,5 hPa 0,0 mm 16,3 km/h (3 Bft) W-NW 301 ° 0 min 0,000 mm 1,6 UV-I 69 W/m² 4,6 °C 14,6 °C 22,5 km/h (4 Bft)
07.06.2017 16:45 14,6 °C 14,6 °C 53 % 1018,5 hPa 0,0 mm 10,9 km/h (2 Bft) W 266 ° 0 min 0,000 mm 1,6 UV-I 70 W/m² 5,1 °C 14,6 °C 19,3 km/h (3 Bft)
07.06.2017 16:46 14,6 °C 14,7 °C 56 % 1018,5 hPa 0,0 mm 11,8 km/h (2 Bft) W 271 ° 0 min 0,000 mm 1,6 UV-I 74 W/m² 5,9 °C 14,6 °C 19,3 km/h (3 Bft)
07.06.2017 16:47 14,8 °C 14,8 °C 54 % 1018,5 hPa 0,0 mm 10,3 km/h (2 Bft) W-NW 295 ° 0 min 0,000 mm 1,6 UV-I 67 W/m² 5,6 °C 14,8 °C 19,3 km/h (3 Bft)
07.06.2017 16:48 14,8 °C 14,8 °C 56 % 1018,6 hPa 0,0 mm 13,1 km/h (3 Bft) NW 313 ° 0 min 0,000 mm 1,6 UV-I 67 W/m² 6,1 °C 14,8 °C 20,9 km/h (4 Bft)
07.06.2017 16:49 14,8 °C 14,8 °C 53 % 1018,5 hPa 0,0 mm 15,5 km/h (3 Bft) W-NW 282 ° 0 min 0,000 mm 1,6 UV-I 74 W/m² 5,3 °C 14,8 °C 27,4 km/h (4 Bft)
07.06.2017 16:50 14,8 °C 14,8 °C 54 % 1018,5 hPa 0,0 mm 17,0 km/h (3 Bft) W-SW 248 ° 0 min 0,000 mm 1,6 UV-I 88 W/m² 5,6 °C 14,8 °C 25,7 km/h (4 Bft)
07.06.2017 16:51 14,7 °C 14,8 °C 54 % 1018,5 hPa 0,0 mm 19,3 km/h (3 Bft) NW 319 ° 0 min 0,000 mm 1,7 UV-I 97 W/m² 5,5 °C 14,7 °C 27,4 km/h (4 Bft)
07.06.2017 16:52 14,7 °C 14,7 °C 54 % 1018,6 hPa 0,0 mm 21,1 km/h (4 Bft) NW 324 ° 0 min 0,000 mm 1,7 UV-I 77 W/m² 5,5 °C 14,7 °C 33,8 km/h (5 Bft)
07.06.2017 16:53 14,6 °C 14,7 °C 53 % 1018,5 hPa 0,0 mm 20,7 km/h (4 Bft) W-NW 293 ° 0 min 0,000 mm 1,6 UV-I 58 W/m² 5,1 °C 14,6 °C 25,7 km/h (4 Bft)
07.06.2017 16:54 14,6 °C 14,6 °C 53 % 1018,5 hPa 0,0 mm 11,3 km/h (2 Bft) W-NW 285 ° 0 min 0,000 mm 1,6 UV-I 70 W/m² 5,1 °C 14,6 °C 19,3 km/h (3 Bft)
07.06.2017 16:55 14,6 °C 14,6 °C 55 % 1018,5 hPa 0,0 mm 19,4 km/h (3 Bft) W-SW 258 ° 0 min 0,000 mm 1,6 UV-I 69 W/m² 5,7 °C 14,6 °C 25,7 km/h (4 Bft)
07.06.2017 16:56 14,5 °C 14,6 °C 55 % 1018,5 hPa 0,0 mm 13,2 km/h (3 Bft) W-NW 296 ° 0 min 0,000 mm 1,6 UV-I 70 W/m² 5,6 °C 14,5 °C 19,3 km/h (3 Bft)
07.06.2017 16:57 14,5 °C 14,5 °C 54 % 1018,5 hPa 0,0 mm 20,1 km/h (4 Bft) W-NW 292 ° 0 min 0,000 mm 1,6 UV-I 98 W/m² 5,3 °C 14,5 °C 25,7 km/h (4 Bft)
07.06.2017 16:58 14,6 °C 14,6 °C 54 % 1018,5 hPa 0,0 mm 17,5 km/h (3 Bft) NW 306 ° 0 min 0,000 mm 1,5 UV-I 70 W/m² 5,4 °C 14,6 °C 27,4 km/h (4 Bft)
07.06.2017 16:59 14,5 °C 14,6 °C 54 % 1018,5 hPa 0,0 mm 16,3 km/h (3 Bft) N-NW 331 ° 0 min 0,000 mm 0,0 UV-I 53 W/m² 5,3 °C 14,5 °C 27,4 km/h (4 Bft)
07.06.2017 17:00 14,6 °C 14,6 °C 54 % 1018,4 hPa 0,0 mm 18,2 km/h (3 Bft) NW 321 ° 0 min 0,000 mm 1,5 UV-I 56 W/m² 5,4 °C 14,6 °C 27,4 km/h (4 Bft)
07.06.2017 17:01 14,6 °C 14,6 °C 54 % 1018,6 hPa 0,0 mm 19,9 km/h (4 Bft) NW 306 ° 0 min 0,178 mm 1,5 UV-I 63 W/m² 5,4 °C 14,6 °C 32,2 km/h (5 Bft)
07.06.2017 17:02 14,6 °C 14,6 °C 55 % 1018,6 hPa 0,0 mm 13,0 km/h (3 Bft) W-NW 286 ° 0 min 0,000 mm 0,0 UV-I 54 W/m² 5,7 °C 14,6 °C 22,5 km/h (4 Bft)
07.06.2017 17:03 14,6 °C 14,6 °C 54 % 1018,6 hPa 0,0 mm 19,7 km/h (3 Bft) W-SW 255 ° 0 min 0,000 mm 0,0 UV-I 51 W/m² 5,4 °C 14,6 °C 25,7 km/h (4 Bft)
07.06.2017 17:04 14,5 °C 14,6 °C 53 % 1018,6 hPa 0,0 mm 19,2 km/h (3 Bft) W 261 ° 0 min 0,000 mm 0,0 UV-I 51 W/m² 5,0 °C 14,5 °C 27,4 km/h (4 Bft)
07.06.2017 17:05 14,4 °C 14,5 °C 53 % 1018,5 hPa 0,0 mm 17,8 km/h (3 Bft) W-NW 295 ° 0 min 0,000 mm 0,0 UV-I 49 W/m² 4,9 °C 14,4 °C 25,7 km/h (4 Bft)
07.06.2017 17:06 14,4 °C 14,4 °C 53 % 1018,5 hPa 0,0 mm 20,7 km/h (4 Bft) W 265 ° 0 min 0,000 mm 0,0 UV-I 49 W/m² 4,9 °C 14,4 °C 30,6 km/h (5 Bft)
07.06.2017 17:07 14,4 °C 14,4 °C 53 % 1018,5 hPa 0,0 mm 19,8 km/h (3 Bft) W-NW 296 ° 0 min 0,000 mm 0,0 UV-I 51 W/m² 4,9 °C 14,4 °C 25,7 km/h (4 Bft)
07.06.2017 17:08 14,4 °C 14,4 °C 55 % 1018,5 hPa 0,0 mm 15,6 km/h (3 Bft) W 281 ° 0 min 0,000 mm 0,0 UV-I 51 W/m² 5,5 °C 14,4 °C 25,7 km/h (4 Bft)
07.06.2017 17:09 14,4 °C 14,4 °C 53 % 1018,4 hPa 0,0 mm 21,4 km/h (4 Bft) W-SW 258 ° 0 min 0,000 mm 1,5 UV-I 49 W/m² 4,9 °C 14,4 °C 33,8 km/h (5 Bft)
07.06.2017 17:10 14,3 °C 14,4 °C 52 % 1018,5 hPa 0,0 mm 16,1 km/h (3 Bft) NW 304 ° 0 min 0,000 mm 0,0 UV-I 54 W/m² 4,6 °C 14,3 °C 27,4 km/h (4 Bft)
07.06.2017 17:11 14,3 °C 14,3 °C 53 % 1018,5 hPa 0,0 mm 21,3 km/h (4 Bft) W-SW 250 ° 0 min 0,000 mm 0,0 UV-I 47 W/m² 4,9 °C 14,3 °C 33,8 km/h (5 Bft)
07.06.2017 17:12 14,2 °C 14,3 °C 52 % 1018,4 hPa 0,0 mm 13,2 km/h (3 Bft) NW 321 ° 0 min 0,000 mm 0,0 UV-I 53 W/m² 4,5 °C 14,2 °C 20,9 km/h (4 Bft)
07.06.2017 17:13 14,2 °C 14,2 °C 53 % 1018,4 hPa 0,0 mm 20,6 km/h (4 Bft) NW 304 ° 0 min 0,000 mm 1,4 UV-I 149 W/m² 4,8 °C 14,2 °C 29,0 km/h (5 Bft)
07.06.2017 17:14 14,2 °C 14,2 °C 53 % 1018,4 hPa 0,0 mm 13,5 km/h (3 Bft) W-NW 288 ° 0 min 0,000 mm 0,0 UV-I 51 W/m² 4,8 °C 14,2 °C 20,9 km/h (4 Bft)
07.06.2017 17:15 14,2 °C 14,2 °C 54 % 1018,4 hPa 0,0 mm 15,0 km/h (3 Bft) W-NW 302 ° 0 min 0,000 mm 0,0 UV-I 116 W/m² 5,0 °C 14,2 °C 20,9 km/h (4 Bft)
07.06.2017 17:16 14,3 °C 14,3 °C 56 % 1018,5 hPa 0,0 mm 21,9 km/h (4 Bft) W-NW 284 ° 0 min 0,000 mm 1,5 UV-I 93 W/m² 5,6 °C 14,3 °C 29,0 km/h (5 Bft)
07.06.2017 17:17 14,3 °C 14,3 °C 54 % 1018,5 hPa 0,0 mm 13,2 km/h (3 Bft) W-NW 298 ° 0 min 0,000 mm 1,4 UV-I 49 W/m² 5,1 °C 14,3 °C 24,1 km/h (4 Bft)
07.06.2017 17:18 14,4 °C 14,4 °C 55 % 1018,5 hPa 0,0 mm 14,8 km/h (3 Bft) NW 316 ° 0 min 0,000 mm 1,4 UV-I 118 W/m² 5,5 °C 14,4 °C 29,0 km/h (5 Bft)
07.06.2017 17:19 14,4 °C 14,4 °C 56 % 1018,5 hPa 0,0 mm 17,8 km/h (3 Bft) W-NW 301 ° 0 min 0,000 mm 1,4 UV-I 69 W/m² 5,7 °C 14,4 °C 24,1 km/h (4 Bft)
07.06.2017 17:20 14,4 °C 14,4 °C 55 % 1018,6 hPa 0,0 mm 17,6 km/h (3 Bft) W-NW 286 ° 0 min 0,000 mm 1,5 UV-I 97 W/m² 5,5 °C 14,4 °C 24,1 km/h (4 Bft)
07.06.2017 17:21 14,4 °C 14,4 °C 55 % 1018,5 hPa 0,0 mm 10,3 km/h (2 Bft) W-NW 282 ° 0 min 0,000 mm 1,5 UV-I 54 W/m² 5,5 °C 14,4 °C 14,5 km/h (3 Bft)
07.06.2017 17:22 14,4 °C 14,4 °C 54 % 1018,5 hPa 0,0 mm 16,6 km/h (3 Bft) W-NW 290 ° 0 min 0,000 mm 1,5 UV-I 70 W/m² 5,2 °C 14,4 °C 24,1 km/h (4 Bft)
07.06.2017 17:23 14,4 °C 14,4 °C 54 % 1018,6 hPa 0,0 mm 22,4 km/h (4 Bft) W-SW 258 ° 0 min 0,000 mm 1,4 UV-I 65 W/m² 5,2 °C 14,4 °C 33,8 km/h (5 Bft)
07.06.2017 17:24 14,4 °C 14,4 °C 54 % 1018,5 hPa 0,0 mm 14,4 km/h (3 Bft) W 261 ° 0 min 0,000 mm 0,0 UV-I 51 W/m² 5,2 °C 14,4 °C 24,1 km/h (4 Bft)
07.06.2017 17:25 14,4 °C 14,4 °C 54 % 1018,5 hPa 0,0 mm 10,3 km/h (2 Bft) W-NW 291 ° 0 min 0,000 mm 0,0 UV-I 51 W/m² 5,2 °C 14,4 °C 16,1 km/h (3 Bft)
07.06.2017 17:26 14,3 °C 14,4 °C 54 % 1018,5 hPa 0,0 mm 12,6 km/h (3 Bft) W-SW 250 ° 0 min 0,000 mm 1,4 UV-I 60 W/m² 5,1 °C 14,3 °C 20,9 km/h (4 Bft)
07.06.2017 17:27 14,3 °C 14,3 °C 54 % 1018,5 hPa 0,0 mm 20,3 km/h (4 Bft) W 268 ° 0 min 0,000 mm 0,0 UV-I 51 W/m² 5,1 °C 14,3 °C 29,0 km/h (5 Bft)
07.06.2017 17:28 14,3 °C 14,3 °C 54 % 1018,5 hPa 0,0 mm 18,0 km/h (3 Bft) W-NW 301 ° 0 min 0,000 mm 0,0 UV-I 51 W/m² 5,1 °C 14,3 °C 30,6 km/h (5 Bft)
07.06.2017 17:29 14,3 °C 14,3 °C 53 % 1018,5 hPa 0,0 mm 14,7 km/h (3 Bft) W-NW 297 ° 0 min 0,000 mm 0,0 UV-I 49 W/m² 4,9 °C 14,3 °C 24,1 km/h (4 Bft)
07.06.2017 17:30 14,3 °C 14,3 °C 54 % 1018,5 hPa 0,0 mm 11,4 km/h (2 Bft) W 276 ° 0 min 0,000 mm 0,0 UV-I 49 W/m² 5,1 °C 14,3 °C 19,3 km/h (3 Bft)
07.06.2017 17:31 14,4 °C 14,4 °C 54 % 1018,6 hPa 0,0 mm 17,8 km/h (3 Bft) W-NW 288 ° 0 min 0,000 mm 1,4 UV-I 81 W/m² 5,2 °C 14,4 °C 27,4 km/h (4 Bft)
07.06.2017 17:32 14,4 °C 14,4 °C 54 % 1018,6 hPa 0,0 mm 19,1 km/h (3 Bft) W 261 ° 0 min 0,000 mm 0,0 UV-I 51 W/m² 5,2 °C 14,4 °C 30,6 km/h (5 Bft)
07.06.2017 17:33 14,4 °C 14,4 °C 56 % 1018,5 hPa 0,0 mm 16,0 km/h (3 Bft) W 269 ° 0 min 0,000 mm 0,0 UV-I 54 W/m² 5,7 °C 14,4 °C 24,1 km/h (4 Bft)
07.06.2017 17:34 14,4 °C 14,4 °C 55 % 1018,5 hPa 0,0 mm 14,3 km/h (3 Bft) SW 232 ° 0 min 0,000 mm 0,0 UV-I 49 W/m² 5,5 °C 14,4 °C 25,7 km/h (4 Bft)
07.06.2017 17:35 14,4 °C 14,4 °C 54 % 1018,5 hPa 0,0 mm 13,2 km/h (3 Bft) S-SW 209 ° 0 min 0,000 mm 0,0 UV-I 49 W/m² 5,2 °C 14,4 °C 20,9 km/h (4 Bft)
07.06.2017 17:36 14,4 °C 14,4 °C 54 % 1018,5 hPa 0,0 mm 14,3 km/h (3 Bft) W-SW 246 ° 0 min 0,000 mm 0,0 UV-I 47 W/m² 5,2 °C 14,4 °C 22,5 km/h (4 Bft)
07.06.2017 17:37 14,4 °C 14,4 °C 55 % 1018,5 hPa 0,0 mm 11,0 km/h (2 Bft) W-NW 292 ° 0 min 0,000 mm 0,0 UV-I 53 W/m² 5,5 °C 14,4 °C 17,7 km/h (3 Bft)
07.06.2017 17:38 14,4 °C 14,4 °C 56 % 1018,5 hPa 0,0 mm 13,0 km/h (3 Bft) W-SW 256 ° 0 min 0,000 mm 0,0 UV-I 51 W/m² 5,7 °C 14,4 °C 19,3 km/h (3 Bft)
07.06.2017 17:39 14,4 °C 14,4 °C 56 % 1018,5 hPa 0,0 mm 13,6 km/h (3 Bft) W 264 ° 0 min 0,000 mm 0,0 UV-I 72 W/m² 5,7 °C 14,4 °C 19,3 km/h (3 Bft)
07.06.2017 17:40 14,4 °C 14,4 °C 54 % 1018,4 hPa 0,0 mm 9,5 km/h (2 Bft) W-SW 257 ° 0 min 0,000 mm 1,3 UV-I 62 W/m² 5,2 °C 14,4 °C 19,3 km/h (3 Bft)
07.06.2017 17:41 14,4 °C 14,4 °C 57 % 1018,5 hPa 0,0 mm 17,1 km/h (3 Bft) W 263 ° 0 min 0,000 mm 1,3 UV-I 58 W/m² 6,0 °C 14,4 °C 29,0 km/h (5 Bft)
07.06.2017 17:42 14,4 °C 14,4 °C 53 % 1018,5 hPa 0,0 mm 15,0 km/h (3 Bft) N-NW 338 ° 0 min 0,000 mm 1,3 UV-I 65 W/m² 4,9 °C 14,4 °C 24,1 km/h (4 Bft)
07.06.2017 17:43 14,4 °C 14,4 °C 53 % 1018,5 hPa 0,0 mm 13,8 km/h (3 Bft) W-NW 289 ° 0 min 0,000 mm 1,3 UV-I 72 W/m² 4,9 °C 14,4 °C 17,7 km/h (3 Bft)
07.06.2017 17:44 14,4 °C 14,4 °C 54 % 1018,6 hPa 0,0 mm 18,5 km/h (3 Bft) W-SW 254 ° 0 min 0,000 mm 1,3 UV-I 109 W/m² 5,2 °C 14,4 °C 27,4 km/h (4 Bft)
07.06.2017 17:45 14,4 °C 14,4 °C 53 % 1018,6 hPa 0,0 mm 17,7 km/h (3 Bft) W-SW 254 ° 0 min 0,000 mm 1,3 UV-I 74 W/m² 4,9 °C 14,4 °C 25,7 km/h (4 Bft)
07.06.2017 17:46 14,4 °C 14,4 °C 56 % 1018,6 hPa 0,0 mm 15,7 km/h (3 Bft) W 273 ° 0 min 0,000 mm 1,3 UV-I 67 W/m² 5,7 °C 14,4 °C 25,7 km/h (4 Bft)
07.06.2017 17:47 14,4 °C 14,4 °C 55 % 1018,7 hPa 0,0 mm 9,3 km/h (2 Bft) W-NW 301 ° 0 min 0,000 mm 1,3 UV-I 91 W/m² 5,5 °C 14,4 °C 17,7 km/h (3 Bft)
07.06.2017 17:48 14,3 °C 14,4 °C 55 % 1018,7 hPa 0,0 mm 12,5 km/h (3 Bft) W 263 ° 0 min 0,000 mm 1,3 UV-I 90 W/m² 5,4 °C 14,3 °C 17,7 km/h (3 Bft)
07.06.2017 17:49 14,3 °C 14,4 °C 55 % 1018,7 hPa 0,0 mm 16,9 km/h (3 Bft) W 261 ° 0 min 0,000 mm 1,3 UV-I 81 W/m² 5,4 °C 14,3 °C 19,3 km/h (3 Bft)
07.06.2017 17:50 14,3 °C 14,3 °C 54 % 1018,7 hPa 0,0 mm 20,3 km/h (4 Bft) W-NW 286 ° 0 min 0,000 mm 1,3 UV-I 62 W/m² 5,1 °C 14,3 °C 27,4 km/h (4 Bft)
07.06.2017 17:51 14,3 °C 14,3 °C 56 % 1018,7 hPa 0,0 mm 13,7 km/h (3 Bft) W-NW 284 ° 0 min 0,000 mm 1,3 UV-I 56 W/m² 5,6 °C 14,3 °C 19,3 km/h (3 Bft)
07.06.2017 17:52 14,3 °C 14,3 °C 57 % 1018,7 hPa 0,0 mm 10,9 km/h (2 Bft) W 269 ° 0 min 0,000 mm 1,2 UV-I 56 W/m² 5,9 °C 14,3 °C 17,7 km/h (3 Bft)
07.06.2017 17:53 14,3 °C 14,3 °C 57 % 1018,7 hPa 0,0 mm 16,6 km/h (3 Bft) W 266 ° 0 min 0,000 mm 1,2 UV-I 56 W/m² 5,9 °C 14,3 °C 25,7 km/h (4 Bft)
07.06.2017 17:54 14,3 °C 14,3 °C 55 % 1018,7 hPa 0,0 mm 11,3 km/h (2 Bft) W 273 ° 0 min 0,000 mm 1,2 UV-I 65 W/m² 5,4 °C 14,3 °C 22,5 km/h (4 Bft)
07.06.2017 17:55 14,3 °C 14,3 °C 56 % 1018,7 hPa 0,0 mm 12,0 km/h (2 Bft) W-NW 285 ° 0 min 0,000 mm 0,0 UV-I 54 W/m² 5,6 °C 14,3 °C 20,9 km/h (4 Bft)
07.06.2017 17:56 14,4 °C 14,4 °C 56 % 1018,7 hPa 0,0 mm 16,2 km/h (3 Bft) S-SW 208 ° 0 min 0,000 mm 0,0 UV-I 54 W/m² 5,7 °C 14,4 °C 22,5 km/h (4 Bft)
07.06.2017 17:57 14,4 °C 14,4 °C 55 % 1018,8 hPa 0,0 mm 18,6 km/h (3 Bft) W-SW 257 ° 0 min 0,000 mm 0,0 UV-I 54 W/m² 5,5 °C 14,4 °C 33,8 km/h (5 Bft)
07.06.2017 17:58 14,3 °C 14,4 °C 55 % 1018,9 hPa 0,0 mm 17,1 km/h (3 Bft) W-SW 248 ° 0 min 0,000 mm 0,0 UV-I 53 W/m² 5,4 °C 14,3 °C 25,7 km/h (4 Bft)
07.06.2017 17:59 14,3 °C 14,3 °C 56 % 1018,8 hPa 0,0 mm 20,9 km/h (4 Bft) W-NW 302 ° 0 min 0,000 mm 0,0 UV-I 54 W/m² 5,6 °C 14,3 °C 32,2 km/h (5 Bft)
07.06.2017 18:00 14,2 °C 14,3 °C 55 % 1018,8 hPa 0,0 mm 16,3 km/h (3 Bft) NW 304 ° 0 min 0,127 mm 0,0 UV-I 54 W/m² 5,3 °C 14,2 °C 25,7 km/h (4 Bft)
07.06.2017 18:01 14,2 °C 14,2 °C 56 % 1018,8 hPa 0,0 mm 16,0 km/h (3 Bft) W 271 ° 0 min 0,000 mm 0,0 UV-I 54 W/m² 5,6 °C 14,2 °C 24,1 km/h (4 Bft)
07.06.2017 18:02 14,1 °C 14,2 °C 55 % 1018,9 hPa 0,0 mm 20,4 km/h (4 Bft) W-NW 291 ° 0 min 0,000 mm 1,2 UV-I 56 W/m² 5,2 °C 14,1 °C 30,6 km/h (5 Bft)
07.06.2017 18:03 14,0 °C 14,1 °C 55 % 1018,8 hPa 0,0 mm 17,9 km/h (3 Bft) N-NW 336 ° 0 min 0,000 mm 1,2 UV-I 65 W/m² 5,1 °C 14,0 °C 32,2 km/h (5 Bft)
07.06.2017 18:04 14,0 °C 14,0 °C 55 % 1018,8 hPa 0,0 mm 18,7 km/h (3 Bft) W-SW 250 ° 0 min 0,000 mm 1,2 UV-I 56 W/m² 5,1 °C 14,0 °C 27,4 km/h (4 Bft)
07.06.2017 18:05 14,0 °C 14,0 °C 55 % 1018,8 hPa 0,0 mm 16,4 km/h (3 Bft) W-SW 254 ° 0 min 0,000 mm 1,2 UV-I 56 W/m² 5,1 °C 14,0 °C 22,5 km/h (4 Bft)
07.06.2017 18:06 14,0 °C 14,0 °C 55 % 1018,8 hPa 0,0 mm 18,2 km/h (3 Bft) W 269 ° 0 min 0,000 mm 0,0 UV-I 54 W/m² 5,1 °C 14,0 °C 29,0 km/h (5 Bft)
07.06.2017 18:07 13,9 °C 14,0 °C 55 % 1018,8 hPa 0,0 mm 17,1 km/h (3 Bft) W 271 ° 0 min 0,000 mm 0,0 UV-I 54 W/m² 5,0 °C 13,9 °C 32,2 km/h (5 Bft)
07.06.2017 18:08 13,9 °C 13,9 °C 54 % 1018,8 hPa 0,0 mm 13,5 km/h (3 Bft) W-SW 245 ° 0 min 0,000 mm 1,1 UV-I 60 W/m² 4,7 °C 13,9 °C 19,3 km/h (3 Bft)
07.06.2017 18:09 13,8 °C 13,9 °C 55 % 1018,9 hPa 0,0 mm 19,6 km/h (3 Bft) NW 316 ° 0 min 0,000 mm 1,1 UV-I 56 W/m² 4,9 °C 13,8 °C 25,7 km/h (4 Bft)
07.06.2017 18:10 13,8 °C 13,8 °C 54 % 1018,9 hPa 0,0 mm 18,3 km/h (3 Bft) W 269 ° 0 min 0,000 mm 1,1 UV-I 58 W/m² 4,7 °C 13,8 °C 40,2 km/h (6 Bft)
07.06.2017 18:11 13,8 °C 13,8 °C 54 % 1018,9 hPa 0,0 mm 14,2 km/h (3 Bft) W 261 ° 0 min 0,000 mm 0,0 UV-I 54 W/m² 4,7 °C 13,8 °C 20,9 km/h (4 Bft)
07.06.2017 18:12 13,8 °C 13,8 °C 57 % 1018,9 hPa 0,0 mm 14,3 km/h (3 Bft) W 279 ° 0 min 0,000 mm 1,1 UV-I 56 W/m² 5,4 °C 13,8 °C 19,3 km/h (3 Bft)
07.06.2017 18:13 13,9 °C 13,9 °C 58 % 1018,9 hPa 0,0 mm 13,4 km/h (3 Bft) W 268 ° 0 min 0,000 mm 0,0 UV-I 54 W/m² 5,8 °C 13,9 °C 19,3 km/h (3 Bft)
07.06.2017 18:14 13,9 °C 13,9 °C 57 % 1019,0 hPa 0,0 mm 17,1 km/h (3 Bft) NW 315 ° 0 min 0,000 mm 1,1 UV-I 54 W/m² 5,5 °C 13,9 °C 35,4 km/h (5 Bft)
07.06.2017 18:15 13,9 °C 13,9 °C 56 % 1018,9 hPa 0,0 mm 16,0 km/h (3 Bft) W-NW 293 ° 0 min 0,000 mm 0,0 UV-I 56 W/m² 5,3 °C 13,9 °C 24,1 km/h (4 Bft)
07.06.2017 18:16 13,9 °C 13,9 °C 55 % 1018,9 hPa 0,0 mm 17,1 km/h (3 Bft) NW 307 ° 0 min 0,000 mm 1,1 UV-I 54 W/m² 5,0 °C 13,9 °C 29,0 km/h (5 Bft)
07.06.2017 18:17 13,9 °C 13,9 °C 56 % 1019,0 hPa 0,0 mm 22,0 km/h (4 Bft) W 269 ° 0 min 0,000 mm 0,0 UV-I 53 W/m² 5,3 °C 13,9 °C 27,4 km/h (4 Bft)
07.06.2017 18:18 13,9 °C 13,9 °C 57 % 1018,8 hPa 0,0 mm 13,9 km/h (3 Bft) W-SW 256 ° 0 min 0,000 mm 0,0 UV-I 51 W/m² 5,5 °C 13,9 °C 24,1 km/h (4 Bft)
07.06.2017 18:19 13,9 °C 13,9 °C 56 % 1018,9 hPa 0,0 mm 7,2 km/h (2 Bft) W 260 ° 0 min 0,000 mm 0,0 UV-I 51 W/m² 5,3 °C 13,9 °C 12,9 km/h (3 Bft)
07.06.2017 18:20 13,8 °C 13,9 °C 57 % 1018,9 hPa 0,0 mm 12,0 km/h (2 Bft) W 268 ° 0 min 0,000 mm 0,0 UV-I 49 W/m² 5,4 °C 13,8 °C 19,3 km/h (3 Bft)
07.06.2017 18:21 13,9 °C 13,9 °C 57 % 1018,9 hPa 0,0 mm 14,4 km/h (3 Bft) W-NW 289 ° 0 min 0,000 mm 1,1 UV-I 98 W/m² 5,5 °C 13,9 °C 22,5 km/h (4 Bft)
07.06.2017 18:22 13,9 °C 13,9 °C 57 % 1019,0 hPa 0,0 mm 18,0 km/h (3 Bft) W 269 ° 0 min 0,000 mm 0,0 UV-I 53 W/m² 5,5 °C 13,9 °C 22,5 km/h (4 Bft)
07.06.2017 18:23 13,9 °C 13,9 °C 57 % 1018,9 hPa 0,0 mm 19,5 km/h (3 Bft) W-NW 292 ° 0 min 0,000 mm 0,0 UV-I 54 W/m² 5,5 °C 13,9 °C 30,6 km/h (5 Bft)
07.06.2017 18:24 13,8 °C 13,9 °C 56 % 1019,0 hPa 0,0 mm 21,4 km/h (4 Bft) NW 304 ° 0 min 0,000 mm 1,1 UV-I 63 W/m² 5,2 °C 13,8 °C 32,2 km/h (5 Bft)
07.06.2017 18:25 13,8 °C 13,8 °C 56 % 1019,0 hPa 0,0 mm 15,0 km/h (3 Bft) NW 326 ° 0 min 0,000 mm 1,0 UV-I 81 W/m² 5,2 °C 13,8 °C 25,7 km/h (4 Bft)
07.06.2017 18:26 13,8 °C 13,8 °C 56 % 1018,9 hPa 0,0 mm 14,9 km/h (3 Bft) W-NW 284 ° 0 min 0,000 mm 1,0 UV-I 54 W/m² 5,2 °C 13,8 °C 22,5 km/h (4 Bft)
07.06.2017 18:27 13,8 °C 13,8 °C 58 % 1018,9 hPa 0,0 mm 13,4 km/h (3 Bft) W-NW 298 ° 0 min 0,000 mm 1,1 UV-I 56 W/m² 5,7 °C 13,8 °C 22,5 km/h (4 Bft)
07.06.2017 18:28 13,8 °C 13,8 °C 57 % 1018,9 hPa 0,0 mm 14,3 km/h (3 Bft) W 276 ° 0 min 0,000 mm 1,1 UV-I 76 W/m² 5,4 °C 13,8 °C 19,3 km/h (3 Bft)
07.06.2017 18:29 13,8 °C 13,8 °C 56 % 1019,0 hPa 0,0 mm 11,9 km/h (2 Bft) W-SW 248 ° 0 min 0,000 mm 1,0 UV-I 65 W/m² 5,2 °C 13,8 °C 17,7 km/h (3 Bft)
07.06.2017 18:30 13,8 °C 13,8 °C 57 % 1019,0 hPa 0,0 mm 16,2 km/h (3 Bft) W 263 ° 0 min 0,000 mm 1,0 UV-I 116 W/m² 5,4 °C 13,8 °C 19,3 km/h (3 Bft)
07.06.2017 18:31 13,8 °C 13,8 °C 55 % 1019,0 hPa 0,0 mm 23,7 km/h (4 Bft) W 259 ° 0 min 0,000 mm 1,0 UV-I 70 W/m² 4,9 °C 13,8 °C 30,6 km/h (5 Bft)
07.06.2017 18:32 13,8 °C 13,8 °C 55 % 1018,9 hPa 0,0 mm 20,6 km/h (4 Bft) W-NW 300 ° 0 min 0,000 mm 1,1 UV-I 76 W/m² 4,9 °C 13,8 °C 30,6 km/h (5 Bft)
07.06.2017 18:33 13,8 °C 13,8 °C 54 % 1018,9 hPa 0,0 mm 14,2 km/h (3 Bft) W-NW 296 ° 0 min 0,000 mm 1,1 UV-I 72 W/m² 4,7 °C 13,8 °C 22,5 km/h (4 Bft)
07.06.2017 18:34 13,8 °C 13,8 °C 55 % 1019,0 hPa 0,0 mm 19,4 km/h (3 Bft) W-NW 289 ° 0 min 0,000 mm 1,1 UV-I 118 W/m² 4,9 °C 13,8 °C 30,6 km/h (5 Bft)
07.06.2017 18:35 13,8 °C 13,8 °C 57 % 1019,0 hPa 0,0 mm 10,4 km/h (2 Bft) W 268 ° 0 min 0,000 mm 1,2 UV-I 114 W/m² 5,4 °C 13,8 °C 14,5 km/h (3 Bft)
07.06.2017 18:36 13,8 °C 13,8 °C 57 % 1019,0 hPa 0,0 mm 15,0 km/h (3 Bft) W-SW 254 ° 0 min 0,000 mm 1,0 UV-I 90 W/m² 5,4 °C 13,8 °C 27,4 km/h (4 Bft)
07.06.2017 18:37 13,8 °C 13,8 °C 56 % 1019,0 hPa 0,0 mm 21,5 km/h (4 Bft) W-SW 248 ° 0 min 0,000 mm 1,0 UV-I 137 W/m² 5,2 °C 13,8 °C 30,6 km/h (5 Bft)
07.06.2017 18:38 13,7 °C 13,8 °C 55 % 1019,0 hPa 0,0 mm 15,8 km/h (3 Bft) W 277 ° 0 min 0,000 mm 1,2 UV-I 60 W/m² 4,8 °C 13,7 °C 25,7 km/h (4 Bft)
07.06.2017 18:39 13,7 °C 13,7 °C 56 % 1019,0 hPa 0,0 mm 12,4 km/h (3 Bft) NW 311 ° 0 min 0,000 mm 1,1 UV-I 65 W/m² 5,1 °C 13,7 °C 17,7 km/h (3 Bft)
07.06.2017 18:40 13,7 °C 13,7 °C 56 % 1019,1 hPa 0,0 mm 12,1 km/h (2 Bft) NW 309 ° 0 min 0,000 mm 1,1 UV-I 74 W/m² 5,1 °C 13,7 °C 19,3 km/h (3 Bft)
07.06.2017 18:41 13,7 °C 13,7 °C 56 % 1019,1 hPa 0,0 mm 14,8 km/h (3 Bft) W 277 ° 0 min 0,000 mm 1,0 UV-I 69 W/m² 5,1 °C 13,7 °C 22,5 km/h (4 Bft)
07.06.2017 18:42 13,8 °C 13,8 °C 56 % 1019,1 hPa 0,0 mm 13,5 km/h (3 Bft) W-NW 297 ° 0 min 0,000 mm 1,2 UV-I 69 W/m² 5,2 °C 13,8 °C 17,7 km/h (3 Bft)
07.06.2017 18:43 13,8 °C 13,8 °C 57 % 1019,1 hPa 0,0 mm 13,0 km/h (3 Bft) SW 222 ° 0 min 0,000 mm 1,0 UV-I 105 W/m² 5,4 °C 13,8 °C 25,7 km/h (4 Bft)
07.06.2017 18:44 13,8 °C 13,8 °C 57 % 1019,0 hPa 0,0 mm 10,4 km/h (2 Bft) W 271 ° 0 min 0,000 mm 1,2 UV-I 91 W/m² 5,4 °C 13,8 °C 20,9 km/h (4 Bft)
07.06.2017 18:45 13,8 °C 13,8 °C 56 % 1019,0 hPa 0,0 mm 7,9 km/h (2 Bft) W-NW 298 ° 0 min 0,000 mm 1,0 UV-I 116 W/m² 5,2 °C 13,8 °C 12,9 km/h (3 Bft)
07.06.2017 18:46 13,8 °C 13,8 °C 57 % 1019,1 hPa 0,0 mm 16,0 km/h (3 Bft) W 279 ° 0 min 0,000 mm 1,1 UV-I 178 W/m² 5,4 °C 13,8 °C 24,1 km/h (4 Bft)
07.06.2017 18:47 13,8 °C 13,8 °C 56 % 1019,0 hPa 0,0 mm 14,6 km/h (3 Bft) W-SW 249 ° 0 min 0,000 mm 1,0 UV-I 206 W/m² 5,2 °C 13,8 °C 22,5 km/h (4 Bft)
07.06.2017 18:48 13,7 °C 13,8 °C 56 % 1019,0 hPa 0,0 mm 14,6 km/h (3 Bft) N 350 ° 0 min 0,000 mm 0,0 UV-I 206 W/m² 5,1 °C 13,7 °C 27,4 km/h (4 Bft)
07.06.2017 18:49 13,7 °C 13,7 °C 55 % 1019,0 hPa 0,0 mm 11,8 km/h (2 Bft) W 261 ° 0 min 0,000 mm 0,0 UV-I 100 W/m² 4,8 °C 13,7 °C 17,7 km/h (3 Bft)
07.06.2017 18:50 13,4 °C 13,7 °C 56 % 1019,0 hPa 0,0 mm 14,6 km/h (3 Bft) W 264 ° 0 min 0,000 mm 1,2 UV-I 100 W/m² 4,8 °C 13,4 °C 17,7 km/h (3 Bft)
07.06.2017 18:51 13,3 °C 13,4 °C 56 % 1019,0 hPa 0,0 mm 10,6 km/h (2 Bft) W-SW 237 ° 1 min 0,000 mm 1,2 UV-I 315 W/m² 4,7 °C 13,3 °C 16,1 km/h (3 Bft)
07.06.2017 18:52 13,3 °C 13,4 °C 57 % 1019,1 hPa 0,0 mm 15,3 km/h (3 Bft) W-NW 284 ° 0 min 0,000 mm 1,2 UV-I 258 W/m² 5,0 °C 13,3 °C 29,0 km/h (5 Bft)
07.06.2017 18:53 13,3 °C 13,3 °C 56 % 1019,1 hPa 0,0 mm 15,3 km/h (3 Bft) W-NW 288 ° 1 min 0,000 mm 1,2 UV-I 311 W/m² 4,7 °C 13,3 °C 22,5 km/h (4 Bft)
07.06.2017 18:54 13,3 °C 13,4 °C 56 % 1019,0 hPa 0,0 mm 11,7 km/h (2 Bft) W-SW 244 ° 0 min 0,000 mm 1,2 UV-I 278 W/m² 4,7 °C 13,3 °C 19,3 km/h (3 Bft)
07.06.2017 18:55 13,4 °C 13,4 °C 57 % 1019,0 hPa 0,0 mm 11,2 km/h (2 Bft) W 265 ° 1 min 0,000 mm 1,2 UV-I 299 W/m² 5,1 °C 13,4 °C 14,5 km/h (3 Bft)
07.06.2017 18:56 13,4 °C 13,4 °C 55 % 1019,0 hPa 0,0 mm 17,6 km/h (3 Bft) S-SW 192 ° 1 min 0,000 mm 1,1 UV-I 299 W/m² 4,5 °C 13,4 °C 25,7 km/h (4 Bft)
07.06.2017 18:57 13,5 °C 13,5 °C 55 % 1019,0 hPa 0,0 mm 15,7 km/h (3 Bft) SW 236 ° 0 min 0,000 mm 1,0 UV-I 253 W/m² 4,6 °C 13,5 °C 19,3 km/h (3 Bft)
07.06.2017 18:58 13,5 °C 13,5 °C 56 % 1019,0 hPa 0,0 mm 13,3 km/h (3 Bft) NW 309 ° 0 min 0,000 mm 0,8 UV-I 253 W/m² 4,9 °C 13,5 °C 20,9 km/h (4 Bft)
07.06.2017 18:59 13,6 °C 13,6 °C 57 % 1019,0 hPa 0,0 mm 13,1 km/h (3 Bft) W-NW 285 ° 0 min 0,000 mm 0,8 UV-I 84 W/m² 5,2 °C 13,6 °C 19,3 km/h (3 Bft)
07.06.2017 19:00 13,7 °C 13,7 °C 55 % 1019,1 hPa 0,0 mm 10,9 km/h (2 Bft) W 280 ° 0 min 0,000 mm 0,8 UV-I 65 W/m² 4,8 °C 13,7 °C 16,1 km/h (3 Bft)
07.06.2017 19:01 13,7 °C 13,7 °C 54 % 1019,0 hPa 0,0 mm 6,7 km/h (2 Bft) W-SW 255 ° 0 min 0,127 mm 0,8 UV-I 76 W/m² 4,6 °C 13,7 °C 12,9 km/h (3 Bft)
07.06.2017 19:02 13,7 °C 13,7 °C 54 % 1019,1 hPa 0,0 mm 10,5 km/h (2 Bft) NW 304 ° 0 min 0,000 mm 0,9 UV-I 121 W/m² 4,6 °C 13,7 °C 14,5 km/h (3 Bft)
07.06.2017 19:03 13,7 °C 13,7 °C 55 % 1019,1 hPa 0,0 mm 7,8 km/h (2 Bft) W 270 ° 0 min 0,000 mm 1,0 UV-I 134 W/m² 4,8 °C 13,7 °C 12,9 km/h (3 Bft)
07.06.2017 19:04 13,7 °C 13,8 °C 56 % 1019,1 hPa 0,0 mm 4,8 km/h (1 Bft) W 281 ° 0 min 0,000 mm 0,8 UV-I 97 W/m² 5,1 °C 13,7 °C 9,7 km/h (2 Bft)
07.06.2017 19:05 13,8 °C 13,8 °C 57 % 1019,1 hPa 0,0 mm 8,2 km/h (2 Bft) NW 304 ° 0 min 0,000 mm 0,0 UV-I 49 W/m² 5,4 °C 13,8 °C 16,1 km/h (3 Bft)
07.06.2017 19:06 13,8 °C 13,8 °C 56 % 1019,1 hPa 0,0 mm 13,1 km/h (3 Bft) W 259 ° 0 min 0,000 mm 0,0 UV-I 44 W/m² 5,2 °C 13,8 °C 20,9 km/h (4 Bft)
07.06.2017 19:07 13,8 °C 13,8 °C 55 % 1019,1 hPa 0,0 mm 11,2 km/h (2 Bft) W 273 ° 0 min 0,000 mm 0,0 UV-I 53 W/m² 4,9 °C 13,8 °C 16,1 km/h (3 Bft)
07.06.2017 19:08 13,8 °C 13,8 °C 53 % 1019,1 hPa 0,0 mm 8,9 km/h (2 Bft) W 279 ° 0 min 0,000 mm 1,0 UV-I 81 W/m² 4,4 °C 13,8 °C 12,9 km/h (3 Bft)
07.06.2017 19:09 13,8 °C 13,8 °C 54 % 1019,2 hPa 0,0 mm 10,8 km/h (2 Bft) W-SW 256 ° 0 min 0,000 mm 0,9 UV-I 120 W/m² 4,7 °C 13,8 °C 16,1 km/h (3 Bft)
07.06.2017 19:10 13,8 °C 13,8 °C 53 % 1019,2 hPa 0,0 mm 10,5 km/h (2 Bft) W-SW 256 ° 0 min 0,000 mm 0,9 UV-I 190 W/m² 4,4 °C 13,8 °C 16,1 km/h (3 Bft)
07.06.2017 19:11 13,8 °C 13,8 °C 54 % 1019,2 hPa 0,0 mm 8,6 km/h (2 Bft) W-SW 257 ° 0 min 0,000 mm 0,9 UV-I 246 W/m² 4,7 °C 13,8 °C 16,1 km/h (3 Bft)
07.06.2017 19:12 13,8 °C 13,8 °C 55 % 1019,2 hPa 0,0 mm 13,2 km/h (3 Bft) W 273 ° 0 min 0,000 mm 0,9 UV-I 250 W/m² 4,9 °C 13,8 °C 16,1 km/h (3 Bft)
07.06.2017 19:13 13,8 °C 13,8 °C 54 % 1019,2 hPa 0,0 mm 9,6 km/h (2 Bft) W-NW 294 ° 0 min 0,000 mm 0,9 UV-I 239 W/m² 4,7 °C 13,8 °C 12,9 km/h (3 Bft)
07.06.2017 19:14 13,8 °C 13,8 °C 54 % 1019,2 hPa 0,0 mm 9,7 km/h (2 Bft) NW 324 ° 0 min 0,000 mm 0,8 UV-I 239 W/m² 4,7 °C 13,8 °C 12,9 km/h (3 Bft)
07.06.2017 19:15 13,8 °C 13,8 °C 54 % 1019,2 hPa 0,0 mm 8,4 km/h (2 Bft) W 268 ° 0 min 0,000 mm 0,8 UV-I 239 W/m² 4,7 °C 13,8 °C 14,5 km/h (3 Bft)
07.06.2017 19:16 13,8 °C 13,8 °C 53 % 1019,2 hPa 0,0 mm 14,3 km/h (3 Bft) W-NW 289 ° 0 min 0,000 mm 0,8 UV-I 158 W/m² 4,4 °C 13,8 °C 19,3 km/h (3 Bft)
07.06.2017 19:17 13,7 °C 13,8 °C 53 % 1019,2 hPa 0,0 mm 8,4 km/h (2 Bft) W-SW 246 ° 0 min 0,000 mm 0,8 UV-I 230 W/m² 4,3 °C 13,7 °C 12,9 km/h (3 Bft)
07.06.2017 19:18 13,7 °C 13,7 °C 54 % 1019,3 hPa 0,0 mm 7,8 km/h (2 Bft) W 266 ° 0 min 0,000 mm 0,8 UV-I 229 W/m² 4,6 °C 13,7 °C 14,5 km/h (3 Bft)
07.06.2017 19:19 13,7 °C 13,7 °C 55 % 1019,2 hPa 0,0 mm 10,5 km/h (2 Bft) W-NW 284 ° 0 min 0,000 mm 0,8 UV-I 223 W/m² 4,8 °C 13,7 °C 17,7 km/h (3 Bft)
07.06.2017 19:20 13,6 °C 13,7 °C 54 % 1019,3 hPa 0,0 mm 9,9 km/h (2 Bft) W 272 ° 0 min 0,000 mm 0,7 UV-I 221 W/m² 4,5 °C 13,6 °C 17,7 km/h (3 Bft)
07.06.2017 19:21 13,6 °C 13,6 °C 53 % 1019,3 hPa 0,0 mm 11,7 km/h (2 Bft) W-NW 296 ° 0 min 0,000 mm 0,7 UV-I 223 W/m² 4,2 °C 13,6 °C 16,1 km/h (3 Bft)
07.06.2017 19:22 13,7 °C 13,7 °C 52 % 1019,3 hPa 0,0 mm 15,3 km/h (3 Bft) NW 315 ° 0 min 0,000 mm 0,7 UV-I 221 W/m² 4,0 °C 13,7 °C 27,4 km/h (4 Bft)
07.06.2017 19:23 13,7 °C 13,7 °C 54 % 1019,3 hPa 0,0 mm 12,5 km/h (3 Bft) W-SW 247 ° 0 min 0,000 mm 0,7 UV-I 220 W/m² 4,6 °C 13,7 °C 17,7 km/h (3 Bft)
07.06.2017 19:24 13,7 °C 13,7 °C 53 % 1019,2 hPa 0,0 mm 9,4 km/h (2 Bft) W-NW 288 ° 0 min 0,000 mm 0,7 UV-I 220 W/m² 4,3 °C 13,7 °C 12,9 km/h (3 Bft)
07.06.2017 19:25 13,7 °C 13,7 °C 53 % 1019,3 hPa 0,0 mm 17,3 km/h (3 Bft) W-SW 256 ° 0 min 0,000 mm 0,7 UV-I 218 W/m² 4,3 °C 13,7 °C 29,0 km/h (5 Bft)
07.06.2017 19:26 13,6 °C 13,7 °C 52 % 1019,4 hPa 0,0 mm 15,5 km/h (3 Bft) NW 310 ° 0 min 0,000 mm 0,7 UV-I 214 W/m² 3,9 °C 13,6 °C 20,9 km/h (4 Bft)
07.06.2017 19:27 13,6 °C 13,6 °C 51 % 1019,4 hPa 0,0 mm 13,6 km/h (3 Bft) NW 307 ° 0 min 0,000 mm 0,7 UV-I 211 W/m² 3,7 °C 13,6 °C 22,5 km/h (4 Bft)
07.06.2017 19:28 13,6 °C 13,7 °C 53 % 1019,4 hPa 0,0 mm 13,7 km/h (3 Bft) W 265 ° 0 min 0,000 mm 0,7 UV-I 204 W/m² 4,2 °C 13,6 °C 20,9 km/h (4 Bft)
07.06.2017 19:29 13,6 °C 13,7 °C 52 % 1019,4 hPa 0,0 mm 16,5 km/h (3 Bft) W-SW 258 ° 0 min 0,000 mm 0,7 UV-I 202 W/m² 3,9 °C 13,6 °C 24,1 km/h (4 Bft)
07.06.2017 19:30 13,6 °C 13,7 °C 52 % 1019,5 hPa 0,0 mm 14,3 km/h (3 Bft) W 259 ° 0 min 0,000 mm 0,7 UV-I 195 W/m² 3,9 °C 13,6 °C 20,9 km/h (4 Bft)
07.06.2017 19:31 13,6 °C 13,6 °C 51 % 1019,5 hPa 0,0 mm 13,3 km/h (3 Bft) W-NW 301 ° 0 min 0,000 mm 0,7 UV-I 192 W/m² 3,7 °C 13,6 °C 20,9 km/h (4 Bft)
07.06.2017 19:32 13,6 °C 13,6 °C 52 % 1019,5 hPa 0,0 mm 10,8 km/h (2 Bft) W-NW 285 ° 0 min 0,000 mm 0,6 UV-I 188 W/m² 3,9 °C 13,6 °C 16,1 km/h (3 Bft)
07.06.2017 19:33 13,6 °C 13,6 °C 52 % 1019,4 hPa 0,0 mm 10,3 km/h (2 Bft) W 279 ° 0 min 0,000 mm 0,6 UV-I 185 W/m² 3,9 °C 13,6 °C 16,1 km/h (3 Bft)
07.06.2017 19:34 13,5 °C 13,6 °C 53 % 1019,5 hPa 0,0 mm 15,6 km/h (3 Bft) W 281 ° 0 min 0,000 mm 0,6 UV-I 181 W/m² 4,1 °C 13,5 °C 22,5 km/h (4 Bft)
07.06.2017 19:35 13,5 °C 13,6 °C 51 % 1019,4 hPa 0,0 mm 16,2 km/h (3 Bft) W 267 ° 0 min 0,000 mm 0,6 UV-I 179 W/m² 3,6 °C 13,5 °C 29,0 km/h (5 Bft)
07.06.2017 19:36 13,4 °C 13,5 °C 50 % 1019,5 hPa 0,0 mm 13,4 km/h (3 Bft) W 275 ° 0 min 0,000 mm 0,6 UV-I 179 W/m² 3,2 °C 13,4 °C 20,9 km/h (4 Bft)
07.06.2017 19:37 13,4 °C 13,4 °C 52 % 1019,6 hPa 0,0 mm 10,9 km/h (2 Bft) W-NW 288 ° 0 min 0,000 mm 0,6 UV-I 179 W/m² 3,7 °C 13,4 °C 19,3 km/h (3 Bft)
07.06.2017 19:38 13,4 °C 13,4 °C 52 % 1019,5 hPa 0,0 mm 11,7 km/h (2 Bft) W 265 ° 0 min 0,000 mm 0,6 UV-I 178 W/m² 3,7 °C 13,4 °C 22,5 km/h (4 Bft)
07.06.2017 19:39 13,4 °C 13,4 °C 52 % 1019,6 hPa 0,0 mm 15,1 km/h (3 Bft) W 278 ° 0 min 0,000 mm 0,6 UV-I 174 W/m² 3,7 °C 13,4 °C 20,9 km/h (4 Bft)
07.06.2017 19:40 13,4 °C 13,4 °C 51 % 1019,5 hPa 0,0 mm 16,0 km/h (3 Bft) W 262 ° 0 min 0,000 mm 0,6 UV-I 169 W/m² 3,5 °C 13,4 °C 22,5 km/h (4 Bft)
07.06.2017 19:41 13,4 °C 13,4 °C 53 % 1019,5 hPa 0,0 mm 12,2 km/h (2 Bft) W 281 ° 0 min 0,000 mm 0,5 UV-I 163 W/m² 4,0 °C 13,4 °C 16,1 km/h (3 Bft)
07.06.2017 19:42 13,4 °C 13,4 °C 52 % 1019,5 hPa 0,0 mm 14,6 km/h (3 Bft) W 279 ° 0 min 0,000 mm 0,5 UV-I 156 W/m² 3,7 °C 13,4 °C 17,7 km/h (3 Bft)
07.06.2017 19:43 13,4 °C 13,4 °C 53 % 1019,5 hPa 0,0 mm 7,9 km/h (2 Bft) SW 231 ° 0 min 0,000 mm 0,5 UV-I 151 W/m² 4,0 °C 13,4 °C 14,5 km/h (3 Bft)
07.06.2017 19:44 13,3 °C 13,4 °C 52 % 1019,5 hPa 0,0 mm 9,3 km/h (2 Bft) W 279 ° 0 min 0,000 mm 0,5 UV-I 148 W/m² 3,7 °C 13,3 °C 16,1 km/h (3 Bft)
07.06.2017 19:45 13,3 °C 13,3 °C 52 % 1019,6 hPa 0,0 mm 14,1 km/h (3 Bft) W 273 ° 0 min 0,000 mm 0,5 UV-I 144 W/m² 3,7 °C 13,3 °C 20,9 km/h (4 Bft)
07.06.2017 19:46 13,2 °C 13,3 °C 53 % 1019,6 hPa 0,0 mm 6,4 km/h (2 Bft) W 260 ° 0 min 0,000 mm 0,5 UV-I 141 W/m² 3,8 °C 13,2 °C 11,3 km/h (2 Bft)
07.06.2017 19:47 13,3 °C 13,3 °C 53 % 1019,6 hPa 0,0 mm 14,7 km/h (3 Bft) W 268 ° 0 min 0,000 mm 0,5 UV-I 137 W/m² 3,9 °C 13,3 °C 22,5 km/h (4 Bft)
07.06.2017 19:48 13,2 °C 13,3 °C 53 % 1019,6 hPa 0,0 mm 16,6 km/h (3 Bft) W 268 ° 0 min 0,000 mm 0,5 UV-I 130 W/m² 3,8 °C 13,2 °C 25,7 km/h (4 Bft)
07.06.2017 19:49 13,2 °C 13,2 °C 53 % 1019,6 hPa 0,0 mm 6,4 km/h (2 Bft) W 281 ° 0 min 0,000 mm 0,5 UV-I 130 W/m² 3,8 °C 13,2 °C 9,7 km/h (2 Bft)
07.06.2017 19:50 13,2 °C 13,2 °C 53 % 1019,6 hPa 0,0 mm 8,2 km/h (2 Bft) W 267 ° 0 min 0,000 mm 0,5 UV-I 128 W/m² 3,8 °C 13,2 °C 14,5 km/h (3 Bft)
07.06.2017 19:51 13,2 °C 13,2 °C 54 % 1019,6 hPa 0,0 mm 7,1 km/h (2 Bft) W-NW 286 ° 0 min 0,000 mm 0,5 UV-I 127 W/m² 4,1 °C 13,2 °C 11,3 km/h (2 Bft)
07.06.2017 19:52 13,2 °C 13,2 °C 54 % 1019,7 hPa 0,0 mm 10,0 km/h (2 Bft) W-SW 239 ° 0 min 0,000 mm 0,0 UV-I 123 W/m² 4,1 °C 13,2 °C 17,7 km/h (3 Bft)
07.06.2017 19:53 13,1 °C 13,2 °C 54 % 1019,6 hPa 0,0 mm 7,4 km/h (2 Bft) W 274 ° 0 min 0,000 mm 0,0 UV-I 121 W/m² 4,0 °C 13,1 °C 12,9 km/h (3 Bft)
07.06.2017 19:54 13,1 °C 13,1 °C 52 % 1019,7 hPa 0,0 mm 7,4 km/h (2 Bft) W-SW 248 ° 0 min 0,000 mm 0,0 UV-I 118 W/m² 3,5 °C 13,1 °C 12,9 km/h (3 Bft)
07.06.2017 19:55 13,1 °C 13,1 °C 52 % 1019,7 hPa 0,0 mm 12,5 km/h (3 Bft) W-SW 255 ° 0 min 0,000 mm 0,0 UV-I 116 W/m² 3,5 °C 13,1 °C 19,3 km/h (3 Bft)
07.06.2017 19:56 13,0 °C 13,1 °C 53 % 1019,7 hPa 0,0 mm 11,4 km/h (2 Bft) W 279 ° 0 min 0,000 mm 0,0 UV-I 116 W/m² 3,6 °C 13,0 °C 19,3 km/h (3 Bft)
07.06.2017 19:57 13,0 °C 13,1 °C 53 % 1019,7 hPa 0,0 mm 16,1 km/h (3 Bft) W 273 ° 0 min 0,000 mm 0,0 UV-I 114 W/m² 3,6 °C 13,0 °C 20,9 km/h (4 Bft)
07.06.2017 19:58 13,0 °C 13,1 °C 54 % 1019,7 hPa 0,0 mm 15,6 km/h (3 Bft) W 264 ° 0 min 0,000 mm 0,0 UV-I 114 W/m² 3,9 °C 13,0 °C 20,9 km/h (4 Bft)
07.06.2017 19:59 12,9 °C 13,0 °C 53 % 1019,7 hPa 0,0 mm 13,0 km/h (3 Bft) W-NW 286 ° 0 min 0,000 mm 0,0 UV-I 114 W/m² 3,6 °C 12,9 °C 17,7 km/h (3 Bft)
07.06.2017 20:00 12,9 °C 13,0 °C 52 % 1019,8 hPa 0,0 mm 13,6 km/h (3 Bft) W 275 ° 0 min 0,000 mm 0,0 UV-I 113 W/m² 3,3 °C 12,9 °C 20,9 km/h (4 Bft)
07.06.2017 20:01 12,9 °C 13,0 °C 53 % 1019,8 hPa 0,0 mm 8,3 km/h (2 Bft) W-NW 294 ° 0 min 0,152 mm 0,0 UV-I 113 W/m² 3,6 °C 12,9 °C 12,9 km/h (3 Bft)
07.06.2017 20:02 13,0 °C 13,0 °C 53 % 1019,7 hPa 0,0 mm 7,1 km/h (2 Bft) W 263 ° 0 min 0,000 mm 0,0 UV-I 113 W/m² 3,6 °C 13,0 °C 11,3 km/h (2 Bft)
07.06.2017 20:03 12,9 °C 13,0 °C 54 % 1019,8 hPa 0,0 mm 8,6 km/h (2 Bft) W-NW 292 ° 0 min 0,000 mm 0,0 UV-I 111 W/m² 3,8 °C 12,9 °C 14,5 km/h (3 Bft)
07.06.2017 20:04 12,9 °C 12,9 °C 55 % 1019,8 hPa 0,0 mm 5,9 km/h (2 Bft) W 276 ° 0 min 0,000 mm 0,0 UV-I 111 W/m² 4,1 °C 12,9 °C 9,7 km/h (2 Bft)
07.06.2017 20:05 12,9 °C 12,9 °C 55 % 1019,8 hPa 0,0 mm 12,3 km/h (3 Bft) W-SW 253 ° 0 min 0,000 mm 0,0 UV-I 102 W/m² 4,1 °C 12,9 °C 22,5 km/h (4 Bft)
07.06.2017 20:06 12,9 °C 12,9 °C 54 % 1019,8 hPa 0,0 mm 9,5 km/h (2 Bft) W 275 ° 0 min 0,000 mm 0,0 UV-I 95 W/m² 3,8 °C 12,9 °C 12,9 km/h (3 Bft)
07.06.2017 20:07 12,9 °C 12,9 °C 55 % 1019,8 hPa 0,0 mm 9,6 km/h (2 Bft) W 269 ° 0 min 0,000 mm 0,0 UV-I 90 W/m² 4,1 °C 12,9 °C 16,1 km/h (3 Bft)
07.06.2017 20:08 12,9 °C 12,9 °C 54 % 1019,9 hPa 0,0 mm 9,3 km/h (2 Bft) NW 321 ° 0 min 0,000 mm 0,0 UV-I 86 W/m² 3,8 °C 12,9 °C 16,1 km/h (3 Bft)
07.06.2017 20:09 12,9 °C 12,9 °C 55 % 1019,9 hPa 0,0 mm 4,9 km/h (1 Bft) W-NW 290 ° 0 min 0,000 mm 0,0 UV-I 84 W/m² 4,1 °C 12,9 °C 9,7 km/h (2 Bft)
07.06.2017 20:10 12,8 °C 12,9 °C 55 % 1019,9 hPa 0,0 mm 7,1 km/h (2 Bft) W-NW 287 ° 0 min 0,000 mm 0,0 UV-I 81 W/m² 4,0 °C 12,8 °C 11,3 km/h (2 Bft)
07.06.2017 20:11 12,8 °C 12,9 °C 57 % 1020,0 hPa 0,0 mm 4,4 km/h (1 Bft) W-NW 282 ° 0 min 0,000 mm 0,0 UV-I 77 W/m² 4,5 °C 12,8 °C 11,3 km/h (2 Bft)
07.06.2017 20:12 12,8 °C 12,8 °C 55 % 1020,0 hPa 0,0 mm 7,6 km/h (2 Bft) W 272 ° 0 min 0,000 mm 0,0 UV-I 77 W/m² 4,0 °C 12,8 °C 16,1 km/h (3 Bft)
07.06.2017 20:13 12,7 °C 12,8 °C 54 % 1019,9 hPa 0,0 mm 11,1 km/h (2 Bft) W-SW 257 ° 0 min 0,000 mm 0,0 UV-I 76 W/m² 3,6 °C 12,7 °C 14,5 km/h (3 Bft)
07.06.2017 20:14 12,7 °C 12,8 °C 56 % 1020,0 hPa 0,0 mm 7,7 km/h (2 Bft) W-NW 286 ° 0 min 0,000 mm 0,0 UV-I 72 W/m² 4,2 °C 12,7 °C 12,9 km/h (3 Bft)
07.06.2017 20:15 12,7 °C 12,7 °C 55 % 1019,9 hPa 0,0 mm 9,1 km/h (2 Bft) W 260 ° 0 min 0,000 mm 0,0 UV-I 69 W/m² 3,9 °C 12,7 °C 16,1 km/h (3 Bft)
07.06.2017 20:16 12,6 °C 12,7 °C 56 % 1020,0 hPa 0,0 mm 12,1 km/h (2 Bft) W-NW 300 ° 0 min 0,000 mm 0,0 UV-I 65 W/m² 4,1 °C 12,6 °C 19,3 km/h (3 Bft)
07.06.2017 20:17 12,6 °C 12,6 °C 55 % 1019,9 hPa 0,0 mm 8,5 km/h (2 Bft) W-NW 298 ° 0 min 0,000 mm 0,0 UV-I 62 W/m² 3,8 °C 12,6 °C 19,3 km/h (3 Bft)
07.06.2017 20:18 12,6 °C 12,6 °C 57 % 1020,0 hPa 0,0 mm 5,9 km/h (2 Bft) NW 304 ° 0 min 0,000 mm 0,0 UV-I 60 W/m² 4,3 °C 12,6 °C 12,9 km/h (3 Bft)
07.06.2017 20:19 12,5 °C 12,6 °C 57 % 1020,0 hPa 0,0 mm 10,7 km/h (2 Bft) W-NW 286 ° 0 min 0,000 mm 0,0 UV-I 58 W/m² 4,2 °C 12,5 °C 12,9 km/h (3 Bft)
07.06.2017 20:20 12,4 °C 12,5 °C 57 % 1020,0 hPa 0,0 mm 6,4 km/h (2 Bft) W-SW 254 ° 0 min 0,000 mm 0,0 UV-I 56 W/m² 4,1 °C 12,4 °C 9,7 km/h (2 Bft)
07.06.2017 20:21 12,3 °C 12,4 °C 58 % 1020,0 hPa 0,0 mm 11,1 km/h (2 Bft) W 268 ° 0 min 0,000 mm 0,0 UV-I 54 W/m² 4,3 °C 12,3 °C 16,1 km/h (3 Bft)
07.06.2017 20:22 12,3 °C 12,3 °C 57 % 1019,9 hPa 0,0 mm 10,7 km/h (2 Bft) W 271 ° 0 min 0,000 mm 0,0 UV-I 53 W/m² 4,0 °C 12,3 °C 19,3 km/h (3 Bft)
07.06.2017 20:23 12,2 °C 12,3 °C 57 % 1020,0 hPa 0,0 mm 7,7 km/h (2 Bft) W 272 ° 0 min 0,000 mm 0,0 UV-I 49 W/m² 3,9 °C 12,2 °C 12,9 km/h (3 Bft)
07.06.2017 20:24 12,2 °C 12,2 °C 57 % 1020,0 hPa 0,0 mm 11,9 km/h (2 Bft) W 263 ° 0 min 0,000 mm 0,0 UV-I 47 W/m² 3,9 °C 12,2 °C 16,1 km/h (3 Bft)
07.06.2017 20:25 12,2 °C 12,2 °C 57 % 1020,0 hPa 0,0 mm 9,4 km/h (2 Bft) W-NW 294 ° 0 min 0,000 mm 0,0 UV-I 46 W/m² 3,9 °C 12,2 °C 16,1 km/h (3 Bft)
07.06.2017 20:26 12,2 °C 12,2 °C 57 % 1020,0 hPa 0,0 mm 12,0 km/h (2 Bft) W-NW 288 ° 0 min 0,000 mm 0,0 UV-I 44 W/m² 3,9 °C 12,2 °C 16,1 km/h (3 Bft)
07.06.2017 20:27 12,2 °C 12,2 °C 57 % 1020,1 hPa 0,0 mm 8,7 km/h (2 Bft) W 259 ° 0 min 0,000 mm 0,0 UV-I 42 W/m² 3,9 °C 12,2 °C 11,3 km/h (2 Bft)
07.06.2017 20:28 12,2 °C 12,2 °C 58 % 1020,1 hPa 0,0 mm 11,1 km/h (2 Bft) W-SW 252 ° 0 min 0,000 mm 0,0 UV-I 39 W/m² 4,2 °C 12,2 °C 16,1 km/h (3 Bft)
07.06.2017 20:29 12,1 °C 12,2 °C 59 % 1020,0 hPa 0,0 mm 7,1 km/h (2 Bft) W 280 ° 0 min 0,000 mm 0,0 UV-I 23 W/m² 4,3 °C 12,1 °C 11,3 km/h (2 Bft)
07.06.2017 20:30 12,1 °C 12,1 °C 58 % 1020,1 hPa 0,0 mm 4,6 km/h (1 Bft) W 267 ° 0 min 0,000 mm 0,0 UV-I 25 W/m² 4,1 °C 12,1 °C 6,4 km/h (2 Bft)
07.06.2017 20:31 11,9 °C 12,1 °C 59 % 1020,1 hPa 0,0 mm 5,7 km/h (1 Bft) W 267 ° 0 min 0,000 mm 0,0 UV-I 28 W/m² 4,1 °C 11,9 °C 9,7 km/h (2 Bft)
07.06.2017 20:32 11,9 °C 11,9 °C 59 % 1020,1 hPa 0,0 mm 4,8 km/h (1 Bft) W-SW 250 ° 0 min 0,000 mm 0,0 UV-I 32 W/m² 4,1 °C 11,9 °C 9,7 km/h (2 Bft)
07.06.2017 20:33 11,8 °C 11,9 °C 60 % 1020,1 hPa 0,0 mm 7,2 km/h (2 Bft) W-SW 254 ° 0 min 0,000 mm 0,0 UV-I 32 W/m² 4,3 °C 11,8 °C 12,9 km/h (3 Bft)
07.06.2017 20:34 11,7 °C 11,8 °C 62 % 1020,1 hPa 0,0 mm 5,8 km/h (2 Bft) W 262 ° 0 min 0,000 mm 0,0 UV-I 30 W/m² 4,7 °C 11,7 °C 11,3 km/h (2 Bft)
07.06.2017 20:35 11,6 °C 11,7 °C 60 % 1020,2 hPa 0,0 mm 4,3 km/h (1 Bft) W-SW 252 ° 0 min 0,000 mm 0,0 UV-I 23 W/m² 4,1 °C 11,6 °C 6,4 km/h (2 Bft)
07.06.2017 20:36 11,5 °C 11,6 °C 60 % 1020,1 hPa 0,0 mm 3,6 km/h (1 Bft) W-NW 289 ° 0 min 0,000 mm 0,0 UV-I 21 W/m² 4,0 °C 11,5 °C 4,8 km/h (1 Bft)
07.06.2017 20:37 11,4 °C 11,5 °C 61 % 1020,2 hPa 0,0 mm 3,4 km/h (1 Bft) W 279 ° 0 min 0,000 mm 0,0 UV-I 21 W/m² 4,2 °C 11,4 °C 6,4 km/h (2 Bft)
07.06.2017 20:38 11,4 °C 11,4 °C 61 % 1020,2 hPa 0,0 mm 4,0 km/h (1 Bft) W-NW 287 ° 0 min 0,000 mm 0,0 UV-I 21 W/m² 4,2 °C 11,4 °C 4,8 km/h (1 Bft)
07.06.2017 20:39 11,4 °C 11,4 °C 61 % 1020,3 hPa 0,0 mm 4,2 km/h (1 Bft) W-SW 248 ° 0 min 0,000 mm 0,0 UV-I 21 W/m² 4,2 °C 11,4 °C 6,4 km/h (2 Bft)
07.06.2017 20:40 11,4 °C 11,4 °C 61 % 1020,3 hPa 0,0 mm 2,4 km/h (1 Bft) W-SW 250 ° 0 min 0,000 mm 0,0 UV-I 19 W/m² 4,2 °C 11,4 °C 4,8 km/h (1 Bft)
07.06.2017 20:41 11,3 °C 11,4 °C 61 % 1020,2 hPa 0,0 mm 1,1 km/h (1 Bft) W-SW 250 ° 0 min 0,000 mm 0,0 UV-I 19 W/m² 4,1 °C 11,3 °C 3,2 km/h (1 Bft)
07.06.2017 20:42 11,3 °C 11,4 °C 61 % 1020,3 hPa 0,0 mm 1,5 km/h (1 Bft) W-SW 250 ° 0 min 0,000 mm 0,0 UV-I 19 W/m² 4,1 °C 11,3 °C 3,2 km/h (1 Bft)
07.06.2017 20:43 11,3 °C 11,3 °C 61 % 1020,3 hPa 0,0 mm 1,8 km/h (1 Bft) W-SW 249 ° 0 min 0,000 mm 0,0 UV-I 18 W/m² 4,1 °C 11,3 °C 3,2 km/h (1 Bft)
07.06.2017 20:44 11,3 °C 11,3 °C 61 % 1020,3 hPa 0,0 mm 3,1 km/h (1 Bft) W-SW 238 ° 0 min 0,000 mm 0,0 UV-I 18 W/m² 4,1 °C 11,3 °C 4,8 km/h (1 Bft)
07.06.2017 20:45 11,3 °C 11,3 °C 61 % 1020,3 hPa 0,0 mm 1,0 km/h (0 Bft) W-SW 238 ° 0 min 0,000 mm 0,0 UV-I 18 W/m² 4,1 °C 11,3 °C 3,2 km/h (1 Bft)
07.06.2017 20:46 11,3 °C 11,3 °C 61 % 1020,3 hPa 0,0 mm 0,4 km/h (0 Bft) W-SW 240 ° 0 min 0,000 mm 0,0 UV-I 18 W/m² 4,1 °C 11,3 °C 3,2 km/h (1 Bft)
07.06.2017 20:47 11,3 °C 11,3 °C 61 % 1020,3 hPa 0,0 mm 2,8 km/h (1 Bft) W-SW 240 ° 0 min 0,000 mm 0,0 UV-I 16 W/m² 4,1 °C 11,3 °C 4,8 km/h (1 Bft)
07.06.2017 20:48 11,3 °C 11,3 °C 61 % 1020,3 hPa 0,0 mm 0,8 km/h (0 Bft) W-SW 240 ° 0 min 0,000 mm 0,0 UV-I 16 W/m² 4,1 °C 11,3 °C 3,2 km/h (1 Bft)
07.06.2017 20:49 11,2 °C 11,3 °C 62 % 1020,3 hPa 0,0 mm 2,2 km/h (1 Bft) W-SW 242 ° 0 min 0,000 mm 0,0 UV-I 16 W/m² 4,2 °C 11,2 °C 4,8 km/h (1 Bft)
07.06.2017 20:50 11,2 °C 11,2 °C 62 % 1020,3 hPa 0,0 mm 4,5 km/h (1 Bft) W 263 ° 0 min 0,000 mm 0,0 UV-I 16 W/m² 4,2 °C 11,2 °C 6,4 km/h (2 Bft)
07.06.2017 20:51 11,2 °C 11,2 °C 62 % 1020,3 hPa 0,0 mm 1,4 km/h (1 Bft) W 263 ° 0 min 0,000 mm 0,0 UV-I 16 W/m² 4,2 °C 11,2 °C 4,8 km/h (1 Bft)
07.06.2017 20:52 11,1 °C 11,2 °C 62 % 1020,3 hPa 0,0 mm 1,7 km/h (1 Bft) W 263 ° 0 min 0,000 mm 0,0 UV-I 14 W/m² 4,1 °C 11,1 °C 3,2 km/h (1 Bft)
07.06.2017 20:53 11,1 °C 11,1 °C 62 % 1020,3 hPa 0,0 mm 2,0 km/h (1 Bft) W-SW 256 ° 0 min 0,000 mm 0,0 UV-I 12 W/m² 4,1 °C 11,1 °C 4,8 km/h (1 Bft)
07.06.2017 20:54 11,1 °C 11,1 °C 62 % 1020,2 hPa 0,0 mm 2,0 km/h (1 Bft) W-SW 255 ° 0 min 0,000 mm 0,0 UV-I 12 W/m² 4,1 °C 11,1 °C 3,2 km/h (1 Bft)
07.06.2017 20:55 11,0 °C 11,1 °C 62 % 1020,2 hPa 0,0 mm 0,9 km/h (0 Bft) W-SW 255 ° 0 min 0,000 mm 0,0 UV-I 12 W/m² 4,0 °C 11,0 °C 3,2 km/h (1 Bft)
07.06.2017 20:56 11,0 °C 11,0 °C 62 % 1020,2 hPa 0,0 mm 1,9 km/h (1 Bft) W 269 ° 0 min 0,000 mm 0,0 UV-I 11 W/m² 4,0 °C 11,0 °C 3,2 km/h (1 Bft)
07.06.2017 20:57 11,0 °C 11,0 °C 63 % 1020,3 hPa 0,0 mm 0,7 km/h (0 Bft) W 268 ° 0 min 0,000 mm 0,0 UV-I 11 W/m² 4,2 °C 11,0 °C 1,6 km/h (1 Bft)
07.06.2017 20:58 10,9 °C 11,0 °C 63 % 1020,3 hPa 0,0 mm 0,7 km/h (0 Bft) W 268 ° 0 min 0,000 mm 0,0 UV-I 9 W/m² 4,1 °C 10,9 °C 1,6 km/h (1 Bft)
07.06.2017 20:59 10,9 °C 10,9 °C 62 % 1020,2 hPa 0,0 mm 1,3 km/h (1 Bft) W 268 ° 0 min 0,000 mm 0,0 UV-I 9 W/m² 3,9 °C 10,9 °C 3,2 km/h (1 Bft)
07.06.2017 21:00 10,9 °C 10,9 °C 63 % 1020,3 hPa 0,0 mm 2,7 km/h (1 Bft) W 259 ° 0 min 0,000 mm 0,0 UV-I 7 W/m² 4,1 °C 10,9 °C 4,8 km/h (1 Bft)
07.06.2017 21:01 10,8 °C 10,9 °C 64 % 1020,3 hPa 0,0 mm 0,5 km/h (0 Bft) W 259 ° 0 min 0,051 mm 0,0 UV-I 7 W/m² 4,3 °C 10,8 °C 1,6 km/h (1 Bft)
07.06.2017 21:02 10,8 °C 10,8 °C 64 % 1020,3 hPa 0,0 mm 1,1 km/h (1 Bft) W 259 ° 0 min 0,000 mm 0,0 UV-I 7 W/m² 4,3 °C 10,8 °C 3,2 km/h (1 Bft)
07.06.2017 21:03 10,7 °C 10,8 °C 64 % 1020,3 hPa 0,0 mm 1,4 km/h (1 Bft) W 259 ° 0 min 0,000 mm 0,0 UV-I 7 W/m² 4,2 °C 10,7 °C 3,2 km/h (1 Bft)
07.06.2017 21:04 10,7 °C 10,7 °C 64 % 1020,4 hPa 0,0 mm 1,7 km/h (1 Bft) W 259 ° 0 min 0,000 mm 0,0 UV-I 5 W/m² 4,2 °C 10,7 °C 3,2 km/h (1 Bft)
07.06.2017 21:05 10,6 °C 10,7 °C 64 % 1020,3 hPa 0,0 mm 2,5 km/h (1 Bft) W 259 ° 0 min 0,000 mm 0,0 UV-I 5 W/m² 4,1 °C 10,6 °C 3,2 km/h (1 Bft)
07.06.2017 21:06 10,6 °C 10,6 °C 64 % 1020,4 hPa 0,0 mm 2,2 km/h (1 Bft) W-SW 257 ° 0 min 0,000 mm 0,0 UV-I 5 W/m² 4,1 °C 10,6 °C 3,2 km/h (1 Bft)
07.06.2017 21:07 10,6 °C 10,6 °C 63 % 1020,4 hPa 0,0 mm 2,8 km/h (1 Bft) S 186 ° 0 min 0,000 mm 0,0 UV-I 5 W/m² 3,9 °C 10,6 °C 4,8 km/h (1 Bft)
07.06.2017 21:08 10,6 °C 10,6 °C 64 % 1020,4 hPa 0,0 mm 0,9 km/h (0 Bft) S 186 ° 0 min 0,000 mm 0,0 UV-I 5 W/m² 4,1 °C 10,6 °C 3,2 km/h (1 Bft)
07.06.2017 21:09 10,6 °C 10,6 °C 64 % 1020,5 hPa 0,0 mm 0,8 km/h (0 Bft) S 186 ° 0 min 0,000 mm 0,0 UV-I 5 W/m² 4,1 °C 10,6 °C 1,6 km/h (1 Bft)
07.06.2017 21:10 10,5 °C 10,6 °C 64 % 1020,6 hPa 0,0 mm 1,1 km/h (1 Bft) S 188 ° 0 min 0,000 mm 0,0 UV-I 0 W/m² 4,0 °C 10,5 °C 3,2 km/h (1 Bft)
07.06.2017 21:11 10,5 °C 10,5 °C 64 % 1020,6 hPa 0,0 mm 1,1 km/h (1 Bft) S 188 ° 0 min 0,000 mm 0,0 UV-I 0 W/m² 4,0 °C 10,5 °C 3,2 km/h (1 Bft)
07.06.2017 21:12 10,4 °C 10,5 °C 64 % 1020,5 hPa 0,0 mm 1,6 km/h (1 Bft) S 188 ° 0 min 0,000 mm 0,0 UV-I 0 W/m² 3,9 °C 10,4 °C 3,2 km/h (1 Bft)
07.06.2017 21:13 10,4 °C 10,4 °C 64 % 1020,5 hPa 0,0 mm 2,4 km/h (1 Bft) S 188 ° 0 min 0,000 mm 0,0 UV-I 0 W/m² 3,9 °C 10,4 °C 3,2 km/h (1 Bft)
07.06.2017 21:14 10,4 °C 10,4 °C 64 % 1020,6 hPa 0,0 mm 0,0 km/h (0 Bft) S 188 ° 0 min 0,000 mm 0,0 UV-I 0 W/m² 3,9 °C 10,4 °C 0,0 km/h (0 Bft)
07.06.2017 21:15 10,4 °C 10,4 °C 65 % 1020,6 hPa 0,0 mm 0,0 km/h (0 Bft) S 188 ° 0 min 0,000 mm 0,0 UV-I 0 W/m² 4,1 °C 10,4 °C 0,0 km/h (0 Bft)
07.06.2017 21:16 10,3 °C 10,4 °C 65 % 1020,6 hPa 0,0 mm 1,2 km/h (1 Bft) SW 227 ° 0 min 0,000 mm 0,0 UV-I 0 W/m² 4,0 °C 10,3 °C 4,8 km/h (1 Bft)
07.06.2017 21:17 10,4 °C 10,4 °C 64 % 1020,6 hPa 0,0 mm 2,8 km/h (1 Bft) S-SO 157 ° 0 min 0,000 mm 0,0 UV-I 0 W/m² 3,9 °C 10,4 °C 4,8 km/h (1 Bft)
07.06.2017 21:18 10,4 °C 10,4 °C 64 % 1020,6 hPa 0,0 mm 3,1 km/h (1 Bft) W-SW 250 ° 0 min 0,000 mm 0,0 UV-I 0 W/m² 3,9 °C 10,4 °C 8,0 km/h (2 Bft)
07.06.2017 21:19 10,4 °C 10,4 °C 64 % 1020,6 hPa 0,0 mm 3,9 km/h (1 Bft) W-SW 241 ° 0 min 0,000 mm 0,0 UV-I 0 W/m² 3,9 °C 10,4 °C 6,4 km/h (2 Bft)
07.06.2017 21:20 10,4 °C 10,4 °C 65 % 1020,6 hPa 0,0 mm 3,2 km/h (1 Bft) SW 221 ° 0 min 0,000 mm 0,0 UV-I 0 W/m² 4,1 °C 10,4 °C 4,8 km/h (1 Bft)
07.06.2017 21:21 10,3 °C 10,4 °C 65 % 1020,6 hPa 0,0 mm 2,7 km/h (1 Bft) SW 227 ° 0 min 0,000 mm 0,0 UV-I 0 W/m² 4,0 °C 10,3 °C 4,8 km/h (1 Bft)
07.06.2017 21:22 10,3 °C 10,3 °C 65 % 1020,6 hPa 0,0 mm 4,1 km/h (1 Bft) SW 226 ° 0 min 0,000 mm 0,0 UV-I 0 W/m² 4,0 °C 10,3 °C 6,4 km/h (2 Bft)
07.06.2017 21:23 10,3 °C 10,3 °C 65 % 1020,6 hPa 0,0 mm 3,1 km/h (1 Bft) SW 236 ° 0 min 0,000 mm 0,0 UV-I 0 W/m² 4,0 °C 10,3 °C 4,8 km/h (1 Bft)
07.06.2017 21:24 10,3 °C 10,3 °C 65 % 1020,6 hPa 0,0 mm 2,9 km/h (1 Bft) SW 218 ° 0 min 0,000 mm 0,0 UV-I 0 W/m² 4,0 °C 10,3 °C 4,8 km/h (1 Bft)
07.06.2017 21:25 10,2 °C 10,3 °C 65 % 1020,7 hPa 0,0 mm 1,2 km/h (1 Bft) SW 219 ° 0 min 0,000 mm 0,0 UV-I 0 W/m² 3,9 °C 10,2 °C 3,2 km/h (1 Bft)
07.06.2017 21:26 10,2 °C 10,2 °C 65 % 1020,6 hPa 0,0 mm 1,7 km/h (1 Bft) SW 219 ° 0 min 0,000 mm 0,0 UV-I 0 W/m² 3,9 °C 10,2 °C 3,2 km/h (1 Bft)
07.06.2017 21:27 10,1 °C 10,2 °C 66 % 1020,7 hPa 0,0 mm 0,4 km/h (0 Bft) S-SW 193 ° 0 min 0,000 mm 0,0 UV-I 0 W/m² 4,0 °C 10,1 °C 1,6 km/h (1 Bft)
07.06.2017 21:28 10,1 °C 10,1 °C 65 % 1020,7 hPa 0,0 mm 0,5 km/h (0 Bft) S-SW 193 ° 0 min 0,000 mm 0,0 UV-I 0 W/m² 3,8 °C 10,1 °C 1,6 km/h (1 Bft)
07.06.2017 21:29 10,1 °C 10,1 °C 65 % 1020,7 hPa 0,0 mm 1,7 km/h (1 Bft) S-SW 197 ° 0 min 0,000 mm 0,0 UV-I 0 W/m² 3,8 °C 10,1 °C 3,2 km/h (1 Bft)
07.06.2017 21:30 10,1 °C 10,1 °C 65 % 1020,8 hPa 0,0 mm 1,3 km/h (1 Bft) W-SW 254 ° 0 min 0,000 mm 0,0 UV-I 0 W/m² 3,8 °C 10,1 °C 4,8 km/h (1 Bft)
07.06.2017 21:31 10,0 °C 10,1 °C 66 % 1020,8 hPa 0,0 mm 1,8 km/h (1 Bft) W-SW 254 ° 0 min 0,000 mm 0,0 UV-I 0 W/m² 3,9 °C 10,0 °C 3,2 km/h (1 Bft)
07.06.2017 21:32 9,9 °C 10,0 °C 65 % 1020,8 hPa 0,0 mm 0,4 km/h (0 Bft) W-SW 254 ° 0 min 0,000 mm 0,0 UV-I 0 W/m² 3,6 °C 9,9 °C 3,2 km/h (1 Bft)
07.06.2017 21:33 9,9 °C 9,9 °C 65 % 1020,8 hPa 0,0 mm 0,1 km/h (0 Bft) W-SW 254 ° 0 min 0,000 mm 0,0 UV-I 0 W/m² 3,6 °C 9,9 °C 1,6 km/h (1 Bft)
07.06.2017 21:34 9,9 °C 9,9 °C 66 % 1020,8 hPa 0,0 mm 1,1 km/h (1 Bft) W-SW 254 ° 0 min 0,000 mm 0,0 UV-I 0 W/m² 3,9 °C 9,9 °C 1,6 km/h (1 Bft)
07.06.2017 21:35 9,8 °C 9,9 °C 66 % 1020,8 hPa 0,0 mm 1,2 km/h (1 Bft) W-SW 253 ° 0 min 0,000 mm 0,0 UV-I 0 W/m² 3,8 °C 9,8 °C 3,2 km/h (1 Bft)
07.06.2017 21:36 9,8 °C 9,9 °C 66 % 1020,9 hPa 0,0 mm 2,1 km/h (1 Bft) S-SW 196 ° 0 min 0,000 mm 0,0 UV-I 0 W/m² 3,8 °C 9,8 °C 4,8 km/h (1 Bft)
07.06.2017 21:37 9,9 °C 9,9 °C 65 % 1020,9 hPa 0,0 mm 2,4 km/h (1 Bft) S-SW 198 ° 0 min 0,000 mm 0,0 UV-I 0 W/m² 3,6 °C 9,9 °C 4,8 km/h (1 Bft)
07.06.2017 21:38 9,9 °C 9,9 °C 65 % 1021,0 hPa 0,0 mm 1,8 km/h (1 Bft) SW 214 ° 0 min 0,000 mm 0,0 UV-I 0 W/m² 3,6 °C 9,9 °C 4,8 km/h (1 Bft)
07.06.2017 21:39 9,8 °C 9,9 °C 66 % 1021,0 hPa 0,0 mm 2,1 km/h (1 Bft) S-SW 196 ° 0 min 0,000 mm 0,0 UV-I 0 W/m² 3,8 °C 9,8 °C 3,2 km/h (1 Bft)
07.06.2017 21:40 9,9 °C 9,9 °C 66 % 1021,0 hPa 0,0 mm 2,1 km/h (1 Bft) S-SW 196 ° 0 min 0,000 mm 0,0 UV-I 0 W/m² 3,9 °C 9,9 °C 3,2 km/h (1 Bft)
07.06.2017 21:41 9,9 °C 9,9 °C 66 % 1021,1 hPa 0,0 mm 2,1 km/h (1 Bft) S-SW 196 ° 0 min 0,000 mm 0,0 UV-I 0 W/m² 3,9 °C 9,9 °C 3,2 km/h (1 Bft)
07.06.2017 21:42 9,8 °C 9,9 °C 66 % 1021,1 hPa 0,0 mm 1,8 km/h (1 Bft) S-SW 196 ° 0 min 0,000 mm 0,0 UV-I 0 W/m² 3,8 °C 9,8 °C 4,8 km/h (1 Bft)
07.06.2017 21:43 9,9 °C 9,9 °C 66 % 1021,1 hPa 0,0 mm 2,1 km/h (1 Bft) S-SW 196 ° 0 min 0,000 mm 0,0 UV-I 0 W/m² 3,9 °C 9,9 °C 3,2 km/h (1 Bft)
07.06.2017 21:44 9,8 °C 9,9 °C 66 % 1021,1 hPa 0,0 mm 2,3 km/h (1 Bft) S-SW 196 ° 0 min 0,000 mm 0,0 UV-I 0 W/m² 3,8 °C 9,8 °C 4,8 km/h (1 Bft)
07.06.2017 21:45 9,9 °C 9,9 °C 66 % 1021,1 hPa 0,0 mm 3,1 km/h (1 Bft) S-SW 196 ° 0 min 0,000 mm 0,0 UV-I 0 W/m² 3,9 °C 9,9 °C 4,8 km/h (1 Bft)
07.06.2017 21:46 9,9 °C 9,9 °C 66 % 1021,2 hPa 0,0 mm 1,7 km/h (1 Bft) S-SW 196 ° 0 min 0,000 mm 0,0 UV-I 0 W/m² 3,9 °C 9,9 °C 3,2 km/h (1 Bft)
07.06.2017 21:47 9,9 °C 9,9 °C 66 % 1021,2 hPa 0,0 mm 1,8 km/h (1 Bft) S-SW 196 ° 0 min 0,000 mm 0,0 UV-I 0 W/m² 3,9 °C 9,9 °C 3,2 km/h (1 Bft)
07.06.2017 21:48 9,9 °C 9,9 °C 66 % 1021,1 hPa 0,0 mm 3,9 km/h (1 Bft) S-SW 196 ° 0 min 0,000 mm 0,0 UV-I 0 W/m² 3,9 °C 9,9 °C 6,4 km/h (2 Bft)
07.06.2017 21:49 9,9 °C 9,9 °C 66 % 1021,2 hPa 0,0 mm 3,0 km/h (1 Bft) S-SW 199 ° 0 min 0,000 mm 0,0 UV-I 0 W/m² 3,9 °C 9,9 °C 6,4 km/h (2 Bft)
07.06.2017 21:50 9,9 °C 9,9 °C 66 % 1021,2 hPa 0,0 mm 3,0 km/h (1 Bft) S-SW 199 ° 0 min 0,000 mm 0,0 UV-I 0 W/m² 3,9 °C 9,9 °C 6,4 km/h (2 Bft)
07.06.2017 21:51 9,9 °C 9,9 °C 66 % 1021,2 hPa 0,0 mm 4,2 km/h (1 Bft) S-SW 211 ° 0 min 0,000 mm 0,0 UV-I 0 W/m² 3,9 °C 9,9 °C 6,4 km/h (2 Bft)
07.06.2017 21:52 9,9 °C 9,9 °C 66 % 1021,2 hPa 0,0 mm 4,9 km/h (1 Bft) S-SW 211 ° 0 min 0,000 mm 0,0 UV-I 0 W/m² 3,9 °C 9,7 °C 8,0 km/h (2 Bft)
07.06.2017 21:53 9,9 °C 9,9 °C 66 % 1021,2 hPa 0,0 mm 3,9 km/h (1 Bft) S 190 ° 0 min 0,000 mm 0,0 UV-I 0 W/m² 3,9 °C 9,9 °C 6,4 km/h (2 Bft)
07.06.2017 21:54 9,9 °C 9,9 °C 66 % 1021,2 hPa 0,0 mm 4,8 km/h (1 Bft) S 191 ° 0 min 0,000 mm 0,0 UV-I 0 W/m² 3,9 °C 9,7 °C 8,0 km/h (2 Bft)
07.06.2017 21:55 9,9 °C 9,9 °C 66 % 1021,2 hPa 0,0 mm 2,7 km/h (1 Bft) SW 234 ° 0 min 0,000 mm 0,0 UV-I 0 W/m² 3,9 °C 9,9 °C 4,8 km/h (1 Bft)
07.06.2017 21:56 9,9 °C 9,9 °C 66 % 1021,1 hPa 0,0 mm 3,2 km/h (1 Bft) S-SW 209 ° 0 min 0,000 mm 0,0 UV-I 0 W/m² 3,9 °C 9,9 °C 4,8 km/h (1 Bft)
07.06.2017 21:57 10,0 °C 10,0 °C 66 % 1021,1 hPa 0,0 mm 5,0 km/h (1 Bft) S-SW 212 ° 0 min 0,000 mm 0,0 UV-I 0 W/m² 3,9 °C 9,8 °C 6,4 km/h (2 Bft)
07.06.2017 21:58 10,0 °C 10,0 °C 66 % 1021,2 hPa 0,0 mm 2,3 km/h (1 Bft) S 190 ° 0 min 0,000 mm 0,0 UV-I 0 W/m² 3,9 °C 10,0 °C 4,8 km/h (1 Bft)
07.06.2017 21:59 10,1 °C 10,1 °C 66 % 1021,2 hPa 0,0 mm 3,6 km/h (1 Bft) S-SW 207 ° 0 min 0,000 mm 0,0 UV-I 0 W/m² 4,0 °C 10,1 °C 4,8 km/h (1 Bft)
07.06.2017 22:00 10,1 °C 10,1 °C 66 % 1021,1 hPa 0,0 mm 1,9 km/h (1 Bft) S-SW 212 ° 0 min 0,000 mm 0,0 UV-I 0 W/m² 4,0 °C 10,1 °C 3,2 km/h (1 Bft)
07.06.2017 22:01 10,1 °C 10,1 °C 65 % 1021,0 hPa 0,0 mm 4,9 km/h (1 Bft) S 186 ° 0 min 0,025 mm 0,0 UV-I 0 W/m² 3,8 °C 10,1 °C 8,0 km/h (2 Bft)
07.06.2017 22:02 10,1 °C 10,1 °C 65 % 1021,0 hPa 0,0 mm 3,4 km/h (1 Bft) S-SW 193 ° 0 min 0,000 mm 0,0 UV-I 0 W/m² 3,8 °C 10,1 °C 6,4 km/h (2 Bft)
07.06.2017 22:03 10,2 °C 10,2 °C 65 % 1021,0 hPa 0,0 mm 6,5 km/h (2 Bft) S-SW 199 ° 0 min 0,000 mm 0,0 UV-I 0 W/m² 3,9 °C 10,2 °C 11,3 km/h (2 Bft)
07.06.2017 22:04 10,2 °C 10,2 °C 65 % 1021,1 hPa 0,0 mm 4,0 km/h (1 Bft) S-SW 210 ° 0 min 0,000 mm 0,0 UV-I 0 W/m² 3,9 °C 10,2 °C 11,3 km/h (2 Bft)
07.06.2017 22:05 10,2 °C 10,2 °C 66 % 1021,2 hPa 0,0 mm 2,7 km/h (1 Bft) S-SW 210 ° 0 min 0,000 mm 0,0 UV-I 0 W/m² 4,1 °C 10,2 °C 4,8 km/h (1 Bft)
07.06.2017 22:06 10,2 °C 10,2 °C 65 % 1021,2 hPa 0,0 mm 2,0 km/h (1 Bft) S-SW 210 ° 0 min 0,000 mm 0,0 UV-I 0 W/m² 3,9 °C 10,2 °C 3,2 km/h (1 Bft)
07.06.2017 22:07 10,2 °C 10,2 °C 65 % 1021,2 hPa 0,0 mm 1,5 km/h (1 Bft) S-SW 210 ° 0 min 0,000 mm 0,0 UV-I 0 W/m² 3,9 °C 10,2 °C 3,2 km/h (1 Bft)
07.06.2017 22:08 10,2 °C 10,2 °C 65 % 1021,2 hPa 0,0 mm 2,8 km/h (1 Bft) S-SW 210 ° 0 min 0,000 mm 0,0 UV-I 0 W/m² 3,9 °C 10,2 °C 4,8 km/h (1 Bft)
07.06.2017 22:09 10,2 °C 10,2 °C 65 % 1021,2 hPa 0,0 mm 2,5 km/h (1 Bft) S-SW 194 ° 0 min 0,000 mm 0,0 UV-I 0 W/m² 3,9 °C 10,2 °C 4,8 km/h (1 Bft)
07.06.2017 22:10 10,1 °C 10,2 °C 66 % 1021,2 hPa 0,0 mm 3,0 km/h (1 Bft) SW 232 ° 0 min 0,000 mm 0,0 UV-I 0 W/m² 4,0 °C 10,1 °C 4,8 km/h (1 Bft)
07.06.2017 22:11 10,1 °C 10,1 °C 65 % 1021,2 hPa 0,0 mm 1,5 km/h (1 Bft) SW 232 ° 0 min 0,000 mm 0,0 UV-I 0 W/m² 3,8 °C 10,1 °C 3,2 km/h (1 Bft)
07.06.2017 22:12 10,1 °C 10,1 °C 65 % 1021,3 hPa 0,0 mm 0,6 km/h (0 Bft) SW 232 ° 0 min 0,000 mm 0,0 UV-I 0 W/m² 3,8 °C 10,1 °C 3,2 km/h (1 Bft)
07.06.2017 22:13 10,1 °C 10,1 °C 66 % 1021,3 hPa 0,0 mm 2,9 km/h (1 Bft) W-SW 238 ° 0 min 0,000 mm 0,0 UV-I 0 W/m² 4,0 °C 10,1 °C 4,8 km/h (1 Bft)
07.06.2017 22:14 10,1 °C 10,1 °C 66 % 1021,3 hPa 0,0 mm 4,6 km/h (1 Bft) SW 230 ° 0 min 0,000 mm 0,0 UV-I 0 W/m² 4,0 °C 10,1 °C 8,0 km/h (2 Bft)
07.06.2017 22:15 10,0 °C 10,1 °C 66 % 1021,3 hPa 0,0 mm 2,1 km/h (1 Bft) SW 219 ° 0 min 0,000 mm 0,0 UV-I 0 W/m² 3,9 °C 10,0 °C 4,8 km/h (1 Bft)
07.06.2017 22:16 10,0 °C 10,0 °C 66 % 1021,3 hPa 0,0 mm 2,3 km/h (1 Bft) W-SW 254 ° 0 min 0,000 mm 0,0 UV-I 0 W/m² 3,9 °C 10,0 °C 8,0 km/h (2 Bft)
07.06.2017 22:17 9,9 °C 10,0 °C 66 % 1021,3 hPa 0,0 mm 1,7 km/h (1 Bft) W-SW 244 ° 0 min 0,000 mm 0,0 UV-I 0 W/m² 3,9 °C 9,9 °C 4,8 km/h (1 Bft)
07.06.2017 22:18 9,9 °C 9,9 °C 66 % 1021,3 hPa 0,0 mm 1,9 km/h (1 Bft) SW 226 ° 0 min 0,000 mm 0,0 UV-I 0 W/m² 3,9 °C 9,9 °C 4,8 km/h (1 Bft)
07.06.2017 22:19 9,9 °C 9,9 °C 66 % 1021,3 hPa 0,0 mm 0,6 km/h (0 Bft) SW 226 ° 0 min 0,000 mm 0,0 UV-I 0 W/m² 3,9 °C 9,9 °C 1,6 km/h (1 Bft)
07.06.2017 22:20 9,9 °C 9,9 °C 66 % 1021,3 hPa 0,0 mm 0,1 km/h (0 Bft) SW 226 ° 0 min 0,000 mm 0,0 UV-I 0 W/m² 3,9 °C 9,9 °C 1,6 km/h (1 Bft)
07.06.2017 22:21 9,9 °C 9,9 °C 67 % 1021,3 hPa 0,0 mm 1,1 km/h (1 Bft) W-SW 248 ° 0 min 0,000 mm 0,0 UV-I 0 W/m² 4,1 °C 9,9 °C 3,2 km/h (1 Bft)
07.06.2017 22:22 9,8 °C 9,9 °C 67 % 1021,3 hPa 0,0 mm 0,1 km/h (0 Bft) W-SW 248 ° 0 min 0,000 mm 0,0 UV-I 0 W/m² 4,0 °C 9,8 °C 1,6 km/h (1 Bft)
07.06.2017 22:23 9,8 °C 9,8 °C 67 % 1021,3 hPa 0,0 mm 0,0 km/h (0 Bft) W-SW 248 ° 0 min 0,000 mm 0,0 UV-I 0 W/m² 4,0 °C 9,8 °C 0,0 km/h (0 Bft)
07.06.2017 22:24 9,8 °C 9,8 °C 67 % 1021,4 hPa 0,0 mm 0,4 km/h (0 Bft) W-SW 248 ° 0 min 0,000 mm 0,0 UV-I 0 W/m² 4,0 °C 9,8 °C 1,6 km/h (1 Bft)
07.06.2017 22:25 9,8 °C 9,8 °C 67 % 1021,4 hPa 0,0 mm 0,4 km/h (0 Bft) W-SW 248 ° 0 min 0,000 mm 0,0 UV-I 0 W/m² 4,0 °C 9,8 °C 1,6 km/h (1 Bft)
07.06.2017 22:26 9,8 °C 9,8 °C 67 % 1021,4 hPa 0,0 mm 3,2 km/h (1 Bft) W-SW 240 ° 0 min 0,000 mm 0,0 UV-I 0 W/m² 4,0 °C 9,8 °C 4,8 km/h (1 Bft)
07.06.2017 22:27 9,8 °C 9,8 °C 67 % 1021,4 hPa 0,0 mm 2,0 km/h (1 Bft) SW 227 ° 0 min 0,000 mm 0,0 UV-I 0 W/m² 4,0 °C 9,8 °C 3,2 km/h (1 Bft)
07.06.2017 22:28 9,8 °C 9,8 °C 67 % 1021,4 hPa 0,0 mm 1,1 km/h (1 Bft) SW 227 ° 0 min 0,000 mm 0,0 UV-I 0 W/m² 4,0 °C 9,8 °C 3,2 km/h (1 Bft)
07.06.2017 22:29 9,8 °C 9,8 °C 67 % 1021,3 hPa 0,0 mm 3,8 km/h (1 Bft) W-NW 286 ° 0 min 0,000 mm 0,0 UV-I 0 W/m² 4,0 °C 9,8 °C 6,4 km/h (2 Bft)
07.06.2017 22:30 9,8 °C 9,8 °C 67 % 1021,4 hPa 0,0 mm 4,1 km/h (1 Bft) S-SW 196 ° 0 min 0,000 mm 0,0 UV-I 0 W/m² 4,0 °C 9,8 °C 6,4 km/h (2 Bft)
07.06.2017 22:31 9,8 °C 9,9 °C 67 % 1021,3 hPa 0,0 mm 4,6 km/h (1 Bft) W-NW 295 ° 0 min 0,000 mm 0,0 UV-I 0 W/m² 4,0 °C 9,7 °C 8,0 km/h (2 Bft)
07.06.2017 22:32 9,9 °C 9,9 °C 67 % 1021,3 hPa 0,0 mm 2,3 km/h (1 Bft) W-NW 295 ° 0 min 0,000 mm 0,0 UV-I 0 W/m² 4,1 °C 9,9 °C 3,2 km/h (1 Bft)
07.06.2017 22:33 9,9 °C 9,9 °C 67 % 1021,3 hPa 0,0 mm 2,1 km/h (1 Bft) S-SW 206 ° 0 min 0,000 mm 0,0 UV-I 0 W/m² 4,1 °C 9,9 °C 4,8 km/h (1 Bft)
07.06.2017 22:34 9,9 °C 9,9 °C 67 % 1021,3 hPa 0,0 mm 2,1 km/h (1 Bft) S-SW 206 ° 0 min 0,000 mm 0,0 UV-I 0 W/m² 4,1 °C 9,9 °C 3,2 km/h (1 Bft)
07.06.2017 22:35 9,9 °C 9,9 °C 67 % 1021,3 hPa 0,0 mm 4,1 km/h (1 Bft) W-SW 237 ° 0 min 0,000 mm 0,0 UV-I 0 W/m² 4,1 °C 9,9 °C 6,4 km/h (2 Bft)
07.06.2017 22:36 9,9 °C 9,9 °C 67 % 1021,3 hPa 0,0 mm 1,4 km/h (1 Bft) SW 225 ° 0 min 0,000 mm 0,0 UV-I 0 W/m² 4,1 °C 9,9 °C 1,6 km/h (1 Bft)
07.06.2017 22:37 9,8 °C 9,9 °C 67 % 1021,4 hPa 0,0 mm 1,1 km/h (1 Bft) SW 225 ° 0 min 0,000 mm 0,0 UV-I 0 W/m² 4,0 °C 9,8 °C 1,6 km/h (1 Bft)
07.06.2017 22:38 9,8 °C 9,8 °C 67 % 1021,4 hPa 0,0 mm 1,9 km/h (1 Bft) SW 232 ° 0 min 0,000 mm 0,0 UV-I 0 W/m² 4,0 °C 9,8 °C 4,8 km/h (1 Bft)
07.06.2017 22:39 9,8 °C 9,8 °C 67 % 1021,4 hPa 0,0 mm 2,5 km/h (1 Bft) S-SW 204 ° 0 min 0,000 mm 0,0 UV-I 0 W/m² 4,0 °C 9,8 °C 4,8 km/h (1 Bft)
07.06.2017 22:40 9,8 °C 9,8 °C 67 % 1021,4 hPa 0,0 mm 3,4 km/h (1 Bft) W-SW 244 ° 0 min 0,000 mm 0,0 UV-I 0 W/m² 4,0 °C 9,8 °C 4,8 km/h (1 Bft)
07.06.2017 22:41 9,8 °C 9,8 °C 67 % 1021,4 hPa 0,0 mm 4,1 km/h (1 Bft) W-SW 242 ° 0 min 0,000 mm 0,0 UV-I 0 W/m² 4,0 °C 9,8 °C 6,4 km/h (2 Bft)
07.06.2017 22:42 9,8 °C 9,8 °C 67 % 1021,4 hPa 0,0 mm 2,6 km/h (1 Bft) S-SW 199 ° 0 min 0,000 mm 0,0 UV-I 0 W/m² 4,0 °C 9,8 °C 4,8 km/h (1 Bft)
07.06.2017 22:43 9,8 °C 9,8 °C 67 % 1021,4 hPa 0,0 mm 5,4 km/h (1 Bft) S 179 ° 0 min 0,000 mm 0,0 UV-I 0 W/m² 4,0 °C 9,4 °C 6,4 km/h (2 Bft)
07.06.2017 22:44 9,9 °C 9,9 °C 67 % 1021,4 hPa 0,0 mm 2,9 km/h (1 Bft) SW 217 ° 0 min 0,000 mm 0,0 UV-I 0 W/m² 4,1 °C 9,9 °C 4,8 km/h (1 Bft)
07.06.2017 22:45 9,9 °C 9,9 °C 67 % 1021,4 hPa 0,0 mm 2,2 km/h (1 Bft) SW 227 ° 0 min 0,000 mm 0,0 UV-I 0 W/m² 4,1 °C 9,9 °C 6,4 km/h (2 Bft)
07.06.2017 22:46 9,8 °C 9,9 °C 67 % 1021,4 hPa 0,0 mm 2,3 km/h (1 Bft) SW 234 ° 0 min 0,000 mm 0,0 UV-I 0 W/m² 4,0 °C 9,8 °C 6,4 km/h (2 Bft)
07.06.2017 22:47 9,9 °C 9,9 °C 67 % 1021,4 hPa 0,0 mm 1,5 km/h (1 Bft) SW 221 ° 0 min 0,000 mm 0,0 UV-I 0 W/m² 4,1 °C 9,9 °C 3,2 km/h (1 Bft)
07.06.2017 22:48 9,8 °C 9,9 °C 68 % 1021,4 hPa 0,0 mm 4,1 km/h (1 Bft) W-SW 252 ° 0 min 0,000 mm 0,0 UV-I 0 W/m² 4,2 °C 9,8 °C 9,7 km/h (2 Bft)
07.06.2017 22:49 9,7 °C 9,8 °C 68 % 1021,5 hPa 0,0 mm 2,6 km/h (1 Bft) S-SW 211 ° 0 min 0,000 mm 0,0 UV-I 0 W/m² 4,1 °C 9,7 °C 4,8 km/h (1 Bft)
07.06.2017 22:50 9,7 °C 9,8 °C 68 % 1021,5 hPa 0,0 mm 3,1 km/h (1 Bft) SW 221 ° 0 min 0,000 mm 0,0 UV-I 0 W/m² 4,1 °C 9,7 °C 4,8 km/h (1 Bft)
07.06.2017 22:51 9,7 °C 9,7 °C 68 % 1021,4 hPa 0,0 mm 1,3 km/h (1 Bft) SW 221 ° 0 min 0,000 mm 0,0 UV-I 0 W/m² 4,1 °C 9,7 °C 1,6 km/h (1 Bft)
07.06.2017 22:52 9,7 °C 9,7 °C 68 % 1021,5 hPa 0,0 mm 3,3 km/h (1 Bft) S-SW 209 ° 0 min 0,000 mm 0,0 UV-I 0 W/m² 4,1 °C 9,7 °C 4,8 km/h (1 Bft)
07.06.2017 22:53 9,7 °C 9,7 °C 68 % 1021,5 hPa 0,0 mm 1,9 km/h (1 Bft) S-SW 208 ° 0 min 0,000 mm 0,0 UV-I 0 W/m² 4,1 °C 9,7 °C 4,8 km/h (1 Bft)
07.06.2017 22:54 9,7 °C 9,7 °C 68 % 1021,5 hPa 0,0 mm 1,9 km/h (1 Bft) S-SW 207 ° 0 min 0,000 mm 0,0 UV-I 0 W/m² 4,1 °C 9,7 °C 3,2 km/h (1 Bft)
07.06.2017 22:55 9,7 °C 9,7 °C 68 % 1021,6 hPa 0,0 mm 2,1 km/h (1 Bft) SW 225 ° 0 min 0,000 mm 0,0 UV-I 0 W/m² 4,1 °C 9,7 °C 3,2 km/h (1 Bft)
07.06.2017 22:56 9,7 °C 9,7 °C 68 % 1021,6 hPa 0,0 mm 1,0 km/h (0 Bft) SW 225 ° 0 min 0,000 mm 0,0 UV-I 0 W/m² 4,1 °C 9,7 °C 3,2 km/h (1 Bft)
07.06.2017 22:57 9,7 °C 9,7 °C 68 % 1021,6 hPa 0,0 mm 0,8 km/h (0 Bft) S 190 ° 0 min 0,000 mm 0,0 UV-I 0 W/m² 4,1 °C 9,7 °C 1,6 km/h (1 Bft)
07.06.2017 22:58 9,6 °C 9,7 °C 68 % 1021,7 hPa 0,0 mm 2,2 km/h (1 Bft) S 191 ° 0 min 0,000 mm 0,0 UV-I 0 W/m² 4,0 °C 9,6 °C 4,8 km/h (1 Bft)
07.06.2017 22:59 9,7 °C 9,7 °C 68 % 1021,7 hPa 0,0 mm 0,4 km/h (0 Bft) S 191 ° 0 min 0,000 mm 0,0 UV-I 0 W/m² 4,1 °C 9,7 °C 1,6 km/h (1 Bft)
07.06.2017 23:00 9,7 °C 9,7 °C 68 % 1021,7 hPa 0,0 mm 3,1 km/h (1 Bft) S 191 ° 0 min 0,000 mm 0,0 UV-I 0 W/m² 4,1 °C 9,7 °C 6,4 km/h (2 Bft)
07.06.2017 23:01 9,7 °C 9,7 °C 68 % 1021,7 hPa 0,0 mm 1,9 km/h (1 Bft) S 191 ° 0 min 0,026 mm 0,0 UV-I 0 W/m² 4,1 °C 9,7 °C 4,8 km/h (1 Bft)
07.06.2017 23:02 9,7 °C 9,7 °C 68 % 1021,8 hPa 0,0 mm 0,9 km/h (0 Bft) S 191 ° 0 min 0,000 mm 0,0 UV-I 0 W/m² 4,1 °C 9,7 °C 1,6 km/h (1 Bft)
07.06.2017 23:03 9,7 °C 9,7 °C 68 % 1021,7 hPa 0,0 mm 1,3 km/h (1 Bft) S 191 ° 0 min 0,000 mm 0,0 UV-I 0 W/m² 4,1 °C 9,7 °C 3,2 km/h (1 Bft)
07.06.2017 23:04 9,7 °C 9,7 °C 68 % 1021,7 hPa 0,0 mm 0,6 km/h (0 Bft) S 191 ° 0 min 0,000 mm 0,0 UV-I 0 W/m² 4,1 °C 9,7 °C 1,6 km/h (1 Bft)
07.06.2017 23:05 9,7 °C 9,7 °C 68 % 1021,7 hPa 0,0 mm 0,7 km/h (0 Bft) S 191 ° 0 min 0,000 mm 0,0 UV-I 0 W/m² 4,1 °C 9,7 °C 3,2 km/h (1 Bft)
07.06.2017 23:06 9,7 °C 9,7 °C 68 % 1021,8 hPa 0,0 mm 2,3 km/h (1 Bft) W-SW 248 ° 0 min 0,000 mm 0,0 UV-I 0 W/m² 4,1 °C 9,7 °C 6,4 km/h (2 Bft)
07.06.2017 23:07 9,8 °C 9,8 °C 68 % 1021,7 hPa 0,0 mm 3,6 km/h (1 Bft) SW 219 ° 0 min 0,000 mm 0,0 UV-I 0 W/m² 4,2 °C 9,8 °C 6,4 km/h (2 Bft)
07.06.2017 23:08 9,8 °C 9,8 °C 68 % 1021,7 hPa 0,0 mm 2,5 km/h (1 Bft) W-SW 254 ° 0 min 0,000 mm 0,0 UV-I 0 W/m² 4,2 °C 9,8 °C 4,8 km/h (1 Bft)
07.06.2017 23:09 9,8 °C 9,8 °C 68 % 1021,7 hPa 0,0 mm 0,2 km/h (0 Bft) W-SW 254 ° 0 min 0,000 mm 0,0 UV-I 0 W/m² 4,2 °C 9,8 °C 1,6 km/h (1 Bft)
07.06.2017 23:10 9,8 °C 9,8 °C 68 % 1021,7 hPa 0,0 mm 0,3 km/h (0 Bft) W-SW 254 ° 0 min 0,000 mm 0,0 UV-I 0 W/m² 4,2 °C 9,8 °C 1,6 km/h (1 Bft)
07.06.2017 23:11 9,8 °C 9,8 °C 68 % 1021,7 hPa 0,0 mm 0,1 km/h (0 Bft) W-SW 254 ° 0 min 0,000 mm 0,0 UV-I 0 W/m² 4,2 °C 9,8 °C 1,6 km/h (1 Bft)
07.06.2017 23:12 9,8 °C 9,8 °C 68 % 1021,7 hPa 0,0 mm 2,3 km/h (1 Bft) S-SW 205 ° 0 min 0,000 mm 0,0 UV-I 0 W/m² 4,2 °C 9,8 °C 4,8 km/h (1 Bft)
07.06.2017 23:13 9,8 °C 9,8 °C 68 % 1021,7 hPa 0,0 mm 0,1 km/h (0 Bft) S-SW 205 ° 0 min 0,000 mm 0,0 UV-I 0 W/m² 4,2 °C 9,8 °C 1,6 km/h (1 Bft)
07.06.2017 23:14 9,8 °C 9,8 °C 68 % 1021,7 hPa 0,0 mm 0,3 km/h (0 Bft) S-SW 205 ° 0 min 0,000 mm 0,0 UV-I 0 W/m² 4,2 °C 9,8 °C 1,6 km/h (1 Bft)
07.06.2017 23:15 9,8 °C 9,8 °C 68 % 1021,7 hPa 0,0 mm 0,0 km/h (0 Bft) S-SW 205 ° 0 min 0,000 mm 0,0 UV-I 0 W/m² 4,2 °C 9,8 °C 0,0 km/h (0 Bft)
07.06.2017 23:16 9,8 °C 9,8 °C 68 % 1021,7 hPa 0,0 mm 0,8 km/h (0 Bft) S-SW 205 ° 0 min 0,000 mm 0,0 UV-I 0 W/m² 4,2 °C 9,8 °C 3,2 km/h (1 Bft)
07.06.2017 23:17 9,8 °C 9,8 °C 68 % 1021,8 hPa 0,0 mm 0,0 km/h (0 Bft) S-SW 205 ° 0 min 0,000 mm 0,0 UV-I 0 W/m² 4,2 °C 9,8 °C 0,0 km/h (0 Bft)
07.06.2017 23:18 9,8 °C 9,8 °C 68 % 1021,8 hPa 0,0 mm 0,1 km/h (0 Bft) S-SW 205 ° 0 min 0,000 mm 0,0 UV-I 0 W/m² 4,2 °C 9,8 °C 1,6 km/h (1 Bft)
07.06.2017 23:19 9,8 °C 9,8 °C 68 % 1021,8 hPa 0,0 mm 2,8 km/h (1 Bft) SW 215 ° 0 min 0,000 mm 0,0 UV-I 0 W/m² 4,2 °C 9,8 °C 6,4 km/h (2 Bft)
07.06.2017 23:20 9,8 °C 9,8 °C 68 % 1021,8 hPa 0,0 mm 2,2 km/h (1 Bft) W 261 ° 0 min 0,000 mm 0,0 UV-I 0 W/m² 4,2 °C 9,8 °C 4,8 km/h (1 Bft)
07.06.2017 23:21 9,9 °C 9,9 °C 68 % 1021,8 hPa 0,0 mm 4,9 km/h (1 Bft) SW 230 ° 0 min 0,000 mm 0,0 UV-I 0 W/m² 4,3 °C 9,7 °C 9,7 km/h (2 Bft)
07.06.2017 23:22 9,9 °C 9,9 °C 68 % 1021,8 hPa 0,0 mm 1,9 km/h (1 Bft) S-SW 200 ° 0 min 0,000 mm 0,0 UV-I 0 W/m² 4,3 °C 9,9 °C 4,8 km/h (1 Bft)
07.06.2017 23:23 9,9 °C 9,9 °C 68 % 1021,8 hPa 0,0 mm 2,7 km/h (1 Bft) S-SW 200 ° 0 min 0,000 mm 0,0 UV-I 0 W/m² 4,3 °C 9,9 °C 4,8 km/h (1 Bft)
07.06.2017 23:24 9,9 °C 9,9 °C 68 % 1021,8 hPa 0,0 mm 1,8 km/h (1 Bft) SW 221 ° 0 min 0,000 mm 0,0 UV-I 0 W/m² 4,3 °C 9,9 °C 3,2 km/h (1 Bft)
07.06.2017 23:25 9,9 °C 9,9 °C 68 % 1021,8 hPa 0,0 mm 2,7 km/h (1 Bft) W-SW 246 ° 0 min 0,000 mm 0,0 UV-I 0 W/m² 4,3 °C 9,9 °C 4,8 km/h (1 Bft)
07.06.2017 23:26 9,9 °C 9,9 °C 68 % 1021,8 hPa 0,0 mm 1,2 km/h (1 Bft) SW 217 ° 0 min 0,000 mm 0,0 UV-I 0 W/m² 4,3 °C 9,9 °C 3,2 km/h (1 Bft)
07.06.2017 23:27 9,8 °C 9,9 °C 68 % 1021,8 hPa 0,0 mm 0,0 km/h (0 Bft) SW 217 ° 0 min 0,000 mm 0,0 UV-I 0 W/m² 4,2 °C 9,8 °C 0,0 km/h (0 Bft)
07.06.2017 23:28 9,8 °C 9,8 °C 68 % 1021,8 hPa 0,0 mm 0,0 km/h (0 Bft) SW 217 ° 0 min 0,000 mm 0,0 UV-I 0 W/m² 4,2 °C 9,8 °C 0,0 km/h (0 Bft)
07.06.2017 23:29 9,8 °C 9,8 °C 68 % 1021,8 hPa 0,0 mm 0,0 km/h (0 Bft) SW 217 ° 0 min 0,000 mm 0,0 UV-I 0 W/m² 4,2 °C 9,8 °C 0,0 km/h (0 Bft)
07.06.2017 23:30 9,8 °C 9,8 °C 68 % 1021,9 hPa 0,0 mm 0,0 km/h (0 Bft) SW 217 ° 0 min 0,000 mm 0,0 UV-I 0 W/m² 4,2 °C 9,8 °C 0,0 km/h (0 Bft)
07.06.2017 23:31 9,8 °C 9,8 °C 68 % 1021,8 hPa 0,0 mm 1,4 km/h (1 Bft) S-SW 198 ° 0 min 0,000 mm 0,0 UV-I 0 W/m² 4,2 °C 9,8 °C 4,8 km/h (1 Bft)
07.06.2017 23:32 9,8 °C 9,8 °C 68 % 1021,8 hPa 0,0 mm 3,4 km/h (1 Bft) W 261 ° 0 min 0,000 mm 0,0 UV-I 0 W/m² 4,2 °C 9,8 °C 4,8 km/h (1 Bft)
07.06.2017 23:33 9,8 °C 9,8 °C 68 % 1021,8 hPa 0,0 mm 1,3 km/h (1 Bft) SW 218 ° 0 min 0,000 mm 0,0 UV-I 0 W/m² 4,2 °C 9,8 °C 3,2 km/h (1 Bft)
07.06.2017 23:34 9,8 °C 9,8 °C 68 % 1021,9 hPa 0,0 mm 2,1 km/h (1 Bft) SW 218 ° 0 min 0,000 mm 0,0 UV-I 0 W/m² 4,2 °C 9,8 °C 3,2 km/h (1 Bft)
07.06.2017 23:35 9,7 °C 9,8 °C 68 % 1021,8 hPa 0,0 mm 3,5 km/h (1 Bft) S-SW 197 ° 0 min 0,000 mm 0,0 UV-I 0 W/m² 4,1 °C 9,7 °C 6,4 km/h (2 Bft)
07.06.2017 23:36 9,7 °C 9,7 °C 68 % 1021,9 hPa 0,0 mm 3,9 km/h (1 Bft) S 184 ° 0 min 0,000 mm 0,0 UV-I 0 W/m² 4,1 °C 9,7 °C 4,8 km/h (1 Bft)
07.06.2017 23:37 9,6 °C 9,7 °C 68 % 1021,9 hPa 0,0 mm 2,1 km/h (1 Bft) S 184 ° 0 min 0,000 mm 0,0 UV-I 0 W/m² 4,0 °C 9,6 °C 4,8 km/h (1 Bft)
07.06.2017 23:38 9,7 °C 9,7 °C 68 % 1021,9 hPa 0,0 mm 2,3 km/h (1 Bft) S 184 ° 0 min 0,000 mm 0,0 UV-I 0 W/m² 4,1 °C 9,7 °C 3,2 km/h (1 Bft)
07.06.2017 23:39 9,7 °C 9,7 °C 68 % 1021,9 hPa 0,0 mm 1,5 km/h (1 Bft) S 184 ° 0 min 0,000 mm 0,0 UV-I 0 W/m² 4,1 °C 9,7 °C 3,2 km/h (1 Bft)
07.06.2017 23:40 9,7 °C 9,7 °C 68 % 1021,9 hPa 0,0 mm 2,5 km/h (1 Bft) S-SW 209 ° 0 min 0,000 mm 0,0 UV-I 0 W/m² 4,1 °C 9,7 °C 4,8 km/h (1 Bft)
07.06.2017 23:41 9,7 °C 9,7 °C 68 % 1021,9 hPa 0,0 mm 3,4 km/h (1 Bft) S-SW 193 ° 0 min 0,000 mm 0,0 UV-I 0 W/m² 4,1 °C 9,7 °C 6,4 km/h (2 Bft)
07.06.2017 23:42 9,7 °C 9,7 °C 68 % 1021,9 hPa 0,0 mm 4,1 km/h (1 Bft) S 190 ° 0 min 0,000 mm 0,0 UV-I 0 W/m² 4,1 °C 9,7 °C 6,4 km/h (2 Bft)
07.06.2017 23:43 9,7 °C 9,7 °C 68 % 1021,9 hPa 0,0 mm 3,9 km/h (1 Bft) W-SW 242 ° 0 min 0,000 mm 0,0 UV-I 0 W/m² 4,1 °C 9,7 °C 6,4 km/h (2 Bft)
07.06.2017 23:44 9,7 °C 9,7 °C 68 % 1021,9 hPa 0,0 mm 1,4 km/h (1 Bft) SW 236 ° 0 min 0,000 mm 0,0 UV-I 0 W/m² 4,1 °C 9,7 °C 3,2 km/h (1 Bft)
07.06.2017 23:45 9,7 °C 9,7 °C 68 % 1021,9 hPa 0,0 mm 1,4 km/h (1 Bft) SW 217 ° 0 min 0,000 mm 0,0 UV-I 0 W/m² 4,1 °C 9,7 °C 3,2 km/h (1 Bft)
07.06.2017 23:46 9,7 °C 9,7 °C 68 % 1021,9 hPa 0,0 mm 2,5 km/h (1 Bft) S-SW 198 ° 0 min 0,000 mm 0,0 UV-I 0 W/m² 4,1 °C 9,7 °C 6,4 km/h (2 Bft)
07.06.2017 23:47 9,7 °C 9,7 °C 68 % 1021,9 hPa 0,0 mm 2,3 km/h (1 Bft) S-SW 198 ° 0 min 0,000 mm 0,0 UV-I 0 W/m² 4,1 °C 9,7 °C 4,8 km/h (1 Bft)
07.06.2017 23:48 9,7 °C 9,7 °C 68 % 1021,9 hPa 0,0 mm 2,1 km/h (1 Bft) S-SW 198 ° 0 min 0,000 mm 0,0 UV-I 0 W/m² 4,1 °C 9,7 °C 4,8 km/h (1 Bft)
07.06.2017 23:49 9,7 °C 9,7 °C 67 % 1021,9 hPa 0,0 mm 2,1 km/h (1 Bft) S 190 ° 0 min 0,000 mm 0,0 UV-I 0 W/m² 3,9 °C 9,7 °C 6,4 km/h (2 Bft)
07.06.2017 23:50 9,7 °C 9,7 °C 69 % 1021,9 hPa 0,0 mm 2,7 km/h (1 Bft) S 183 ° 0 min 0,000 mm 0,0 UV-I 0 W/m² 4,3 °C 9,7 °C 4,8 km/h (1 Bft)
07.06.2017 23:51 9,7 °C 9,7 °C 68 % 1021,9 hPa 0,0 mm 4,4 km/h (1 Bft) S 191 ° 0 min 0,000 mm 0,0 UV-I 0 W/m² 4,1 °C 9,7 °C 6,4 km/h (2 Bft)
07.06.2017 23:52 9,7 °C 9,7 °C 68 % 1021,9 hPa 0,0 mm 5,8 km/h (2 Bft) S-SW 194 ° 0 min 0,000 mm 0,0 UV-I 0 W/m² 4,1 °C 9,2 °C 9,7 km/h (2 Bft)
07.06.2017 23:53 9,6 °C 9,7 °C 68 % 1021,9 hPa 0,0 mm 5,0 km/h (1 Bft) S 185 ° 0 min 0,000 mm 0,0 UV-I 0 W/m² 4,0 °C 9,3 °C 8,0 km/h (2 Bft)
07.06.2017 23:54 9,6 °C 9,6 °C 69 % 1021,9 hPa 0,0 mm 1,9 km/h (1 Bft) S 185 ° 0 min 0,000 mm 0,0 UV-I 0 W/m² 4,2 °C 9,6 °C 4,8 km/h (1 Bft)
07.06.2017 23:55 9,4 °C 9,6 °C 71 % 1021,9 hPa 0,0 mm 2,7 km/h (1 Bft) S 175 ° 0 min 0,000 mm 0,0 UV-I 0 W/m² 4,4 °C 9,4 °C 6,4 km/h (2 Bft)
07.06.2017 23:56 9,3 °C 9,4 °C 71 % 1021,9 hPa 0,0 mm 2,6 km/h (1 Bft) S 175 ° 0 min 0,000 mm 0,0 UV-I 0 W/m² 4,3 °C 9,3 °C 4,8 km/h (1 Bft)
07.06.2017 23:57 9,2 °C 9,3 °C 71 % 1021,9 hPa 0,0 mm 0,4 km/h (0 Bft) S 175 ° 0 min 0,000 mm 0,0 UV-I 0 W/m² 4,2 °C 9,2 °C 1,6 km/h (1 Bft)
07.06.2017 23:58 9,1 °C 9,2 °C 73 % 1021,9 hPa 0,0 mm 1,5 km/h (1 Bft) S 175 ° 0 min 0,000 mm 0,0 UV-I 0 W/m² 4,5 °C 9,1 °C 3,2 km/h (1 Bft)
07.06.2017 23:59 9,0 °C 9,1 °C 73 % 1021,9 hPa 0,0 mm 0,8 km/h (0 Bft) S 175 ° 0 min 0,000 mm 0,0 UV-I 0 W/m² 4,4 °C 9,0 °C 3,2 km/h (1 Bft)
_ Min-Zeit 00:37 00:37 14:20 00:23 - 23:30 - - - - - - 19:36 05:44 23:30
Minimum _ 6,0 °C 6,0 °C 49 % 1012,6 hPa - 0,0 km/h (0 Bft) - - - - - - 3,2 °C 4,5 °C 0,0 km/h (0 Bft)
_ Max-Zeit 16:00 16:01 02:39 23:59 11:19 14:19 - - 18:56 15:01 12:46 12:37 13:44 16:00 14:14
Maximum _ 15,1 °C 15,1 °C 91 % 1021,9 hPa 0,2 mm 28,8 km/h
W (4 Bft)
- - 1 min 0,584 mm 7,6 UV-I 1102 W/m² 9,0 °C 15,1 °C 49,9 km/h
W-NW (6 Bft)
Durchschnitt _ 11,1 °C 11,1 °C 70 % 1017,2 hPa #0,4 mm 9,8 km/h (2 Bft) W - #7:27 h #4,369 mm 3,8 UV-I 278 W/m² 5,5 °C 10,8 °C 15,5 km/h (3 Bft)